<?xml version='1.0' encoding='UTF-8'?><gpx version="1.1" creator="JPX - https://github.com/jenetics/jpx" xmlns="http://www.topografix.com/GPX/1/1"><trk><trkseg><trkpt lat="44.4853333" lon="10.9986733"><ele>121.99999999999999</ele><time>2026-04-24T15:25:04.032Z</time></trkpt><trkpt lat="44.4853583" lon="10.9985233"><ele>122.0</ele><time>2026-04-24T15:25:06.032Z</time></trkpt><trkpt lat="44.4853733" lon="10.998435"><ele>122.0</ele><time>2026-04-24T15:25:07.032Z</time></trkpt><trkpt lat="44.4853967" lon="10.9982933"><ele>122.0</ele><time>2026-04-24T15:25:09.031Z</time></trkpt><trkpt lat="44.4854217" lon="10.99819"><ele>121.99999999999999</ele><time>2026-04-24T15:25:11.031Z</time></trkpt><trkpt lat="44.4853633" lon="10.998095"><ele>122.0</ele><time>2026-04-24T15:25:15.032Z</time></trkpt><trkpt lat="44.4853217" lon="10.9980233"><ele>121.99999999999999</ele><time>2026-04-24T15:25:18.032Z</time></trkpt><trkpt lat="44.4852933" lon="10.99792"><ele>122.0</ele><time>2026-04-24T15:25:22.032Z</time></trkpt><trkpt lat="44.48523" lon="10.9978583"><ele>122.0</ele><time>2026-04-24T15:25:25.032Z</time></trkpt><trkpt lat="44.4851267" lon="10.997835"><ele>122.0</ele><time>2026-04-24T15:25:32.032Z</time></trkpt><trkpt lat="44.4850483" lon="10.997815"><ele>121.99999999999999</ele><time>2026-04-24T15:25:33.031Z</time></trkpt><trkpt lat="44.48495" lon="10.9977817"><ele>122.0</ele><time>2026-04-24T15:25:34.032Z</time></trkpt><trkpt lat="44.4848517" lon="10.9977517"><ele>122.0</ele><time>2026-04-24T15:25:35.031Z</time></trkpt><trkpt lat="44.4847317" lon="10.9977083"><ele>122.0</ele><time>2026-04-24T15:25:36.031Z</time></trkpt><trkpt lat="44.4846183" lon="10.9976667"><ele>122.0</ele><time>2026-04-24T15:25:37.032Z</time></trkpt><trkpt lat="44.4845117" lon="10.99763"><ele>122.0</ele><time>2026-04-24T15:25:38.032Z</time></trkpt><trkpt lat="44.4844033" lon="10.9975883"><ele>122.0</ele><time>2026-04-24T15:25:39.032Z</time></trkpt><trkpt lat="44.4842983" lon="10.9975517"><ele>121.99999999999999</ele><time>2026-04-24T15:25:40.032Z</time></trkpt><trkpt lat="44.4841933" lon="10.9975133"><ele>121.99999999999999</ele><time>2026-04-24T15:25:41.032Z</time></trkpt><trkpt lat="44.4840967" lon="10.9974783"><ele>122.0</ele><time>2026-04-24T15:25:42.031Z</time></trkpt><trkpt lat="44.4840067" lon="10.9974533"><ele>122.0</ele><time>2026-04-24T15:25:43.032Z</time></trkpt><trkpt lat="44.483935" lon="10.9974383"><ele>122.0</ele><time>2026-04-24T15:25:44.031Z</time></trkpt><trkpt lat="44.483845" lon="10.9974117"><ele>121.99999999999999</ele><time>2026-04-24T15:25:45.032Z</time></trkpt><trkpt lat="44.4837533" lon="10.99737"><ele>121.99999999999999</ele><time>2026-04-24T15:25:46.031Z</time></trkpt><trkpt lat="44.4836633" lon="10.9973417"><ele>122.0</ele><time>2026-04-24T15:25:47.032Z</time></trkpt><trkpt lat="44.4835667" lon="10.9973183"><ele>122.0</ele><time>2026-04-24T15:25:48.031Z</time></trkpt><trkpt lat="44.483475" lon="10.997285"><ele>122.33333333333333</ele><time>2026-04-24T15:25:49.032Z</time></trkpt><trkpt lat="44.4833817" lon="10.99725"><ele>122.66666666666666</ele><time>2026-04-24T15:25:50.031Z</time></trkpt><trkpt lat="44.4833017" lon="10.997225"><ele>123.0</ele><time>2026-04-24T15:25:51.032Z</time></trkpt><trkpt lat="44.48323" lon="10.997205"><ele>123.33333333333334</ele><time>2026-04-24T15:25:52.032Z</time></trkpt><trkpt lat="44.483165" lon="10.997185"><ele>123.66666666666667</ele><time>2026-04-24T15:25:53.032Z</time></trkpt><trkpt lat="44.4830533" lon="10.9971467"><ele>124.0</ele><time>2026-04-24T15:25:55.032Z</time></trkpt><trkpt lat="44.48299" lon="10.9971233"><ele>123.80000000000001</ele><time>2026-04-24T15:25:56.032Z</time></trkpt><trkpt lat="44.4829017" lon="10.9970867"><ele>123.60000000000001</ele><time>2026-04-24T15:25:58.032Z</time></trkpt><trkpt lat="44.4828133" lon="10.9970683"><ele>123.4</ele><time>2026-04-24T15:26:00.032Z</time></trkpt><trkpt lat="44.4827233" lon="10.9970483"><ele>123.2</ele><time>2026-04-24T15:26:03.032Z</time></trkpt><trkpt lat="44.48262" lon="10.9970033"><ele>123.0</ele><time>2026-04-24T15:26:05.032Z</time></trkpt><trkpt lat="44.4825283" lon="10.9969383"><ele>123.0</ele><time>2026-04-24T15:26:07.031Z</time></trkpt><trkpt lat="44.4824233" lon="10.9968767"><ele>123.00000000000001</ele><time>2026-04-24T15:26:09.031Z</time></trkpt><trkpt lat="44.4823183" lon="10.9967783"><ele>123.00000000000001</ele><time>2026-04-24T15:26:11.031Z</time></trkpt><trkpt lat="44.48226" lon="10.996715"><ele>123.0</ele><time>2026-04-24T15:26:12.032Z</time></trkpt><trkpt lat="44.4822083" lon="10.996645"><ele>123.0</ele><time>2026-04-24T15:26:13.032Z</time></trkpt><trkpt lat="44.48212" lon="10.99651"><ele>123.33333333333333</ele><time>2026-04-24T15:26:15.032Z</time></trkpt><trkpt lat="44.4820633" lon="10.9964483"><ele>123.66666666666666</ele><time>2026-04-24T15:26:16.032Z</time></trkpt><trkpt lat="44.482005" lon="10.9963883"><ele>124.0</ele><time>2026-04-24T15:26:17.031Z</time></trkpt><trkpt lat="44.4819417" lon="10.99631"><ele>124.33333333333333</ele><time>2026-04-24T15:26:18.031Z</time></trkpt><trkpt lat="44.4818783" lon="10.9962433"><ele>124.66666666666666</ele><time>2026-04-24T15:26:19.031Z</time></trkpt><trkpt lat="44.4818133" lon="10.9961767"><ele>125.0</ele><time>2026-04-24T15:26:20.032Z</time></trkpt><trkpt lat="44.4817483" lon="10.996095"><ele>124.99999999999999</ele><time>2026-04-24T15:26:21.032Z</time></trkpt><trkpt lat="44.481685" lon="10.99602"><ele>125.0</ele><time>2026-04-24T15:26:22.032Z</time></trkpt><trkpt lat="44.4816283" lon="10.9959533"><ele>125.0</ele><time>2026-04-24T15:26:23.031Z</time></trkpt><trkpt lat="44.4815533" lon="10.995875"><ele>125.0</ele><time>2026-04-24T15:26:24.031Z</time></trkpt><trkpt lat="44.4814933" lon="10.9957967"><ele>124.99999999999999</ele><time>2026-04-24T15:26:25.032Z</time></trkpt><trkpt lat="44.48143" lon="10.9957117"><ele>125.0</ele><time>2026-04-24T15:26:26.032Z</time></trkpt><trkpt lat="44.4813483" lon="10.9956033"><ele>125.5</ele><time>2026-04-24T15:26:27.032Z</time></trkpt><trkpt lat="44.481265" lon="10.995495"><ele>126.0</ele><time>2026-04-24T15:26:28.032Z</time></trkpt><trkpt lat="44.48118" lon="10.9953883"><ele>126.5</ele><time>2026-04-24T15:26:29.032Z</time></trkpt><trkpt lat="44.4810983" lon="10.9952767"><ele>127.0</ele><time>2026-04-24T15:26:30.031Z</time></trkpt><trkpt lat="44.4810133" lon="10.995175"><ele>127.0</ele><time>2026-04-24T15:26:31.032Z</time></trkpt><trkpt lat="44.4809317" lon="10.9950833"><ele>126.99999999999999</ele><time>2026-04-24T15:26:32.032Z</time></trkpt><trkpt lat="44.480845" lon="10.9949933"><ele>126.99999999999999</ele><time>2026-04-24T15:26:33.032Z</time></trkpt><trkpt lat="44.4807617" lon="10.9949067"><ele>127.0</ele><time>2026-04-24T15:26:34.032Z</time></trkpt><trkpt lat="44.4806833" lon="10.9948067"><ele>127.0</ele><time>2026-04-24T15:26:35.031Z</time></trkpt><trkpt lat="44.4806083" lon="10.99472"><ele>127.6</ele><time>2026-04-24T15:26:36.032Z</time></trkpt><trkpt lat="44.4805317" lon="10.99463"><ele>128.2</ele><time>2026-04-24T15:26:37.031Z</time></trkpt><trkpt lat="44.4804583" lon="10.99454"><ele>128.8</ele><time>2026-04-24T15:26:38.032Z</time></trkpt><trkpt lat="44.480385" lon="10.9944533"><ele>129.4</ele><time>2026-04-24T15:26:39.032Z</time></trkpt><trkpt lat="44.4803083" lon="10.9943633"><ele>130.0</ele><time>2026-04-24T15:26:40.031Z</time></trkpt><trkpt lat="44.480235" lon="10.9942683"><ele>130.16666666666669</ele><time>2026-04-24T15:26:41.031Z</time></trkpt><trkpt lat="44.48016" lon="10.99417"><ele>130.33333333333334</ele><time>2026-04-24T15:26:42.031Z</time></trkpt><trkpt lat="44.4800833" lon="10.9940733"><ele>130.5</ele><time>2026-04-24T15:26:43.032Z</time></trkpt><trkpt lat="44.4800167" lon="10.99398"><ele>130.66666666666666</ele><time>2026-04-24T15:26:44.032Z</time></trkpt><trkpt lat="44.4799583" lon="10.9939017"><ele>130.83333333333331</ele><time>2026-04-24T15:26:45.031Z</time></trkpt><trkpt lat="44.479905" lon="10.9938433"><ele>131.0</ele><time>2026-04-24T15:26:46.031Z</time></trkpt><trkpt lat="44.4798383" lon="10.99376"><ele>131.0</ele><time>2026-04-24T15:26:48.032Z</time></trkpt><trkpt lat="44.4797683" lon="10.9936733"><ele>131.0</ele><time>2026-04-24T15:26:50.032Z</time></trkpt><trkpt lat="44.479695" lon="10.99355"><ele>131.0</ele><time>2026-04-24T15:26:52.031Z</time></trkpt><trkpt lat="44.4796583" lon="10.9934733"><ele>131.0</ele><time>2026-04-24T15:26:53.032Z</time></trkpt><trkpt lat="44.4796067" lon="10.9934067"><ele>131.0</ele><time>2026-04-24T15:26:54.032Z</time></trkpt><trkpt lat="44.4795383" lon="10.99335"><ele>131.0</ele><time>2026-04-24T15:26:55.031Z</time></trkpt><trkpt lat="44.4794767" lon="10.9933033"><ele>131.0</ele><time>2026-04-24T15:26:56.032Z</time></trkpt><trkpt lat="44.4794167" lon="10.9932583"><ele>131.0</ele><time>2026-04-24T15:26:57.032Z</time></trkpt><trkpt lat="44.47936" lon="10.99321"><ele>131.0</ele><time>2026-04-24T15:26:58.032Z</time></trkpt><trkpt lat="44.479305" lon="10.9931567"><ele>131.0</ele><time>2026-04-24T15:26:59.032Z</time></trkpt><trkpt lat="44.4792517" lon="10.993095"><ele>131.0</ele><time>2026-04-24T15:27:00.032Z</time></trkpt><trkpt lat="44.4792083" lon="10.993025"><ele>131.0</ele><time>2026-04-24T15:27:01.031Z</time></trkpt><trkpt lat="44.4791167" lon="10.9929183"><ele>131.0</ele><time>2026-04-24T15:27:03.032Z</time></trkpt><trkpt lat="44.4790617" lon="10.9928517"><ele>131.0</ele><time>2026-04-24T15:27:04.032Z</time></trkpt><trkpt lat="44.4789917" lon="10.99277"><ele>131.0</ele><time>2026-04-24T15:27:05.032Z</time></trkpt><trkpt lat="44.4789117" lon="10.9926883"><ele>131.0</ele><time>2026-04-24T15:27:06.031Z</time></trkpt><trkpt lat="44.478805" lon="10.9925767"><ele>131.0</ele><time>2026-04-24T15:27:07.031Z</time></trkpt><trkpt lat="44.4786767" lon="10.9924083"><ele>131.0</ele><time>2026-04-24T15:27:08.032Z</time></trkpt><trkpt lat="44.47854" lon="10.992225"><ele>131.0</ele><time>2026-04-24T15:27:09.032Z</time></trkpt><trkpt lat="44.4783867" lon="10.9920067"><ele>131.0</ele><time>2026-04-24T15:27:10.031Z</time></trkpt><trkpt lat="44.4782283" lon="10.9917817"><ele>131.5</ele><time>2026-04-24T15:27:11.032Z</time></trkpt><trkpt lat="44.4780483" lon="10.9915617"><ele>132.0</ele><time>2026-04-24T15:27:12.032Z</time></trkpt><trkpt lat="44.4778717" lon="10.991345"><ele>132.5</ele><time>2026-04-24T15:27:13.032Z</time></trkpt><trkpt lat="44.4776917" lon="10.9911267"><ele>133.0</ele><time>2026-04-24T15:27:14.032Z</time></trkpt><trkpt lat="44.4775133" lon="10.9909133"><ele>134.0</ele><time>2026-04-24T15:27:15.032Z</time></trkpt><trkpt lat="44.4773283" lon="10.9906967"><ele>135.0</ele><time>2026-04-24T15:27:16.031Z</time></trkpt><trkpt lat="44.4771467" lon="10.9904767"><ele>135.5</ele><time>2026-04-24T15:27:17.032Z</time></trkpt><trkpt lat="44.476965" lon="10.99026"><ele>136.0</ele><time>2026-04-24T15:27:18.031Z</time></trkpt><trkpt lat="44.4767817" lon="10.9900417"><ele>135.0</ele><time>2026-04-24T15:27:19.032Z</time></trkpt><trkpt lat="44.4765967" lon="10.9898083"><ele>134.0</ele><time>2026-04-24T15:27:20.032Z</time></trkpt><trkpt lat="44.476415" lon="10.98957"><ele>134.0</ele><time>2026-04-24T15:27:21.032Z</time></trkpt><trkpt lat="44.4762283" lon="10.98935"><ele>134.0</ele><time>2026-04-24T15:27:22.032Z</time></trkpt><trkpt lat="44.4760417" lon="10.9891183"><ele>133.5</ele><time>2026-04-24T15:27:23.032Z</time></trkpt><trkpt lat="44.4758533" lon="10.988905"><ele>133.0</ele><time>2026-04-24T15:27:24.032Z</time></trkpt><trkpt lat="44.4756633" lon="10.988675"><ele>133.0</ele><time>2026-04-24T15:27:25.032Z</time></trkpt><trkpt lat="44.4754767" lon="10.9884567"><ele>133.0</ele><time>2026-04-24T15:27:26.032Z</time></trkpt><trkpt lat="44.4753033" lon="10.9882467"><ele>133.33333333333334</ele><time>2026-04-24T15:27:27.032Z</time></trkpt><trkpt lat="44.47514" lon="10.9880583"><ele>133.66666666666666</ele><time>2026-04-24T15:27:28.032Z</time></trkpt><trkpt lat="44.4749967" lon="10.9878883"><ele>134.0</ele><time>2026-04-24T15:27:29.032Z</time></trkpt><trkpt lat="44.4748567" lon="10.9877183"><ele>134.0</ele><time>2026-04-24T15:27:30.032Z</time></trkpt><trkpt lat="44.4747183" lon="10.9875417"><ele>134.0</ele><time>2026-04-24T15:27:31.032Z</time></trkpt><trkpt lat="44.4745883" lon="10.987385"><ele>134.0</ele><time>2026-04-24T15:27:32.032Z</time></trkpt><trkpt lat="44.47447" lon="10.98725"><ele>134.0</ele><time>2026-04-24T15:27:33.032Z</time></trkpt><trkpt lat="44.4743583" lon="10.9871167"><ele>134.0</ele><time>2026-04-24T15:27:34.031Z</time></trkpt><trkpt lat="44.4742533" lon="10.9869883"><ele>134.0</ele><time>2026-04-24T15:27:35.032Z</time></trkpt><trkpt lat="44.47415" lon="10.98687"><ele>134.0</ele><time>2026-04-24T15:27:36.032Z</time></trkpt><trkpt lat="44.4740583" lon="10.9867617"><ele>134.5</ele><time>2026-04-24T15:27:37.032Z</time></trkpt><trkpt lat="44.4739767" lon="10.9866583"><ele>135.0</ele><time>2026-04-24T15:27:38.032Z</time></trkpt><trkpt lat="44.4739067" lon="10.9865667"><ele>135.5</ele><time>2026-04-24T15:27:39.032Z</time></trkpt><trkpt lat="44.4738467" lon="10.9864917"><ele>136.0</ele><time>2026-04-24T15:27:40.032Z</time></trkpt><trkpt lat="44.4737917" lon="10.9864417"><ele>136.5</ele><time>2026-04-24T15:27:41.032Z</time></trkpt><trkpt lat="44.47372" lon="10.9864"><ele>137.0</ele><time>2026-04-24T15:27:43.032Z</time></trkpt><trkpt lat="44.4736417" lon="10.9863517"><ele>136.33333333333331</ele><time>2026-04-24T15:27:47.031Z</time></trkpt><trkpt lat="44.47357" lon="10.9862683"><ele>135.66666666666666</ele><time>2026-04-24T15:27:49.032Z</time></trkpt><trkpt lat="44.4735267" lon="10.986195"><ele>135.0</ele><time>2026-04-24T15:27:50.031Z</time></trkpt><trkpt lat="44.47349" lon="10.9861"><ele>134.33333333333334</ele><time>2026-04-24T15:27:51.032Z</time></trkpt><trkpt lat="44.4734417" lon="10.9859917"><ele>133.66666666666669</ele><time>2026-04-24T15:27:52.032Z</time></trkpt><trkpt lat="44.4733833" lon="10.9858717"><ele>133.0</ele><time>2026-04-24T15:27:53.032Z</time></trkpt><trkpt lat="44.473315" lon="10.985745"><ele>133.0</ele><time>2026-04-24T15:27:54.031Z</time></trkpt><trkpt lat="44.4732483" lon="10.9856067"><ele>133.0</ele><time>2026-04-24T15:27:55.031Z</time></trkpt><trkpt lat="44.47318" lon="10.985455"><ele>133.0</ele><time>2026-04-24T15:27:56.031Z</time></trkpt><trkpt lat="44.4731167" lon="10.98529"><ele>133.0</ele><time>2026-04-24T15:27:57.032Z</time></trkpt><trkpt lat="44.4730567" lon="10.9851083"><ele>134.0</ele><time>2026-04-24T15:27:58.032Z</time></trkpt><trkpt lat="44.473005" lon="10.9849267"><ele>135.0</ele><time>2026-04-24T15:27:59.032Z</time></trkpt><trkpt lat="44.4729567" lon="10.9847367"><ele>136.0</ele><time>2026-04-24T15:28:00.032Z</time></trkpt><trkpt lat="44.4729117" lon="10.98455"><ele>137.0</ele><time>2026-04-24T15:28:01.031Z</time></trkpt><trkpt lat="44.472875" lon="10.98437"><ele>133.33333333333331</ele><time>2026-04-24T15:28:02.032Z</time></trkpt><trkpt lat="44.472825" lon="10.984165"><ele>129.66666666666666</ele><time>2026-04-24T15:28:03.031Z</time></trkpt><trkpt lat="44.4727783" lon="10.9839667"><ele>126.0</ele><time>2026-04-24T15:28:04.031Z</time></trkpt><trkpt lat="44.4727333" lon="10.9837717"><ele>126.0</ele><time>2026-04-24T15:28:05.032Z</time></trkpt><trkpt lat="44.472685" lon="10.9835683"><ele>126.0</ele><time>2026-04-24T15:28:06.032Z</time></trkpt><trkpt lat="44.472635" lon="10.9833867"><ele>126.0</ele><time>2026-04-24T15:28:07.032Z</time></trkpt><trkpt lat="44.47259" lon="10.9831817"><ele>126.0</ele><time>2026-04-24T15:28:08.031Z</time></trkpt><trkpt lat="44.472555" lon="10.983"><ele>127.33333333333334</ele><time>2026-04-24T15:28:09.032Z</time></trkpt><trkpt lat="44.4725067" lon="10.9827867"><ele>128.66666666666669</ele><time>2026-04-24T15:28:10.031Z</time></trkpt><trkpt lat="44.47246" lon="10.98257"><ele>130.0</ele><time>2026-04-24T15:28:11.032Z</time></trkpt><trkpt lat="44.4724133" lon="10.9823783"><ele>130.75</ele><time>2026-04-24T15:28:12.031Z</time></trkpt><trkpt lat="44.4723667" lon="10.9821833"><ele>131.5</ele><time>2026-04-24T15:28:13.031Z</time></trkpt><trkpt lat="44.47232" lon="10.9819967"><ele>132.25</ele><time>2026-04-24T15:28:14.031Z</time></trkpt><trkpt lat="44.4722667" lon="10.981815"><ele>133.0</ele><time>2026-04-24T15:28:15.032Z</time></trkpt><trkpt lat="44.4722167" lon="10.98164"><ele>134.5</ele><time>2026-04-24T15:28:16.032Z</time></trkpt><trkpt lat="44.4721583" lon="10.9814617"><ele>136.0</ele><time>2026-04-24T15:28:17.032Z</time></trkpt><trkpt lat="44.4720917" lon="10.9812917"><ele>137.5</ele><time>2026-04-24T15:28:18.032Z</time></trkpt><trkpt lat="44.4720233" lon="10.9811217"><ele>139.0</ele><time>2026-04-24T15:28:19.032Z</time></trkpt><trkpt lat="44.4719517" lon="10.9809533"><ele>136.5</ele><time>2026-04-24T15:28:20.032Z</time></trkpt><trkpt lat="44.4718883" lon="10.980785"><ele>134.0</ele><time>2026-04-24T15:28:21.031Z</time></trkpt><trkpt lat="44.4718117" lon="10.980615"><ele>131.5</ele><time>2026-04-24T15:28:22.032Z</time></trkpt><trkpt lat="44.4717333" lon="10.980445"><ele>129.0</ele><time>2026-04-24T15:28:23.031Z</time></trkpt><trkpt lat="44.4716583" lon="10.9802683"><ele>129.0</ele><time>2026-04-24T15:28:24.032Z</time></trkpt><trkpt lat="44.4715733" lon="10.980105"><ele>129.0</ele><time>2026-04-24T15:28:25.032Z</time></trkpt><trkpt lat="44.47148" lon="10.9799517"><ele>129.0</ele><time>2026-04-24T15:28:26.031Z</time></trkpt><trkpt lat="44.4713783" lon="10.97979"><ele>129.0</ele><time>2026-04-24T15:28:27.032Z</time></trkpt><trkpt lat="44.4712633" lon="10.9796517"><ele>128.0</ele><time>2026-04-24T15:28:28.031Z</time></trkpt><trkpt lat="44.4711433" lon="10.9795067"><ele>127.0</ele><time>2026-04-24T15:28:29.032Z</time></trkpt><trkpt lat="44.471015" lon="10.97937"><ele>126.0</ele><time>2026-04-24T15:28:30.032Z</time></trkpt><trkpt lat="44.470905" lon="10.9792317"><ele>127.33333333333334</ele><time>2026-04-24T15:28:31.032Z</time></trkpt><trkpt lat="44.4707783" lon="10.979105"><ele>128.66666666666669</ele><time>2026-04-24T15:28:32.032Z</time></trkpt><trkpt lat="44.4706517" lon="10.9789783"><ele>130.0</ele><time>2026-04-24T15:28:33.032Z</time></trkpt><trkpt lat="44.470535" lon="10.9788433"><ele>129.75</ele><time>2026-04-24T15:28:34.031Z</time></trkpt><trkpt lat="44.4704183" lon="10.978715"><ele>129.5</ele><time>2026-04-24T15:28:35.03Z</time></trkpt><trkpt lat="44.4703067" lon="10.97858"><ele>129.25</ele><time>2026-04-24T15:28:36.031Z</time></trkpt><trkpt lat="44.4701917" lon="10.9784417"><ele>129.0</ele><time>2026-04-24T15:28:37.031Z</time></trkpt><trkpt lat="44.4700783" lon="10.9783"><ele>129.0</ele><time>2026-04-24T15:28:38.031Z</time></trkpt><trkpt lat="44.46996" lon="10.97818"><ele>129.0</ele><time>2026-04-24T15:28:39.031Z</time></trkpt><trkpt lat="44.46984" lon="10.9780517"><ele>129.0</ele><time>2026-04-24T15:28:40.03Z</time></trkpt><trkpt lat="44.4697267" lon="10.9779317"><ele>129.0</ele><time>2026-04-24T15:28:41.031Z</time></trkpt><trkpt lat="44.4696167" lon="10.9778017"><ele>128.66666666666666</ele><time>2026-04-24T15:28:42.031Z</time></trkpt><trkpt lat="44.4695017" lon="10.9776667"><ele>128.33333333333331</ele><time>2026-04-24T15:28:43.031Z</time></trkpt><trkpt lat="44.4693817" lon="10.977525"><ele>128.0</ele><time>2026-04-24T15:28:44.031Z</time></trkpt><trkpt lat="44.4692633" lon="10.977395"><ele>128.0</ele><time>2026-04-24T15:28:45.031Z</time></trkpt><trkpt lat="44.4691517" lon="10.9772617"><ele>128.0</ele><time>2026-04-24T15:28:46.031Z</time></trkpt><trkpt lat="44.4690433" lon="10.9771367"><ele>128.0</ele><time>2026-04-24T15:28:47.031Z</time></trkpt><trkpt lat="44.4689433" lon="10.9770183"><ele>128.0</ele><time>2026-04-24T15:28:48.031Z</time></trkpt><trkpt lat="44.4688383" lon="10.9769033"><ele>127.75</ele><time>2026-04-24T15:28:49.031Z</time></trkpt><trkpt lat="44.4687333" lon="10.9767867"><ele>127.5</ele><time>2026-04-24T15:28:50.031Z</time></trkpt><trkpt lat="44.4686217" lon="10.9766717"><ele>127.25</ele><time>2026-04-24T15:28:51.031Z</time></trkpt><trkpt lat="44.4685267" lon="10.97657"><ele>127.0</ele><time>2026-04-24T15:28:52.031Z</time></trkpt><trkpt lat="44.4684517" lon="10.9764833"><ele>127.5</ele><time>2026-04-24T15:28:53.03Z</time></trkpt><trkpt lat="44.468365" lon="10.976405"><ele>128.0</ele><time>2026-04-24T15:28:54.031Z</time></trkpt><trkpt lat="44.4682733" lon="10.9763267"><ele>128.5</ele><time>2026-04-24T15:28:55.031Z</time></trkpt><trkpt lat="44.4681733" lon="10.9762483"><ele>129.0</ele><time>2026-04-24T15:28:56.031Z</time></trkpt><trkpt lat="44.46806" lon="10.9761667"><ele>128.5</ele><time>2026-04-24T15:28:57.031Z</time></trkpt><trkpt lat="44.46794" lon="10.9760917"><ele>128.0</ele><time>2026-04-24T15:28:58.031Z</time></trkpt><trkpt lat="44.46782" lon="10.9760217"><ele>127.5</ele><time>2026-04-24T15:28:59.031Z</time></trkpt><trkpt lat="44.4676983" lon="10.9759567"><ele>127.0</ele><time>2026-04-24T15:29:00.029Z</time></trkpt><trkpt lat="44.4675733" lon="10.975885"><ele>127.25</ele><time>2026-04-24T15:29:01.031Z</time></trkpt><trkpt lat="44.4674433" lon="10.9758133"><ele>127.5</ele><time>2026-04-24T15:29:02.031Z</time></trkpt><trkpt lat="44.4673133" lon="10.9757333"><ele>127.75</ele><time>2026-04-24T15:29:03.03Z</time></trkpt><trkpt lat="44.4671817" lon="10.97565"><ele>128.0</ele><time>2026-04-24T15:29:04.031Z</time></trkpt><trkpt lat="44.467045" lon="10.9755667"><ele>128.0</ele><time>2026-04-24T15:29:05.031Z</time></trkpt><trkpt lat="44.4669017" lon="10.9754867"><ele>128.0</ele><time>2026-04-24T15:29:06.031Z</time></trkpt><trkpt lat="44.4667583" lon="10.97541"><ele>128.0</ele><time>2026-04-24T15:29:07.031Z</time></trkpt><trkpt lat="44.4666117" lon="10.9753283"><ele>128.0</ele><time>2026-04-24T15:29:08.03Z</time></trkpt><trkpt lat="44.46647" lon="10.97525"><ele>128.0</ele><time>2026-04-24T15:29:09.03Z</time></trkpt><trkpt lat="44.46633" lon="10.975175"><ele>128.0</ele><time>2026-04-24T15:29:10.031Z</time></trkpt><trkpt lat="44.4661883" lon="10.9750933"><ele>128.25</ele><time>2026-04-24T15:29:11.031Z</time></trkpt><trkpt lat="44.4660483" lon="10.9750133"><ele>128.5</ele><time>2026-04-24T15:29:12.031Z</time></trkpt><trkpt lat="44.4659117" lon="10.974945"><ele>128.75</ele><time>2026-04-24T15:29:13.03Z</time></trkpt><trkpt lat="44.4657717" lon="10.974865"><ele>129.0</ele><time>2026-04-24T15:29:14.03Z</time></trkpt><trkpt lat="44.46563" lon="10.9747867"><ele>129.0</ele><time>2026-04-24T15:29:15.03Z</time></trkpt><trkpt lat="44.4654917" lon="10.9747067"><ele>129.0</ele><time>2026-04-24T15:29:16.031Z</time></trkpt><trkpt lat="44.46536" lon="10.974635"><ele>129.0</ele><time>2026-04-24T15:29:17.031Z</time></trkpt><trkpt lat="44.4652267" lon="10.9745633"><ele>129.0</ele><time>2026-04-24T15:29:18.031Z</time></trkpt><trkpt lat="44.4650983" lon="10.974495"><ele>128.75</ele><time>2026-04-24T15:29:19.03Z</time></trkpt><trkpt lat="44.4649717" lon="10.9744233"><ele>128.5</ele><time>2026-04-24T15:29:20.03Z</time></trkpt><trkpt lat="44.4648383" lon="10.9743383"><ele>128.25</ele><time>2026-04-24T15:29:21.031Z</time></trkpt><trkpt lat="44.46471" lon="10.974255"><ele>128.0</ele><time>2026-04-24T15:29:22.031Z</time></trkpt><trkpt lat="44.4645767" lon="10.9741933"><ele>128.25</ele><time>2026-04-24T15:29:23.031Z</time></trkpt><trkpt lat="44.4644467" lon="10.9741217"><ele>128.5</ele><time>2026-04-24T15:29:24.031Z</time></trkpt><trkpt lat="44.4643267" lon="10.9740467"><ele>128.75</ele><time>2026-04-24T15:29:25.031Z</time></trkpt><trkpt lat="44.4642067" lon="10.9739633"><ele>129.0</ele><time>2026-04-24T15:29:26.03Z</time></trkpt><trkpt lat="44.464085" lon="10.9738917"><ele>129.0</ele><time>2026-04-24T15:29:27.031Z</time></trkpt><trkpt lat="44.463965" lon="10.9738283"><ele>129.0</ele><time>2026-04-24T15:29:28.031Z</time></trkpt><trkpt lat="44.4638567" lon="10.973755"><ele>129.0</ele><time>2026-04-24T15:29:29.031Z</time></trkpt><trkpt lat="44.4637467" lon="10.9736733"><ele>129.0</ele><time>2026-04-24T15:29:30.03Z</time></trkpt><trkpt lat="44.4636217" lon="10.9735883"><ele>129.5</ele><time>2026-04-24T15:29:31.031Z</time></trkpt><trkpt lat="44.4634967" lon="10.973495"><ele>130.0</ele><time>2026-04-24T15:29:32.031Z</time></trkpt><trkpt lat="44.46338" lon="10.9734"><ele>130.5</ele><time>2026-04-24T15:29:33.031Z</time></trkpt><trkpt lat="44.4632717" lon="10.9733133"><ele>131.0</ele><time>2026-04-24T15:29:34.031Z</time></trkpt><trkpt lat="44.4631633" lon="10.9732367"><ele>131.25</ele><time>2026-04-24T15:29:35.031Z</time></trkpt><trkpt lat="44.46305" lon="10.973155"><ele>131.5</ele><time>2026-04-24T15:29:36.031Z</time></trkpt><trkpt lat="44.4629283" lon="10.973075"><ele>131.75</ele><time>2026-04-24T15:29:37.031Z</time></trkpt><trkpt lat="44.462805" lon="10.97298"><ele>132.0</ele><time>2026-04-24T15:29:38.031Z</time></trkpt><trkpt lat="44.4626833" lon="10.9728867"><ele>131.5</ele><time>2026-04-24T15:29:39.03Z</time></trkpt><trkpt lat="44.4625617" lon="10.9727967"><ele>131.0</ele><time>2026-04-24T15:29:40.031Z</time></trkpt><trkpt lat="44.462445" lon="10.97272"><ele>130.5</ele><time>2026-04-24T15:29:41.031Z</time></trkpt><trkpt lat="44.4623283" lon="10.9726283"><ele>130.0</ele><time>2026-04-24T15:29:42.031Z</time></trkpt><trkpt lat="44.46221" lon="10.97254"><ele>130.75</ele><time>2026-04-24T15:29:43.031Z</time></trkpt><trkpt lat="44.462095" lon="10.9724517"><ele>131.5</ele><time>2026-04-24T15:29:44.031Z</time></trkpt><trkpt lat="44.4619717" lon="10.9723517"><ele>132.25</ele><time>2026-04-24T15:29:45.031Z</time></trkpt><trkpt lat="44.4618483" lon="10.9722617"><ele>133.0</ele><time>2026-04-24T15:29:46.031Z</time></trkpt><trkpt lat="44.461715" lon="10.9721767"><ele>133.0</ele><time>2026-04-24T15:29:47.031Z</time></trkpt><trkpt lat="44.4615767" lon="10.97211"><ele>133.0</ele><time>2026-04-24T15:29:48.031Z</time></trkpt><trkpt lat="44.4614317" lon="10.9720483"><ele>133.0</ele><time>2026-04-24T15:29:49.03Z</time></trkpt><trkpt lat="44.4612867" lon="10.9719967"><ele>133.0</ele><time>2026-04-24T15:29:50.03Z</time></trkpt><trkpt lat="44.4611333" lon="10.971955"><ele>133.25</ele><time>2026-04-24T15:29:51.031Z</time></trkpt><trkpt lat="44.4609967" lon="10.9719233"><ele>133.5</ele><time>2026-04-24T15:29:52.031Z</time></trkpt><trkpt lat="44.4608683" lon="10.971895"><ele>133.75</ele><time>2026-04-24T15:29:53.031Z</time></trkpt><trkpt lat="44.4607533" lon="10.97187"><ele>134.0</ele><time>2026-04-24T15:29:54.031Z</time></trkpt><trkpt lat="44.4606383" lon="10.9718233"><ele>134.0</ele><time>2026-04-24T15:29:55.031Z</time></trkpt><trkpt lat="44.4605383" lon="10.971775"><ele>134.0</ele><time>2026-04-24T15:29:56.03Z</time></trkpt><trkpt lat="44.4604467" lon="10.97174"><ele>134.0</ele><time>2026-04-24T15:29:57.03Z</time></trkpt><trkpt lat="44.460375" lon="10.9717133"><ele>134.0</ele><time>2026-04-24T15:29:58.031Z</time></trkpt><trkpt lat="44.4603083" lon="10.971675"><ele>134.0</ele><time>2026-04-24T15:29:59.031Z</time></trkpt><trkpt lat="44.4602583" lon="10.971605"><ele>134.0</ele><time>2026-04-24T15:30:00.031Z</time></trkpt><trkpt lat="44.4602067" lon="10.97155"><ele>134.0</ele><time>2026-04-24T15:30:01.031Z</time></trkpt><trkpt lat="44.4601467" lon="10.9715017"><ele>134.0</ele><time>2026-04-24T15:30:02.031Z</time></trkpt><trkpt lat="44.460075" lon="10.9714783"><ele>134.0</ele><time>2026-04-24T15:30:03.031Z</time></trkpt><trkpt lat="44.4600083" lon="10.9714867"><ele>134.0</ele><time>2026-04-24T15:30:04.03Z</time></trkpt><trkpt lat="44.4599383" lon="10.9714983"><ele>134.0</ele><time>2026-04-24T15:30:05.03Z</time></trkpt><trkpt lat="44.4598617" lon="10.9714967"><ele>134.0</ele><time>2026-04-24T15:30:06.031Z</time></trkpt><trkpt lat="44.459785" lon="10.971485"><ele>134.0</ele><time>2026-04-24T15:30:07.031Z</time></trkpt><trkpt lat="44.459705" lon="10.9714483"><ele>134.0</ele><time>2026-04-24T15:30:08.03Z</time></trkpt><trkpt lat="44.4596217" lon="10.9714117"><ele>134.0</ele><time>2026-04-24T15:30:09.03Z</time></trkpt><trkpt lat="44.4595317" lon="10.9713783"><ele>134.0</ele><time>2026-04-24T15:30:10.03Z</time></trkpt><trkpt lat="44.459425" lon="10.9713417"><ele>134.0</ele><time>2026-04-24T15:30:11.031Z</time></trkpt><trkpt lat="44.4593" lon="10.971295"><ele>134.0</ele><time>2026-04-24T15:30:12.03Z</time></trkpt><trkpt lat="44.4591717" lon="10.9712467"><ele>134.0</ele><time>2026-04-24T15:30:13.031Z</time></trkpt><trkpt lat="44.459045" lon="10.9711867"><ele>134.0</ele><time>2026-04-24T15:30:14.031Z</time></trkpt><trkpt lat="44.45892" lon="10.9711383"><ele>134.0</ele><time>2026-04-24T15:30:15.031Z</time></trkpt><trkpt lat="44.458785" lon="10.971085"><ele>134.0</ele><time>2026-04-24T15:30:16.031Z</time></trkpt><trkpt lat="44.4586517" lon="10.97102"><ele>134.25</ele><time>2026-04-24T15:30:17.031Z</time></trkpt><trkpt lat="44.4585183" lon="10.9709617"><ele>134.5</ele><time>2026-04-24T15:30:18.031Z</time></trkpt><trkpt lat="44.45839" lon="10.9709033"><ele>134.75</ele><time>2026-04-24T15:30:19.031Z</time></trkpt><trkpt lat="44.4582667" lon="10.970855"><ele>135.0</ele><time>2026-04-24T15:30:20.031Z</time></trkpt><trkpt lat="44.458145" lon="10.9708167"><ele>135.25</ele><time>2026-04-24T15:30:21.031Z</time></trkpt><trkpt lat="44.45802" lon="10.9707533"><ele>135.5</ele><time>2026-04-24T15:30:22.031Z</time></trkpt><trkpt lat="44.457885" lon="10.9706683"><ele>135.75</ele><time>2026-04-24T15:30:23.031Z</time></trkpt><trkpt lat="44.45777" lon="10.9705783"><ele>136.0</ele><time>2026-04-24T15:30:24.03Z</time></trkpt><trkpt lat="44.4576667" lon="10.970495"><ele>136.0</ele><time>2026-04-24T15:30:25.031Z</time></trkpt><trkpt lat="44.4575583" lon="10.97041"><ele>136.0</ele><time>2026-04-24T15:30:26.031Z</time></trkpt><trkpt lat="44.4574467" lon="10.9703167"><ele>136.0</ele><time>2026-04-24T15:30:27.03Z</time></trkpt><trkpt lat="44.4573383" lon="10.9702283"><ele>136.0</ele><time>2026-04-24T15:30:28.031Z</time></trkpt><trkpt lat="44.4572417" lon="10.9701467"><ele>136.0</ele><time>2026-04-24T15:30:29.03Z</time></trkpt><trkpt lat="44.4571567" lon="10.9700617"><ele>136.0</ele><time>2026-04-24T15:30:30.03Z</time></trkpt><trkpt lat="44.457075" lon="10.9699817"><ele>136.0</ele><time>2026-04-24T15:30:31.03Z</time></trkpt><trkpt lat="44.4569967" lon="10.969905"><ele>136.0</ele><time>2026-04-24T15:30:32.03Z</time></trkpt><trkpt lat="44.456925" lon="10.9698467"><ele>136.0</ele><time>2026-04-24T15:30:33.031Z</time></trkpt><trkpt lat="44.4568367" lon="10.9697733"><ele>136.16666666666669</ele><time>2026-04-24T15:30:35.031Z</time></trkpt><trkpt lat="44.4567667" lon="10.9697217"><ele>136.33333333333334</ele><time>2026-04-24T15:30:38.03Z</time></trkpt><trkpt lat="44.4566983" lon="10.9696833"><ele>136.5</ele><time>2026-04-24T15:30:42.03Z</time></trkpt><trkpt lat="44.4566117" lon="10.9695933"><ele>136.66666666666666</ele><time>2026-04-24T15:30:45.031Z</time></trkpt><trkpt lat="44.4565283" lon="10.9695083"><ele>136.83333333333331</ele><time>2026-04-24T15:30:47.03Z</time></trkpt><trkpt lat="44.4564683" lon="10.9694467"><ele>137.0</ele><time>2026-04-24T15:30:49.031Z</time></trkpt><trkpt lat="44.4564033" lon="10.9693767"><ele>137.0</ele><time>2026-04-24T15:30:59.03Z</time></trkpt><trkpt lat="44.4563217" lon="10.9693"><ele>137.0</ele><time>2026-04-24T15:31:01.031Z</time></trkpt><trkpt lat="44.4562217" lon="10.9692067"><ele>137.0</ele><time>2026-04-24T15:31:03.031Z</time></trkpt><trkpt lat="44.456165" lon="10.96915"><ele>137.0</ele><time>2026-04-24T15:31:04.03Z</time></trkpt><trkpt lat="44.4560983" lon="10.9690867"><ele>137.0</ele><time>2026-04-24T15:31:05.031Z</time></trkpt><trkpt lat="44.456015" lon="10.969015"><ele>137.0</ele><time>2026-04-24T15:31:06.031Z</time></trkpt><trkpt lat="44.4559583" lon="10.96893"><ele>137.0</ele><time>2026-04-24T15:31:07.03Z</time></trkpt><trkpt lat="44.4559033" lon="10.9688483"><ele>137.0</ele><time>2026-04-24T15:31:08.031Z</time></trkpt><trkpt lat="44.45585" lon="10.968755"><ele>137.0</ele><time>2026-04-24T15:31:09.031Z</time></trkpt><trkpt lat="44.4557917" lon="10.9686667"><ele>137.0</ele><time>2026-04-24T15:31:10.031Z</time></trkpt><trkpt lat="44.455735" lon="10.9685633"><ele>137.0</ele><time>2026-04-24T15:31:11.031Z</time></trkpt><trkpt lat="44.4556633" lon="10.9684733"><ele>137.0</ele><time>2026-04-24T15:31:12.031Z</time></trkpt><trkpt lat="44.4555933" lon="10.9683783"><ele>137.0</ele><time>2026-04-24T15:31:13.031Z</time></trkpt><trkpt lat="44.4555167" lon="10.9682767"><ele>137.0</ele><time>2026-04-24T15:31:14.031Z</time></trkpt><trkpt lat="44.4554467" lon="10.9681783"><ele>137.0</ele><time>2026-04-24T15:31:15.031Z</time></trkpt><trkpt lat="44.4553917" lon="10.968085"><ele>137.0</ele><time>2026-04-24T15:31:16.031Z</time></trkpt><trkpt lat="44.4553417" lon="10.968"><ele>137.6</ele><time>2026-04-24T15:31:17.03Z</time></trkpt><trkpt lat="44.4552633" lon="10.967865"><ele>138.2</ele><time>2026-04-24T15:31:19.03Z</time></trkpt><trkpt lat="44.45519" lon="10.9677567"><ele>138.8</ele><time>2026-04-24T15:31:21.031Z</time></trkpt><trkpt lat="44.4551433" lon="10.9676933"><ele>139.4</ele><time>2026-04-24T15:31:22.031Z</time></trkpt><trkpt lat="44.455085" lon="10.9676183"><ele>140.0</ele><time>2026-04-24T15:31:23.031Z</time></trkpt><trkpt lat="44.4550267" lon="10.9675317"><ele>140.0</ele><time>2026-04-24T15:31:24.03Z</time></trkpt><trkpt lat="44.4549667" lon="10.9674333"><ele>140.0</ele><time>2026-04-24T15:31:25.031Z</time></trkpt><trkpt lat="44.454905" lon="10.9673283"><ele>140.0</ele><time>2026-04-24T15:31:26.031Z</time></trkpt><trkpt lat="44.4548367" lon="10.9672233"><ele>140.0</ele><time>2026-04-24T15:31:27.03Z</time></trkpt><trkpt lat="44.454755" lon="10.9671083"><ele>140.0</ele><time>2026-04-24T15:31:28.03Z</time></trkpt><trkpt lat="44.4546817" lon="10.966995"><ele>140.0</ele><time>2026-04-24T15:31:29.031Z</time></trkpt><trkpt lat="44.4546133" lon="10.9668817"><ele>140.0</ele><time>2026-04-24T15:31:30.03Z</time></trkpt><trkpt lat="44.4545367" lon="10.966755"><ele>140.0</ele><time>2026-04-24T15:31:31.031Z</time></trkpt><trkpt lat="44.4544633" lon="10.9666067"><ele>140.0</ele><time>2026-04-24T15:31:32.031Z</time></trkpt><trkpt lat="44.4543983" lon="10.96644"><ele>140.0</ele><time>2026-04-24T15:31:33.03Z</time></trkpt><trkpt lat="44.454355" lon="10.9662467"><ele>140.0</ele><time>2026-04-24T15:31:34.03Z</time></trkpt><trkpt lat="44.4543133" lon="10.9660517"><ele>140.0</ele><time>2026-04-24T15:31:35.031Z</time></trkpt><trkpt lat="44.4542867" lon="10.9658667"><ele>140.0</ele><time>2026-04-24T15:31:36.031Z</time></trkpt><trkpt lat="44.4542517" lon="10.9656683"><ele>139.75</ele><time>2026-04-24T15:31:37.031Z</time></trkpt><trkpt lat="44.454215" lon="10.9654833"><ele>139.5</ele><time>2026-04-24T15:31:38.031Z</time></trkpt><trkpt lat="44.454185" lon="10.9652917"><ele>139.25</ele><time>2026-04-24T15:31:39.031Z</time></trkpt><trkpt lat="44.4541467" lon="10.9650967"><ele>139.0</ele><time>2026-04-24T15:31:40.031Z</time></trkpt><trkpt lat="44.4541183" lon="10.96492"><ele>140.0</ele><time>2026-04-24T15:31:41.031Z</time></trkpt><trkpt lat="44.4540783" lon="10.96476"><ele>141.0</ele><time>2026-04-24T15:31:42.031Z</time></trkpt><trkpt lat="44.454035" lon="10.9646067"><ele>142.0</ele><time>2026-04-24T15:31:43.031Z</time></trkpt><trkpt lat="44.4539883" lon="10.9644683"><ele>143.0</ele><time>2026-04-24T15:31:44.03Z</time></trkpt><trkpt lat="44.4539317" lon="10.9643267"><ele>141.75</ele><time>2026-04-24T15:31:45.031Z</time></trkpt><trkpt lat="44.4538617" lon="10.9641833"><ele>140.5</ele><time>2026-04-24T15:31:46.031Z</time></trkpt><trkpt lat="44.453775" lon="10.9640167"><ele>139.25</ele><time>2026-04-24T15:31:47.031Z</time></trkpt><trkpt lat="44.4536817" lon="10.9638217"><ele>138.0</ele><time>2026-04-24T15:31:48.03Z</time></trkpt><trkpt lat="44.453585" lon="10.9636"><ele>139.0</ele><time>2026-04-24T15:31:49.031Z</time></trkpt><trkpt lat="44.453485" lon="10.9633617"><ele>140.0</ele><time>2026-04-24T15:31:50.031Z</time></trkpt><trkpt lat="44.453375" lon="10.963115"><ele>141.0</ele><time>2026-04-24T15:31:51.031Z</time></trkpt><trkpt lat="44.45328" lon="10.9628767"><ele>141.0</ele><time>2026-04-24T15:31:52.031Z</time></trkpt><trkpt lat="44.453185" lon="10.9626467"><ele>141.0</ele><time>2026-04-24T15:31:53.03Z</time></trkpt><trkpt lat="44.4531117" lon="10.9624183"><ele>141.0</ele><time>2026-04-24T15:31:54.031Z</time></trkpt><trkpt lat="44.4530483" lon="10.9621833"><ele>142.66666666666666</ele><time>2026-04-24T15:31:55.03Z</time></trkpt><trkpt lat="44.4530017" lon="10.9619433"><ele>144.33333333333331</ele><time>2026-04-24T15:31:56.031Z</time></trkpt><trkpt lat="44.4529733" lon="10.961695"><ele>146.0</ele><time>2026-04-24T15:31:57.031Z</time></trkpt><trkpt lat="44.4529633" lon="10.9614483"><ele>147.0</ele><time>2026-04-24T15:31:58.031Z</time></trkpt><trkpt lat="44.4529717" lon="10.9611933"><ele>148.0</ele><time>2026-04-24T15:31:59.031Z</time></trkpt><trkpt lat="44.4530017" lon="10.96095"><ele>149.0</ele><time>2026-04-24T15:32:00.031Z</time></trkpt><trkpt lat="44.453035" lon="10.9607333"><ele>149.0</ele><time>2026-04-24T15:32:01.031Z</time></trkpt><trkpt lat="44.4530633" lon="10.96054"><ele>149.0</ele><time>2026-04-24T15:32:02.031Z</time></trkpt><trkpt lat="44.4530983" lon="10.9603617"><ele>149.0</ele><time>2026-04-24T15:32:03.031Z</time></trkpt><trkpt lat="44.4531183" lon="10.9601983"><ele>149.0</ele><time>2026-04-24T15:32:04.031Z</time></trkpt><trkpt lat="44.45313" lon="10.9600433"><ele>148.75</ele><time>2026-04-24T15:32:05.031Z</time></trkpt><trkpt lat="44.4531533" lon="10.959895"><ele>148.5</ele><time>2026-04-24T15:32:06.03Z</time></trkpt><trkpt lat="44.4531783" lon="10.9597317"><ele>148.25</ele><time>2026-04-24T15:32:07.031Z</time></trkpt><trkpt lat="44.4531967" lon="10.95955"><ele>148.0</ele><time>2026-04-24T15:32:08.031Z</time></trkpt><trkpt lat="44.4532067" lon="10.9593367"><ele>149.33333333333334</ele><time>2026-04-24T15:32:09.031Z</time></trkpt><trkpt lat="44.453185" lon="10.9590767"><ele>150.66666666666666</ele><time>2026-04-24T15:32:10.031Z</time></trkpt><trkpt lat="44.45317" lon="10.9588033"><ele>152.0</ele><time>2026-04-24T15:32:11.031Z</time></trkpt><trkpt lat="44.4531517" lon="10.9585233"><ele>152.66666666666666</ele><time>2026-04-24T15:32:12.031Z</time></trkpt><trkpt lat="44.4531333" lon="10.9582267"><ele>153.33333333333334</ele><time>2026-04-24T15:32:13.031Z</time></trkpt><trkpt lat="44.4531167" lon="10.95791"><ele>154.0</ele><time>2026-04-24T15:32:14.031Z</time></trkpt><trkpt lat="44.45308" lon="10.9575733"><ele>154.5</ele><time>2026-04-24T15:32:15.031Z</time></trkpt><trkpt lat="44.45304" lon="10.9572167"><ele>155.0</ele><time>2026-04-24T15:32:16.031Z</time></trkpt><trkpt lat="44.45301" lon="10.9568717"><ele>154.0</ele><time>2026-04-24T15:32:17.031Z</time></trkpt><trkpt lat="44.4529783" lon="10.95655"><ele>153.0</ele><time>2026-04-24T15:32:18.031Z</time></trkpt><trkpt lat="44.4529533" lon="10.9562217"><ele>147.5</ele><time>2026-04-24T15:32:19.031Z</time></trkpt><trkpt lat="44.4529233" lon="10.9558817"><ele>142.0</ele><time>2026-04-24T15:32:20.03Z</time></trkpt><trkpt lat="44.4528833" lon="10.9555467"><ele>141.5</ele><time>2026-04-24T15:32:21.031Z</time></trkpt><trkpt lat="44.4528283" lon="10.9552217"><ele>141.0</ele><time>2026-04-24T15:32:22.031Z</time></trkpt><trkpt lat="44.4526633" lon="10.9546217"><ele>142.0</ele><time>2026-04-24T15:32:24.031Z</time></trkpt><trkpt lat="44.45256" lon="10.9543317"><ele>143.0</ele><time>2026-04-24T15:32:25.031Z</time></trkpt><trkpt lat="44.45245" lon="10.9540417"><ele>144.0</ele><time>2026-04-24T15:32:26.031Z</time></trkpt><trkpt lat="44.4523317" lon="10.9537467"><ele>145.0</ele><time>2026-04-24T15:32:27.03Z</time></trkpt><trkpt lat="44.4522117" lon="10.9534567"><ele>144.5</ele><time>2026-04-24T15:32:28.03Z</time></trkpt><trkpt lat="44.4521" lon="10.9531683"><ele>144.0</ele><time>2026-04-24T15:32:29.031Z</time></trkpt><trkpt lat="44.451985" lon="10.9528733"><ele>144.0</ele><time>2026-04-24T15:32:30.031Z</time></trkpt><trkpt lat="44.4518633" lon="10.9525717"><ele>144.0</ele><time>2026-04-24T15:32:31.031Z</time></trkpt><trkpt lat="44.451745" lon="10.9522783"><ele>145.0</ele><time>2026-04-24T15:32:32.03Z</time></trkpt><trkpt lat="44.4516183" lon="10.9519667"><ele>146.0</ele><time>2026-04-24T15:32:33.031Z</time></trkpt><trkpt lat="44.4514917" lon="10.9516567"><ele>146.5</ele><time>2026-04-24T15:32:34.031Z</time></trkpt><trkpt lat="44.4513617" lon="10.95134"><ele>147.0</ele><time>2026-04-24T15:32:35.03Z</time></trkpt><trkpt lat="44.4512317" lon="10.95102"><ele>146.0</ele><time>2026-04-24T15:32:36.031Z</time></trkpt><trkpt lat="44.451105" lon="10.9506983"><ele>145.0</ele><time>2026-04-24T15:32:37.03Z</time></trkpt><trkpt lat="44.4509783" lon="10.9503767"><ele>145.0</ele><time>2026-04-24T15:32:38.03Z</time></trkpt><trkpt lat="44.4508467" lon="10.950055"><ele>145.0</ele><time>2026-04-24T15:32:39.031Z</time></trkpt><trkpt lat="44.4507167" lon="10.9497367"><ele>145.0</ele><time>2026-04-24T15:32:40.031Z</time></trkpt><trkpt lat="44.450595" lon="10.94943"><ele>145.0</ele><time>2026-04-24T15:32:41.031Z</time></trkpt><trkpt lat="44.4504817" lon="10.9491417"><ele>145.33333333333334</ele><time>2026-04-24T15:32:42.031Z</time></trkpt><trkpt lat="44.4503733" lon="10.9488717"><ele>145.66666666666666</ele><time>2026-04-24T15:32:43.03Z</time></trkpt><trkpt lat="44.4502683" lon="10.9486217"><ele>146.0</ele><time>2026-04-24T15:32:44.031Z</time></trkpt><trkpt lat="44.4501467" lon="10.9483933"><ele>147.66666666666666</ele><time>2026-04-24T15:32:45.031Z</time></trkpt><trkpt lat="44.45002" lon="10.948185"><ele>149.33333333333334</ele><time>2026-04-24T15:32:46.031Z</time></trkpt><trkpt lat="44.4498717" lon="10.9479917"><ele>151.0</ele><time>2026-04-24T15:32:47.031Z</time></trkpt><trkpt lat="44.449705" lon="10.94781"><ele>151.66666666666669</ele><time>2026-04-24T15:32:48.03Z</time></trkpt><trkpt lat="44.449525" lon="10.9476483"><ele>152.33333333333334</ele><time>2026-04-24T15:32:49.031Z</time></trkpt><trkpt lat="44.4493433" lon="10.9474783"><ele>153.0</ele><time>2026-04-24T15:32:50.03Z</time></trkpt><trkpt lat="44.4491567" lon="10.947335"><ele>153.0</ele><time>2026-04-24T15:32:51.031Z</time></trkpt><trkpt lat="44.4489583" lon="10.9471783"><ele>153.0</ele><time>2026-04-24T15:32:52.031Z</time></trkpt><trkpt lat="44.4487517" lon="10.9470367"><ele>152.0</ele><time>2026-04-24T15:32:53.031Z</time></trkpt><trkpt lat="44.4485433" lon="10.9468767"><ele>151.0</ele><time>2026-04-24T15:32:54.031Z</time></trkpt><trkpt lat="44.448345" lon="10.9467267"><ele>153.5</ele><time>2026-04-24T15:32:55.031Z</time></trkpt><trkpt lat="44.4481367" lon="10.94657"><ele>156.0</ele><time>2026-04-24T15:32:56.031Z</time></trkpt><trkpt lat="44.4479267" lon="10.946415"><ele>156.0</ele><time>2026-04-24T15:32:57.031Z</time></trkpt><trkpt lat="44.4477217" lon="10.9462667"><ele>156.0</ele><time>2026-04-24T15:32:58.031Z</time></trkpt><trkpt lat="44.4475283" lon="10.9461283"><ele>156.0</ele><time>2026-04-24T15:32:59.031Z</time></trkpt><trkpt lat="44.44736" lon="10.945995"><ele>156.0</ele><time>2026-04-24T15:33:00.03Z</time></trkpt><trkpt lat="44.4471983" lon="10.9458783"><ele>156.0</ele><time>2026-04-24T15:33:01.03Z</time></trkpt><trkpt lat="44.4470483" lon="10.94576"><ele>156.0</ele><time>2026-04-24T15:33:02.03Z</time></trkpt><trkpt lat="44.4469183" lon="10.9456367"><ele>156.0</ele><time>2026-04-24T15:33:03.031Z</time></trkpt><trkpt lat="44.4468067" lon="10.9454767"><ele>156.0</ele><time>2026-04-24T15:33:04.031Z</time></trkpt><trkpt lat="44.4467133" lon="10.9452783"><ele>156.0</ele><time>2026-04-24T15:33:05.031Z</time></trkpt><trkpt lat="44.4466167" lon="10.94506"><ele>157.66666666666666</ele><time>2026-04-24T15:33:06.031Z</time></trkpt><trkpt lat="44.4465317" lon="10.9448167"><ele>159.33333333333331</ele><time>2026-04-24T15:33:07.03Z</time></trkpt><trkpt lat="44.4464467" lon="10.9445483"><ele>161.0</ele><time>2026-04-24T15:33:08.03Z</time></trkpt><trkpt lat="44.4463567" lon="10.9442717"><ele>156.5</ele><time>2026-04-24T15:33:09.031Z</time></trkpt><trkpt lat="44.4462667" lon="10.9439883"><ele>152.0</ele><time>2026-04-24T15:33:10.031Z</time></trkpt><trkpt lat="44.446175" lon="10.94369"><ele>152.0</ele><time>2026-04-24T15:33:11.031Z</time></trkpt><trkpt lat="44.446075" lon="10.9433967"><ele>152.0</ele><time>2026-04-24T15:33:12.031Z</time></trkpt><trkpt lat="44.44597" lon="10.9431133"><ele>154.0</ele><time>2026-04-24T15:33:13.031Z</time></trkpt><trkpt lat="44.4458517" lon="10.9428383"><ele>156.0</ele><time>2026-04-24T15:33:14.031Z</time></trkpt><trkpt lat="44.4457217" lon="10.9425633"><ele>155.0</ele><time>2026-04-24T15:33:15.03Z</time></trkpt><trkpt lat="44.44558" lon="10.9422933"><ele>154.0</ele><time>2026-04-24T15:33:16.031Z</time></trkpt><trkpt lat="44.4454317" lon="10.9420167"><ele>154.0</ele><time>2026-04-24T15:33:17.031Z</time></trkpt><trkpt lat="44.4452667" lon="10.9417383"><ele>154.0</ele><time>2026-04-24T15:33:18.031Z</time></trkpt><trkpt lat="44.4451" lon="10.9414783"><ele>156.0</ele><time>2026-04-24T15:33:19.031Z</time></trkpt><trkpt lat="44.4449283" lon="10.9412283"><ele>158.0</ele><time>2026-04-24T15:33:20.03Z</time></trkpt><trkpt lat="44.4447467" lon="10.9409983"><ele>157.0</ele><time>2026-04-24T15:33:21.03Z</time></trkpt><trkpt lat="44.4445617" lon="10.94079"><ele>156.0</ele><time>2026-04-24T15:33:22.031Z</time></trkpt><trkpt lat="44.44437" lon="10.9405917"><ele>156.0</ele><time>2026-04-24T15:33:23.03Z</time></trkpt><trkpt lat="44.4441667" lon="10.9403817"><ele>156.0</ele><time>2026-04-24T15:33:24.03Z</time></trkpt><trkpt lat="44.4439733" lon="10.940165"><ele>157.0</ele><time>2026-04-24T15:33:25.031Z</time></trkpt><trkpt lat="44.44378" lon="10.9399617"><ele>158.0</ele><time>2026-04-24T15:33:26.031Z</time></trkpt><trkpt lat="44.443585" lon="10.9397233"><ele>158.0</ele><time>2026-04-24T15:33:27.031Z</time></trkpt><trkpt lat="44.4434017" lon="10.9394983"><ele>158.0</ele><time>2026-04-24T15:33:28.031Z</time></trkpt><trkpt lat="44.4432167" lon="10.9392683"><ele>158.0</ele><time>2026-04-24T15:33:29.031Z</time></trkpt><trkpt lat="44.4430433" lon="10.939025"><ele>158.0</ele><time>2026-04-24T15:33:30.031Z</time></trkpt><trkpt lat="44.4428783" lon="10.938765"><ele>158.0</ele><time>2026-04-24T15:33:31.031Z</time></trkpt><trkpt lat="44.4427167" lon="10.9385033"><ele>158.0</ele><time>2026-04-24T15:33:32.03Z</time></trkpt><trkpt lat="44.4425617" lon="10.93824"><ele>161.5</ele><time>2026-04-24T15:33:33.031Z</time></trkpt><trkpt lat="44.4424033" lon="10.9379883"><ele>165.0</ele><time>2026-04-24T15:33:34.031Z</time></trkpt><trkpt lat="44.4422383" lon="10.9377567"><ele>165.0</ele><time>2026-04-24T15:33:35.031Z</time></trkpt><trkpt lat="44.4420667" lon="10.9375567"><ele>165.0</ele><time>2026-04-24T15:33:36.031Z</time></trkpt><trkpt lat="44.4418833" lon="10.9373667"><ele>165.0</ele><time>2026-04-24T15:33:37.03Z</time></trkpt><trkpt lat="44.4416883" lon="10.9372067"><ele>165.0</ele><time>2026-04-24T15:33:38.031Z</time></trkpt><trkpt lat="44.4414867" lon="10.9370633"><ele>158.5</ele><time>2026-04-24T15:33:39.031Z</time></trkpt><trkpt lat="44.441275" lon="10.93691"><ele>152.0</ele><time>2026-04-24T15:33:40.031Z</time></trkpt><trkpt lat="44.44108" lon="10.936765"><ele>157.0</ele><time>2026-04-24T15:33:41.03Z</time></trkpt><trkpt lat="44.4408617" lon="10.93661"><ele>162.0</ele><time>2026-04-24T15:33:42.031Z</time></trkpt><trkpt lat="44.44065" lon="10.9364517"><ele>159.0</ele><time>2026-04-24T15:33:43.031Z</time></trkpt><trkpt lat="44.44044" lon="10.9362933"><ele>156.0</ele><time>2026-04-24T15:33:44.031Z</time></trkpt><trkpt lat="44.44023" lon="10.9361333"><ele>156.0</ele><time>2026-04-24T15:33:45.031Z</time></trkpt><trkpt lat="44.4400267" lon="10.9359717"><ele>156.0</ele><time>2026-04-24T15:33:46.03Z</time></trkpt><trkpt lat="44.439825" lon="10.9358083"><ele>157.33333333333334</ele><time>2026-04-24T15:33:47.03Z</time></trkpt><trkpt lat="44.439635" lon="10.93565"><ele>158.66666666666669</ele><time>2026-04-24T15:33:48.03Z</time></trkpt><trkpt lat="44.4394617" lon="10.93548"><ele>160.0</ele><time>2026-04-24T15:33:49.031Z</time></trkpt><trkpt lat="44.4392983" lon="10.935305"><ele>160.0</ele><time>2026-04-24T15:33:50.03Z</time></trkpt><trkpt lat="44.4391383" lon="10.935095"><ele>160.0</ele><time>2026-04-24T15:33:51.031Z</time></trkpt><trkpt lat="44.43899" lon="10.934875"><ele>160.0</ele><time>2026-04-24T15:33:52.031Z</time></trkpt><trkpt lat="44.43885" lon="10.9346333"><ele>159.66666666666669</ele><time>2026-04-24T15:33:53.031Z</time></trkpt><trkpt lat="44.4387117" lon="10.93439"><ele>159.33333333333334</ele><time>2026-04-24T15:33:54.031Z</time></trkpt><trkpt lat="44.4385833" lon="10.9341417"><ele>159.0</ele><time>2026-04-24T15:33:55.031Z</time></trkpt><trkpt lat="44.4384517" lon="10.9338933"><ele>160.66666666666666</ele><time>2026-04-24T15:33:56.03Z</time></trkpt><trkpt lat="44.4383183" lon="10.9336683"><ele>162.33333333333331</ele><time>2026-04-24T15:33:57.031Z</time></trkpt><trkpt lat="44.4381817" lon="10.9334567"><ele>164.0</ele><time>2026-04-24T15:33:58.03Z</time></trkpt><trkpt lat="44.4380283" lon="10.9332583"><ele>162.66666666666666</ele><time>2026-04-24T15:33:59.031Z</time></trkpt><trkpt lat="44.4378683" lon="10.9330717"><ele>161.33333333333334</ele><time>2026-04-24T15:34:00.03Z</time></trkpt><trkpt lat="44.43769" lon="10.9329183"><ele>160.0</ele><time>2026-04-24T15:34:01.031Z</time></trkpt><trkpt lat="44.4375117" lon="10.9327683"><ele>160.0</ele><time>2026-04-24T15:34:02.03Z</time></trkpt><trkpt lat="44.4373083" lon="10.9326233"><ele>160.0</ele><time>2026-04-24T15:34:03.031Z</time></trkpt><trkpt lat="44.4371067" lon="10.9324667"><ele>161.0</ele><time>2026-04-24T15:34:04.03Z</time></trkpt><trkpt lat="44.4369133" lon="10.9323033"><ele>162.0</ele><time>2026-04-24T15:34:05.031Z</time></trkpt><trkpt lat="44.4367183" lon="10.9321333"><ele>162.0</ele><time>2026-04-24T15:34:06.031Z</time></trkpt><trkpt lat="44.4365033" lon="10.93196"><ele>162.0</ele><time>2026-04-24T15:34:07.03Z</time></trkpt><trkpt lat="44.4362933" lon="10.9317817"><ele>164.0</ele><time>2026-04-24T15:34:08.031Z</time></trkpt><trkpt lat="44.4360883" lon="10.9316067"><ele>166.0</ele><time>2026-04-24T15:34:09.03Z</time></trkpt><trkpt lat="44.4358717" lon="10.9314333"><ele>166.0</ele><time>2026-04-24T15:34:10.03Z</time></trkpt><trkpt lat="44.43566" lon="10.9312583"><ele>166.0</ele><time>2026-04-24T15:34:11.031Z</time></trkpt><trkpt lat="44.43544" lon="10.9310833"><ele>166.0</ele><time>2026-04-24T15:34:12.031Z</time></trkpt><trkpt lat="44.4352183" lon="10.9309017"><ele>166.0</ele><time>2026-04-24T15:34:13.031Z</time></trkpt><trkpt lat="44.4349883" lon="10.9307283"><ele>166.0</ele><time>2026-04-24T15:34:14.031Z</time></trkpt><trkpt lat="44.43477" lon="10.9305417"><ele>166.0</ele><time>2026-04-24T15:34:15.031Z</time></trkpt><trkpt lat="44.434545" lon="10.9303567"><ele>166.0</ele><time>2026-04-24T15:34:16.031Z</time></trkpt><trkpt lat="44.4343233" lon="10.93017"><ele>166.0</ele><time>2026-04-24T15:34:17.031Z</time></trkpt><trkpt lat="44.4341" lon="10.9299867"><ele>166.0</ele><time>2026-04-24T15:34:18.031Z</time></trkpt><trkpt lat="44.433875" lon="10.929815"><ele>166.0</ele><time>2026-04-24T15:34:19.031Z</time></trkpt><trkpt lat="44.4336467" lon="10.929645"><ele>164.5</ele><time>2026-04-24T15:34:20.031Z</time></trkpt><trkpt lat="44.433415" lon="10.929495"><ele>163.0</ele><time>2026-04-24T15:34:21.031Z</time></trkpt><trkpt lat="44.4331817" lon="10.9293467"><ele>166.0</ele><time>2026-04-24T15:34:22.031Z</time></trkpt><trkpt lat="44.4329467" lon="10.92921"><ele>169.0</ele><time>2026-04-24T15:34:23.031Z</time></trkpt><trkpt lat="44.4327167" lon="10.9290783"><ele>169.0</ele><time>2026-04-24T15:34:24.031Z</time></trkpt><trkpt lat="44.4324833" lon="10.9289567"><ele>169.0</ele><time>2026-04-24T15:34:25.031Z</time></trkpt><trkpt lat="44.4322483" lon="10.9288467"><ele>167.0</ele><time>2026-04-24T15:34:26.031Z</time></trkpt><trkpt lat="44.432005" lon="10.92874"><ele>165.0</ele><time>2026-04-24T15:34:27.031Z</time></trkpt><trkpt lat="44.4317617" lon="10.9286267"><ele>165.0</ele><time>2026-04-24T15:34:28.031Z</time></trkpt><trkpt lat="44.4315233" lon="10.9285067"><ele>165.0</ele><time>2026-04-24T15:34:29.031Z</time></trkpt><trkpt lat="44.4312933" lon="10.9283817"><ele>166.5</ele><time>2026-04-24T15:34:30.031Z</time></trkpt><trkpt lat="44.4310717" lon="10.9282533"><ele>168.0</ele><time>2026-04-24T15:34:31.031Z</time></trkpt><trkpt lat="44.4308683" lon="10.928115"><ele>168.0</ele><time>2026-04-24T15:34:32.031Z</time></trkpt><trkpt lat="44.43068" lon="10.9279733"><ele>168.0</ele><time>2026-04-24T15:34:33.031Z</time></trkpt><trkpt lat="44.4305083" lon="10.9278133"><ele>168.0</ele><time>2026-04-24T15:34:34.031Z</time></trkpt><trkpt lat="44.4303483" lon="10.9276517"><ele>168.0</ele><time>2026-04-24T15:34:35.031Z</time></trkpt><trkpt lat="44.430205" lon="10.9274633"><ele>168.0</ele><time>2026-04-24T15:34:36.031Z</time></trkpt><trkpt lat="44.4300833" lon="10.9272517"><ele>168.0</ele><time>2026-04-24T15:34:37.031Z</time></trkpt><trkpt lat="44.429965" lon="10.927005"><ele>168.0</ele><time>2026-04-24T15:34:38.031Z</time></trkpt><trkpt lat="44.4298633" lon="10.9267467"><ele>168.0</ele><time>2026-04-24T15:34:39.031Z</time></trkpt><trkpt lat="44.4297733" lon="10.9264817"><ele>168.0</ele><time>2026-04-24T15:34:40.03Z</time></trkpt><trkpt lat="44.42968" lon="10.9262183"><ele>168.0</ele><time>2026-04-24T15:34:41.031Z</time></trkpt><trkpt lat="44.429585" lon="10.9259717"><ele>168.0</ele><time>2026-04-24T15:34:42.031Z</time></trkpt><trkpt lat="44.4295" lon="10.925745"><ele>168.0</ele><time>2026-04-24T15:34:43.03Z</time></trkpt><trkpt lat="44.4294183" lon="10.9255367"><ele>168.0</ele><time>2026-04-24T15:34:44.03Z</time></trkpt><trkpt lat="44.429325" lon="10.925355"><ele>168.0</ele><time>2026-04-24T15:34:45.031Z</time></trkpt><trkpt lat="44.4292167" lon="10.9251917"><ele>168.0</ele><time>2026-04-24T15:34:46.031Z</time></trkpt><trkpt lat="44.4290917" lon="10.92505"><ele>168.0</ele><time>2026-04-24T15:34:47.03Z</time></trkpt><trkpt lat="44.42895" lon="10.9249433"><ele>168.0</ele><time>2026-04-24T15:34:48.031Z</time></trkpt><trkpt lat="44.4287917" lon="10.9248633"><ele>168.0</ele><time>2026-04-24T15:34:49.03Z</time></trkpt><trkpt lat="44.4286267" lon="10.9247933"><ele>168.0</ele><time>2026-04-24T15:34:50.031Z</time></trkpt><trkpt lat="44.4284583" lon="10.9247417"><ele>168.0</ele><time>2026-04-24T15:34:51.031Z</time></trkpt><trkpt lat="44.4282917" lon="10.924695"><ele>168.0</ele><time>2026-04-24T15:34:52.031Z</time></trkpt><trkpt lat="44.4281233" lon="10.9246567"><ele>167.33333333333334</ele><time>2026-04-24T15:34:53.03Z</time></trkpt><trkpt lat="44.4279517" lon="10.9246133"><ele>166.66666666666669</ele><time>2026-04-24T15:34:54.031Z</time></trkpt><trkpt lat="44.4277733" lon="10.924575"><ele>166.0</ele><time>2026-04-24T15:34:55.031Z</time></trkpt><trkpt lat="44.427595" lon="10.9245383"><ele>166.0</ele><time>2026-04-24T15:34:56.031Z</time></trkpt><trkpt lat="44.42742" lon="10.9244983"><ele>166.0</ele><time>2026-04-24T15:34:57.03Z</time></trkpt><trkpt lat="44.4272433" lon="10.92446"><ele>166.0</ele><time>2026-04-24T15:34:58.03Z</time></trkpt><trkpt lat="44.4270567" lon="10.924425"><ele>166.0</ele><time>2026-04-24T15:34:59.031Z</time></trkpt><trkpt lat="44.4268667" lon="10.9243883"><ele>166.0</ele><time>2026-04-24T15:35:00.031Z</time></trkpt><trkpt lat="44.4266533" lon="10.92437"><ele>166.0</ele><time>2026-04-24T15:35:01.031Z</time></trkpt><trkpt lat="44.4264517" lon="10.9243383"><ele>166.33333333333334</ele><time>2026-04-24T15:35:02.03Z</time></trkpt><trkpt lat="44.42625" lon="10.9243017"><ele>166.66666666666666</ele><time>2026-04-24T15:35:03.031Z</time></trkpt><trkpt lat="44.426055" lon="10.92426"><ele>167.0</ele><time>2026-04-24T15:35:04.03Z</time></trkpt><trkpt lat="44.4258483" lon="10.9242383"><ele>167.33333333333331</ele><time>2026-04-24T15:35:05.031Z</time></trkpt><trkpt lat="44.4256567" lon="10.9242167"><ele>167.66666666666666</ele><time>2026-04-24T15:35:06.03Z</time></trkpt><trkpt lat="44.4254567" lon="10.92418"><ele>168.0</ele><time>2026-04-24T15:35:07.031Z</time></trkpt><trkpt lat="44.4252583" lon="10.9241383"><ele>168.66666666666666</ele><time>2026-04-24T15:35:08.031Z</time></trkpt><trkpt lat="44.4250617" lon="10.9241083"><ele>169.33333333333331</ele><time>2026-04-24T15:35:09.031Z</time></trkpt><trkpt lat="44.42487" lon="10.9241017"><ele>170.0</ele><time>2026-04-24T15:35:10.031Z</time></trkpt><trkpt lat="44.4246667" lon="10.9240817"><ele>171.0</ele><time>2026-04-24T15:35:11.03Z</time></trkpt><trkpt lat="44.4244633" lon="10.9240683"><ele>172.0</ele><time>2026-04-24T15:35:12.031Z</time></trkpt><trkpt lat="44.4242567" lon="10.92409"><ele>173.0</ele><time>2026-04-24T15:35:13.03Z</time></trkpt><trkpt lat="44.4240567" lon="10.9241217"><ele>173.0</ele><time>2026-04-24T15:35:14.031Z</time></trkpt><trkpt lat="44.423855" lon="10.9241517"><ele>173.0</ele><time>2026-04-24T15:35:15.031Z</time></trkpt><trkpt lat="44.4236417" lon="10.9241883"><ele>173.0</ele><time>2026-04-24T15:35:16.03Z</time></trkpt><trkpt lat="44.4234417" lon="10.9242133"><ele>171.66666666666666</ele><time>2026-04-24T15:35:17.031Z</time></trkpt><trkpt lat="44.4232183" lon="10.9242433"><ele>170.33333333333334</ele><time>2026-04-24T15:35:18.031Z</time></trkpt><trkpt lat="44.4230133" lon="10.924255"><ele>169.0</ele><time>2026-04-24T15:35:19.031Z</time></trkpt><trkpt lat="44.4228133" lon="10.9242733"><ele>169.0</ele><time>2026-04-24T15:35:20.031Z</time></trkpt><trkpt lat="44.4226067" lon="10.9242783"><ele>169.0</ele><time>2026-04-24T15:35:21.031Z</time></trkpt><trkpt lat="44.4223933" lon="10.924265"><ele>169.0</ele><time>2026-04-24T15:35:22.03Z</time></trkpt><trkpt lat="44.4221883" lon="10.9242333"><ele>170.0</ele><time>2026-04-24T15:35:23.031Z</time></trkpt><trkpt lat="44.4219717" lon="10.9241783"><ele>171.0</ele><time>2026-04-24T15:35:24.031Z</time></trkpt><trkpt lat="44.4217617" lon="10.92412"><ele>172.0</ele><time>2026-04-24T15:35:25.031Z</time></trkpt><trkpt lat="44.421555" lon="10.92406"><ele>172.0</ele><time>2026-04-24T15:35:26.031Z</time></trkpt><trkpt lat="44.4213483" lon="10.923995"><ele>172.0</ele><time>2026-04-24T15:35:27.031Z</time></trkpt><trkpt lat="44.421135" lon="10.9239317"><ele>172.0</ele><time>2026-04-24T15:35:28.03Z</time></trkpt><trkpt lat="44.4209217" lon="10.9238667"><ele>171.66666666666669</ele><time>2026-04-24T15:35:29.03Z</time></trkpt><trkpt lat="44.42072" lon="10.9238033"><ele>171.33333333333334</ele><time>2026-04-24T15:35:30.031Z</time></trkpt><trkpt lat="44.42051" lon="10.9237183"><ele>171.0</ele><time>2026-04-24T15:35:31.031Z</time></trkpt><trkpt lat="44.4203033" lon="10.9236267"><ele>170.0</ele><time>2026-04-24T15:35:32.031Z</time></trkpt><trkpt lat="44.4200983" lon="10.923535"><ele>169.0</ele><time>2026-04-24T15:35:33.031Z</time></trkpt><trkpt lat="44.4198883" lon="10.9234533"><ele>168.0</ele><time>2026-04-24T15:35:34.031Z</time></trkpt><trkpt lat="44.419695" lon="10.923345"><ele>170.0</ele><time>2026-04-24T15:35:35.03Z</time></trkpt><trkpt lat="44.4195117" lon="10.92325"><ele>172.0</ele><time>2026-04-24T15:35:36.03Z</time></trkpt><trkpt lat="44.4193367" lon="10.9231283"><ele>174.0</ele><time>2026-04-24T15:35:37.03Z</time></trkpt><trkpt lat="44.4191767" lon="10.92301"><ele>174.0</ele><time>2026-04-24T15:35:38.031Z</time></trkpt><trkpt lat="44.4190217" lon="10.922875"><ele>174.0</ele><time>2026-04-24T15:35:39.031Z</time></trkpt><trkpt lat="44.4188817" lon="10.922725"><ele>174.0</ele><time>2026-04-24T15:35:40.031Z</time></trkpt><trkpt lat="44.4187433" lon="10.9225533"><ele>174.66666666666666</ele><time>2026-04-24T15:35:41.031Z</time></trkpt><trkpt lat="44.418625" lon="10.9223417"><ele>175.33333333333331</ele><time>2026-04-24T15:35:42.031Z</time></trkpt><trkpt lat="44.4185083" lon="10.9221333"><ele>176.0</ele><time>2026-04-24T15:35:43.031Z</time></trkpt><trkpt lat="44.41838" lon="10.921925"><ele>176.0</ele><time>2026-04-24T15:35:44.031Z</time></trkpt><trkpt lat="44.4182467" lon="10.9217417"><ele>176.0</ele><time>2026-04-24T15:35:45.031Z</time></trkpt><trkpt lat="44.4181133" lon="10.921565"><ele>176.0</ele><time>2026-04-24T15:35:46.03Z</time></trkpt><trkpt lat="44.4179733" lon="10.9214083"><ele>176.66666666666666</ele><time>2026-04-24T15:35:47.031Z</time></trkpt><trkpt lat="44.4178267" lon="10.921285"><ele>177.33333333333334</ele><time>2026-04-24T15:35:48.031Z</time></trkpt><trkpt lat="44.4176867" lon="10.9211383"><ele>178.0</ele><time>2026-04-24T15:35:49.03Z</time></trkpt><trkpt lat="44.4175467" lon="10.9209933"><ele>178.66666666666669</ele><time>2026-04-24T15:35:50.031Z</time></trkpt><trkpt lat="44.4174133" lon="10.9208383"><ele>179.33333333333334</ele><time>2026-04-24T15:35:51.031Z</time></trkpt><trkpt lat="44.41726" lon="10.9207467"><ele>180.0</ele><time>2026-04-24T15:35:52.031Z</time></trkpt><trkpt lat="44.4170917" lon="10.9206433"><ele>180.0</ele><time>2026-04-24T15:35:53.031Z</time></trkpt><trkpt lat="44.416915" lon="10.9205767"><ele>180.0</ele><time>2026-04-24T15:35:54.03Z</time></trkpt><trkpt lat="44.41673" lon="10.9205017"><ele>180.0</ele><time>2026-04-24T15:35:55.031Z</time></trkpt><trkpt lat="44.4165483" lon="10.920425"><ele>180.0</ele><time>2026-04-24T15:35:56.031Z</time></trkpt><trkpt lat="44.4163917" lon="10.9203633"><ele>180.0</ele><time>2026-04-24T15:35:57.031Z</time></trkpt><trkpt lat="44.416255" lon="10.9202933"><ele>180.0</ele><time>2026-04-24T15:35:58.031Z</time></trkpt><trkpt lat="44.4161383" lon="10.9201883"><ele>180.0</ele><time>2026-04-24T15:35:59.031Z</time></trkpt><trkpt lat="44.4160233" lon="10.920065"><ele>180.33333333333334</ele><time>2026-04-24T15:36:00.031Z</time></trkpt><trkpt lat="44.4159183" lon="10.9199017"><ele>180.66666666666669</ele><time>2026-04-24T15:36:01.031Z</time></trkpt><trkpt lat="44.4158233" lon="10.9197267"><ele>181.0</ele><time>2026-04-24T15:36:02.031Z</time></trkpt><trkpt lat="44.4157317" lon="10.9195683"><ele>181.0</ele><time>2026-04-24T15:36:03.03Z</time></trkpt><trkpt lat="44.4156317" lon="10.9194383"><ele>181.0</ele><time>2026-04-24T15:36:04.03Z</time></trkpt><trkpt lat="44.41552" lon="10.919335"><ele>181.0</ele><time>2026-04-24T15:36:05.031Z</time></trkpt><trkpt lat="44.415385" lon="10.91926"><ele>181.0</ele><time>2026-04-24T15:36:06.031Z</time></trkpt><trkpt lat="44.41524" lon="10.9192"><ele>180.75</ele><time>2026-04-24T15:36:07.03Z</time></trkpt><trkpt lat="44.41509" lon="10.91915"><ele>180.5</ele><time>2026-04-24T15:36:08.031Z</time></trkpt><trkpt lat="44.41495" lon="10.919105"><ele>180.25</ele><time>2026-04-24T15:36:09.031Z</time></trkpt><trkpt lat="44.4148283" lon="10.9190617"><ele>180.0</ele><time>2026-04-24T15:36:10.031Z</time></trkpt><trkpt lat="44.4147117" lon="10.9190383"><ele>184.0</ele><time>2026-04-24T15:36:11.031Z</time></trkpt><trkpt lat="44.41461" lon="10.9190633"><ele>188.0</ele><time>2026-04-24T15:36:12.031Z</time></trkpt><trkpt lat="44.414525" lon="10.9191383"><ele>192.0</ele><time>2026-04-24T15:36:13.031Z</time></trkpt><trkpt lat="44.414455" lon="10.91925"><ele>196.0</ele><time>2026-04-24T15:36:14.031Z</time></trkpt><trkpt lat="44.41442" lon="10.9193983"><ele>200.0</ele><time>2026-04-24T15:36:15.031Z</time></trkpt><trkpt lat="44.4144083" lon="10.919575"><ele>200.0</ele><time>2026-04-24T15:36:16.03Z</time></trkpt><trkpt lat="44.41439" lon="10.91978"><ele>200.0</ele><time>2026-04-24T15:36:17.03Z</time></trkpt><trkpt lat="44.4143483" lon="10.919995"><ele>200.0</ele><time>2026-04-24T15:36:18.03Z</time></trkpt><trkpt lat="44.4142933" lon="10.9202067"><ele>197.25</ele><time>2026-04-24T15:36:19.031Z</time></trkpt><trkpt lat="44.4142333" lon="10.9204"><ele>194.5</ele><time>2026-04-24T15:36:20.031Z</time></trkpt><trkpt lat="44.4141683" lon="10.9205617"><ele>191.75</ele><time>2026-04-24T15:36:21.03Z</time></trkpt><trkpt lat="44.4140867" lon="10.92069"><ele>189.0</ele><time>2026-04-24T15:36:22.031Z</time></trkpt><trkpt lat="44.41398" lon="10.920815"><ele>188.75</ele><time>2026-04-24T15:36:23.031Z</time></trkpt><trkpt lat="44.41386" lon="10.92092"><ele>188.5</ele><time>2026-04-24T15:36:24.031Z</time></trkpt><trkpt lat="44.4137333" lon="10.9210183"><ele>188.25</ele><time>2026-04-24T15:36:25.031Z</time></trkpt><trkpt lat="44.4136117" lon="10.9210983"><ele>188.0</ele><time>2026-04-24T15:36:26.031Z</time></trkpt><trkpt lat="44.413485" lon="10.92115"><ele>188.0</ele><time>2026-04-24T15:36:27.031Z</time></trkpt><trkpt lat="44.4133533" lon="10.92116"><ele>188.0</ele><time>2026-04-24T15:36:28.031Z</time></trkpt><trkpt lat="44.4132217" lon="10.92114"><ele>188.0</ele><time>2026-04-24T15:36:29.031Z</time></trkpt><trkpt lat="44.413095" lon="10.9210967"><ele>188.0</ele><time>2026-04-24T15:36:30.031Z</time></trkpt><trkpt lat="44.4129717" lon="10.921035"><ele>190.5</ele><time>2026-04-24T15:36:31.031Z</time></trkpt><trkpt lat="44.4128417" lon="10.9209783"><ele>193.0</ele><time>2026-04-24T15:36:32.031Z</time></trkpt><trkpt lat="44.412715" lon="10.9209283"><ele>195.5</ele><time>2026-04-24T15:36:33.031Z</time></trkpt><trkpt lat="44.4125767" lon="10.9208717"><ele>198.0</ele><time>2026-04-24T15:36:34.031Z</time></trkpt><trkpt lat="44.4124517" lon="10.9207983"><ele>198.75</ele><time>2026-04-24T15:36:35.03Z</time></trkpt><trkpt lat="44.4123433" lon="10.92073"><ele>199.5</ele><time>2026-04-24T15:36:36.031Z</time></trkpt><trkpt lat="44.4122433" lon="10.9206617"><ele>200.25</ele><time>2026-04-24T15:36:37.031Z</time></trkpt><trkpt lat="44.412125" lon="10.9206117"><ele>201.0</ele><time>2026-04-24T15:36:38.03Z</time></trkpt><trkpt lat="44.41202" lon="10.9205783"><ele>201.0</ele><time>2026-04-24T15:36:39.03Z</time></trkpt><trkpt lat="44.411915" lon="10.9205883"><ele>201.0</ele><time>2026-04-24T15:36:40.031Z</time></trkpt><trkpt lat="44.4118117" lon="10.9206467"><ele>201.0</ele><time>2026-04-24T15:36:41.031Z</time></trkpt><trkpt lat="44.4117167" lon="10.9207317"><ele>201.0</ele><time>2026-04-24T15:36:42.031Z</time></trkpt><trkpt lat="44.4116167" lon="10.920845"><ele>200.25</ele><time>2026-04-24T15:36:43.03Z</time></trkpt><trkpt lat="44.4115133" lon="10.9209717"><ele>199.5</ele><time>2026-04-24T15:36:44.031Z</time></trkpt><trkpt lat="44.41141" lon="10.9211017"><ele>198.75</ele><time>2026-04-24T15:36:45.03Z</time></trkpt><trkpt lat="44.41131" lon="10.92124"><ele>198.0</ele><time>2026-04-24T15:36:46.031Z</time></trkpt><trkpt lat="44.4112033" lon="10.9213667"><ele>197.75</ele><time>2026-04-24T15:36:47.03Z</time></trkpt><trkpt lat="44.4111017" lon="10.92148"><ele>197.5</ele><time>2026-04-24T15:36:48.031Z</time></trkpt><trkpt lat="44.4110033" lon="10.9215867"><ele>197.25</ele><time>2026-04-24T15:36:49.031Z</time></trkpt><trkpt lat="44.410885" lon="10.92167"><ele>197.0</ele><time>2026-04-24T15:36:50.031Z</time></trkpt><trkpt lat="44.4107633" lon="10.921705"><ele>197.0</ele><time>2026-04-24T15:36:51.031Z</time></trkpt><trkpt lat="44.4106517" lon="10.9216983"><ele>197.0</ele><time>2026-04-24T15:36:52.031Z</time></trkpt><trkpt lat="44.41056" lon="10.9216167"><ele>197.0</ele><time>2026-04-24T15:36:53.031Z</time></trkpt><trkpt lat="44.41044" lon="10.9215333"><ele>197.0</ele><time>2026-04-24T15:36:54.031Z</time></trkpt><trkpt lat="44.4103383" lon="10.9214317"><ele>196.75</ele><time>2026-04-24T15:36:55.031Z</time></trkpt><trkpt lat="44.4102517" lon="10.9212867"><ele>196.5</ele><time>2026-04-24T15:36:56.03Z</time></trkpt><trkpt lat="44.4101867" lon="10.9211117"><ele>196.25</ele><time>2026-04-24T15:36:57.031Z</time></trkpt><trkpt lat="44.41012" lon="10.9209483"><ele>196.0</ele><time>2026-04-24T15:36:58.031Z</time></trkpt><trkpt lat="44.4100417" lon="10.920805"><ele>196.0</ele><time>2026-04-24T15:36:59.03Z</time></trkpt><trkpt lat="44.40994" lon="10.9206933"><ele>196.0</ele><time>2026-04-24T15:37:00.031Z</time></trkpt><trkpt lat="44.409825" lon="10.9206283"><ele>196.0</ele><time>2026-04-24T15:37:01.031Z</time></trkpt><trkpt lat="44.4096833" lon="10.9205833"><ele>196.0</ele><time>2026-04-24T15:37:02.031Z</time></trkpt><trkpt lat="44.4095317" lon="10.92055"><ele>194.33333333333331</ele><time>2026-04-24T15:37:03.031Z</time></trkpt><trkpt lat="44.409375" lon="10.9205567"><ele>192.66666666666666</ele><time>2026-04-24T15:37:04.031Z</time></trkpt><trkpt lat="44.4092" lon="10.9205683"><ele>191.0</ele><time>2026-04-24T15:37:05.031Z</time></trkpt><trkpt lat="44.4090317" lon="10.9205933"><ele>191.0</ele><time>2026-04-24T15:37:06.03Z</time></trkpt><trkpt lat="44.4088667" lon="10.9206267"><ele>191.0</ele><time>2026-04-24T15:37:07.031Z</time></trkpt><trkpt lat="44.4087017" lon="10.92067"><ele>191.0</ele><time>2026-04-24T15:37:08.031Z</time></trkpt><trkpt lat="44.4085383" lon="10.920705"><ele>192.33333333333331</ele><time>2026-04-24T15:37:09.031Z</time></trkpt><trkpt lat="44.408375" lon="10.92073"><ele>193.66666666666666</ele><time>2026-04-24T15:37:10.03Z</time></trkpt><trkpt lat="44.4082167" lon="10.920745"><ele>195.0</ele><time>2026-04-24T15:37:11.03Z</time></trkpt><trkpt lat="44.4080567" lon="10.920745"><ele>194.66666666666669</ele><time>2026-04-24T15:37:12.03Z</time></trkpt><trkpt lat="44.4078967" lon="10.920745"><ele>194.33333333333334</ele><time>2026-04-24T15:37:13.03Z</time></trkpt><trkpt lat="44.4077467" lon="10.9207317"><ele>194.0</ele><time>2026-04-24T15:37:14.03Z</time></trkpt><trkpt lat="44.4075867" lon="10.9207233"><ele>194.0</ele><time>2026-04-24T15:37:15.03Z</time></trkpt><trkpt lat="44.407435" lon="10.9207"><ele>194.0</ele><time>2026-04-24T15:37:16.03Z</time></trkpt><trkpt lat="44.407295" lon="10.9206533"><ele>194.0</ele><time>2026-04-24T15:37:17.031Z</time></trkpt><trkpt lat="44.4071483" lon="10.92058"><ele>191.66666666666669</ele><time>2026-04-24T15:37:18.031Z</time></trkpt><trkpt lat="44.407015" lon="10.9205067"><ele>189.33333333333334</ele><time>2026-04-24T15:37:19.03Z</time></trkpt><trkpt lat="44.4068533" lon="10.9204183"><ele>187.0</ele><time>2026-04-24T15:37:20.03Z</time></trkpt><trkpt lat="44.4066933" lon="10.9203367"><ele>187.0</ele><time>2026-04-24T15:37:21.031Z</time></trkpt><trkpt lat="44.4065267" lon="10.9202767"><ele>187.0</ele><time>2026-04-24T15:37:22.031Z</time></trkpt><trkpt lat="44.40635" lon="10.9202283"><ele>187.0</ele><time>2026-04-24T15:37:23.031Z</time></trkpt><trkpt lat="44.406175" lon="10.9201867"><ele>186.33333333333334</ele><time>2026-04-24T15:37:24.031Z</time></trkpt><trkpt lat="44.4060117" lon="10.9201467"><ele>185.66666666666666</ele><time>2026-04-24T15:37:25.03Z</time></trkpt><trkpt lat="44.4058517" lon="10.9201267"><ele>185.0</ele><time>2026-04-24T15:37:26.031Z</time></trkpt><trkpt lat="44.4057083" lon="10.9201117"><ele>185.0</ele><time>2026-04-24T15:37:27.031Z</time></trkpt><trkpt lat="44.4055633" lon="10.9201067"><ele>185.0</ele><time>2026-04-24T15:37:28.031Z</time></trkpt><trkpt lat="44.4054083" lon="10.9201017"><ele>185.0</ele><time>2026-04-24T15:37:29.031Z</time></trkpt><trkpt lat="44.4052583" lon="10.920115"><ele>185.25</ele><time>2026-04-24T15:37:30.031Z</time></trkpt><trkpt lat="44.40512" lon="10.92014"><ele>185.5</ele><time>2026-04-24T15:37:31.031Z</time></trkpt><trkpt lat="44.4049917" lon="10.9201667"><ele>185.75</ele><time>2026-04-24T15:37:32.031Z</time></trkpt><trkpt lat="44.4048683" lon="10.9201967"><ele>186.0</ele><time>2026-04-24T15:37:33.031Z</time></trkpt><trkpt lat="44.4047483" lon="10.9202217"><ele>186.5</ele><time>2026-04-24T15:37:34.03Z</time></trkpt><trkpt lat="44.4046233" lon="10.9202417"><ele>187.0</ele><time>2026-04-24T15:37:35.031Z</time></trkpt><trkpt lat="44.4044917" lon="10.9202817"><ele>187.5</ele><time>2026-04-24T15:37:36.031Z</time></trkpt><trkpt lat="44.4043683" lon="10.92035"><ele>188.0</ele><time>2026-04-24T15:37:37.031Z</time></trkpt><trkpt lat="44.4042483" lon="10.9204533"><ele>188.0</ele><time>2026-04-24T15:37:38.031Z</time></trkpt><trkpt lat="44.4041333" lon="10.9205817"><ele>188.0</ele><time>2026-04-24T15:37:39.03Z</time></trkpt><trkpt lat="44.4040133" lon="10.9207133"><ele>188.0</ele><time>2026-04-24T15:37:40.03Z</time></trkpt><trkpt lat="44.403895" lon="10.92084"><ele>188.0</ele><time>2026-04-24T15:37:41.031Z</time></trkpt><trkpt lat="44.4037817" lon="10.9209583"><ele>187.75</ele><time>2026-04-24T15:37:42.031Z</time></trkpt><trkpt lat="44.4036667" lon="10.9210667"><ele>187.5</ele><time>2026-04-24T15:37:43.031Z</time></trkpt><trkpt lat="44.40355" lon="10.9211633"><ele>187.25</ele><time>2026-04-24T15:37:44.031Z</time></trkpt><trkpt lat="44.4034333" lon="10.9212317"><ele>187.0</ele><time>2026-04-24T15:37:45.031Z</time></trkpt><trkpt lat="44.4033117" lon="10.9212683"><ele>187.0</ele><time>2026-04-24T15:37:46.031Z</time></trkpt><trkpt lat="44.4031883" lon="10.9212767"><ele>187.0</ele><time>2026-04-24T15:37:47.03Z</time></trkpt><trkpt lat="44.4030583" lon="10.9212567"><ele>187.0</ele><time>2026-04-24T15:37:48.031Z</time></trkpt><trkpt lat="44.4029333" lon="10.9212467"><ele>187.0</ele><time>2026-04-24T15:37:49.031Z</time></trkpt><trkpt lat="44.40281" lon="10.9212367"><ele>186.25</ele><time>2026-04-24T15:37:50.031Z</time></trkpt><trkpt lat="44.4026783" lon="10.9212233"><ele>185.5</ele><time>2026-04-24T15:37:51.031Z</time></trkpt><trkpt lat="44.40253" lon="10.92121"><ele>184.75</ele><time>2026-04-24T15:37:52.031Z</time></trkpt><trkpt lat="44.4023817" lon="10.9212133"><ele>184.0</ele><time>2026-04-24T15:37:53.031Z</time></trkpt><trkpt lat="44.4022383" lon="10.9212167"><ele>184.25</ele><time>2026-04-24T15:37:54.031Z</time></trkpt><trkpt lat="44.4020983" lon="10.921225"><ele>184.5</ele><time>2026-04-24T15:37:55.031Z</time></trkpt><trkpt lat="44.4019617" lon="10.92125"><ele>184.75</ele><time>2026-04-24T15:37:56.03Z</time></trkpt><trkpt lat="44.4018283" lon="10.9212617"><ele>185.0</ele><time>2026-04-24T15:37:57.031Z</time></trkpt><trkpt lat="44.4017017" lon="10.9212767"><ele>185.0</ele><time>2026-04-24T15:37:58.03Z</time></trkpt><trkpt lat="44.401565" lon="10.9212983"><ele>185.0</ele><time>2026-04-24T15:37:59.031Z</time></trkpt><trkpt lat="44.4014183" lon="10.9213183"><ele>185.0</ele><time>2026-04-24T15:38:00.031Z</time></trkpt><trkpt lat="44.4012733" lon="10.9213117"><ele>185.0</ele><time>2026-04-24T15:38:01.031Z</time></trkpt><trkpt lat="44.4011183" lon="10.9212817"><ele>185.0</ele><time>2026-04-24T15:38:02.031Z</time></trkpt><trkpt lat="44.4009583" lon="10.92122"><ele>185.0</ele><time>2026-04-24T15:38:03.03Z</time></trkpt><trkpt lat="44.4008" lon="10.921135"><ele>185.0</ele><time>2026-04-24T15:38:04.03Z</time></trkpt><trkpt lat="44.4006433" lon="10.921035"><ele>185.0</ele><time>2026-04-24T15:38:05.03Z</time></trkpt><trkpt lat="44.4004933" lon="10.9209433"><ele>185.0</ele><time>2026-04-24T15:38:06.031Z</time></trkpt><trkpt lat="44.40035" lon="10.9208567"><ele>185.0</ele><time>2026-04-24T15:38:07.031Z</time></trkpt><trkpt lat="44.40023" lon="10.9207817"><ele>186.0</ele><time>2026-04-24T15:38:08.03Z</time></trkpt><trkpt lat="44.4001217" lon="10.9207017"><ele>187.0</ele><time>2026-04-24T15:38:09.031Z</time></trkpt><trkpt lat="44.4000083" lon="10.9206033"><ele>188.0</ele><time>2026-04-24T15:38:10.03Z</time></trkpt><trkpt lat="44.3999017" lon="10.9205"><ele>189.0</ele><time>2026-04-24T15:38:11.031Z</time></trkpt><trkpt lat="44.3997967" lon="10.9203967"><ele>189.0</ele><time>2026-04-24T15:38:12.03Z</time></trkpt><trkpt lat="44.3996883" lon="10.9203117"><ele>189.0</ele><time>2026-04-24T15:38:13.031Z</time></trkpt><trkpt lat="44.3995717" lon="10.9202217"><ele>189.0</ele><time>2026-04-24T15:38:14.031Z</time></trkpt><trkpt lat="44.3994417" lon="10.9201367"><ele>189.0</ele><time>2026-04-24T15:38:15.031Z</time></trkpt><trkpt lat="44.3993033" lon="10.92007"><ele>190.33333333333331</ele><time>2026-04-24T15:38:16.031Z</time></trkpt><trkpt lat="44.399155" lon="10.920005"><ele>191.66666666666666</ele><time>2026-04-24T15:38:17.031Z</time></trkpt><trkpt lat="44.3990067" lon="10.9199417"><ele>193.0</ele><time>2026-04-24T15:38:18.031Z</time></trkpt><trkpt lat="44.39887" lon="10.9198967"><ele>191.66666666666666</ele><time>2026-04-24T15:38:19.031Z</time></trkpt><trkpt lat="44.3987383" lon="10.91984"><ele>190.33333333333331</ele><time>2026-04-24T15:38:20.03Z</time></trkpt><trkpt lat="44.3985967" lon="10.9197767"><ele>189.0</ele><time>2026-04-24T15:38:21.031Z</time></trkpt><trkpt lat="44.3984367" lon="10.9197117"><ele>189.0</ele><time>2026-04-24T15:38:22.031Z</time></trkpt><trkpt lat="44.398285" lon="10.9196567"><ele>189.0</ele><time>2026-04-24T15:38:23.031Z</time></trkpt><trkpt lat="44.3981383" lon="10.9195933"><ele>189.0</ele><time>2026-04-24T15:38:24.03Z</time></trkpt><trkpt lat="44.397975" lon="10.919525"><ele>189.66666666666666</ele><time>2026-04-24T15:38:25.031Z</time></trkpt><trkpt lat="44.3978233" lon="10.9194683"><ele>190.33333333333331</ele><time>2026-04-24T15:38:26.03Z</time></trkpt><trkpt lat="44.3976683" lon="10.9194383"><ele>191.0</ele><time>2026-04-24T15:38:27.031Z</time></trkpt><trkpt lat="44.39752" lon="10.91945"><ele>191.0</ele><time>2026-04-24T15:38:28.031Z</time></trkpt><trkpt lat="44.397365" lon="10.91948"><ele>191.0</ele><time>2026-04-24T15:38:29.03Z</time></trkpt><trkpt lat="44.3972067" lon="10.919535"><ele>191.0</ele><time>2026-04-24T15:38:30.031Z</time></trkpt><trkpt lat="44.39706" lon="10.9195667"><ele>191.5</ele><time>2026-04-24T15:38:31.031Z</time></trkpt><trkpt lat="44.3969167" lon="10.9195867"><ele>192.0</ele><time>2026-04-24T15:38:32.031Z</time></trkpt><trkpt lat="44.3967817" lon="10.9195583"><ele>192.5</ele><time>2026-04-24T15:38:33.031Z</time></trkpt><trkpt lat="44.3966433" lon="10.9195133"><ele>193.0</ele><time>2026-04-24T15:38:34.031Z</time></trkpt><trkpt lat="44.39651" lon="10.9194683"><ele>193.0</ele><time>2026-04-24T15:38:35.031Z</time></trkpt><trkpt lat="44.39638" lon="10.9194167"><ele>193.0</ele><time>2026-04-24T15:38:36.031Z</time></trkpt><trkpt lat="44.396255" lon="10.9193583"><ele>193.0</ele><time>2026-04-24T15:38:37.031Z</time></trkpt><trkpt lat="44.3961283" lon="10.9192883"><ele>193.0</ele><time>2026-04-24T15:38:38.031Z</time></trkpt><trkpt lat="44.3960033" lon="10.9192067"><ele>197.0</ele><time>2026-04-24T15:38:39.03Z</time></trkpt><trkpt lat="44.3958667" lon="10.919125"><ele>201.0</ele><time>2026-04-24T15:38:40.03Z</time></trkpt><trkpt lat="44.3957367" lon="10.9190317"><ele>205.0</ele><time>2026-04-24T15:38:41.031Z</time></trkpt><trkpt lat="44.3955917" lon="10.9189533"><ele>204.0</ele><time>2026-04-24T15:38:42.031Z</time></trkpt><trkpt lat="44.3954517" lon="10.91888"><ele>203.0</ele><time>2026-04-24T15:38:43.031Z</time></trkpt><trkpt lat="44.3953217" lon="10.9187967"><ele>202.0</ele><time>2026-04-24T15:38:44.031Z</time></trkpt><trkpt lat="44.395195" lon="10.9187017"><ele>201.0</ele><time>2026-04-24T15:38:45.031Z</time></trkpt><trkpt lat="44.395055" lon="10.9186317"><ele>201.0</ele><time>2026-04-24T15:38:46.031Z</time></trkpt><trkpt lat="44.3949183" lon="10.9185733"><ele>201.0</ele><time>2026-04-24T15:38:47.031Z</time></trkpt><trkpt lat="44.394785" lon="10.918515"><ele>201.0</ele><time>2026-04-24T15:38:48.031Z</time></trkpt><trkpt lat="44.3946483" lon="10.918465"><ele>201.0</ele><time>2026-04-24T15:38:49.03Z</time></trkpt><trkpt lat="44.3945067" lon="10.91842"><ele>204.25</ele><time>2026-04-24T15:38:50.031Z</time></trkpt><trkpt lat="44.3943567" lon="10.9183767"><ele>207.5</ele><time>2026-04-24T15:38:51.03Z</time></trkpt><trkpt lat="44.39421" lon="10.9183367"><ele>210.75</ele><time>2026-04-24T15:38:52.031Z</time></trkpt><trkpt lat="44.3940683" lon="10.918295"><ele>214.0</ele><time>2026-04-24T15:38:53.031Z</time></trkpt><trkpt lat="44.3939333" lon="10.9182483"><ele>212.25</ele><time>2026-04-24T15:38:54.03Z</time></trkpt><trkpt lat="44.3938" lon="10.9182017"><ele>210.5</ele><time>2026-04-24T15:38:55.03Z</time></trkpt><trkpt lat="44.3936667" lon="10.9181633"><ele>208.75</ele><time>2026-04-24T15:38:56.031Z</time></trkpt><trkpt lat="44.3935333" lon="10.9181117"><ele>207.0</ele><time>2026-04-24T15:38:57.03Z</time></trkpt><trkpt lat="44.393395" lon="10.91805"><ele>207.0</ele><time>2026-04-24T15:38:58.031Z</time></trkpt><trkpt lat="44.393245" lon="10.9179917"><ele>207.0</ele><time>2026-04-24T15:38:59.031Z</time></trkpt><trkpt lat="44.393085" lon="10.9179467"><ele>207.0</ele><time>2026-04-24T15:39:00.031Z</time></trkpt><trkpt lat="44.3929383" lon="10.91789"><ele>205.0</ele><time>2026-04-24T15:39:01.03Z</time></trkpt><trkpt lat="44.3927833" lon="10.9178383"><ele>203.0</ele><time>2026-04-24T15:39:02.03Z</time></trkpt><trkpt lat="44.392625" lon="10.917785"><ele>201.0</ele><time>2026-04-24T15:39:03.031Z</time></trkpt><trkpt lat="44.3924667" lon="10.917735"><ele>201.0</ele><time>2026-04-24T15:39:04.031Z</time></trkpt><trkpt lat="44.3923" lon="10.9176667"><ele>201.0</ele><time>2026-04-24T15:39:05.031Z</time></trkpt><trkpt lat="44.3921233" lon="10.9176"><ele>201.0</ele><time>2026-04-24T15:39:06.031Z</time></trkpt><trkpt lat="44.3919417" lon="10.91753"><ele>203.0</ele><time>2026-04-24T15:39:07.031Z</time></trkpt><trkpt lat="44.3917533" lon="10.9174583"><ele>205.0</ele><time>2026-04-24T15:39:08.031Z</time></trkpt><trkpt lat="44.3915633" lon="10.9173867"><ele>207.0</ele><time>2026-04-24T15:39:09.031Z</time></trkpt><trkpt lat="44.3913767" lon="10.917305"><ele>204.33333333333331</ele><time>2026-04-24T15:39:10.03Z</time></trkpt><trkpt lat="44.3911967" lon="10.9172283"><ele>201.66666666666666</ele><time>2026-04-24T15:39:11.03Z</time></trkpt><trkpt lat="44.39102" lon="10.91716"><ele>199.0</ele><time>2026-04-24T15:39:12.03Z</time></trkpt><trkpt lat="44.3908617" lon="10.9170783"><ele>199.0</ele><time>2026-04-24T15:39:13.03Z</time></trkpt><trkpt lat="44.390705" lon="10.9170183"><ele>199.0</ele><time>2026-04-24T15:39:14.031Z</time></trkpt><trkpt lat="44.390555" lon="10.916965"><ele>199.0</ele><time>2026-04-24T15:39:15.031Z</time></trkpt><trkpt lat="44.3903883" lon="10.9168967"><ele>199.33333333333331</ele><time>2026-04-24T15:39:16.031Z</time></trkpt><trkpt lat="44.390225" lon="10.9168267"><ele>199.66666666666669</ele><time>2026-04-24T15:39:17.031Z</time></trkpt><trkpt lat="44.3900717" lon="10.916755"><ele>200.0</ele><time>2026-04-24T15:39:18.03Z</time></trkpt><trkpt lat="44.3899233" lon="10.9166733"><ele>200.0</ele><time>2026-04-24T15:39:19.031Z</time></trkpt><trkpt lat="44.3897733" lon="10.9165983"><ele>200.0</ele><time>2026-04-24T15:39:20.031Z</time></trkpt><trkpt lat="44.38963" lon="10.9165017"><ele>200.0</ele><time>2026-04-24T15:39:21.031Z</time></trkpt><trkpt lat="44.3894833" lon="10.91642"><ele>198.0</ele><time>2026-04-24T15:39:22.031Z</time></trkpt><trkpt lat="44.389325" lon="10.9163483"><ele>196.0</ele><time>2026-04-24T15:39:23.031Z</time></trkpt><trkpt lat="44.3891833" lon="10.9162583"><ele>194.0</ele><time>2026-04-24T15:39:24.031Z</time></trkpt><trkpt lat="44.38904" lon="10.9161717"><ele>194.0</ele><time>2026-04-24T15:39:25.031Z</time></trkpt><trkpt lat="44.3889017" lon="10.916065"><ele>194.0</ele><time>2026-04-24T15:39:26.03Z</time></trkpt><trkpt lat="44.3887717" lon="10.9159533"><ele>194.0</ele><time>2026-04-24T15:39:27.03Z</time></trkpt><trkpt lat="44.3886483" lon="10.9158483"><ele>194.25</ele><time>2026-04-24T15:39:28.03Z</time></trkpt><trkpt lat="44.3885267" lon="10.9157517"><ele>194.5</ele><time>2026-04-24T15:39:29.031Z</time></trkpt><trkpt lat="44.388415" lon="10.9156483"><ele>194.75</ele><time>2026-04-24T15:39:30.031Z</time></trkpt><trkpt lat="44.3882967" lon="10.91554"><ele>195.0</ele><time>2026-04-24T15:39:31.03Z</time></trkpt><trkpt lat="44.3881783" lon="10.915435"><ele>195.0</ele><time>2026-04-24T15:39:32.03Z</time></trkpt><trkpt lat="44.3880667" lon="10.915325"><ele>195.0</ele><time>2026-04-24T15:39:33.031Z</time></trkpt><trkpt lat="44.3879483" lon="10.9152183"><ele>195.0</ele><time>2026-04-24T15:39:34.031Z</time></trkpt><trkpt lat="44.3878183" lon="10.91511"><ele>195.0</ele><time>2026-04-24T15:39:35.03Z</time></trkpt><trkpt lat="44.3876733" lon="10.9149917"><ele>195.0</ele><time>2026-04-24T15:39:36.031Z</time></trkpt><trkpt lat="44.3875183" lon="10.9148583"><ele>195.0</ele><time>2026-04-24T15:39:37.031Z</time></trkpt><trkpt lat="44.3873583" lon="10.914705"><ele>195.0</ele><time>2026-04-24T15:39:38.031Z</time></trkpt><trkpt lat="44.387195" lon="10.9145483"><ele>194.66666666666669</ele><time>2026-04-24T15:39:39.031Z</time></trkpt><trkpt lat="44.3870367" lon="10.914405"><ele>194.33333333333334</ele><time>2026-04-24T15:39:40.031Z</time></trkpt><trkpt lat="44.3868833" lon="10.9142667"><ele>194.0</ele><time>2026-04-24T15:39:41.031Z</time></trkpt><trkpt lat="44.3867283" lon="10.9141217"><ele>194.0</ele><time>2026-04-24T15:39:42.031Z</time></trkpt><trkpt lat="44.3865833" lon="10.9139883"><ele>194.0</ele><time>2026-04-24T15:39:43.031Z</time></trkpt><trkpt lat="44.3864433" lon="10.9138533"><ele>194.0</ele><time>2026-04-24T15:39:44.031Z</time></trkpt><trkpt lat="44.3863" lon="10.9137267"><ele>194.0</ele><time>2026-04-24T15:39:45.03Z</time></trkpt><trkpt lat="44.3861683" lon="10.913605"><ele>194.0</ele><time>2026-04-24T15:39:46.03Z</time></trkpt><trkpt lat="44.38604" lon="10.9134817"><ele>194.0</ele><time>2026-04-24T15:39:47.031Z</time></trkpt><trkpt lat="44.3859117" lon="10.9133683"><ele>195.0</ele><time>2026-04-24T15:39:48.03Z</time></trkpt><trkpt lat="44.3857833" lon="10.9132483"><ele>196.0</ele><time>2026-04-24T15:39:49.03Z</time></trkpt><trkpt lat="44.3856567" lon="10.91313"><ele>197.0</ele><time>2026-04-24T15:39:50.03Z</time></trkpt><trkpt lat="44.3855283" lon="10.9130117"><ele>197.0</ele><time>2026-04-24T15:39:51.031Z</time></trkpt><trkpt lat="44.3853883" lon="10.9129067"><ele>197.0</ele><time>2026-04-24T15:39:52.031Z</time></trkpt><trkpt lat="44.3852383" lon="10.9128017"><ele>197.0</ele><time>2026-04-24T15:39:53.031Z</time></trkpt><trkpt lat="44.3850783" lon="10.912725"><ele>197.0</ele><time>2026-04-24T15:39:54.03Z</time></trkpt><trkpt lat="44.38491" lon="10.912675"><ele>197.0</ele><time>2026-04-24T15:39:55.03Z</time></trkpt><trkpt lat="44.3847317" lon="10.912635"><ele>197.0</ele><time>2026-04-24T15:39:56.029Z</time></trkpt><trkpt lat="44.384575" lon="10.9125833"><ele>199.0</ele><time>2026-04-24T15:39:57.03Z</time></trkpt><trkpt lat="44.3844233" lon="10.9125333"><ele>201.0</ele><time>2026-04-24T15:39:58.03Z</time></trkpt><trkpt lat="44.38428" lon="10.9124783"><ele>203.0</ele><time>2026-04-24T15:39:59.029Z</time></trkpt><trkpt lat="44.3841367" lon="10.9124283"><ele>203.0</ele><time>2026-04-24T15:40:00.029Z</time></trkpt><trkpt lat="44.3839833" lon="10.912385"><ele>203.0</ele><time>2026-04-24T15:40:01.029Z</time></trkpt><trkpt lat="44.3838367" lon="10.9123483"><ele>203.0</ele><time>2026-04-24T15:40:02.03Z</time></trkpt><trkpt lat="44.3836917" lon="10.9123083"><ele>201.66666666666669</ele><time>2026-04-24T15:40:03.029Z</time></trkpt><trkpt lat="44.383545" lon="10.9122733"><ele>200.33333333333331</ele><time>2026-04-24T15:40:04.029Z</time></trkpt><trkpt lat="44.38339" lon="10.9122417"><ele>199.0</ele><time>2026-04-24T15:40:05.03Z</time></trkpt><trkpt lat="44.3832467" lon="10.912205"><ele>199.0</ele><time>2026-04-24T15:40:06.03Z</time></trkpt><trkpt lat="44.383095" lon="10.9121817"><ele>199.0</ele><time>2026-04-24T15:40:07.029Z</time></trkpt><trkpt lat="44.382935" lon="10.91217"><ele>199.0</ele><time>2026-04-24T15:40:08.03Z</time></trkpt><trkpt lat="44.3827583" lon="10.91217"><ele>200.0</ele><time>2026-04-24T15:40:09.03Z</time></trkpt><trkpt lat="44.38258" lon="10.9121883"><ele>201.0</ele><time>2026-04-24T15:40:10.03Z</time></trkpt><trkpt lat="44.3823867" lon="10.9122083"><ele>202.0</ele><time>2026-04-24T15:40:11.03Z</time></trkpt><trkpt lat="44.382195" lon="10.912225"><ele>203.66666666666666</ele><time>2026-04-24T15:40:12.029Z</time></trkpt><trkpt lat="44.3819983" lon="10.9122517"><ele>205.33333333333331</ele><time>2026-04-24T15:40:13.03Z</time></trkpt><trkpt lat="44.3818" lon="10.91229"><ele>207.0</ele><time>2026-04-24T15:40:14.03Z</time></trkpt><trkpt lat="44.38161" lon="10.9123383"><ele>207.0</ele><time>2026-04-24T15:40:15.03Z</time></trkpt><trkpt lat="44.3814183" lon="10.9124"><ele>207.0</ele><time>2026-04-24T15:40:16.03Z</time></trkpt><trkpt lat="44.38123" lon="10.91246"><ele>207.0</ele><time>2026-04-24T15:40:17.03Z</time></trkpt><trkpt lat="44.38105" lon="10.9125133"><ele>208.66666666666669</ele><time>2026-04-24T15:40:18.029Z</time></trkpt><trkpt lat="44.3808683" lon="10.9125667"><ele>210.33333333333334</ele><time>2026-04-24T15:40:19.03Z</time></trkpt><trkpt lat="44.3806967" lon="10.912615"><ele>212.0</ele><time>2026-04-24T15:40:20.03Z</time></trkpt><trkpt lat="44.3805283" lon="10.9126733"><ele>210.0</ele><time>2026-04-24T15:40:21.03Z</time></trkpt><trkpt lat="44.380365" lon="10.9127367"><ele>208.0</ele><time>2026-04-24T15:40:22.03Z</time></trkpt><trkpt lat="44.3802117" lon="10.9128033"><ele>206.0</ele><time>2026-04-24T15:40:23.03Z</time></trkpt><trkpt lat="44.38007" lon="10.9128683"><ele>206.0</ele><time>2026-04-24T15:40:24.03Z</time></trkpt><trkpt lat="44.3799333" lon="10.912945"><ele>206.0</ele><time>2026-04-24T15:40:25.03Z</time></trkpt><trkpt lat="44.3797983" lon="10.91304"><ele>206.0</ele><time>2026-04-24T15:40:26.029Z</time></trkpt><trkpt lat="44.3796683" lon="10.9131517"><ele>206.75</ele><time>2026-04-24T15:40:27.03Z</time></trkpt><trkpt lat="44.37955" lon="10.9132683"><ele>207.5</ele><time>2026-04-24T15:40:28.03Z</time></trkpt><trkpt lat="44.379435" lon="10.9133867"><ele>208.25</ele><time>2026-04-24T15:40:29.03Z</time></trkpt><trkpt lat="44.3793117" lon="10.9135133"><ele>209.0</ele><time>2026-04-24T15:40:30.03Z</time></trkpt><trkpt lat="44.3791983" lon="10.9136367"><ele>209.0</ele><time>2026-04-24T15:40:31.03Z</time></trkpt><trkpt lat="44.37909" lon="10.9137583"><ele>209.0</ele><time>2026-04-24T15:40:32.03Z</time></trkpt><trkpt lat="44.3789867" lon="10.9138817"><ele>209.0</ele><time>2026-04-24T15:40:33.03Z</time></trkpt><trkpt lat="44.3788833" lon="10.9139933"><ele>209.0</ele><time>2026-04-24T15:40:34.029Z</time></trkpt><trkpt lat="44.3787767" lon="10.91412"><ele>209.75</ele><time>2026-04-24T15:40:35.03Z</time></trkpt><trkpt lat="44.3786717" lon="10.9142517"><ele>210.5</ele><time>2026-04-24T15:40:36.03Z</time></trkpt><trkpt lat="44.3785567" lon="10.9143817"><ele>211.25</ele><time>2026-04-24T15:40:37.03Z</time></trkpt><trkpt lat="44.3784383" lon="10.9145017"><ele>212.0</ele><time>2026-04-24T15:40:38.029Z</time></trkpt><trkpt lat="44.3783267" lon="10.9146233"><ele>212.0</ele><time>2026-04-24T15:40:39.029Z</time></trkpt><trkpt lat="44.3782117" lon="10.9147533"><ele>212.0</ele><time>2026-04-24T15:40:40.03Z</time></trkpt><trkpt lat="44.3780967" lon="10.9148867"><ele>212.0</ele><time>2026-04-24T15:40:41.03Z</time></trkpt><trkpt lat="44.377985" lon="10.915005"><ele>212.0</ele><time>2026-04-24T15:40:42.03Z</time></trkpt><trkpt lat="44.377865" lon="10.9151067"><ele>212.5</ele><time>2026-04-24T15:40:43.029Z</time></trkpt><trkpt lat="44.377745" lon="10.915185"><ele>213.0</ele><time>2026-04-24T15:40:44.029Z</time></trkpt><trkpt lat="44.3776167" lon="10.915265"><ele>213.5</ele><time>2026-04-24T15:40:45.029Z</time></trkpt><trkpt lat="44.3774683" lon="10.9153433"><ele>214.0</ele><time>2026-04-24T15:40:46.029Z</time></trkpt><trkpt lat="44.3773233" lon="10.9154033"><ele>215.0</ele><time>2026-04-24T15:40:47.029Z</time></trkpt><trkpt lat="44.377185" lon="10.9154683"><ele>216.0</ele><time>2026-04-24T15:40:48.03Z</time></trkpt><trkpt lat="44.37705" lon="10.915525"><ele>217.0</ele><time>2026-04-24T15:40:49.029Z</time></trkpt><trkpt lat="44.3769167" lon="10.915575"><ele>218.0</ele><time>2026-04-24T15:40:50.03Z</time></trkpt><trkpt lat="44.3767883" lon="10.9156333"><ele>218.0</ele><time>2026-04-24T15:40:51.03Z</time></trkpt><trkpt lat="44.37667" lon="10.915675"><ele>218.0</ele><time>2026-04-24T15:40:52.029Z</time></trkpt><trkpt lat="44.3765467" lon="10.9156917"><ele>218.0</ele><time>2026-04-24T15:40:53.03Z</time></trkpt><trkpt lat="44.3764233" lon="10.91569"><ele>218.0</ele><time>2026-04-24T15:40:54.03Z</time></trkpt><trkpt lat="44.3763" lon="10.9156467"><ele>216.25</ele><time>2026-04-24T15:40:55.03Z</time></trkpt><trkpt lat="44.3761783" lon="10.9155783"><ele>214.5</ele><time>2026-04-24T15:40:56.03Z</time></trkpt><trkpt lat="44.3760667" lon="10.915485"><ele>212.75</ele><time>2026-04-24T15:40:57.03Z</time></trkpt><trkpt lat="44.3759633" lon="10.9153767"><ele>211.0</ele><time>2026-04-24T15:40:58.03Z</time></trkpt><trkpt lat="44.3758683" lon="10.91525"><ele>211.0</ele><time>2026-04-24T15:40:59.029Z</time></trkpt><trkpt lat="44.37577" lon="10.9151283"><ele>211.0</ele><time>2026-04-24T15:41:00.03Z</time></trkpt><trkpt lat="44.3756633" lon="10.9150117"><ele>211.0</ele><time>2026-04-24T15:41:01.03Z</time></trkpt><trkpt lat="44.3755433" lon="10.9149167"><ele>211.0</ele><time>2026-04-24T15:41:02.03Z</time></trkpt><trkpt lat="44.3754133" lon="10.91483"><ele>211.75</ele><time>2026-04-24T15:41:03.03Z</time></trkpt><trkpt lat="44.37528" lon="10.914755"><ele>212.5</ele><time>2026-04-24T15:41:04.03Z</time></trkpt><trkpt lat="44.3751467" lon="10.914685"><ele>213.25</ele><time>2026-04-24T15:41:05.03Z</time></trkpt><trkpt lat="44.3750083" lon="10.9146017"><ele>214.0</ele><time>2026-04-24T15:41:06.03Z</time></trkpt><trkpt lat="44.374875" lon="10.9145133"><ele>214.0</ele><time>2026-04-24T15:41:07.03Z</time></trkpt><trkpt lat="44.374735" lon="10.9144283"><ele>214.0</ele><time>2026-04-24T15:41:08.03Z</time></trkpt><trkpt lat="44.3746" lon="10.9143567"><ele>214.0</ele><time>2026-04-24T15:41:09.03Z</time></trkpt><trkpt lat="44.3744567" lon="10.9142767"><ele>216.66666666666666</ele><time>2026-04-24T15:41:10.03Z</time></trkpt><trkpt lat="44.3743133" lon="10.9142"><ele>219.33333333333331</ele><time>2026-04-24T15:41:11.029Z</time></trkpt><trkpt lat="44.3741717" lon="10.9141167"><ele>222.0</ele><time>2026-04-24T15:41:12.03Z</time></trkpt><trkpt lat="44.3740217" lon="10.914045"><ele>222.0</ele><time>2026-04-24T15:41:13.03Z</time></trkpt><trkpt lat="44.3738683" lon="10.9139867"><ele>222.0</ele><time>2026-04-24T15:41:14.03Z</time></trkpt><trkpt lat="44.3737133" lon="10.913955"><ele>222.0</ele><time>2026-04-24T15:41:15.03Z</time></trkpt><trkpt lat="44.373555" lon="10.913965"><ele>220.0</ele><time>2026-04-24T15:41:16.029Z</time></trkpt><trkpt lat="44.3734" lon="10.9139933"><ele>218.0</ele><time>2026-04-24T15:41:17.03Z</time></trkpt><trkpt lat="44.3732467" lon="10.914035"><ele>216.0</ele><time>2026-04-24T15:41:18.03Z</time></trkpt><trkpt lat="44.3730917" lon="10.9140717"><ele>217.0</ele><time>2026-04-24T15:41:19.03Z</time></trkpt><trkpt lat="44.3729417" lon="10.9141183"><ele>218.0</ele><time>2026-04-24T15:41:20.03Z</time></trkpt><trkpt lat="44.3727867" lon="10.9141617"><ele>219.0</ele><time>2026-04-24T15:41:21.03Z</time></trkpt><trkpt lat="44.3726417" lon="10.9142017"><ele>215.66666666666669</ele><time>2026-04-24T15:41:22.03Z</time></trkpt><trkpt lat="44.3725033" lon="10.914245"><ele>212.33333333333334</ele><time>2026-04-24T15:41:23.03Z</time></trkpt><trkpt lat="44.3723483" lon="10.914285"><ele>209.0</ele><time>2026-04-24T15:41:24.029Z</time></trkpt><trkpt lat="44.372185" lon="10.9143217"><ele>209.0</ele><time>2026-04-24T15:41:25.03Z</time></trkpt><trkpt lat="44.3720233" lon="10.9143467"><ele>209.0</ele><time>2026-04-24T15:41:26.03Z</time></trkpt><trkpt lat="44.37186" lon="10.9143717"><ele>209.0</ele><time>2026-04-24T15:41:27.029Z</time></trkpt><trkpt lat="44.3717033" lon="10.9143767"><ele>209.0</ele><time>2026-04-24T15:41:28.029Z</time></trkpt><trkpt lat="44.37155" lon="10.91437"><ele>209.0</ele><time>2026-04-24T15:41:29.03Z</time></trkpt><trkpt lat="44.3713933" lon="10.914365"><ele>209.0</ele><time>2026-04-24T15:41:30.029Z</time></trkpt><trkpt lat="44.3712267" lon="10.914345"><ele>209.66666666666669</ele><time>2026-04-24T15:41:31.03Z</time></trkpt><trkpt lat="44.37107" lon="10.9143333"><ele>210.33333333333331</ele><time>2026-04-24T15:41:32.03Z</time></trkpt><trkpt lat="44.3709167" lon="10.914305"><ele>211.0</ele><time>2026-04-24T15:41:33.03Z</time></trkpt><trkpt lat="44.3707633" lon="10.9142883"><ele>211.0</ele><time>2026-04-24T15:41:34.03Z</time></trkpt><trkpt lat="44.370615" lon="10.9142833"><ele>211.0</ele><time>2026-04-24T15:41:35.03Z</time></trkpt><trkpt lat="44.3704667" lon="10.9142617"><ele>211.0</ele><time>2026-04-24T15:41:36.03Z</time></trkpt><trkpt lat="44.3703167" lon="10.9142567"><ele>211.0</ele><time>2026-04-24T15:41:37.03Z</time></trkpt><trkpt lat="44.37016" lon="10.91429"><ele>211.33333333333331</ele><time>2026-04-24T15:41:38.03Z</time></trkpt><trkpt lat="44.3699933" lon="10.9143567"><ele>211.66666666666669</ele><time>2026-04-24T15:41:39.03Z</time></trkpt><trkpt lat="44.36983" lon="10.9144217"><ele>212.0</ele><time>2026-04-24T15:41:40.03Z</time></trkpt><trkpt lat="44.3696683" lon="10.9144933"><ele>213.0</ele><time>2026-04-24T15:41:41.03Z</time></trkpt><trkpt lat="44.3694983" lon="10.91458"><ele>214.0</ele><time>2026-04-24T15:41:42.03Z</time></trkpt><trkpt lat="44.3693167" lon="10.9146517"><ele>215.0</ele><time>2026-04-24T15:41:43.03Z</time></trkpt><trkpt lat="44.3691183" lon="10.9147283"><ele>215.0</ele><time>2026-04-24T15:41:44.03Z</time></trkpt><trkpt lat="44.36891" lon="10.9148083"><ele>215.0</ele><time>2026-04-24T15:41:45.029Z</time></trkpt><trkpt lat="44.368695" lon="10.9148883"><ele>215.0</ele><time>2026-04-24T15:41:46.03Z</time></trkpt><trkpt lat="44.36847" lon="10.9149717"><ele>213.0</ele><time>2026-04-24T15:41:47.03Z</time></trkpt><trkpt lat="44.3682433" lon="10.91506"><ele>211.0</ele><time>2026-04-24T15:41:48.03Z</time></trkpt><trkpt lat="44.368025" lon="10.9151567"><ele>211.0</ele><time>2026-04-24T15:41:49.03Z</time></trkpt><trkpt lat="44.3677967" lon="10.915265"><ele>211.0</ele><time>2026-04-24T15:41:50.03Z</time></trkpt><trkpt lat="44.36758" lon="10.91538"><ele>211.0</ele><time>2026-04-24T15:41:51.03Z</time></trkpt><trkpt lat="44.3673767" lon="10.9154917"><ele>211.0</ele><time>2026-04-24T15:41:52.03Z</time></trkpt><trkpt lat="44.3671767" lon="10.9155933"><ele>211.0</ele><time>2026-04-24T15:41:53.03Z</time></trkpt><trkpt lat="44.3669783" lon="10.9156917"><ele>211.33333333333331</ele><time>2026-04-24T15:41:54.03Z</time></trkpt><trkpt lat="44.3667767" lon="10.9157933"><ele>211.66666666666669</ele><time>2026-04-24T15:41:55.029Z</time></trkpt><trkpt lat="44.3665883" lon="10.9158867"><ele>212.0</ele><time>2026-04-24T15:41:56.03Z</time></trkpt><trkpt lat="44.3664033" lon="10.9159667"><ele>214.0</ele><time>2026-04-24T15:41:57.03Z</time></trkpt><trkpt lat="44.3662233" lon="10.9160533"><ele>216.0</ele><time>2026-04-24T15:41:58.03Z</time></trkpt><trkpt lat="44.3660417" lon="10.9161317"><ele>218.0</ele><time>2026-04-24T15:41:59.03Z</time></trkpt><trkpt lat="44.3658633" lon="10.916205"><ele>218.0</ele><time>2026-04-24T15:42:00.03Z</time></trkpt><trkpt lat="44.3656767" lon="10.9162717"><ele>218.0</ele><time>2026-04-24T15:42:01.029Z</time></trkpt><trkpt lat="44.3654733" lon="10.9163433"><ele>218.0</ele><time>2026-04-24T15:42:02.03Z</time></trkpt><trkpt lat="44.3652767" lon="10.9164233"><ele>220.0</ele><time>2026-04-24T15:42:03.03Z</time></trkpt><trkpt lat="44.3650667" lon="10.9164967"><ele>222.0</ele><time>2026-04-24T15:42:04.029Z</time></trkpt><trkpt lat="44.3648467" lon="10.916545"><ele>224.0</ele><time>2026-04-24T15:42:05.03Z</time></trkpt><trkpt lat="44.3646117" lon="10.9166017"><ele>231.0</ele><time>2026-04-24T15:42:06.029Z</time></trkpt><trkpt lat="44.364385" lon="10.91666"><ele>238.0</ele><time>2026-04-24T15:42:07.03Z</time></trkpt><trkpt lat="44.3641667" lon="10.9167267"><ele>235.66666666666666</ele><time>2026-04-24T15:42:08.029Z</time></trkpt><trkpt lat="44.36396" lon="10.916785"><ele>233.33333333333331</ele><time>2026-04-24T15:42:09.03Z</time></trkpt><trkpt lat="44.363765" lon="10.91685"><ele>231.0</ele><time>2026-04-24T15:42:10.03Z</time></trkpt><trkpt lat="44.3635783" lon="10.9169067"><ele>231.0</ele><time>2026-04-24T15:42:11.03Z</time></trkpt><trkpt lat="44.3633917" lon="10.916945"><ele>231.0</ele><time>2026-04-24T15:42:12.03Z</time></trkpt><trkpt lat="44.363205" lon="10.91698"><ele>231.0</ele><time>2026-04-24T15:42:13.03Z</time></trkpt><trkpt lat="44.3630233" lon="10.916975"><ele>231.33333333333331</ele><time>2026-04-24T15:42:14.03Z</time></trkpt><trkpt lat="44.3628383" lon="10.9169567"><ele>231.66666666666666</ele><time>2026-04-24T15:42:15.03Z</time></trkpt><trkpt lat="44.3626317" lon="10.9169467"><ele>232.0</ele><time>2026-04-24T15:42:16.03Z</time></trkpt><trkpt lat="44.362435" lon="10.9169217"><ele>232.0</ele><time>2026-04-24T15:42:17.03Z</time></trkpt><trkpt lat="44.362235" lon="10.9169067"><ele>232.0</ele><time>2026-04-24T15:42:18.03Z</time></trkpt><trkpt lat="44.3620533" lon="10.9169"><ele>232.0</ele><time>2026-04-24T15:42:19.03Z</time></trkpt><trkpt lat="44.3618817" lon="10.9169233"><ele>232.0</ele><time>2026-04-24T15:42:20.029Z</time></trkpt><trkpt lat="44.361725" lon="10.91698"><ele>232.0</ele><time>2026-04-24T15:42:21.03Z</time></trkpt><trkpt lat="44.3615733" lon="10.9170783"><ele>232.0</ele><time>2026-04-24T15:42:22.03Z</time></trkpt><trkpt lat="44.3614317" lon="10.9172183"><ele>235.66666666666666</ele><time>2026-04-24T15:42:23.03Z</time></trkpt><trkpt lat="44.36128" lon="10.9173967"><ele>239.33333333333331</ele><time>2026-04-24T15:42:24.03Z</time></trkpt><trkpt lat="44.3611283" lon="10.917585"><ele>243.0</ele><time>2026-04-24T15:42:25.03Z</time></trkpt><trkpt lat="44.3609733" lon="10.9177817"><ele>243.0</ele><time>2026-04-24T15:42:26.029Z</time></trkpt><trkpt lat="44.3608183" lon="10.9179717"><ele>243.0</ele><time>2026-04-24T15:42:27.03Z</time></trkpt><trkpt lat="44.3606483" lon="10.9181617"><ele>243.0</ele><time>2026-04-24T15:42:28.03Z</time></trkpt><trkpt lat="44.3604833" lon="10.9183417"><ele>241.66666666666669</ele><time>2026-04-24T15:42:29.03Z</time></trkpt><trkpt lat="44.3603217" lon="10.91852"><ele>240.33333333333334</ele><time>2026-04-24T15:42:30.03Z</time></trkpt><trkpt lat="44.3601583" lon="10.9186933"><ele>239.0</ele><time>2026-04-24T15:42:31.029Z</time></trkpt><trkpt lat="44.359995" lon="10.9188617"><ele>239.0</ele><time>2026-04-24T15:42:32.03Z</time></trkpt><trkpt lat="44.3598233" lon="10.9190217"><ele>239.0</ele><time>2026-04-24T15:42:33.03Z</time></trkpt><trkpt lat="44.3596533" lon="10.9191617"><ele>239.0</ele><time>2026-04-24T15:42:34.029Z</time></trkpt><trkpt lat="44.359475" lon="10.9192717"><ele>236.33333333333334</ele><time>2026-04-24T15:42:35.03Z</time></trkpt><trkpt lat="44.3592933" lon="10.9193617"><ele>233.66666666666669</ele><time>2026-04-24T15:42:36.03Z</time></trkpt><trkpt lat="44.3591133" lon="10.919455"><ele>231.0</ele><time>2026-04-24T15:42:37.03Z</time></trkpt><trkpt lat="44.3589317" lon="10.9195617"><ele>235.66666666666669</ele><time>2026-04-24T15:42:38.029Z</time></trkpt><trkpt lat="44.3587667" lon="10.9196833"><ele>240.33333333333334</ele><time>2026-04-24T15:42:39.03Z</time></trkpt><trkpt lat="44.35862" lon="10.9198033"><ele>245.0</ele><time>2026-04-24T15:42:40.029Z</time></trkpt><trkpt lat="44.3584783" lon="10.919935"><ele>239.33333333333334</ele><time>2026-04-24T15:42:41.029Z</time></trkpt><trkpt lat="44.3583417" lon="10.9200667"><ele>233.66666666666669</ele><time>2026-04-24T15:42:42.03Z</time></trkpt><trkpt lat="44.3582067" lon="10.9202183"><ele>228.0</ele><time>2026-04-24T15:42:43.03Z</time></trkpt><trkpt lat="44.3580733" lon="10.920355"><ele>230.66666666666669</ele><time>2026-04-24T15:42:44.03Z</time></trkpt><trkpt lat="44.3579283" lon="10.920505"><ele>233.33333333333334</ele><time>2026-04-24T15:42:45.03Z</time></trkpt><trkpt lat="44.35778" lon="10.92065"><ele>236.0</ele><time>2026-04-24T15:42:46.029Z</time></trkpt><trkpt lat="44.3576267" lon="10.9207633"><ele>236.0</ele><time>2026-04-24T15:42:47.03Z</time></trkpt><trkpt lat="44.3574533" lon="10.9208583"><ele>236.0</ele><time>2026-04-24T15:42:48.029Z</time></trkpt><trkpt lat="44.3572583" lon="10.9209417"><ele>236.0</ele><time>2026-04-24T15:42:49.03Z</time></trkpt><trkpt lat="44.3570283" lon="10.9210433"><ele>231.5</ele><time>2026-04-24T15:42:50.03Z</time></trkpt><trkpt lat="44.3568133" lon="10.9211567"><ele>227.0</ele><time>2026-04-24T15:42:51.03Z</time></trkpt><trkpt lat="44.3565967" lon="10.9212733"><ele>227.0</ele><time>2026-04-24T15:42:52.029Z</time></trkpt><trkpt lat="44.3563917" lon="10.92139"><ele>227.0</ele><time>2026-04-24T15:42:53.03Z</time></trkpt><trkpt lat="44.356205" lon="10.921485"><ele>227.0</ele><time>2026-04-24T15:42:54.03Z</time></trkpt><trkpt lat="44.35602" lon="10.9215583"><ele>228.33333333333334</ele><time>2026-04-24T15:42:55.03Z</time></trkpt><trkpt lat="44.35584" lon="10.921595"><ele>229.66666666666669</ele><time>2026-04-24T15:42:56.029Z</time></trkpt><trkpt lat="44.3556667" lon="10.9215767"><ele>231.0</ele><time>2026-04-24T15:42:57.029Z</time></trkpt><trkpt lat="44.35549" lon="10.9215267"><ele>228.0</ele><time>2026-04-24T15:42:58.029Z</time></trkpt><trkpt lat="44.3553183" lon="10.9214417"><ele>225.0</ele><time>2026-04-24T15:42:59.029Z</time></trkpt><trkpt lat="44.35514" lon="10.9213383"><ele>222.0</ele><time>2026-04-24T15:43:00.03Z</time></trkpt><trkpt lat="44.3549517" lon="10.92124"><ele>222.0</ele><time>2026-04-24T15:43:01.03Z</time></trkpt><trkpt lat="44.3547633" lon="10.92116"><ele>222.0</ele><time>2026-04-24T15:43:02.03Z</time></trkpt><trkpt lat="44.3545867" lon="10.921095"><ele>222.0</ele><time>2026-04-24T15:43:03.03Z</time></trkpt><trkpt lat="44.35442" lon="10.9210517"><ele>221.66666666666669</ele><time>2026-04-24T15:43:04.03Z</time></trkpt><trkpt lat="44.3542333" lon="10.92105"><ele>221.33333333333334</ele><time>2026-04-24T15:43:05.03Z</time></trkpt><trkpt lat="44.3540433" lon="10.9210967"><ele>221.0</ele><time>2026-04-24T15:43:06.029Z</time></trkpt><trkpt lat="44.353845" lon="10.9211483"><ele>223.0</ele><time>2026-04-24T15:43:07.03Z</time></trkpt><trkpt lat="44.3536267" lon="10.9212183"><ele>225.0</ele><time>2026-04-24T15:43:08.03Z</time></trkpt><trkpt lat="44.3534117" lon="10.921275"><ele>227.0</ele><time>2026-04-24T15:43:09.03Z</time></trkpt><trkpt lat="44.35319" lon="10.9213383"><ele>231.0</ele><time>2026-04-24T15:43:10.03Z</time></trkpt><trkpt lat="44.35298" lon="10.92139"><ele>235.0</ele><time>2026-04-24T15:43:11.029Z</time></trkpt><trkpt lat="44.3527833" lon="10.92145"><ele>239.0</ele><time>2026-04-24T15:43:12.03Z</time></trkpt><trkpt lat="44.3525817" lon="10.92152"><ele>239.0</ele><time>2026-04-24T15:43:13.03Z</time></trkpt><trkpt lat="44.352385" lon="10.9215917"><ele>239.0</ele><time>2026-04-24T15:43:14.03Z</time></trkpt><trkpt lat="44.3522083" lon="10.9216767"><ele>239.0</ele><time>2026-04-24T15:43:15.03Z</time></trkpt><trkpt lat="44.3520417" lon="10.9217883"><ele>238.33333333333334</ele><time>2026-04-24T15:43:16.029Z</time></trkpt><trkpt lat="44.351875" lon="10.9219267"><ele>237.66666666666669</ele><time>2026-04-24T15:43:17.03Z</time></trkpt><trkpt lat="44.35172" lon="10.9220883"><ele>237.0</ele><time>2026-04-24T15:43:18.03Z</time></trkpt><trkpt lat="44.3515867" lon="10.9222633"><ele>237.0</ele><time>2026-04-24T15:43:19.03Z</time></trkpt><trkpt lat="44.3514483" lon="10.9224333"><ele>237.0</ele><time>2026-04-24T15:43:20.03Z</time></trkpt><trkpt lat="44.3512983" lon="10.9225817"><ele>237.0</ele><time>2026-04-24T15:43:21.03Z</time></trkpt><trkpt lat="44.3511333" lon="10.9227067"><ele>235.33333333333331</ele><time>2026-04-24T15:43:22.029Z</time></trkpt><trkpt lat="44.350955" lon="10.92281"><ele>233.66666666666666</ele><time>2026-04-24T15:43:23.03Z</time></trkpt><trkpt lat="44.3507667" lon="10.9228983"><ele>232.0</ele><time>2026-04-24T15:43:24.03Z</time></trkpt><trkpt lat="44.3505717" lon="10.92298"><ele>235.0</ele><time>2026-04-24T15:43:25.03Z</time></trkpt><trkpt lat="44.3503783" lon="10.9230717"><ele>238.0</ele><time>2026-04-24T15:43:26.029Z</time></trkpt><trkpt lat="44.3501917" lon="10.9231633"><ele>241.0</ele><time>2026-04-24T15:43:27.03Z</time></trkpt><trkpt lat="44.3500167" lon="10.9232533"><ele>241.0</ele><time>2026-04-24T15:43:28.03Z</time></trkpt><trkpt lat="44.3498567" lon="10.9233417"><ele>241.0</ele><time>2026-04-24T15:43:29.03Z</time></trkpt><trkpt lat="44.3497117" lon="10.9234517"><ele>241.0</ele><time>2026-04-24T15:43:30.029Z</time></trkpt><trkpt lat="44.3495833" lon="10.9235933"><ele>241.0</ele><time>2026-04-24T15:43:31.03Z</time></trkpt><trkpt lat="44.3494667" lon="10.9237733"><ele>241.0</ele><time>2026-04-24T15:43:32.03Z</time></trkpt><trkpt lat="44.3493517" lon="10.9239717"><ele>241.0</ele><time>2026-04-24T15:43:33.03Z</time></trkpt><trkpt lat="44.3492433" lon="10.9241333"><ele>240.0</ele><time>2026-04-24T15:43:34.03Z</time></trkpt><trkpt lat="44.3491133" lon="10.92428"><ele>239.0</ele><time>2026-04-24T15:43:35.03Z</time></trkpt><trkpt lat="44.348965" lon="10.9243983"><ele>238.0</ele><time>2026-04-24T15:43:36.029Z</time></trkpt><trkpt lat="44.3487867" lon="10.924515"><ele>238.0</ele><time>2026-04-24T15:43:37.03Z</time></trkpt><trkpt lat="44.3485933" lon="10.9246183"><ele>238.0</ele><time>2026-04-24T15:43:38.03Z</time></trkpt><trkpt lat="44.3483917" lon="10.92473"><ele>238.0</ele><time>2026-04-24T15:43:39.03Z</time></trkpt><trkpt lat="44.34819" lon="10.9248333"><ele>240.33333333333331</ele><time>2026-04-24T15:43:40.03Z</time></trkpt><trkpt lat="44.3480017" lon="10.9249233"><ele>242.66666666666669</ele><time>2026-04-24T15:43:41.03Z</time></trkpt><trkpt lat="44.347835" lon="10.925015"><ele>245.0</ele><time>2026-04-24T15:43:42.029Z</time></trkpt><trkpt lat="44.3476817" lon="10.92509"><ele>240.0</ele><time>2026-04-24T15:43:43.03Z</time></trkpt><trkpt lat="44.3475033" lon="10.9251233"><ele>235.0</ele><time>2026-04-24T15:43:44.03Z</time></trkpt><trkpt lat="44.3473433" lon="10.9251333"><ele>230.0</ele><time>2026-04-24T15:43:45.029Z</time></trkpt><trkpt lat="44.3471567" lon="10.925125"><ele>229.0</ele><time>2026-04-24T15:43:46.03Z</time></trkpt><trkpt lat="44.346965" lon="10.9251017"><ele>228.0</ele><time>2026-04-24T15:43:47.029Z</time></trkpt><trkpt lat="44.3467583" lon="10.925095"><ele>227.0</ele><time>2026-04-24T15:43:48.03Z</time></trkpt><trkpt lat="44.346555" lon="10.9250917"><ele>226.33333333333334</ele><time>2026-04-24T15:43:49.03Z</time></trkpt><trkpt lat="44.3463683" lon="10.9250817"><ele>225.66666666666669</ele><time>2026-04-24T15:43:50.03Z</time></trkpt><trkpt lat="44.3461983" lon="10.9250433"><ele>225.0</ele><time>2026-04-24T15:43:51.03Z</time></trkpt><trkpt lat="44.34604" lon="10.9249867"><ele>226.0</ele><time>2026-04-24T15:43:52.03Z</time></trkpt><trkpt lat="44.3458733" lon="10.9248883"><ele>227.0</ele><time>2026-04-24T15:43:53.03Z</time></trkpt><trkpt lat="44.3457017" lon="10.92476"><ele>228.0</ele><time>2026-04-24T15:43:54.03Z</time></trkpt><trkpt lat="44.3455383" lon="10.9246"><ele>228.0</ele><time>2026-04-24T15:43:55.03Z</time></trkpt><trkpt lat="44.3453783" lon="10.924445"><ele>228.0</ele><time>2026-04-24T15:43:56.029Z</time></trkpt><trkpt lat="44.3452167" lon="10.9243033"><ele>228.0</ele><time>2026-04-24T15:43:57.03Z</time></trkpt><trkpt lat="44.345065" lon="10.9241683"><ele>231.33333333333331</ele><time>2026-04-24T15:43:58.029Z</time></trkpt><trkpt lat="44.34491" lon="10.9240783"><ele>234.66666666666666</ele><time>2026-04-24T15:43:59.03Z</time></trkpt><trkpt lat="44.3447333" lon="10.924015"><ele>238.0</ele><time>2026-04-24T15:44:00.03Z</time></trkpt><trkpt lat="44.344545" lon="10.9239767"><ele>238.0</ele><time>2026-04-24T15:44:01.03Z</time></trkpt><trkpt lat="44.3443583" lon="10.9239617"><ele>238.0</ele><time>2026-04-24T15:44:02.029Z</time></trkpt><trkpt lat="44.3441617" lon="10.9239733"><ele>238.0</ele><time>2026-04-24T15:44:03.03Z</time></trkpt><trkpt lat="44.3439917" lon="10.9240083"><ele>239.0</ele><time>2026-04-24T15:44:04.029Z</time></trkpt><trkpt lat="44.3438333" lon="10.9240617"><ele>240.0</ele><time>2026-04-24T15:44:05.03Z</time></trkpt><trkpt lat="44.3436783" lon="10.924105"><ele>241.0</ele><time>2026-04-24T15:44:06.03Z</time></trkpt><trkpt lat="44.3435333" lon="10.9241133"><ele>241.0</ele><time>2026-04-24T15:44:07.029Z</time></trkpt><trkpt lat="44.343375" lon="10.9240917"><ele>241.0</ele><time>2026-04-24T15:44:08.03Z</time></trkpt><trkpt lat="44.3432067" lon="10.92404"><ele>241.0</ele><time>2026-04-24T15:44:09.029Z</time></trkpt><trkpt lat="44.3430183" lon="10.9239783"><ele>239.66666666666666</ele><time>2026-04-24T15:44:10.03Z</time></trkpt><trkpt lat="44.3428083" lon="10.9238983"><ele>238.33333333333331</ele><time>2026-04-24T15:44:11.03Z</time></trkpt><trkpt lat="44.34259" lon="10.923825"><ele>237.0</ele><time>2026-04-24T15:44:12.03Z</time></trkpt><trkpt lat="44.3423867" lon="10.9237517"><ele>236.66666666666669</ele><time>2026-04-24T15:44:13.03Z</time></trkpt><trkpt lat="44.3421967" lon="10.9237"><ele>236.33333333333334</ele><time>2026-04-24T15:44:14.029Z</time></trkpt><trkpt lat="44.342015" lon="10.92366"><ele>236.0</ele><time>2026-04-24T15:44:15.03Z</time></trkpt><trkpt lat="44.3418583" lon="10.9236517"><ele>236.0</ele><time>2026-04-24T15:44:16.029Z</time></trkpt><trkpt lat="44.341705" lon="10.92369"><ele>236.0</ele><time>2026-04-24T15:44:17.03Z</time></trkpt><trkpt lat="44.3415533" lon="10.923775"><ele>236.0</ele><time>2026-04-24T15:44:18.03Z</time></trkpt><trkpt lat="44.3413833" lon="10.9238917"><ele>235.66666666666669</ele><time>2026-04-24T15:44:19.03Z</time></trkpt><trkpt lat="44.3412017" lon="10.9240117"><ele>235.33333333333331</ele><time>2026-04-24T15:44:20.03Z</time></trkpt><trkpt lat="44.3410083" lon="10.924135"><ele>235.0</ele><time>2026-04-24T15:44:21.03Z</time></trkpt><trkpt lat="44.3407983" lon="10.924255"><ele>235.0</ele><time>2026-04-24T15:44:22.03Z</time></trkpt><trkpt lat="44.3405817" lon="10.92437"><ele>235.0</ele><time>2026-04-24T15:44:23.03Z</time></trkpt><trkpt lat="44.340365" lon="10.9244983"><ele>238.0</ele><time>2026-04-24T15:44:24.03Z</time></trkpt><trkpt lat="44.3401433" lon="10.9246267"><ele>241.0</ele><time>2026-04-24T15:44:25.03Z</time></trkpt><trkpt lat="44.3399083" lon="10.924755"><ele>243.0</ele><time>2026-04-24T15:44:26.03Z</time></trkpt><trkpt lat="44.3396717" lon="10.9248717"><ele>245.0</ele><time>2026-04-24T15:44:27.029Z</time></trkpt><trkpt lat="44.3394583" lon="10.924965"><ele>242.33333333333334</ele><time>2026-04-24T15:44:28.03Z</time></trkpt><trkpt lat="44.339255" lon="10.9250833"><ele>239.66666666666669</ele><time>2026-04-24T15:44:29.03Z</time></trkpt><trkpt lat="44.3390733" lon="10.925225"><ele>237.0</ele><time>2026-04-24T15:44:30.03Z</time></trkpt><trkpt lat="44.3388883" lon="10.92537"><ele>238.0</ele><time>2026-04-24T15:44:31.029Z</time></trkpt><trkpt lat="44.3386867" lon="10.9254967"><ele>239.0</ele><time>2026-04-24T15:44:32.03Z</time></trkpt><trkpt lat="44.338485" lon="10.925605"><ele>240.0</ele><time>2026-04-24T15:44:33.03Z</time></trkpt><trkpt lat="44.33828" lon="10.9256933"><ele>240.0</ele><time>2026-04-24T15:44:34.03Z</time></trkpt><trkpt lat="44.3380517" lon="10.9257633"><ele>240.0</ele><time>2026-04-24T15:44:35.03Z</time></trkpt><trkpt lat="44.3378117" lon="10.92583"><ele>236.5</ele><time>2026-04-24T15:44:36.029Z</time></trkpt><trkpt lat="44.337585" lon="10.925905"><ele>233.0</ele><time>2026-04-24T15:44:37.03Z</time></trkpt><trkpt lat="44.3373617" lon="10.9259567"><ele>233.66666666666669</ele><time>2026-04-24T15:44:38.03Z</time></trkpt><trkpt lat="44.3371433" lon="10.926"><ele>234.33333333333331</ele><time>2026-04-24T15:44:39.03Z</time></trkpt><trkpt lat="44.33693" lon="10.9260433"><ele>235.0</ele><time>2026-04-24T15:44:40.029Z</time></trkpt><trkpt lat="44.33672" lon="10.9261033"><ele>235.0</ele><time>2026-04-24T15:44:41.03Z</time></trkpt><trkpt lat="44.3365183" lon="10.9261683"><ele>235.0</ele><time>2026-04-24T15:44:42.03Z</time></trkpt><trkpt lat="44.3363067" lon="10.92625"><ele>235.0</ele><time>2026-04-24T15:44:43.029Z</time></trkpt><trkpt lat="44.3360967" lon="10.92636"><ele>237.66666666666666</ele><time>2026-04-24T15:44:44.03Z</time></trkpt><trkpt lat="44.3359" lon="10.9264833"><ele>240.33333333333331</ele><time>2026-04-24T15:44:45.03Z</time></trkpt><trkpt lat="44.3357067" lon="10.9266283"><ele>243.0</ele><time>2026-04-24T15:44:46.03Z</time></trkpt><trkpt lat="44.3355233" lon="10.92679"><ele>243.33333333333331</ele><time>2026-04-24T15:44:47.03Z</time></trkpt><trkpt lat="44.3353483" lon="10.9269633"><ele>243.66666666666666</ele><time>2026-04-24T15:44:48.029Z</time></trkpt><trkpt lat="44.3351867" lon="10.927145"><ele>244.0</ele><time>2026-04-24T15:44:49.03Z</time></trkpt><trkpt lat="44.3350333" lon="10.9273383"><ele>244.0</ele><time>2026-04-24T15:44:50.029Z</time></trkpt><trkpt lat="44.3348967" lon="10.927515"><ele>244.0</ele><time>2026-04-24T15:44:51.03Z</time></trkpt><trkpt lat="44.334755" lon="10.92769"><ele>244.0</ele><time>2026-04-24T15:44:52.03Z</time></trkpt><trkpt lat="44.334615" lon="10.9278217"><ele>243.5</ele><time>2026-04-24T15:44:53.03Z</time></trkpt><trkpt lat="44.3344767" lon="10.927915"><ele>243.0</ele><time>2026-04-24T15:44:54.029Z</time></trkpt><trkpt lat="44.3343367" lon="10.9279833"><ele>242.5</ele><time>2026-04-24T15:44:55.029Z</time></trkpt><trkpt lat="44.3342" lon="10.9280167"><ele>242.0</ele><time>2026-04-24T15:44:56.03Z</time></trkpt><trkpt lat="44.3340333" lon="10.92801"><ele>242.66666666666669</ele><time>2026-04-24T15:44:57.03Z</time></trkpt><trkpt lat="44.333845" lon="10.92799"><ele>243.33333333333331</ele><time>2026-04-24T15:44:58.03Z</time></trkpt><trkpt lat="44.3336433" lon="10.92798"><ele>244.0</ele><time>2026-04-24T15:44:59.03Z</time></trkpt><trkpt lat="44.3334367" lon="10.927975"><ele>244.0</ele><time>2026-04-24T15:45:00.03Z</time></trkpt><trkpt lat="44.3332283" lon="10.9279867"><ele>244.0</ele><time>2026-04-24T15:45:01.03Z</time></trkpt><trkpt lat="44.33304" lon="10.928025"><ele>244.0</ele><time>2026-04-24T15:45:02.03Z</time></trkpt><trkpt lat="44.3328533" lon="10.9280683"><ele>245.0</ele><time>2026-04-24T15:45:03.03Z</time></trkpt><trkpt lat="44.3326633" lon="10.9281267"><ele>246.0</ele><time>2026-04-24T15:45:04.03Z</time></trkpt><trkpt lat="44.33244" lon="10.92822"><ele>247.0</ele><time>2026-04-24T15:45:05.03Z</time></trkpt><trkpt lat="44.3322183" lon="10.928325"><ele>242.5</ele><time>2026-04-24T15:45:06.03Z</time></trkpt><trkpt lat="44.3320033" lon="10.9284183"><ele>238.0</ele><time>2026-04-24T15:45:07.03Z</time></trkpt><trkpt lat="44.3317867" lon="10.928505"><ele>238.0</ele><time>2026-04-24T15:45:08.03Z</time></trkpt><trkpt lat="44.3315583" lon="10.9285783"><ele>238.0</ele><time>2026-04-24T15:45:09.03Z</time></trkpt><trkpt lat="44.3313333" lon="10.9286233"><ele>238.33333333333331</ele><time>2026-04-24T15:45:10.03Z</time></trkpt><trkpt lat="44.33111" lon="10.9286567"><ele>238.66666666666669</ele><time>2026-04-24T15:45:11.029Z</time></trkpt><trkpt lat="44.3309067" lon="10.9286917"><ele>239.0</ele><time>2026-04-24T15:45:12.03Z</time></trkpt><trkpt lat="44.3307083" lon="10.92872"><ele>239.0</ele><time>2026-04-24T15:45:13.03Z</time></trkpt><trkpt lat="44.33051" lon="10.92872"><ele>239.0</ele><time>2026-04-24T15:45:14.029Z</time></trkpt><trkpt lat="44.330325" lon="10.928665"><ele>239.0</ele><time>2026-04-24T15:45:15.03Z</time></trkpt><trkpt lat="44.3301283" lon="10.92859"><ele>239.0</ele><time>2026-04-24T15:45:16.03Z</time></trkpt><trkpt lat="44.3299217" lon="10.9285067"><ele>239.0</ele><time>2026-04-24T15:45:17.029Z</time></trkpt><trkpt lat="44.329705" lon="10.9283933"><ele>239.0</ele><time>2026-04-24T15:45:18.03Z</time></trkpt><trkpt lat="44.3294783" lon="10.92829"><ele>241.0</ele><time>2026-04-24T15:45:19.03Z</time></trkpt><trkpt lat="44.3292483" lon="10.9281867"><ele>243.0</ele><time>2026-04-24T15:45:20.03Z</time></trkpt><trkpt lat="44.329025" lon="10.9280917"><ele>242.66666666666669</ele><time>2026-04-24T15:45:21.03Z</time></trkpt><trkpt lat="44.3288117" lon="10.928005"><ele>242.33333333333334</ele><time>2026-04-24T15:45:22.03Z</time></trkpt><trkpt lat="44.3286067" lon="10.927905"><ele>242.0</ele><time>2026-04-24T15:45:23.03Z</time></trkpt><trkpt lat="44.3284183" lon="10.9278"><ele>242.0</ele><time>2026-04-24T15:45:24.03Z</time></trkpt><trkpt lat="44.3282283" lon="10.927675"><ele>242.0</ele><time>2026-04-24T15:45:25.03Z</time></trkpt><trkpt lat="44.3280333" lon="10.927535"><ele>242.0</ele><time>2026-04-24T15:45:26.029Z</time></trkpt><trkpt lat="44.32784" lon="10.9273733"><ele>243.0</ele><time>2026-04-24T15:45:27.03Z</time></trkpt><trkpt lat="44.3276433" lon="10.9272017"><ele>244.0</ele><time>2026-04-24T15:45:28.029Z</time></trkpt><trkpt lat="44.3274417" lon="10.9270383"><ele>244.0</ele><time>2026-04-24T15:45:29.03Z</time></trkpt><trkpt lat="44.32725" lon="10.9268817"><ele>244.0</ele><time>2026-04-24T15:45:30.03Z</time></trkpt><trkpt lat="44.32707" lon="10.9267217"><ele>244.0</ele><time>2026-04-24T15:45:31.029Z</time></trkpt><trkpt lat="44.3269033" lon="10.926565"><ele>244.33333333333331</ele><time>2026-04-24T15:45:32.03Z</time></trkpt><trkpt lat="44.32675" lon="10.9264283"><ele>244.66666666666669</ele><time>2026-04-24T15:45:33.03Z</time></trkpt><trkpt lat="44.3266" lon="10.9263"><ele>245.0</ele><time>2026-04-24T15:45:34.029Z</time></trkpt><trkpt lat="44.3264517" lon="10.9261783"><ele>245.25</ele><time>2026-04-24T15:45:35.03Z</time></trkpt><trkpt lat="44.3263167" lon="10.926075"><ele>245.5</ele><time>2026-04-24T15:45:36.03Z</time></trkpt><trkpt lat="44.32618" lon="10.9260033"><ele>245.75</ele><time>2026-04-24T15:45:37.03Z</time></trkpt><trkpt lat="44.326035" lon="10.92597"><ele>246.0</ele><time>2026-04-24T15:45:38.03Z</time></trkpt><trkpt lat="44.3258817" lon="10.925975"><ele>246.0</ele><time>2026-04-24T15:45:39.03Z</time></trkpt><trkpt lat="44.3257133" lon="10.92601"><ele>246.0</ele><time>2026-04-24T15:45:40.03Z</time></trkpt><trkpt lat="44.3255317" lon="10.9260533"><ele>246.0</ele><time>2026-04-24T15:45:41.03Z</time></trkpt><trkpt lat="44.325335" lon="10.9261"><ele>246.33333333333331</ele><time>2026-04-24T15:45:42.03Z</time></trkpt><trkpt lat="44.325145" lon="10.9261283"><ele>246.66666666666666</ele><time>2026-04-24T15:45:43.03Z</time></trkpt><trkpt lat="44.3249333" lon="10.9261483"><ele>247.0</ele><time>2026-04-24T15:45:44.03Z</time></trkpt><trkpt lat="44.32474" lon="10.926125"><ele>247.0</ele><time>2026-04-24T15:45:45.03Z</time></trkpt><trkpt lat="44.3245367" lon="10.926085"><ele>247.0</ele><time>2026-04-24T15:45:46.03Z</time></trkpt><trkpt lat="44.3243183" lon="10.9260467"><ele>247.0</ele><time>2026-04-24T15:45:47.03Z</time></trkpt><trkpt lat="44.324105" lon="10.9260067"><ele>247.0</ele><time>2026-04-24T15:45:48.03Z</time></trkpt><trkpt lat="44.3238983" lon="10.9259933"><ele>247.0</ele><time>2026-04-24T15:45:49.03Z</time></trkpt><trkpt lat="44.323695" lon="10.9260017"><ele>247.0</ele><time>2026-04-24T15:45:50.03Z</time></trkpt><trkpt lat="44.323495" lon="10.926035"><ele>247.0</ele><time>2026-04-24T15:45:51.029Z</time></trkpt><trkpt lat="44.3233033" lon="10.9260683"><ele>247.0</ele><time>2026-04-24T15:45:52.03Z</time></trkpt><trkpt lat="44.32312" lon="10.926095"><ele>247.0</ele><time>2026-04-24T15:45:53.03Z</time></trkpt><trkpt lat="44.322945" lon="10.9261017"><ele>246.66666666666666</ele><time>2026-04-24T15:45:54.029Z</time></trkpt><trkpt lat="44.322765" lon="10.9261017"><ele>246.33333333333331</ele><time>2026-04-24T15:45:55.03Z</time></trkpt><trkpt lat="44.3225867" lon="10.9260667"><ele>246.0</ele><time>2026-04-24T15:45:56.029Z</time></trkpt><trkpt lat="44.322395" lon="10.92602"><ele>246.0</ele><time>2026-04-24T15:45:57.03Z</time></trkpt><trkpt lat="44.3222133" lon="10.9259583"><ele>246.0</ele><time>2026-04-24T15:45:58.029Z</time></trkpt><trkpt lat="44.322045" lon="10.925895"><ele>246.0</ele><time>2026-04-24T15:45:59.03Z</time></trkpt><trkpt lat="44.3218833" lon="10.9258233"><ele>248.33333333333331</ele><time>2026-04-24T15:46:00.03Z</time></trkpt><trkpt lat="44.3217417" lon="10.9257017"><ele>250.66666666666666</ele><time>2026-04-24T15:46:01.03Z</time></trkpt><trkpt lat="44.3215917" lon="10.9255617"><ele>253.0</ele><time>2026-04-24T15:46:02.03Z</time></trkpt><trkpt lat="44.3214383" lon="10.9254133"><ele>251.66666666666666</ele><time>2026-04-24T15:46:03.03Z</time></trkpt><trkpt lat="44.32129" lon="10.9252467"><ele>250.33333333333331</ele><time>2026-04-24T15:46:04.03Z</time></trkpt><trkpt lat="44.3211333" lon="10.9250817"><ele>249.0</ele><time>2026-04-24T15:46:05.03Z</time></trkpt><trkpt lat="44.3209767" lon="10.924915"><ele>249.0</ele><time>2026-04-24T15:46:06.03Z</time></trkpt><trkpt lat="44.3208167" lon="10.9247267"><ele>249.0</ele><time>2026-04-24T15:46:07.03Z</time></trkpt><trkpt lat="44.320665" lon="10.9245217"><ele>249.0</ele><time>2026-04-24T15:46:08.03Z</time></trkpt><trkpt lat="44.3205183" lon="10.9243117"><ele>252.33333333333331</ele><time>2026-04-24T15:46:09.03Z</time></trkpt><trkpt lat="44.3203683" lon="10.92411"><ele>255.66666666666666</ele><time>2026-04-24T15:46:10.03Z</time></trkpt><trkpt lat="44.320215" lon="10.9238933"><ele>259.0</ele><time>2026-04-24T15:46:11.03Z</time></trkpt><trkpt lat="44.320065" lon="10.92368"><ele>259.0</ele><time>2026-04-24T15:46:12.029Z</time></trkpt><trkpt lat="44.3199233" lon="10.9234417"><ele>259.0</ele><time>2026-04-24T15:46:13.03Z</time></trkpt><trkpt lat="44.3197917" lon="10.9232117"><ele>259.0</ele><time>2026-04-24T15:46:14.029Z</time></trkpt><trkpt lat="44.3196583" lon="10.9229783"><ele>257.3333333333333</ele><time>2026-04-24T15:46:15.03Z</time></trkpt><trkpt lat="44.3195317" lon="10.9227533"><ele>255.66666666666669</ele><time>2026-04-24T15:46:16.03Z</time></trkpt><trkpt lat="44.3194117" lon="10.9225533"><ele>254.0</ele><time>2026-04-24T15:46:17.03Z</time></trkpt><trkpt lat="44.319285" lon="10.9223733"><ele>253.66666666666669</ele><time>2026-04-24T15:46:18.03Z</time></trkpt><trkpt lat="44.3191267" lon="10.922205"><ele>253.33333333333331</ele><time>2026-04-24T15:46:19.03Z</time></trkpt><trkpt lat="44.318955" lon="10.922045"><ele>253.0</ele><time>2026-04-24T15:46:20.03Z</time></trkpt><trkpt lat="44.318785" lon="10.9218717"><ele>257.66666666666663</ele><time>2026-04-24T15:46:21.03Z</time></trkpt><trkpt lat="44.318615" lon="10.9216983"><ele>262.3333333333333</ele><time>2026-04-24T15:46:22.029Z</time></trkpt><trkpt lat="44.3184533" lon="10.921505"><ele>267.0</ele><time>2026-04-24T15:46:23.03Z</time></trkpt><trkpt lat="44.3182917" lon="10.9213033"><ele>267.0</ele><time>2026-04-24T15:46:24.03Z</time></trkpt><trkpt lat="44.31814" lon="10.9211083"><ele>267.0</ele><time>2026-04-24T15:46:25.03Z</time></trkpt><trkpt lat="44.3179717" lon="10.920945"><ele>267.0</ele><time>2026-04-24T15:46:26.03Z</time></trkpt><trkpt lat="44.31779" lon="10.9208133"><ele>267.0</ele><time>2026-04-24T15:46:27.03Z</time></trkpt><trkpt lat="44.3176017" lon="10.920675"><ele>267.0</ele><time>2026-04-24T15:46:28.03Z</time></trkpt><trkpt lat="44.3173967" lon="10.9205333"><ele>267.0</ele><time>2026-04-24T15:46:29.03Z</time></trkpt><trkpt lat="44.3171733" lon="10.9204033"><ele>267.0</ele><time>2026-04-24T15:46:30.03Z</time></trkpt><trkpt lat="44.3169667" lon="10.920285"><ele>267.0</ele><time>2026-04-24T15:46:31.03Z</time></trkpt><trkpt lat="44.3167333" lon="10.9201683"><ele>270.6666666666667</ele><time>2026-04-24T15:46:32.03Z</time></trkpt><trkpt lat="44.3165367" lon="10.92004"><ele>274.33333333333337</ele><time>2026-04-24T15:46:33.03Z</time></trkpt><trkpt lat="44.31636" lon="10.91991"><ele>278.0</ele><time>2026-04-24T15:46:34.03Z</time></trkpt><trkpt lat="44.3161917" lon="10.9197717"><ele>278.0</ele><time>2026-04-24T15:46:35.03Z</time></trkpt><trkpt lat="44.3160383" lon="10.9196083"><ele>278.0</ele><time>2026-04-24T15:46:36.03Z</time></trkpt><trkpt lat="44.3158917" lon="10.9194083"><ele>278.0</ele><time>2026-04-24T15:46:37.03Z</time></trkpt><trkpt lat="44.3157467" lon="10.9191817"><ele>280.33333333333337</ele><time>2026-04-24T15:46:38.03Z</time></trkpt><trkpt lat="44.3156" lon="10.9189533"><ele>282.6666666666667</ele><time>2026-04-24T15:46:39.03Z</time></trkpt><trkpt lat="44.31545" lon="10.9187267"><ele>285.0</ele><time>2026-04-24T15:46:40.03Z</time></trkpt><trkpt lat="44.3153167" lon="10.9185133"><ele>283.6666666666667</ele><time>2026-04-24T15:46:41.03Z</time></trkpt><trkpt lat="44.31519" lon="10.918315"><ele>282.33333333333337</ele><time>2026-04-24T15:46:42.03Z</time></trkpt><trkpt lat="44.31507" lon="10.91812"><ele>281.0</ele><time>2026-04-24T15:46:43.03Z</time></trkpt><trkpt lat="44.3149483" lon="10.9179283"><ele>281.0</ele><time>2026-04-24T15:46:44.03Z</time></trkpt><trkpt lat="44.3148367" lon="10.917735"><ele>281.0</ele><time>2026-04-24T15:46:45.03Z</time></trkpt><trkpt lat="44.31474" lon="10.917535"><ele>281.0</ele><time>2026-04-24T15:46:46.03Z</time></trkpt><trkpt lat="44.3146533" lon="10.9173433"><ele>281.0</ele><time>2026-04-24T15:46:47.03Z</time></trkpt><trkpt lat="44.3145733" lon="10.9171633"><ele>281.0</ele><time>2026-04-24T15:46:48.03Z</time></trkpt><trkpt lat="44.3145183" lon="10.9169883"><ele>281.0</ele><time>2026-04-24T15:46:49.03Z</time></trkpt><trkpt lat="44.3144683" lon="10.91678"><ele>281.0</ele><time>2026-04-24T15:46:50.03Z</time></trkpt><trkpt lat="44.3144567" lon="10.916555"><ele>281.0</ele><time>2026-04-24T15:46:51.03Z</time></trkpt><trkpt lat="44.3144733" lon="10.9163617"><ele>281.0</ele><time>2026-04-24T15:46:52.03Z</time></trkpt><trkpt lat="44.3145217" lon="10.9161833"><ele>281.0</ele><time>2026-04-24T15:46:53.03Z</time></trkpt><trkpt lat="44.314585" lon="10.9160167"><ele>281.0</ele><time>2026-04-24T15:46:54.03Z</time></trkpt><trkpt lat="44.31467" lon="10.915865"><ele>284.75</ele><time>2026-04-24T15:46:55.03Z</time></trkpt><trkpt lat="44.3147517" lon="10.9157017"><ele>288.5</ele><time>2026-04-24T15:46:56.03Z</time></trkpt><trkpt lat="44.31481" lon="10.9155267"><ele>292.25</ele><time>2026-04-24T15:46:57.03Z</time></trkpt><trkpt lat="44.3148417" lon="10.9153383"><ele>296.0</ele><time>2026-04-24T15:46:58.03Z</time></trkpt><trkpt lat="44.314845" lon="10.9151417"><ele>295.25</ele><time>2026-04-24T15:46:59.03Z</time></trkpt><trkpt lat="44.3148367" lon="10.9149433"><ele>294.5</ele><time>2026-04-24T15:47:00.03Z</time></trkpt><trkpt lat="44.3148017" lon="10.91474"><ele>293.75</ele><time>2026-04-24T15:47:01.03Z</time></trkpt><trkpt lat="44.314745" lon="10.9145433"><ele>293.0</ele><time>2026-04-24T15:47:02.03Z</time></trkpt><trkpt lat="44.3146683" lon="10.9143483"><ele>289.6666666666667</ele><time>2026-04-24T15:47:03.03Z</time></trkpt><trkpt lat="44.3145733" lon="10.914165"><ele>286.3333333333333</ele><time>2026-04-24T15:47:04.03Z</time></trkpt><trkpt lat="44.3144567" lon="10.9139667"><ele>283.0</ele><time>2026-04-24T15:47:05.03Z</time></trkpt><trkpt lat="44.3143217" lon="10.91379"><ele>283.0</ele><time>2026-04-24T15:47:06.03Z</time></trkpt><trkpt lat="44.31417" lon="10.9135983"><ele>283.0</ele><time>2026-04-24T15:47:07.03Z</time></trkpt><trkpt lat="44.314025" lon="10.9134283"><ele>283.0</ele><time>2026-04-24T15:47:08.029Z</time></trkpt><trkpt lat="44.31389" lon="10.913275"><ele>280.66666666666663</ele><time>2026-04-24T15:47:09.03Z</time></trkpt><trkpt lat="44.3137767" lon="10.9130917"><ele>278.3333333333333</ele><time>2026-04-24T15:47:10.03Z</time></trkpt><trkpt lat="44.3136733" lon="10.9129183"><ele>276.0</ele><time>2026-04-24T15:47:11.03Z</time></trkpt><trkpt lat="44.3135817" lon="10.9127483"><ele>276.0</ele><time>2026-04-24T15:47:12.03Z</time></trkpt><trkpt lat="44.3134967" lon="10.91262"><ele>276.0</ele><time>2026-04-24T15:47:13.029Z</time></trkpt><trkpt lat="44.3134" lon="10.9125233"><ele>276.0</ele><time>2026-04-24T15:47:14.03Z</time></trkpt><trkpt lat="44.3132817" lon="10.9124617"><ele>276.0</ele><time>2026-04-24T15:47:15.03Z</time></trkpt><trkpt lat="44.31313" lon="10.91243"><ele>275.3333333333333</ele><time>2026-04-24T15:47:16.03Z</time></trkpt><trkpt lat="44.3129767" lon="10.9124083"><ele>274.66666666666663</ele><time>2026-04-24T15:47:17.03Z</time></trkpt><trkpt lat="44.3128283" lon="10.91237"><ele>274.0</ele><time>2026-04-24T15:47:18.03Z</time></trkpt><trkpt lat="44.3126817" lon="10.912295"><ele>274.0</ele><time>2026-04-24T15:47:19.029Z</time></trkpt><trkpt lat="44.3125467" lon="10.9121833"><ele>274.0</ele><time>2026-04-24T15:47:20.03Z</time></trkpt><trkpt lat="44.3123983" lon="10.9120717"><ele>274.0</ele><time>2026-04-24T15:47:21.03Z</time></trkpt><trkpt lat="44.3122567" lon="10.9119667"><ele>272.3333333333333</ele><time>2026-04-24T15:47:22.03Z</time></trkpt><trkpt lat="44.3121133" lon="10.911875"><ele>270.6666666666667</ele><time>2026-04-24T15:47:23.03Z</time></trkpt><trkpt lat="44.3119717" lon="10.91181"><ele>269.0</ele><time>2026-04-24T15:47:24.03Z</time></trkpt><trkpt lat="44.3118333" lon="10.9117517"><ele>267.5</ele><time>2026-04-24T15:47:25.03Z</time></trkpt><trkpt lat="44.3117083" lon="10.91169"><ele>266.0</ele><time>2026-04-24T15:47:26.03Z</time></trkpt><trkpt lat="44.3115833" lon="10.9116183"><ele>264.5</ele><time>2026-04-24T15:47:27.029Z</time></trkpt><trkpt lat="44.3114783" lon="10.9115283"><ele>263.0</ele><time>2026-04-24T15:47:28.029Z</time></trkpt><trkpt lat="44.3113933" lon="10.9114217"><ele>263.0</ele><time>2026-04-24T15:47:29.03Z</time></trkpt><trkpt lat="44.3113367" lon="10.9113333"><ele>263.0</ele><time>2026-04-24T15:47:30.03Z</time></trkpt><trkpt lat="44.3112917" lon="10.91126"><ele>263.0</ele><time>2026-04-24T15:47:31.03Z</time></trkpt><trkpt lat="44.3111767" lon="10.9111983"><ele>263.0</ele><time>2026-04-24T15:47:33.03Z</time></trkpt><trkpt lat="44.311105" lon="10.9112317"><ele>263.0</ele><time>2026-04-24T15:47:34.03Z</time></trkpt><trkpt lat="44.3110267" lon="10.9112833"><ele>263.0</ele><time>2026-04-24T15:47:35.03Z</time></trkpt><trkpt lat="44.3109083" lon="10.9113383"><ele>263.0</ele><time>2026-04-24T15:47:36.03Z</time></trkpt><trkpt lat="44.3107667" lon="10.9114083"><ele>263.0</ele><time>2026-04-24T15:47:37.03Z</time></trkpt><trkpt lat="44.3106383" lon="10.9114867"><ele>263.0</ele><time>2026-04-24T15:47:38.03Z</time></trkpt><trkpt lat="44.3105133" lon="10.9115467"><ele>263.0</ele><time>2026-04-24T15:47:39.03Z</time></trkpt><trkpt lat="44.3103733" lon="10.9115917"><ele>263.75</ele><time>2026-04-24T15:47:40.03Z</time></trkpt><trkpt lat="44.3102317" lon="10.9116033"><ele>264.5</ele><time>2026-04-24T15:47:41.029Z</time></trkpt><trkpt lat="44.310095" lon="10.9115733"><ele>265.25</ele><time>2026-04-24T15:47:42.03Z</time></trkpt><trkpt lat="44.3099683" lon="10.911495"><ele>266.0</ele><time>2026-04-24T15:47:43.03Z</time></trkpt><trkpt lat="44.3098533" lon="10.911385"><ele>266.0</ele><time>2026-04-24T15:47:44.03Z</time></trkpt><trkpt lat="44.3097483" lon="10.911265"><ele>266.0</ele><time>2026-04-24T15:47:45.03Z</time></trkpt><trkpt lat="44.3096567" lon="10.9111417"><ele>266.0</ele><time>2026-04-24T15:47:46.03Z</time></trkpt><trkpt lat="44.3095883" lon="10.91098"><ele>266.0</ele><time>2026-04-24T15:47:47.029Z</time></trkpt><trkpt lat="44.3095317" lon="10.9108067"><ele>271.25</ele><time>2026-04-24T15:47:48.03Z</time></trkpt><trkpt lat="44.309485" lon="10.91064"><ele>276.5</ele><time>2026-04-24T15:47:49.03Z</time></trkpt><trkpt lat="44.3094267" lon="10.9104883"><ele>281.75</ele><time>2026-04-24T15:47:50.029Z</time></trkpt><trkpt lat="44.30935" lon="10.9103683"><ele>287.0</ele><time>2026-04-24T15:47:51.03Z</time></trkpt><trkpt lat="44.3092483" lon="10.910255"><ele>287.0</ele><time>2026-04-24T15:47:52.03Z</time></trkpt><trkpt lat="44.3091217" lon="10.91017"><ele>287.0</ele><time>2026-04-24T15:47:53.03Z</time></trkpt><trkpt lat="44.3089733" lon="10.9100883"><ele>287.0</ele><time>2026-04-24T15:47:54.03Z</time></trkpt><trkpt lat="44.3088133" lon="10.910005"><ele>288.6666666666667</ele><time>2026-04-24T15:47:55.03Z</time></trkpt><trkpt lat="44.308635" lon="10.909925"><ele>290.3333333333333</ele><time>2026-04-24T15:47:56.03Z</time></trkpt><trkpt lat="44.3084733" lon="10.9098267"><ele>292.0</ele><time>2026-04-24T15:47:57.03Z</time></trkpt><trkpt lat="44.3083183" lon="10.9097133"><ele>292.0</ele><time>2026-04-24T15:47:58.03Z</time></trkpt><trkpt lat="44.308175" lon="10.9095933"><ele>292.0</ele><time>2026-04-24T15:47:59.03Z</time></trkpt><trkpt lat="44.308035" lon="10.9094817"><ele>292.0</ele><time>2026-04-24T15:48:00.029Z</time></trkpt><trkpt lat="44.307905" lon="10.9093633"><ele>291.0</ele><time>2026-04-24T15:48:01.03Z</time></trkpt><trkpt lat="44.3077967" lon="10.90925"><ele>290.0</ele><time>2026-04-24T15:48:02.029Z</time></trkpt><trkpt lat="44.3076917" lon="10.9091467"><ele>289.0</ele><time>2026-04-24T15:48:03.029Z</time></trkpt><trkpt lat="44.3075867" lon="10.9090783"><ele>288.0</ele><time>2026-04-24T15:48:04.03Z</time></trkpt><trkpt lat="44.30749" lon="10.9090367"><ele>288.0</ele><time>2026-04-24T15:48:05.03Z</time></trkpt><trkpt lat="44.3073983" lon="10.90903"><ele>288.0</ele><time>2026-04-24T15:48:06.029Z</time></trkpt><trkpt lat="44.307305" lon="10.9090517"><ele>288.0</ele><time>2026-04-24T15:48:07.029Z</time></trkpt><trkpt lat="44.3072117" lon="10.9091267"><ele>288.0</ele><time>2026-04-24T15:48:08.03Z</time></trkpt><trkpt lat="44.3071367" lon="10.9092367"><ele>288.0</ele><time>2026-04-24T15:48:09.029Z</time></trkpt><trkpt lat="44.307085" lon="10.90938"><ele>291.6</ele><time>2026-04-24T15:48:10.03Z</time></trkpt><trkpt lat="44.3070683" lon="10.9095383"><ele>295.20000000000005</ele><time>2026-04-24T15:48:11.03Z</time></trkpt><trkpt lat="44.3070733" lon="10.9096867"><ele>298.8</ele><time>2026-04-24T15:48:12.03Z</time></trkpt><trkpt lat="44.3070817" lon="10.90984"><ele>302.40000000000003</ele><time>2026-04-24T15:48:13.03Z</time></trkpt><trkpt lat="44.307075" lon="10.909995"><ele>306.0</ele><time>2026-04-24T15:48:14.03Z</time></trkpt><trkpt lat="44.3070417" lon="10.9101367"><ele>310.5</ele><time>2026-04-24T15:48:15.029Z</time></trkpt><trkpt lat="44.3069683" lon="10.9102717"><ele>315.0</ele><time>2026-04-24T15:48:16.03Z</time></trkpt><trkpt lat="44.3068733" lon="10.9103783"><ele>319.5</ele><time>2026-04-24T15:48:17.029Z</time></trkpt><trkpt lat="44.306775" lon="10.9104533"><ele>324.0</ele><time>2026-04-24T15:48:18.03Z</time></trkpt><trkpt lat="44.3066717" lon="10.9104817"><ele>324.0</ele><time>2026-04-24T15:48:19.03Z</time></trkpt><trkpt lat="44.3065717" lon="10.9104633"><ele>324.0</ele><time>2026-04-24T15:48:20.03Z</time></trkpt><trkpt lat="44.3064883" lon="10.9104117"><ele>324.0</ele><time>2026-04-24T15:48:21.029Z</time></trkpt><trkpt lat="44.30644" lon="10.9102917"><ele>324.0</ele><time>2026-04-24T15:48:22.029Z</time></trkpt><trkpt lat="44.3064083" lon="10.910135"><ele>324.0</ele><time>2026-04-24T15:48:23.03Z</time></trkpt><trkpt lat="44.30637" lon="10.9099867"><ele>325.0</ele><time>2026-04-24T15:48:24.03Z</time></trkpt><trkpt lat="44.3063317" lon="10.9098867"><ele>326.0</ele><time>2026-04-24T15:48:25.03Z</time></trkpt><trkpt lat="44.3062733" lon="10.9098167"><ele>327.0</ele><time>2026-04-24T15:48:26.03Z</time></trkpt><trkpt lat="44.306205" lon="10.9097617"><ele>328.0</ele><time>2026-04-24T15:48:27.029Z</time></trkpt><trkpt lat="44.3061417" lon="10.9097633"><ele>329.0</ele><time>2026-04-24T15:48:28.029Z</time></trkpt><trkpt lat="44.3060817" lon="10.9098267"><ele>330.0</ele><time>2026-04-24T15:48:29.03Z</time></trkpt><trkpt lat="44.3060483" lon="10.909975"><ele>334.25</ele><time>2026-04-24T15:48:30.03Z</time></trkpt><trkpt lat="44.3060483" lon="10.9101033"><ele>338.5</ele><time>2026-04-24T15:48:31.03Z</time></trkpt><trkpt lat="44.30614" lon="10.9102867"><ele>342.75</ele><time>2026-04-24T15:48:32.03Z</time></trkpt><trkpt lat="44.306215" lon="10.9104367"><ele>347.0</ele><time>2026-04-24T15:48:33.03Z</time></trkpt><trkpt lat="44.3062933" lon="10.910595"><ele>347.0</ele><time>2026-04-24T15:48:34.029Z</time></trkpt><trkpt lat="44.3063717" lon="10.91075"><ele>347.0</ele><time>2026-04-24T15:48:35.03Z</time></trkpt><trkpt lat="44.3064417" lon="10.9108833"><ele>347.0</ele><time>2026-04-24T15:48:36.029Z</time></trkpt><trkpt lat="44.3065367" lon="10.9109867"><ele>347.0</ele><time>2026-04-24T15:48:37.029Z</time></trkpt><trkpt lat="44.3066383" lon="10.9110367"><ele>347.75</ele><time>2026-04-24T15:48:38.029Z</time></trkpt><trkpt lat="44.30676" lon="10.9110433"><ele>348.5</ele><time>2026-04-24T15:48:39.029Z</time></trkpt><trkpt lat="44.3068867" lon="10.9110067"><ele>349.25</ele><time>2026-04-24T15:48:40.03Z</time></trkpt><trkpt lat="44.3070067" lon="10.91094"><ele>350.0</ele><time>2026-04-24T15:48:41.029Z</time></trkpt><trkpt lat="44.30711" lon="10.9108717"><ele>350.0</ele><time>2026-04-24T15:48:42.03Z</time></trkpt><trkpt lat="44.3072217" lon="10.9108567"><ele>350.0</ele><time>2026-04-24T15:48:43.03Z</time></trkpt><trkpt lat="44.3073217" lon="10.91093"><ele>350.0</ele><time>2026-04-24T15:48:45.03Z</time></trkpt><trkpt lat="44.307305" lon="10.9110917"><ele>350.0</ele><time>2026-04-24T15:48:47.03Z</time></trkpt><trkpt lat="44.307205" lon="10.9111533"><ele>350.0</ele><time>2026-04-24T15:48:48.029Z</time></trkpt><trkpt lat="44.3070883" lon="10.911185"><ele>350.0</ele><time>2026-04-24T15:48:49.03Z</time></trkpt><trkpt lat="44.3069333" lon="10.9111983"><ele>350.0</ele><time>2026-04-24T15:48:50.029Z</time></trkpt><trkpt lat="44.3067683" lon="10.911215"><ele>350.0</ele><time>2026-04-24T15:48:51.03Z</time></trkpt><trkpt lat="44.3066033" lon="10.9112367"><ele>350.0</ele><time>2026-04-24T15:48:52.03Z</time></trkpt><trkpt lat="44.3064333" lon="10.911265"><ele>350.0</ele><time>2026-04-24T15:48:53.03Z</time></trkpt><trkpt lat="44.3062867" lon="10.9112883"><ele>350.0</ele><time>2026-04-24T15:48:54.03Z</time></trkpt><trkpt lat="44.3061467" lon="10.911295"><ele>352.25</ele><time>2026-04-24T15:48:55.029Z</time></trkpt><trkpt lat="44.3060167" lon="10.91128"><ele>354.5</ele><time>2026-04-24T15:48:56.03Z</time></trkpt><trkpt lat="44.3059067" lon="10.9112617"><ele>356.75</ele><time>2026-04-24T15:48:57.03Z</time></trkpt><trkpt lat="44.3058083" lon="10.9112067"><ele>359.0</ele><time>2026-04-24T15:48:58.03Z</time></trkpt><trkpt lat="44.3057217" lon="10.9111067"><ele>359.0</ele><time>2026-04-24T15:48:59.03Z</time></trkpt><trkpt lat="44.3056667" lon="10.9109683"><ele>359.0</ele><time>2026-04-24T15:49:00.03Z</time></trkpt><trkpt lat="44.30561" lon="10.9107867"><ele>359.0</ele><time>2026-04-24T15:49:01.03Z</time></trkpt><trkpt lat="44.30555" lon="10.910625"><ele>359.0</ele><time>2026-04-24T15:49:02.03Z</time></trkpt><trkpt lat="44.305455" lon="10.910445"><ele>360.6666666666667</ele><time>2026-04-24T15:49:03.03Z</time></trkpt><trkpt lat="44.3053417" lon="10.91027"><ele>362.3333333333333</ele><time>2026-04-24T15:49:04.03Z</time></trkpt><trkpt lat="44.305215" lon="10.9100967"><ele>364.0</ele><time>2026-04-24T15:49:05.03Z</time></trkpt><trkpt lat="44.3050883" lon="10.9099117"><ele>364.0</ele><time>2026-04-24T15:49:06.03Z</time></trkpt><trkpt lat="44.3049683" lon="10.909735"><ele>364.0</ele><time>2026-04-24T15:49:07.03Z</time></trkpt><trkpt lat="44.30486" lon="10.9095683"><ele>364.0</ele><time>2026-04-24T15:49:08.03Z</time></trkpt><trkpt lat="44.3047767" lon="10.909415"><ele>372.3333333333333</ele><time>2026-04-24T15:49:09.03Z</time></trkpt><trkpt lat="44.3047017" lon="10.9092233"><ele>380.66666666666663</ele><time>2026-04-24T15:49:10.029Z</time></trkpt><trkpt lat="44.3046317" lon="10.909"><ele>389.0</ele><time>2026-04-24T15:49:11.03Z</time></trkpt><trkpt lat="44.3045683" lon="10.90879"><ele>389.0</ele><time>2026-04-24T15:49:12.03Z</time></trkpt><trkpt lat="44.3045067" lon="10.9085967"><ele>389.0</ele><time>2026-04-24T15:49:13.029Z</time></trkpt><trkpt lat="44.3044283" lon="10.9084333"><ele>389.0</ele><time>2026-04-24T15:49:14.03Z</time></trkpt><trkpt lat="44.3043317" lon="10.9083083"><ele>389.0</ele><time>2026-04-24T15:49:15.03Z</time></trkpt><trkpt lat="44.3042117" lon="10.9082167"><ele>393.25</ele><time>2026-04-24T15:49:16.029Z</time></trkpt><trkpt lat="44.3040767" lon="10.9081517"><ele>397.5</ele><time>2026-04-24T15:49:17.029Z</time></trkpt><trkpt lat="44.3039483" lon="10.9080733"><ele>401.75</ele><time>2026-04-24T15:49:18.03Z</time></trkpt><trkpt lat="44.3038433" lon="10.9079767"><ele>406.0</ele><time>2026-04-24T15:49:19.03Z</time></trkpt><trkpt lat="44.303765" lon="10.9078533"><ele>406.0</ele><time>2026-04-24T15:49:20.03Z</time></trkpt><trkpt lat="44.3037067" lon="10.9076983"><ele>406.0</ele><time>2026-04-24T15:49:21.03Z</time></trkpt><trkpt lat="44.303675" lon="10.907535"><ele>406.0</ele><time>2026-04-24T15:49:22.03Z</time></trkpt><trkpt lat="44.3036367" lon="10.9073883"><ele>406.0</ele><time>2026-04-24T15:49:23.03Z</time></trkpt><trkpt lat="44.3035933" lon="10.9072867"><ele>406.0</ele><time>2026-04-24T15:49:24.03Z</time></trkpt><trkpt lat="44.3034967" lon="10.9072"><ele>402.75</ele><time>2026-04-24T15:49:25.03Z</time></trkpt><trkpt lat="44.3033833" lon="10.9071267"><ele>399.5</ele><time>2026-04-24T15:49:26.03Z</time></trkpt><trkpt lat="44.303245" lon="10.9070667"><ele>396.25</ele><time>2026-04-24T15:49:27.03Z</time></trkpt><trkpt lat="44.3030967" lon="10.9070067"><ele>393.0</ele><time>2026-04-24T15:49:28.03Z</time></trkpt><trkpt lat="44.3029383" lon="10.9069683"><ele>393.0</ele><time>2026-04-24T15:49:29.03Z</time></trkpt><trkpt lat="44.3027933" lon="10.9069433"><ele>393.0</ele><time>2026-04-24T15:49:30.029Z</time></trkpt><trkpt lat="44.3026367" lon="10.9069417"><ele>393.0</ele><time>2026-04-24T15:49:31.03Z</time></trkpt><trkpt lat="44.302475" lon="10.9069683"><ele>393.0</ele><time>2026-04-24T15:49:32.03Z</time></trkpt><trkpt lat="44.30231" lon="10.9070033"><ele>393.0</ele><time>2026-04-24T15:49:33.029Z</time></trkpt><trkpt lat="44.302145" lon="10.907055"><ele>393.0</ele><time>2026-04-24T15:49:34.03Z</time></trkpt><trkpt lat="44.3019867" lon="10.9071183"><ele>391.75</ele><time>2026-04-24T15:49:35.03Z</time></trkpt><trkpt lat="44.3018483" lon="10.90718"><ele>390.5</ele><time>2026-04-24T15:49:36.03Z</time></trkpt><trkpt lat="44.30172" lon="10.9072117"><ele>389.25</ele><time>2026-04-24T15:49:37.03Z</time></trkpt><trkpt lat="44.3016" lon="10.9072167"><ele>388.0</ele><time>2026-04-24T15:49:38.03Z</time></trkpt><trkpt lat="44.3014867" lon="10.9071833"><ele>390.6666666666667</ele><time>2026-04-24T15:49:39.03Z</time></trkpt><trkpt lat="44.3013833" lon="10.9071333"><ele>393.33333333333337</ele><time>2026-04-24T15:49:40.029Z</time></trkpt><trkpt lat="44.301295" lon="10.9070883"><ele>396.0</ele><time>2026-04-24T15:49:41.03Z</time></trkpt><trkpt lat="44.3012217" lon="10.90704"><ele>398.66666666666663</ele><time>2026-04-24T15:49:42.029Z</time></trkpt><trkpt lat="44.30117" lon="10.9069617"><ele>401.3333333333333</ele><time>2026-04-24T15:49:43.03Z</time></trkpt><trkpt lat="44.30115" lon="10.906845"><ele>404.0</ele><time>2026-04-24T15:49:44.029Z</time></trkpt><trkpt lat="44.3011533" lon="10.9067083"><ele>406.75</ele><time>2026-04-24T15:49:45.03Z</time></trkpt><trkpt lat="44.3011933" lon="10.9065433"><ele>409.5</ele><time>2026-04-24T15:49:46.029Z</time></trkpt><trkpt lat="44.3012533" lon="10.90637"><ele>412.25</ele><time>2026-04-24T15:49:47.03Z</time></trkpt><trkpt lat="44.3013133" lon="10.906185"><ele>415.0</ele><time>2026-04-24T15:49:48.03Z</time></trkpt><trkpt lat="44.3013733" lon="10.90599"><ele>405.5</ele><time>2026-04-24T15:49:49.029Z</time></trkpt><trkpt lat="44.3014183" lon="10.9058033"><ele>396.0</ele><time>2026-04-24T15:49:50.03Z</time></trkpt><trkpt lat="44.3014533" lon="10.9056417"><ele>386.5</ele><time>2026-04-24T15:49:51.03Z</time></trkpt><trkpt lat="44.3014883" lon="10.9054967"><ele>377.0</ele><time>2026-04-24T15:49:52.029Z</time></trkpt><trkpt lat="44.3015083" lon="10.9053517"><ele>377.0</ele><time>2026-04-24T15:49:53.03Z</time></trkpt><trkpt lat="44.3014917" lon="10.905215"><ele>377.0</ele><time>2026-04-24T15:49:54.03Z</time></trkpt><trkpt lat="44.3014633" lon="10.9050667"><ele>377.0</ele><time>2026-04-24T15:49:55.03Z</time></trkpt><trkpt lat="44.3014267" lon="10.904915"><ele>377.0</ele><time>2026-04-24T15:49:56.029Z</time></trkpt><trkpt lat="44.30139" lon="10.9047617"><ele>377.0</ele><time>2026-04-24T15:49:57.03Z</time></trkpt><trkpt lat="44.3013717" lon="10.9046167"><ele>383.0</ele><time>2026-04-24T15:49:58.029Z</time></trkpt><trkpt lat="44.301345" lon="10.9044967"><ele>389.0</ele><time>2026-04-24T15:49:59.03Z</time></trkpt><trkpt lat="44.3012867" lon="10.9043983"><ele>395.0</ele><time>2026-04-24T15:50:00.03Z</time></trkpt><trkpt lat="44.3012183" lon="10.9043283"><ele>401.0</ele><time>2026-04-24T15:50:01.03Z</time></trkpt><trkpt lat="44.30111" lon="10.9042667"><ele>407.0</ele><time>2026-04-24T15:50:02.03Z</time></trkpt><trkpt lat="44.3009933" lon="10.90421"><ele>407.0</ele><time>2026-04-24T15:50:03.03Z</time></trkpt><trkpt lat="44.3008867" lon="10.9041383"><ele>407.0</ele><time>2026-04-24T15:50:04.03Z</time></trkpt><trkpt lat="44.3007867" lon="10.9040367"><ele>407.0</ele><time>2026-04-24T15:50:05.03Z</time></trkpt><trkpt lat="44.300705" lon="10.9039367"><ele>407.0</ele><time>2026-04-24T15:50:06.03Z</time></trkpt><trkpt lat="44.3006267" lon="10.9038517"><ele>410.20000000000005</ele><time>2026-04-24T15:50:07.03Z</time></trkpt><trkpt lat="44.3005367" lon="10.903805"><ele>413.4</ele><time>2026-04-24T15:50:08.03Z</time></trkpt><trkpt lat="44.300435" lon="10.90379"><ele>416.6</ele><time>2026-04-24T15:50:09.03Z</time></trkpt><trkpt lat="44.300325" lon="10.90381"><ele>419.79999999999995</ele><time>2026-04-24T15:50:10.03Z</time></trkpt><trkpt lat="44.3002033" lon="10.9038483"><ele>423.0</ele><time>2026-04-24T15:50:11.03Z</time></trkpt><trkpt lat="44.300075" lon="10.9038617"><ele>423.0</ele><time>2026-04-24T15:50:12.03Z</time></trkpt><trkpt lat="44.2999483" lon="10.9038617"><ele>423.0</ele><time>2026-04-24T15:50:13.03Z</time></trkpt><trkpt lat="44.2998333" lon="10.90383"><ele>423.0</ele><time>2026-04-24T15:50:14.029Z</time></trkpt><trkpt lat="44.2997167" lon="10.903765"><ele>423.0</ele><time>2026-04-24T15:50:15.029Z</time></trkpt><trkpt lat="44.299615" lon="10.90366"><ele>427.0</ele><time>2026-04-24T15:50:16.03Z</time></trkpt><trkpt lat="44.299545" lon="10.9035333"><ele>431.0</ele><time>2026-04-24T15:50:17.03Z</time></trkpt><trkpt lat="44.2995067" lon="10.9033817"><ele>435.0</ele><time>2026-04-24T15:50:18.03Z</time></trkpt><trkpt lat="44.29948" lon="10.9032233"><ele>439.0</ele><time>2026-04-24T15:50:19.03Z</time></trkpt><trkpt lat="44.299475" lon="10.9030433"><ele>439.0</ele><time>2026-04-24T15:50:20.03Z</time></trkpt><trkpt lat="44.299495" lon="10.9028733"><ele>439.0</ele><time>2026-04-24T15:50:21.03Z</time></trkpt><trkpt lat="44.299515" lon="10.9027033"><ele>439.0</ele><time>2026-04-24T15:50:22.03Z</time></trkpt><trkpt lat="44.2995383" lon="10.9025417"><ele>439.0</ele><time>2026-04-24T15:50:23.03Z</time></trkpt><trkpt lat="44.299555" lon="10.9023783"><ele>439.2</ele><time>2026-04-24T15:50:24.03Z</time></trkpt><trkpt lat="44.299565" lon="10.90223"><ele>439.4</ele><time>2026-04-24T15:50:25.03Z</time></trkpt><trkpt lat="44.2995433" lon="10.9020867"><ele>439.6</ele><time>2026-04-24T15:50:26.029Z</time></trkpt><trkpt lat="44.2994933" lon="10.9019467"><ele>439.8</ele><time>2026-04-24T15:50:27.029Z</time></trkpt><trkpt lat="44.2994417" lon="10.901825"><ele>440.0</ele><time>2026-04-24T15:50:28.03Z</time></trkpt><trkpt lat="44.2993983" lon="10.9016833"><ele>438.0</ele><time>2026-04-24T15:50:29.03Z</time></trkpt><trkpt lat="44.2993633" lon="10.9015433"><ele>436.0</ele><time>2026-04-24T15:50:30.03Z</time></trkpt><trkpt lat="44.29933" lon="10.901415"><ele>434.0</ele><time>2026-04-24T15:50:31.03Z</time></trkpt><trkpt lat="44.2992683" lon="10.9012983"><ele>432.0</ele><time>2026-04-24T15:50:32.03Z</time></trkpt><trkpt lat="44.2992017" lon="10.9012067"><ele>430.0</ele><time>2026-04-24T15:50:33.03Z</time></trkpt><trkpt lat="44.2991167" lon="10.9011433"><ele>430.0</ele><time>2026-04-24T15:50:34.03Z</time></trkpt><trkpt lat="44.29901" lon="10.9010933"><ele>430.0</ele><time>2026-04-24T15:50:35.029Z</time></trkpt><trkpt lat="44.29889" lon="10.90106"><ele>430.0</ele><time>2026-04-24T15:50:36.03Z</time></trkpt><trkpt lat="44.2987733" lon="10.90103"><ele>430.0</ele><time>2026-04-24T15:50:37.03Z</time></trkpt><trkpt lat="44.2986633" lon="10.90099"><ele>429.6</ele><time>2026-04-24T15:50:38.03Z</time></trkpt><trkpt lat="44.2985467" lon="10.9009467"><ele>429.2</ele><time>2026-04-24T15:50:39.029Z</time></trkpt><trkpt lat="44.2984483" lon="10.9008933"><ele>428.79999999999995</ele><time>2026-04-24T15:50:40.03Z</time></trkpt><trkpt lat="44.298355" lon="10.9008167"><ele>428.4</ele><time>2026-04-24T15:50:41.03Z</time></trkpt><trkpt lat="44.2982583" lon="10.90075"><ele>428.0</ele><time>2026-04-24T15:50:42.029Z</time></trkpt><trkpt lat="44.298155" lon="10.9007133"><ele>429.75</ele><time>2026-04-24T15:50:43.03Z</time></trkpt><trkpt lat="44.2980483" lon="10.9007217"><ele>431.5</ele><time>2026-04-24T15:50:44.03Z</time></trkpt><trkpt lat="44.297935" lon="10.9007583"><ele>433.25</ele><time>2026-04-24T15:50:45.029Z</time></trkpt><trkpt lat="44.297805" lon="10.9008183"><ele>435.0</ele><time>2026-04-24T15:50:46.03Z</time></trkpt><trkpt lat="44.2976633" lon="10.9008917"><ele>441.5</ele><time>2026-04-24T15:50:47.03Z</time></trkpt><trkpt lat="44.297525" lon="10.9009617"><ele>448.0</ele><time>2026-04-24T15:50:48.03Z</time></trkpt><trkpt lat="44.29739" lon="10.9010083"><ele>454.5</ele><time>2026-04-24T15:50:49.03Z</time></trkpt><trkpt lat="44.29726" lon="10.9010567"><ele>461.0</ele><time>2026-04-24T15:50:50.03Z</time></trkpt><trkpt lat="44.2971167" lon="10.90107"><ele>461.0</ele><time>2026-04-24T15:50:51.03Z</time></trkpt><trkpt lat="44.296985" lon="10.9010433"><ele>461.0</ele><time>2026-04-24T15:50:52.03Z</time></trkpt><trkpt lat="44.296855" lon="10.900995"><ele>461.0</ele><time>2026-04-24T15:50:53.03Z</time></trkpt><trkpt lat="44.29672" lon="10.9009317"><ele>461.0</ele><time>2026-04-24T15:50:54.029Z</time></trkpt><trkpt lat="44.2965917" lon="10.9008517"><ele>458.5</ele><time>2026-04-24T15:50:55.03Z</time></trkpt><trkpt lat="44.296465" lon="10.9007783"><ele>456.0</ele><time>2026-04-24T15:50:56.03Z</time></trkpt><trkpt lat="44.2963317" lon="10.9006933"><ele>453.5</ele><time>2026-04-24T15:50:57.029Z</time></trkpt><trkpt lat="44.296205" lon="10.9005967"><ele>451.0</ele><time>2026-04-24T15:50:58.029Z</time></trkpt><trkpt lat="44.2960783" lon="10.9004967"><ele>451.0</ele><time>2026-04-24T15:50:59.03Z</time></trkpt><trkpt lat="44.2959483" lon="10.900375"><ele>451.0</ele><time>2026-04-24T15:51:00.03Z</time></trkpt><trkpt lat="44.295815" lon="10.9002483"><ele>451.0</ele><time>2026-04-24T15:51:01.03Z</time></trkpt><trkpt lat="44.29568" lon="10.9001167"><ele>456.0</ele><time>2026-04-24T15:51:02.03Z</time></trkpt><trkpt lat="44.295545" lon="10.8999783"><ele>461.0</ele><time>2026-04-24T15:51:03.03Z</time></trkpt><trkpt lat="44.2954217" lon="10.8998467"><ele>466.0</ele><time>2026-04-24T15:51:04.03Z</time></trkpt><trkpt lat="44.2953167" lon="10.8997117"><ele>466.0</ele><time>2026-04-24T15:51:05.03Z</time></trkpt><trkpt lat="44.29523" lon="10.899565"><ele>466.0</ele><time>2026-04-24T15:51:06.03Z</time></trkpt><trkpt lat="44.295165" lon="10.8993933"><ele>466.0</ele><time>2026-04-24T15:51:07.029Z</time></trkpt><trkpt lat="44.29512" lon="10.8992"><ele>466.0</ele><time>2026-04-24T15:51:08.03Z</time></trkpt><trkpt lat="44.2950717" lon="10.8990033"><ele>462.6666666666667</ele><time>2026-04-24T15:51:09.029Z</time></trkpt><trkpt lat="44.2950217" lon="10.8988083"><ele>459.33333333333337</ele><time>2026-04-24T15:51:10.03Z</time></trkpt><trkpt lat="44.2949567" lon="10.8986067"><ele>456.0</ele><time>2026-04-24T15:51:11.03Z</time></trkpt><trkpt lat="44.2948717" lon="10.8984167"><ele>452.66666666666663</ele><time>2026-04-24T15:51:12.03Z</time></trkpt><trkpt lat="44.294775" lon="10.898235"><ele>449.3333333333333</ele><time>2026-04-24T15:51:13.03Z</time></trkpt><trkpt lat="44.29467" lon="10.8980567"><ele>446.0</ele><time>2026-04-24T15:51:14.03Z</time></trkpt><trkpt lat="44.2945717" lon="10.8978783"><ele>452.5</ele><time>2026-04-24T15:51:15.029Z</time></trkpt><trkpt lat="44.2944883" lon="10.8977017"><ele>459.0</ele><time>2026-04-24T15:51:16.03Z</time></trkpt><trkpt lat="44.2944317" lon="10.8975"><ele>465.5</ele><time>2026-04-24T15:51:17.03Z</time></trkpt><trkpt lat="44.29439" lon="10.8973267"><ele>472.0</ele><time>2026-04-24T15:51:18.029Z</time></trkpt><trkpt lat="44.2943583" lon="10.8971733"><ele>472.00000000000006</ele><time>2026-04-24T15:51:19.03Z</time></trkpt><trkpt lat="44.2943283" lon="10.89703"><ele>472.0</ele><time>2026-04-24T15:51:20.03Z</time></trkpt><trkpt lat="44.294295" lon="10.8969033"><ele>472.0</ele><time>2026-04-24T15:51:21.03Z</time></trkpt><trkpt lat="44.2942483" lon="10.8968117"><ele>472.0</ele><time>2026-04-24T15:51:22.03Z</time></trkpt><trkpt lat="44.2941817" lon="10.8967567"><ele>472.00000000000006</ele><time>2026-04-24T15:51:23.029Z</time></trkpt><trkpt lat="44.29411" lon="10.896715"><ele>472.0</ele><time>2026-04-24T15:51:24.03Z</time></trkpt><trkpt lat="44.2940267" lon="10.896715"><ele>466.40000000000003</ele><time>2026-04-24T15:51:25.03Z</time></trkpt><trkpt lat="44.2939417" lon="10.8967517"><ele>460.80000000000007</ele><time>2026-04-24T15:51:26.03Z</time></trkpt><trkpt lat="44.2938517" lon="10.8968267"><ele>455.2</ele><time>2026-04-24T15:51:27.029Z</time></trkpt><trkpt lat="44.2937667" lon="10.89691"><ele>449.6</ele><time>2026-04-24T15:51:28.029Z</time></trkpt><trkpt lat="44.2936767" lon="10.896965"><ele>444.0</ele><time>2026-04-24T15:51:29.03Z</time></trkpt><trkpt lat="44.2935967" lon="10.8969783"><ele>449.0</ele><time>2026-04-24T15:51:30.03Z</time></trkpt><trkpt lat="44.2935" lon="10.8969533"><ele>454.0</ele><time>2026-04-24T15:51:31.03Z</time></trkpt><trkpt lat="44.2934033" lon="10.8968933"><ele>459.0</ele><time>2026-04-24T15:51:32.03Z</time></trkpt><trkpt lat="44.2933033" lon="10.8968167"><ele>464.0</ele><time>2026-04-24T15:51:33.03Z</time></trkpt><trkpt lat="44.2932067" lon="10.8967217"><ele>469.0</ele><time>2026-04-24T15:51:34.03Z</time></trkpt><trkpt lat="44.2931217" lon="10.8966"><ele>473.6</ele><time>2026-04-24T15:51:35.03Z</time></trkpt><trkpt lat="44.2930533" lon="10.8964717"><ele>478.2</ele><time>2026-04-24T15:51:36.03Z</time></trkpt><trkpt lat="44.293" lon="10.89634"><ele>482.80000000000007</ele><time>2026-04-24T15:51:37.03Z</time></trkpt><trkpt lat="44.2929533" lon="10.8962233"><ele>487.40000000000003</ele><time>2026-04-24T15:51:38.03Z</time></trkpt><trkpt lat="44.292885" lon="10.896135"><ele>492.0</ele><time>2026-04-24T15:51:39.03Z</time></trkpt><trkpt lat="44.2928033" lon="10.896085"><ele>492.0</ele><time>2026-04-24T15:51:40.03Z</time></trkpt><trkpt lat="44.2927083" lon="10.8960767"><ele>492.00000000000006</ele><time>2026-04-24T15:51:41.03Z</time></trkpt><trkpt lat="44.292615" lon="10.8961183"><ele>492.00000000000006</ele><time>2026-04-24T15:51:42.03Z</time></trkpt><trkpt lat="44.2925067" lon="10.8961517"><ele>492.0</ele><time>2026-04-24T15:51:43.03Z</time></trkpt><trkpt lat="44.2923817" lon="10.89617"><ele>492.0</ele><time>2026-04-24T15:51:44.03Z</time></trkpt><trkpt lat="44.2922533" lon="10.8961617"><ele>493.75</ele><time>2026-04-24T15:51:45.03Z</time></trkpt><trkpt lat="44.2921233" lon="10.8961383"><ele>495.5</ele><time>2026-04-24T15:51:46.029Z</time></trkpt><trkpt lat="44.2919967" lon="10.8960983"><ele>497.25</ele><time>2026-04-24T15:51:47.029Z</time></trkpt><trkpt lat="44.2918667" lon="10.8960733"><ele>499.0</ele><time>2026-04-24T15:51:48.03Z</time></trkpt><trkpt lat="44.2917317" lon="10.8960683"><ele>499.0</ele><time>2026-04-24T15:51:49.029Z</time></trkpt><trkpt lat="44.291605" lon="10.8960817"><ele>499.0</ele><time>2026-04-24T15:51:50.03Z</time></trkpt><trkpt lat="44.2914667" lon="10.89611"><ele>499.0</ele><time>2026-04-24T15:51:51.03Z</time></trkpt><trkpt lat="44.2913333" lon="10.8961683"><ele>499.0</ele><time>2026-04-24T15:51:52.03Z</time></trkpt><trkpt lat="44.2912033" lon="10.8961967"><ele>501.5</ele><time>2026-04-24T15:51:53.03Z</time></trkpt><trkpt lat="44.2910767" lon="10.8962033"><ele>504.0</ele><time>2026-04-24T15:51:54.029Z</time></trkpt><trkpt lat="44.2909633" lon="10.8961633"><ele>506.5</ele><time>2026-04-24T15:51:55.029Z</time></trkpt><trkpt lat="44.2908467" lon="10.8961033"><ele>509.0</ele><time>2026-04-24T15:51:56.029Z</time></trkpt><trkpt lat="44.290715" lon="10.8960267"><ele>510.25</ele><time>2026-04-24T15:51:57.03Z</time></trkpt><trkpt lat="44.29058" lon="10.8959667"><ele>511.5</ele><time>2026-04-24T15:51:58.029Z</time></trkpt><trkpt lat="44.29044" lon="10.8959333"><ele>512.75</ele><time>2026-04-24T15:51:59.03Z</time></trkpt><trkpt lat="44.2903033" lon="10.895915"><ele>514.0</ele><time>2026-04-24T15:52:00.029Z</time></trkpt><trkpt lat="44.2901617" lon="10.89591"><ele>514.0</ele><time>2026-04-24T15:52:01.03Z</time></trkpt><trkpt lat="44.2900217" lon="10.8959367"><ele>514.0</ele><time>2026-04-24T15:52:02.029Z</time></trkpt><trkpt lat="44.2898733" lon="10.8959833"><ele>514.0</ele><time>2026-04-24T15:52:03.03Z</time></trkpt><trkpt lat="44.2897317" lon="10.89604"><ele>514.0</ele><time>2026-04-24T15:52:04.03Z</time></trkpt><trkpt lat="44.2896" lon="10.8961183"><ele>511.25</ele><time>2026-04-24T15:52:05.03Z</time></trkpt><trkpt lat="44.289465" lon="10.896215"><ele>508.5</ele><time>2026-04-24T15:52:06.03Z</time></trkpt><trkpt lat="44.2893467" lon="10.8963133"><ele>505.75</ele><time>2026-04-24T15:52:07.029Z</time></trkpt><trkpt lat="44.289215" lon="10.8964267"><ele>503.0</ele><time>2026-04-24T15:52:08.029Z</time></trkpt><trkpt lat="44.2890817" lon="10.896535"><ele>503.0</ele><time>2026-04-24T15:52:09.03Z</time></trkpt><trkpt lat="44.2889533" lon="10.8966333"><ele>503.0</ele><time>2026-04-24T15:52:10.03Z</time></trkpt><trkpt lat="44.2888317" lon="10.8967067"><ele>503.0</ele><time>2026-04-24T15:52:11.03Z</time></trkpt><trkpt lat="44.2887067" lon="10.89678"><ele>503.0</ele><time>2026-04-24T15:52:12.03Z</time></trkpt><trkpt lat="44.28855" lon="10.8968183"><ele>507.75</ele><time>2026-04-24T15:52:13.03Z</time></trkpt><trkpt lat="44.2884133" lon="10.8968967"><ele>512.5</ele><time>2026-04-24T15:52:14.03Z</time></trkpt><trkpt lat="44.2882817" lon="10.8969417"><ele>517.25</ele><time>2026-04-24T15:52:15.03Z</time></trkpt><trkpt lat="44.2881533" lon="10.89699"><ele>522.0</ele><time>2026-04-24T15:52:16.03Z</time></trkpt><trkpt lat="44.2880433" lon="10.8970517"><ele>514.0</ele><time>2026-04-24T15:52:17.03Z</time></trkpt><trkpt lat="44.2879617" lon="10.8971317"><ele>506.00000000000006</ele><time>2026-04-24T15:52:18.03Z</time></trkpt><trkpt lat="44.28791" lon="10.8972267"><ele>498.00000000000006</ele><time>2026-04-24T15:52:19.029Z</time></trkpt><trkpt lat="44.2878767" lon="10.8973733"><ele>490.0</ele><time>2026-04-24T15:52:20.03Z</time></trkpt><trkpt lat="44.2878333" lon="10.8975483"><ele>482.0</ele><time>2026-04-24T15:52:21.029Z</time></trkpt><trkpt lat="44.2878017" lon="10.89771"><ele>482.0</ele><time>2026-04-24T15:52:22.03Z</time></trkpt><trkpt lat="44.2877817" lon="10.8978783"><ele>482.0</ele><time>2026-04-24T15:52:23.029Z</time></trkpt><trkpt lat="44.287775" lon="10.8980583"><ele>482.0</ele><time>2026-04-24T15:52:24.03Z</time></trkpt><trkpt lat="44.2877867" lon="10.8982567"><ele>482.0</ele><time>2026-04-24T15:52:25.029Z</time></trkpt><trkpt lat="44.2877917" lon="10.8984233"><ele>481.25</ele><time>2026-04-24T15:52:26.029Z</time></trkpt><trkpt lat="44.2878267" lon="10.8985817"><ele>480.5</ele><time>2026-04-24T15:52:27.03Z</time></trkpt><trkpt lat="44.2879033" lon="10.8987233"><ele>479.75</ele><time>2026-04-24T15:52:28.029Z</time></trkpt><trkpt lat="44.28797" lon="10.8988817"><ele>479.0</ele><time>2026-04-24T15:52:29.03Z</time></trkpt><trkpt lat="44.2880483" lon="10.8990567"><ele>488.3333333333333</ele><time>2026-04-24T15:52:30.029Z</time></trkpt><trkpt lat="44.2881217" lon="10.8992217"><ele>497.66666666666663</ele><time>2026-04-24T15:52:31.029Z</time></trkpt><trkpt lat="44.2882067" lon="10.8994"><ele>507.0</ele><time>2026-04-24T15:52:32.03Z</time></trkpt><trkpt lat="44.2882967" lon="10.8995833"><ele>507.0</ele><time>2026-04-24T15:52:33.03Z</time></trkpt><trkpt lat="44.2883833" lon="10.8997733"><ele>507.0</ele><time>2026-04-24T15:52:34.03Z</time></trkpt><trkpt lat="44.288485" lon="10.8999433"><ele>507.0</ele><time>2026-04-24T15:52:35.029Z</time></trkpt><trkpt lat="44.2886017" lon="10.9001033"><ele>506.33333333333337</ele><time>2026-04-24T15:52:36.03Z</time></trkpt><trkpt lat="44.2887" lon="10.90027"><ele>505.6666666666667</ele><time>2026-04-24T15:52:37.029Z</time></trkpt><trkpt lat="44.2887933" lon="10.90044"><ele>505.0</ele><time>2026-04-24T15:52:38.03Z</time></trkpt><trkpt lat="44.28888" lon="10.9006283"><ele>510.6666666666667</ele><time>2026-04-24T15:52:39.03Z</time></trkpt><trkpt lat="44.2889667" lon="10.900815"><ele>516.3333333333334</ele><time>2026-04-24T15:52:40.029Z</time></trkpt><trkpt lat="44.2890583" lon="10.9009783"><ele>522.0</ele><time>2026-04-24T15:52:41.029Z</time></trkpt><trkpt lat="44.2891433" lon="10.9011467"><ele>522.0</ele><time>2026-04-24T15:52:42.03Z</time></trkpt><trkpt lat="44.2892417" lon="10.9013067"><ele>522.0</ele><time>2026-04-24T15:52:43.029Z</time></trkpt><trkpt lat="44.2893417" lon="10.9014967"><ele>522.0</ele><time>2026-04-24T15:52:44.03Z</time></trkpt><trkpt lat="44.2894367" lon="10.901695"><ele>522.25</ele><time>2026-04-24T15:52:45.03Z</time></trkpt><trkpt lat="44.2895367" lon="10.9018767"><ele>522.5</ele><time>2026-04-24T15:52:46.03Z</time></trkpt><trkpt lat="44.289625" lon="10.9020317"><ele>522.75</ele><time>2026-04-24T15:52:47.03Z</time></trkpt><trkpt lat="44.2897033" lon="10.902175"><ele>523.0</ele><time>2026-04-24T15:52:48.03Z</time></trkpt><trkpt lat="44.2897883" lon="10.9023133"><ele>525.5</ele><time>2026-04-24T15:52:49.03Z</time></trkpt><trkpt lat="44.2898833" lon="10.9024517"><ele>528.0</ele><time>2026-04-24T15:52:50.029Z</time></trkpt><trkpt lat="44.2899983" lon="10.9025767"><ele>530.5</ele><time>2026-04-24T15:52:51.03Z</time></trkpt><trkpt lat="44.2901283" lon="10.9026933"><ele>533.0</ele><time>2026-04-24T15:52:52.03Z</time></trkpt><trkpt lat="44.2902633" lon="10.90281"><ele>534.0</ele><time>2026-04-24T15:52:53.029Z</time></trkpt><trkpt lat="44.29039" lon="10.9029017"><ele>535.0</ele><time>2026-04-24T15:52:54.03Z</time></trkpt><trkpt lat="44.2904967" lon="10.9029783"><ele>536.0</ele><time>2026-04-24T15:52:55.03Z</time></trkpt><trkpt lat="44.2905783" lon="10.903045"><ele>537.0</ele><time>2026-04-24T15:52:56.029Z</time></trkpt><trkpt lat="44.290635" lon="10.9031167"><ele>538.0</ele><time>2026-04-24T15:52:57.029Z</time></trkpt><trkpt lat="44.290675" lon="10.9032033"><ele>539.4</ele><time>2026-04-24T15:52:58.03Z</time></trkpt><trkpt lat="44.290685" lon="10.9033033"><ele>540.8</ele><time>2026-04-24T15:52:59.03Z</time></trkpt><trkpt lat="44.290645" lon="10.9034233"><ele>542.2</ele><time>2026-04-24T15:53:00.03Z</time></trkpt><trkpt lat="44.290575" lon="10.9035117"><ele>543.6</ele><time>2026-04-24T15:53:01.03Z</time></trkpt><trkpt lat="44.29048" lon="10.90358"><ele>545.0</ele><time>2026-04-24T15:53:02.029Z</time></trkpt><trkpt lat="44.29035" lon="10.9036567"><ele>546.0</ele><time>2026-04-24T15:53:03.03Z</time></trkpt><trkpt lat="44.29022" lon="10.9037367"><ele>547.0</ele><time>2026-04-24T15:53:04.029Z</time></trkpt><trkpt lat="44.290085" lon="10.903815"><ele>548.0</ele><time>2026-04-24T15:53:05.03Z</time></trkpt><trkpt lat="44.289965" lon="10.9038817"><ele>549.0</ele><time>2026-04-24T15:53:06.03Z</time></trkpt><trkpt lat="44.28984" lon="10.90397"><ele>548.25</ele><time>2026-04-24T15:53:07.029Z</time></trkpt><trkpt lat="44.2897183" lon="10.90406"><ele>547.5</ele><time>2026-04-24T15:53:08.03Z</time></trkpt><trkpt lat="44.2896017" lon="10.9041633"><ele>546.75</ele><time>2026-04-24T15:53:09.03Z</time></trkpt><trkpt lat="44.2894867" lon="10.9042783"><ele>546.0</ele><time>2026-04-24T15:53:10.03Z</time></trkpt><trkpt lat="44.2893683" lon="10.9043967"><ele>549.75</ele><time>2026-04-24T15:53:11.029Z</time></trkpt><trkpt lat="44.2892533" lon="10.9044967"><ele>553.5</ele><time>2026-04-24T15:53:12.03Z</time></trkpt><trkpt lat="44.28913" lon="10.9045717"><ele>557.25</ele><time>2026-04-24T15:53:13.03Z</time></trkpt><trkpt lat="44.288995" lon="10.9046267"><ele>561.0</ele><time>2026-04-24T15:53:14.03Z</time></trkpt><trkpt lat="44.2888417" lon="10.9046317"><ele>564.6666666666666</ele><time>2026-04-24T15:53:15.03Z</time></trkpt><trkpt lat="44.2886967" lon="10.904595"><ele>568.3333333333333</ele><time>2026-04-24T15:53:16.03Z</time></trkpt><trkpt lat="44.2885483" lon="10.9045583"><ele>572.0</ele><time>2026-04-24T15:53:17.029Z</time></trkpt><trkpt lat="44.2884017" lon="10.9045017"><ele>572.0</ele><time>2026-04-24T15:53:18.029Z</time></trkpt><trkpt lat="44.288255" lon="10.9044333"><ele>572.0</ele><time>2026-04-24T15:53:19.029Z</time></trkpt><trkpt lat="44.2881017" lon="10.904375"><ele>572.0</ele><time>2026-04-24T15:53:20.03Z</time></trkpt><trkpt lat="44.2879533" lon="10.9043133"><ele>573.3333333333333</ele><time>2026-04-24T15:53:21.03Z</time></trkpt><trkpt lat="44.2877983" lon="10.904285"><ele>574.6666666666666</ele><time>2026-04-24T15:53:22.03Z</time></trkpt><trkpt lat="44.28764" lon="10.90428"><ele>576.0</ele><time>2026-04-24T15:53:23.03Z</time></trkpt><trkpt lat="44.2874733" lon="10.9043"><ele>576.0</ele><time>2026-04-24T15:53:24.03Z</time></trkpt><trkpt lat="44.287315" lon="10.9042917"><ele>576.0</ele><time>2026-04-24T15:53:25.029Z</time></trkpt><trkpt lat="44.287175" lon="10.904255"><ele>576.0</ele><time>2026-04-24T15:53:26.03Z</time></trkpt><trkpt lat="44.287035" lon="10.9041967"><ele>576.0</ele><time>2026-04-24T15:53:27.029Z</time></trkpt><trkpt lat="44.2869033" lon="10.9041283"><ele>572.8</ele><time>2026-04-24T15:53:28.029Z</time></trkpt><trkpt lat="44.286785" lon="10.9040667"><ele>569.6</ele><time>2026-04-24T15:53:29.029Z</time></trkpt><trkpt lat="44.2866783" lon="10.9040517"><ele>566.4</ele><time>2026-04-24T15:53:30.03Z</time></trkpt><trkpt lat="44.2865767" lon="10.9040717"><ele>563.2</ele><time>2026-04-24T15:53:31.029Z</time></trkpt><trkpt lat="44.2864767" lon="10.904135"><ele>560.0</ele><time>2026-04-24T15:53:32.03Z</time></trkpt><trkpt lat="44.2863983" lon="10.90424"><ele>557.8</ele><time>2026-04-24T15:53:33.029Z</time></trkpt><trkpt lat="44.2863383" lon="10.9043717"><ele>555.6</ele><time>2026-04-24T15:53:34.03Z</time></trkpt><trkpt lat="44.2862917" lon="10.9045067"><ele>553.4</ele><time>2026-04-24T15:53:35.03Z</time></trkpt><trkpt lat="44.2862783" lon="10.9046567"><ele>551.2</ele><time>2026-04-24T15:53:36.029Z</time></trkpt><trkpt lat="44.2863133" lon="10.9048133"><ele>549.0</ele><time>2026-04-24T15:53:37.03Z</time></trkpt><trkpt lat="44.2863467" lon="10.904975"><ele>548.0</ele><time>2026-04-24T15:53:38.03Z</time></trkpt><trkpt lat="44.28639" lon="10.90515"><ele>547.0</ele><time>2026-04-24T15:53:39.029Z</time></trkpt><trkpt lat="44.2864267" lon="10.9053233"><ele>546.0</ele><time>2026-04-24T15:53:40.03Z</time></trkpt><trkpt lat="44.28646" lon="10.9054917"><ele>545.0</ele><time>2026-04-24T15:53:41.03Z</time></trkpt><trkpt lat="44.286485" lon="10.90567"><ele>546.0</ele><time>2026-04-24T15:53:42.029Z</time></trkpt><trkpt lat="44.28648" lon="10.9058467"><ele>547.0</ele><time>2026-04-24T15:53:43.029Z</time></trkpt><trkpt lat="44.286445" lon="10.9060267"><ele>548.0</ele><time>2026-04-24T15:53:44.03Z</time></trkpt><trkpt lat="44.2863733" lon="10.9061967"><ele>549.0</ele><time>2026-04-24T15:53:45.029Z</time></trkpt><trkpt lat="44.2862783" lon="10.9063517"><ele>549.0</ele><time>2026-04-24T15:53:46.029Z</time></trkpt><trkpt lat="44.286195" lon="10.9065133"><ele>549.0</ele><time>2026-04-24T15:53:47.03Z</time></trkpt><trkpt lat="44.286135" lon="10.90668"><ele>549.0</ele><time>2026-04-24T15:53:48.029Z</time></trkpt><trkpt lat="44.2860783" lon="10.9068417"><ele>549.0</ele><time>2026-04-24T15:53:49.03Z</time></trkpt><trkpt lat="44.2860267" lon="10.9070167"><ele>550.5</ele><time>2026-04-24T15:53:50.03Z</time></trkpt><trkpt lat="44.28597" lon="10.90719"><ele>552.0</ele><time>2026-04-24T15:53:51.03Z</time></trkpt><trkpt lat="44.28592" lon="10.9073467"><ele>553.5</ele><time>2026-04-24T15:53:52.03Z</time></trkpt><trkpt lat="44.2858467" lon="10.90749"><ele>555.0</ele><time>2026-04-24T15:53:53.03Z</time></trkpt><trkpt lat="44.285745" lon="10.9076017"><ele>557.0</ele><time>2026-04-24T15:53:54.029Z</time></trkpt><trkpt lat="44.2856217" lon="10.907685"><ele>559.0</ele><time>2026-04-24T15:53:55.029Z</time></trkpt><trkpt lat="44.2854817" lon="10.9077567"><ele>561.0</ele><time>2026-04-24T15:53:56.029Z</time></trkpt><trkpt lat="44.2853367" lon="10.9078167"><ele>563.0</ele><time>2026-04-24T15:53:57.03Z</time></trkpt><trkpt lat="44.2851933" lon="10.9078767"><ele>564.0</ele><time>2026-04-24T15:53:58.029Z</time></trkpt><trkpt lat="44.28506" lon="10.9079283"><ele>565.0</ele><time>2026-04-24T15:53:59.03Z</time></trkpt><trkpt lat="44.2849467" lon="10.9079483"><ele>566.0</ele><time>2026-04-24T15:54:00.03Z</time></trkpt><trkpt lat="44.28483" lon="10.9079383"><ele>567.0</ele><time>2026-04-24T15:54:01.029Z</time></trkpt><trkpt lat="44.284725" lon="10.9078783"><ele>568.0</ele><time>2026-04-24T15:54:02.03Z</time></trkpt><trkpt lat="44.2846133" lon="10.9078017"><ele>569.0</ele><time>2026-04-24T15:54:03.03Z</time></trkpt><trkpt lat="44.2844917" lon="10.9077033"><ele>570.0</ele><time>2026-04-24T15:54:04.03Z</time></trkpt><trkpt lat="44.28436" lon="10.9075917"><ele>571.0</ele><time>2026-04-24T15:54:05.029Z</time></trkpt><trkpt lat="44.28423" lon="10.90749"><ele>567.0</ele><time>2026-04-24T15:54:06.03Z</time></trkpt><trkpt lat="44.2841167" lon="10.9074217"><ele>563.0</ele><time>2026-04-24T15:54:07.03Z</time></trkpt><trkpt lat="44.283985" lon="10.9073867"><ele>559.0</ele><time>2026-04-24T15:54:08.03Z</time></trkpt><trkpt lat="44.2838617" lon="10.9073767"><ele>555.0</ele><time>2026-04-24T15:54:09.03Z</time></trkpt><trkpt lat="44.2837533" lon="10.907415"><ele>555.0</ele><time>2026-04-24T15:54:10.029Z</time></trkpt><trkpt lat="44.2836233" lon="10.9074733"><ele>555.0</ele><time>2026-04-24T15:54:11.03Z</time></trkpt><trkpt lat="44.2835017" lon="10.907565"><ele>555.0</ele><time>2026-04-24T15:54:12.03Z</time></trkpt><trkpt lat="44.2833817" lon="10.9076833"><ele>555.0</ele><time>2026-04-24T15:54:13.03Z</time></trkpt><trkpt lat="44.28327" lon="10.90784"><ele>555.3333333333334</ele><time>2026-04-24T15:54:14.029Z</time></trkpt><trkpt lat="44.2831667" lon="10.9080017"><ele>555.6666666666667</ele><time>2026-04-24T15:54:15.029Z</time></trkpt><trkpt lat="44.2830717" lon="10.908165"><ele>556.0</ele><time>2026-04-24T15:54:16.03Z</time></trkpt><trkpt lat="44.2829767" lon="10.908325"><ele>560.0</ele><time>2026-04-24T15:54:17.03Z</time></trkpt><trkpt lat="44.2828783" lon="10.90847"><ele>564.0</ele><time>2026-04-24T15:54:18.03Z</time></trkpt><trkpt lat="44.2827617" lon="10.9086133"><ele>568.0</ele><time>2026-04-24T15:54:19.029Z</time></trkpt><trkpt lat="44.2826417" lon="10.90876"><ele>568.0</ele><time>2026-04-24T15:54:20.03Z</time></trkpt><trkpt lat="44.2825067" lon="10.90889"><ele>568.0</ele><time>2026-04-24T15:54:21.03Z</time></trkpt><trkpt lat="44.28237" lon="10.90901"><ele>568.0</ele><time>2026-04-24T15:54:22.03Z</time></trkpt><trkpt lat="44.2822433" lon="10.90913"><ele>566.3333333333334</ele><time>2026-04-24T15:54:23.03Z</time></trkpt><trkpt lat="44.2821183" lon="10.9092417"><ele>564.6666666666666</ele><time>2026-04-24T15:54:24.03Z</time></trkpt><trkpt lat="44.281995" lon="10.90938"><ele>563.0</ele><time>2026-04-24T15:54:25.03Z</time></trkpt><trkpt lat="44.2818833" lon="10.9095067"><ele>563.0</ele><time>2026-04-24T15:54:26.03Z</time></trkpt><trkpt lat="44.28179" lon="10.9096433"><ele>563.0</ele><time>2026-04-24T15:54:27.03Z</time></trkpt><trkpt lat="44.2817117" lon="10.9097933"><ele>563.0</ele><time>2026-04-24T15:54:28.03Z</time></trkpt><trkpt lat="44.2816483" lon="10.9099633"><ele>563.0</ele><time>2026-04-24T15:54:29.03Z</time></trkpt><trkpt lat="44.2815967" lon="10.910145"><ele>564.5</ele><time>2026-04-24T15:54:30.029Z</time></trkpt><trkpt lat="44.281565" lon="10.9103167"><ele>566.0</ele><time>2026-04-24T15:54:31.03Z</time></trkpt><trkpt lat="44.2815433" lon="10.9105117"><ele>567.5</ele><time>2026-04-24T15:54:32.03Z</time></trkpt><trkpt lat="44.2815433" lon="10.9107"><ele>569.0</ele><time>2026-04-24T15:54:33.03Z</time></trkpt><trkpt lat="44.2815683" lon="10.91089"><ele>567.6666666666666</ele><time>2026-04-24T15:54:34.03Z</time></trkpt><trkpt lat="44.28161" lon="10.9110967"><ele>566.3333333333334</ele><time>2026-04-24T15:54:35.03Z</time></trkpt><trkpt lat="44.28167" lon="10.9113"><ele>565.0</ele><time>2026-04-24T15:54:36.03Z</time></trkpt><trkpt lat="44.2817283" lon="10.9114867"><ele>565.0</ele><time>2026-04-24T15:54:37.029Z</time></trkpt><trkpt lat="44.2817633" lon="10.9116667"><ele>565.0</ele><time>2026-04-24T15:54:38.03Z</time></trkpt><trkpt lat="44.2817733" lon="10.9118617"><ele>565.0</ele><time>2026-04-24T15:54:39.03Z</time></trkpt><trkpt lat="44.28175" lon="10.9120633"><ele>565.0</ele><time>2026-04-24T15:54:40.03Z</time></trkpt><trkpt lat="44.2817" lon="10.91225"><ele>565.25</ele><time>2026-04-24T15:54:41.03Z</time></trkpt><trkpt lat="44.2816317" lon="10.9124133"><ele>565.5</ele><time>2026-04-24T15:54:42.03Z</time></trkpt><trkpt lat="44.281565" lon="10.9125717"><ele>565.75</ele><time>2026-04-24T15:54:43.03Z</time></trkpt><trkpt lat="44.281495" lon="10.9126967"><ele>566.0</ele><time>2026-04-24T15:54:44.029Z</time></trkpt><trkpt lat="44.281445" lon="10.91282"><ele>566.75</ele><time>2026-04-24T15:54:45.03Z</time></trkpt><trkpt lat="44.2814433" lon="10.912965"><ele>567.5</ele><time>2026-04-24T15:54:46.03Z</time></trkpt><trkpt lat="44.2814733" lon="10.9130917"><ele>568.25</ele><time>2026-04-24T15:54:47.03Z</time></trkpt><trkpt lat="44.28153" lon="10.9132333"><ele>569.0</ele><time>2026-04-24T15:54:48.03Z</time></trkpt><trkpt lat="44.2815883" lon="10.9134117"><ele>569.0</ele><time>2026-04-24T15:54:49.029Z</time></trkpt><trkpt lat="44.2816383" lon="10.91359"><ele>569.0</ele><time>2026-04-24T15:54:50.03Z</time></trkpt><trkpt lat="44.2816617" lon="10.913775"><ele>569.0</ele><time>2026-04-24T15:54:51.029Z</time></trkpt><trkpt lat="44.281675" lon="10.9139633"><ele>569.0</ele><time>2026-04-24T15:54:52.03Z</time></trkpt><trkpt lat="44.2817033" lon="10.9141317"><ele>570.5</ele><time>2026-04-24T15:54:53.03Z</time></trkpt><trkpt lat="44.2817483" lon="10.9142933"><ele>572.0</ele><time>2026-04-24T15:54:54.03Z</time></trkpt><trkpt lat="44.2818133" lon="10.914435"><ele>573.5</ele><time>2026-04-24T15:54:55.03Z</time></trkpt><trkpt lat="44.2818867" lon="10.9145733"><ele>575.0</ele><time>2026-04-24T15:54:56.03Z</time></trkpt><trkpt lat="44.28194" lon="10.9146917"><ele>575.0</ele><time>2026-04-24T15:54:57.029Z</time></trkpt><trkpt lat="44.2819883" lon="10.9147817"><ele>575.0</ele><time>2026-04-24T15:54:58.03Z</time></trkpt><trkpt lat="44.282025" lon="10.9148733"><ele>575.0</ele><time>2026-04-24T15:54:59.03Z</time></trkpt><trkpt lat="44.2820417" lon="10.9149733"><ele>575.0</ele><time>2026-04-24T15:55:00.03Z</time></trkpt><trkpt lat="44.2820567" lon="10.9150817"><ele>575.0</ele><time>2026-04-24T15:55:01.03Z</time></trkpt><trkpt lat="44.2820317" lon="10.9151683"><ele>575.0</ele><time>2026-04-24T15:55:02.029Z</time></trkpt><trkpt lat="44.2819717" lon="10.9152167"><ele>575.0</ele><time>2026-04-24T15:55:03.03Z</time></trkpt><trkpt lat="44.2818867" lon="10.9151917"><ele>576.4</ele><time>2026-04-24T15:55:04.029Z</time></trkpt><trkpt lat="44.2817933" lon="10.9151567"><ele>577.8</ele><time>2026-04-24T15:55:05.03Z</time></trkpt><trkpt lat="44.28169" lon="10.91512"><ele>579.2</ele><time>2026-04-24T15:55:06.03Z</time></trkpt><trkpt lat="44.28159" lon="10.9151017"><ele>580.6</ele><time>2026-04-24T15:55:07.03Z</time></trkpt><trkpt lat="44.2814883" lon="10.9151217"><ele>582.0</ele><time>2026-04-24T15:55:08.03Z</time></trkpt><trkpt lat="44.2813867" lon="10.915175"><ele>582.0</ele><time>2026-04-24T15:55:09.03Z</time></trkpt><trkpt lat="44.2812817" lon="10.915255"><ele>582.0</ele><time>2026-04-24T15:55:10.03Z</time></trkpt><trkpt lat="44.2811733" lon="10.915345"><ele>582.0</ele><time>2026-04-24T15:55:11.03Z</time></trkpt><trkpt lat="44.2810683" lon="10.9154417"><ele>582.0</ele><time>2026-04-24T15:55:12.03Z</time></trkpt><trkpt lat="44.2809633" lon="10.9155233"><ele>582.0</ele><time>2026-04-24T15:55:13.03Z</time></trkpt><trkpt lat="44.28085" lon="10.9155817"><ele>582.0</ele><time>2026-04-24T15:55:14.03Z</time></trkpt><trkpt lat="44.2807317" lon="10.9156333"><ele>582.0</ele><time>2026-04-24T15:55:15.03Z</time></trkpt><trkpt lat="44.2806267" lon="10.915665"><ele>582.0</ele><time>2026-04-24T15:55:16.03Z</time></trkpt><trkpt lat="44.2805117" lon="10.91568"><ele>581.25</ele><time>2026-04-24T15:55:17.029Z</time></trkpt><trkpt lat="44.2803883" lon="10.915685"><ele>580.5</ele><time>2026-04-24T15:55:18.029Z</time></trkpt><trkpt lat="44.2802617" lon="10.9156917"><ele>579.75</ele><time>2026-04-24T15:55:19.029Z</time></trkpt><trkpt lat="44.2801333" lon="10.915695"><ele>579.0</ele><time>2026-04-24T15:55:20.029Z</time></trkpt><trkpt lat="44.2800083" lon="10.9157133"><ele>579.0</ele><time>2026-04-24T15:55:21.029Z</time></trkpt><trkpt lat="44.2798867" lon="10.9157517"><ele>579.0</ele><time>2026-04-24T15:55:22.029Z</time></trkpt><trkpt lat="44.2797633" lon="10.91582"><ele>579.0</ele><time>2026-04-24T15:55:23.029Z</time></trkpt><trkpt lat="44.279645" lon="10.915925"><ele>579.0</ele><time>2026-04-24T15:55:24.028Z</time></trkpt><trkpt lat="44.2795217" lon="10.9160483"><ele>580.6666666666666</ele><time>2026-04-24T15:55:25.029Z</time></trkpt><trkpt lat="44.2793983" lon="10.9161867"><ele>582.3333333333333</ele><time>2026-04-24T15:55:26.029Z</time></trkpt><trkpt lat="44.2792767" lon="10.91632"><ele>584.0</ele><time>2026-04-24T15:55:27.028Z</time></trkpt><trkpt lat="44.2791633" lon="10.9164517"><ele>584.0</ele><time>2026-04-24T15:55:28.029Z</time></trkpt><trkpt lat="44.2790717" lon="10.91657"><ele>584.0</ele><time>2026-04-24T15:55:29.029Z</time></trkpt><trkpt lat="44.2789833" lon="10.9166967"><ele>584.0</ele><time>2026-04-24T15:55:30.029Z</time></trkpt><trkpt lat="44.2789017" lon="10.9168233"><ele>584.0</ele><time>2026-04-24T15:55:31.029Z</time></trkpt><trkpt lat="44.2788183" lon="10.916985"><ele>584.3333333333333</ele><time>2026-04-24T15:55:32.029Z</time></trkpt><trkpt lat="44.2787583" lon="10.9171867"><ele>584.6666666666666</ele><time>2026-04-24T15:55:33.028Z</time></trkpt><trkpt lat="44.2787233" lon="10.9174117"><ele>585.0</ele><time>2026-04-24T15:55:34.029Z</time></trkpt><trkpt lat="44.2787217" lon="10.9176417"><ele>585.0</ele><time>2026-04-24T15:55:35.029Z</time></trkpt><trkpt lat="44.2787317" lon="10.9179083"><ele>585.0</ele><time>2026-04-24T15:55:36.029Z</time></trkpt><trkpt lat="44.27875" lon="10.9181817"><ele>585.0</ele><time>2026-04-24T15:55:37.028Z</time></trkpt><trkpt lat="44.2787683" lon="10.918445"><ele>586.0</ele><time>2026-04-24T15:55:38.029Z</time></trkpt><trkpt lat="44.2787883" lon="10.9187133"><ele>587.0</ele><time>2026-04-24T15:55:39.029Z</time></trkpt><trkpt lat="44.2787967" lon="10.91897"><ele>588.0</ele><time>2026-04-24T15:55:40.028Z</time></trkpt><trkpt lat="44.2788233" lon="10.9192083"><ele>589.0</ele><time>2026-04-24T15:55:41.029Z</time></trkpt><trkpt lat="44.2788467" lon="10.9194333"><ele>590.0</ele><time>2026-04-24T15:55:42.029Z</time></trkpt><trkpt lat="44.2788783" lon="10.91965"><ele>591.0</ele><time>2026-04-24T15:55:43.029Z</time></trkpt><trkpt lat="44.2789167" lon="10.9198633"><ele>597.0</ele><time>2026-04-24T15:55:44.029Z</time></trkpt><trkpt lat="44.2789417" lon="10.9200833"><ele>603.0</ele><time>2026-04-24T15:55:45.028Z</time></trkpt><trkpt lat="44.27897" lon="10.9203083"><ele>609.0</ele><time>2026-04-24T15:55:46.028Z</time></trkpt><trkpt lat="44.2790067" lon="10.92053"><ele>609.0</ele><time>2026-04-24T15:55:47.029Z</time></trkpt><trkpt lat="44.2790367" lon="10.9207433"><ele>609.0</ele><time>2026-04-24T15:55:48.028Z</time></trkpt><trkpt lat="44.27906" lon="10.9209717"><ele>609.0</ele><time>2026-04-24T15:55:49.029Z</time></trkpt><trkpt lat="44.2790683" lon="10.9212"><ele>608.6666666666666</ele><time>2026-04-24T15:55:50.029Z</time></trkpt><trkpt lat="44.2790783" lon="10.9214367"><ele>608.3333333333333</ele><time>2026-04-24T15:55:51.029Z</time></trkpt><trkpt lat="44.27909" lon="10.921665"><ele>608.0</ele><time>2026-04-24T15:55:52.029Z</time></trkpt><trkpt lat="44.2791117" lon="10.9218683"><ele>608.0</ele><time>2026-04-24T15:55:53.029Z</time></trkpt><trkpt lat="44.2791517" lon="10.922055"><ele>608.0</ele><time>2026-04-24T15:55:54.029Z</time></trkpt><trkpt lat="44.2792083" lon="10.9222133"><ele>608.0</ele><time>2026-04-24T15:55:55.029Z</time></trkpt><trkpt lat="44.2792867" lon="10.9223683"><ele>608.0</ele><time>2026-04-24T15:55:56.028Z</time></trkpt><trkpt lat="44.2793783" lon="10.92253"><ele>608.6666666666666</ele><time>2026-04-24T15:55:57.029Z</time></trkpt><trkpt lat="44.2794667" lon="10.9227067"><ele>609.3333333333334</ele><time>2026-04-24T15:55:58.028Z</time></trkpt><trkpt lat="44.2795417" lon="10.9228967"><ele>610.0</ele><time>2026-04-24T15:55:59.028Z</time></trkpt><trkpt lat="44.279595" lon="10.92308"><ele>610.0</ele><time>2026-04-24T15:56:00.029Z</time></trkpt><trkpt lat="44.2796217" lon="10.9232833"><ele>610.0</ele><time>2026-04-24T15:56:01.029Z</time></trkpt><trkpt lat="44.2796283" lon="10.9234767"><ele>610.0</ele><time>2026-04-24T15:56:02.028Z</time></trkpt><trkpt lat="44.2796183" lon="10.9236633"><ele>610.0</ele><time>2026-04-24T15:56:03.029Z</time></trkpt><trkpt lat="44.2795867" lon="10.9238417"><ele>611.25</ele><time>2026-04-24T15:56:04.029Z</time></trkpt><trkpt lat="44.279535" lon="10.9240233"><ele>612.5</ele><time>2026-04-24T15:56:05.029Z</time></trkpt><trkpt lat="44.27948" lon="10.9242117"><ele>613.75</ele><time>2026-04-24T15:56:06.029Z</time></trkpt><trkpt lat="44.2794217" lon="10.924385"><ele>615.0</ele><time>2026-04-24T15:56:07.028Z</time></trkpt><trkpt lat="44.2793683" lon="10.9245483"><ele>616.6</ele><time>2026-04-24T15:56:08.028Z</time></trkpt><trkpt lat="44.2792983" lon="10.9247033"><ele>618.2</ele><time>2026-04-24T15:56:09.029Z</time></trkpt><trkpt lat="44.2792417" lon="10.9248367"><ele>619.8</ele><time>2026-04-24T15:56:10.029Z</time></trkpt><trkpt lat="44.2792033" lon="10.924955"><ele>621.4</ele><time>2026-04-24T15:56:11.029Z</time></trkpt><trkpt lat="44.2791983" lon="10.9250817"><ele>623.0</ele><time>2026-04-24T15:56:12.029Z</time></trkpt><trkpt lat="44.2792183" lon="10.9252067"><ele>624.1999999999999</ele><time>2026-04-24T15:56:13.029Z</time></trkpt><trkpt lat="44.27927" lon="10.9252917"><ele>625.4</ele><time>2026-04-24T15:56:14.029Z</time></trkpt><trkpt lat="44.27935" lon="10.92532"><ele>626.5999999999999</ele><time>2026-04-24T15:56:15.029Z</time></trkpt><trkpt lat="44.2794383" lon="10.9252917"><ele>627.8</ele><time>2026-04-24T15:56:16.029Z</time></trkpt><trkpt lat="44.2795333" lon="10.92523"><ele>629.0</ele><time>2026-04-24T15:56:17.028Z</time></trkpt><trkpt lat="44.2796017" lon="10.9251267"><ele>627.5</ele><time>2026-04-24T15:56:18.029Z</time></trkpt><trkpt lat="44.27967" lon="10.924955"><ele>626.0</ele><time>2026-04-24T15:56:19.029Z</time></trkpt><trkpt lat="44.2797417" lon="10.924775"><ele>624.5</ele><time>2026-04-24T15:56:20.029Z</time></trkpt><trkpt lat="44.2798133" lon="10.9245867"><ele>623.0</ele><time>2026-04-24T15:56:21.029Z</time></trkpt><trkpt lat="44.2798833" lon="10.9244233"><ele>624.5</ele><time>2026-04-24T15:56:22.029Z</time></trkpt><trkpt lat="44.2799633" lon="10.9242767"><ele>626.0</ele><time>2026-04-24T15:56:23.029Z</time></trkpt><trkpt lat="44.2800367" lon="10.9241317"><ele>627.5</ele><time>2026-04-24T15:56:24.029Z</time></trkpt><trkpt lat="44.2801067" lon="10.9239617"><ele>629.0</ele><time>2026-04-24T15:56:25.029Z</time></trkpt><trkpt lat="44.2801483" lon="10.9238033"><ele>629.0</ele><time>2026-04-24T15:56:26.028Z</time></trkpt><trkpt lat="44.2801583" lon="10.9236367"><ele>629.0</ele><time>2026-04-24T15:56:27.029Z</time></trkpt><trkpt lat="44.280135" lon="10.9234667"><ele>629.0</ele><time>2026-04-24T15:56:28.029Z</time></trkpt><trkpt lat="44.2801033" lon="10.92329"><ele>629.0</ele><time>2026-04-24T15:56:29.029Z</time></trkpt><trkpt lat="44.2800733" lon="10.923115"><ele>630.0</ele><time>2026-04-24T15:56:30.029Z</time></trkpt><trkpt lat="44.28006" lon="10.9229417"><ele>631.0</ele><time>2026-04-24T15:56:31.028Z</time></trkpt><trkpt lat="44.2800717" lon="10.922775"><ele>632.0</ele><time>2026-04-24T15:56:32.029Z</time></trkpt><trkpt lat="44.280105" lon="10.9226333"><ele>633.0</ele><time>2026-04-24T15:56:33.029Z</time></trkpt><trkpt lat="44.2801667" lon="10.9224983"><ele>633.1999999999999</ele><time>2026-04-24T15:56:34.029Z</time></trkpt><trkpt lat="44.280235" lon="10.9223967"><ele>633.4</ele><time>2026-04-24T15:56:35.029Z</time></trkpt><trkpt lat="44.2803267" lon="10.9223117"><ele>633.5999999999999</ele><time>2026-04-24T15:56:36.028Z</time></trkpt><trkpt lat="44.2804233" lon="10.9222233"><ele>633.8</ele><time>2026-04-24T15:56:37.029Z</time></trkpt><trkpt lat="44.2805117" lon="10.9221367"><ele>634.0</ele><time>2026-04-24T15:56:38.029Z</time></trkpt><trkpt lat="44.2805883" lon="10.922085"><ele>637.0</ele><time>2026-04-24T15:56:39.029Z</time></trkpt><trkpt lat="44.2806617" lon="10.9220317"><ele>640.0</ele><time>2026-04-24T15:56:40.028Z</time></trkpt><trkpt lat="44.2807867" lon="10.9220267"><ele>643.0</ele><time>2026-04-24T15:56:42.029Z</time></trkpt><trkpt lat="44.280845" lon="10.9220767"><ele>646.0</ele><time>2026-04-24T15:56:43.028Z</time></trkpt><trkpt lat="44.2808867" lon="10.9221517"><ele>649.0</ele><time>2026-04-24T15:56:44.029Z</time></trkpt><trkpt lat="44.28086" lon="10.9222717"><ele>652.0</ele><time>2026-04-24T15:56:45.029Z</time></trkpt><trkpt lat="44.2808083" lon="10.922385"><ele>652.0</ele><time>2026-04-24T15:56:46.029Z</time></trkpt><trkpt lat="44.28072" lon="10.922475"><ele>652.0</ele><time>2026-04-24T15:56:47.029Z</time></trkpt><trkpt lat="44.2806167" lon="10.922565"><ele>652.0</ele><time>2026-04-24T15:56:48.029Z</time></trkpt><trkpt lat="44.28052" lon="10.9226483"><ele>652.0</ele><time>2026-04-24T15:56:49.029Z</time></trkpt><trkpt lat="44.2804517" lon="10.9227517"><ele>652.0</ele><time>2026-04-24T15:56:50.029Z</time></trkpt><trkpt lat="44.2803983" lon="10.9228483"><ele>648.2</ele><time>2026-04-24T15:56:51.029Z</time></trkpt><trkpt lat="44.2803767" lon="10.922965"><ele>644.4000000000001</ele><time>2026-04-24T15:56:52.029Z</time></trkpt><trkpt lat="44.2803783" lon="10.9230767"><ele>640.5999999999999</ele><time>2026-04-24T15:56:53.029Z</time></trkpt><trkpt lat="44.280425" lon="10.9231933"><ele>636.8</ele><time>2026-04-24T15:56:54.029Z</time></trkpt><trkpt lat="44.2805" lon="10.923305"><ele>633.0</ele><time>2026-04-24T15:56:55.029Z</time></trkpt><trkpt lat="44.2805933" lon="10.92339"><ele>636.8</ele><time>2026-04-24T15:56:56.029Z</time></trkpt><trkpt lat="44.28068" lon="10.92348"><ele>640.5999999999999</ele><time>2026-04-24T15:56:57.029Z</time></trkpt><trkpt lat="44.2807667" lon="10.9235717"><ele>644.4000000000001</ele><time>2026-04-24T15:56:58.029Z</time></trkpt><trkpt lat="44.280855" lon="10.9236717"><ele>648.2</ele><time>2026-04-24T15:56:59.028Z</time></trkpt><trkpt lat="44.280945" lon="10.92378"><ele>652.0</ele><time>2026-04-24T15:57:00.028Z</time></trkpt><trkpt lat="44.2810317" lon="10.9238717"><ele>652.0</ele><time>2026-04-24T15:57:01.029Z</time></trkpt><trkpt lat="44.28113" lon="10.9239667"><ele>652.0</ele><time>2026-04-24T15:57:02.029Z</time></trkpt><trkpt lat="44.28122" lon="10.9240633"><ele>652.0</ele><time>2026-04-24T15:57:03.029Z</time></trkpt><trkpt lat="44.2813083" lon="10.92419"><ele>652.0</ele><time>2026-04-24T15:57:04.029Z</time></trkpt><trkpt lat="44.2813917" lon="10.9243517"><ele>656.5</ele><time>2026-04-24T15:57:05.029Z</time></trkpt><trkpt lat="44.2814467" lon="10.9245383"><ele>661.0</ele><time>2026-04-24T15:57:06.028Z</time></trkpt><trkpt lat="44.2814883" lon="10.92472"><ele>665.5</ele><time>2026-04-24T15:57:07.029Z</time></trkpt><trkpt lat="44.2814967" lon="10.924895"><ele>670.0</ele><time>2026-04-24T15:57:08.029Z</time></trkpt><trkpt lat="44.2814967" lon="10.9250583"><ele>670.5</ele><time>2026-04-24T15:57:09.028Z</time></trkpt><trkpt lat="44.2815" lon="10.925205"><ele>671.0</ele><time>2026-04-24T15:57:10.029Z</time></trkpt><trkpt lat="44.2815233" lon="10.9253283"><ele>671.5</ele><time>2026-04-24T15:57:11.028Z</time></trkpt><trkpt lat="44.28157" lon="10.925425"><ele>672.0</ele><time>2026-04-24T15:57:12.029Z</time></trkpt><trkpt lat="44.2816433" lon="10.9254833"><ele>672.5</ele><time>2026-04-24T15:57:13.029Z</time></trkpt><trkpt lat="44.2817233" lon="10.9255017"><ele>673.0</ele><time>2026-04-24T15:57:14.029Z</time></trkpt><trkpt lat="44.2818067" lon="10.9254683"><ele>673.0</ele><time>2026-04-24T15:57:15.029Z</time></trkpt><trkpt lat="44.2819183" lon="10.925355"><ele>673.0</ele><time>2026-04-24T15:57:16.029Z</time></trkpt><trkpt lat="44.282015" lon="10.9252283"><ele>673.0</ele><time>2026-04-24T15:57:17.029Z</time></trkpt><trkpt lat="44.2820917" lon="10.9250883"><ele>673.0</ele><time>2026-04-24T15:57:18.029Z</time></trkpt><trkpt lat="44.2821767" lon="10.9249617"><ele>672.4</ele><time>2026-04-24T15:57:19.029Z</time></trkpt><trkpt lat="44.2822517" lon="10.9248483"><ele>671.8</ele><time>2026-04-24T15:57:20.029Z</time></trkpt><trkpt lat="44.2823183" lon="10.9247367"><ele>671.2</ele><time>2026-04-24T15:57:21.028Z</time></trkpt><trkpt lat="44.2823883" lon="10.9246467"><ele>670.6</ele><time>2026-04-24T15:57:22.029Z</time></trkpt><trkpt lat="44.2824717" lon="10.9246017"><ele>670.0</ele><time>2026-04-24T15:57:23.029Z</time></trkpt><trkpt lat="44.28255" lon="10.9246"><ele>672.2</ele><time>2026-04-24T15:57:24.028Z</time></trkpt><trkpt lat="44.2826183" lon="10.924655"><ele>674.4</ele><time>2026-04-24T15:57:25.029Z</time></trkpt><trkpt lat="44.2826733" lon="10.9247767"><ele>676.5999999999999</ele><time>2026-04-24T15:57:26.029Z</time></trkpt><trkpt lat="44.2827067" lon="10.9249167"><ele>678.8</ele><time>2026-04-24T15:57:27.029Z</time></trkpt><trkpt lat="44.282725" lon="10.9250733"><ele>681.0</ele><time>2026-04-24T15:57:28.029Z</time></trkpt><trkpt lat="44.2827367" lon="10.9252233"><ele>681.4</ele><time>2026-04-24T15:57:29.029Z</time></trkpt><trkpt lat="44.28275" lon="10.9253717"><ele>681.8</ele><time>2026-04-24T15:57:30.029Z</time></trkpt><trkpt lat="44.28276" lon="10.9255267"><ele>682.1999999999999</ele><time>2026-04-24T15:57:31.029Z</time></trkpt><trkpt lat="44.2827667" lon="10.925675"><ele>682.5999999999999</ele><time>2026-04-24T15:57:32.029Z</time></trkpt><trkpt lat="44.2827783" lon="10.92583"><ele>683.0</ele><time>2026-04-24T15:57:33.028Z</time></trkpt><trkpt lat="44.2827917" lon="10.9260017"><ele>683.0</ele><time>2026-04-24T15:57:34.029Z</time></trkpt><trkpt lat="44.2828067" lon="10.9261733"><ele>683.0</ele><time>2026-04-24T15:57:35.029Z</time></trkpt><trkpt lat="44.2828133" lon="10.92635"><ele>683.0</ele><time>2026-04-24T15:57:36.029Z</time></trkpt><trkpt lat="44.2828383" lon="10.926555"><ele>683.0</ele><time>2026-04-24T15:57:37.029Z</time></trkpt><trkpt lat="44.2828817" lon="10.9267417"><ele>682.6666666666666</ele><time>2026-04-24T15:57:38.029Z</time></trkpt><trkpt lat="44.28294" lon="10.92694"><ele>682.3333333333334</ele><time>2026-04-24T15:57:39.029Z</time></trkpt><trkpt lat="44.2830067" lon="10.9271283"><ele>682.0</ele><time>2026-04-24T15:57:40.028Z</time></trkpt><trkpt lat="44.28307" lon="10.9273167"><ele>686.0</ele><time>2026-04-24T15:57:41.028Z</time></trkpt><trkpt lat="44.283135" lon="10.92752"><ele>690.0</ele><time>2026-04-24T15:57:42.029Z</time></trkpt><trkpt lat="44.28319" lon="10.92772"><ele>694.0</ele><time>2026-04-24T15:57:43.029Z</time></trkpt><trkpt lat="44.2832483" lon="10.9279183"><ele>694.0</ele><time>2026-04-24T15:57:44.028Z</time></trkpt><trkpt lat="44.283305" lon="10.92811"><ele>694.0</ele><time>2026-04-24T15:57:45.029Z</time></trkpt><trkpt lat="44.2833583" lon="10.9283167"><ele>694.0</ele><time>2026-04-24T15:57:46.029Z</time></trkpt><trkpt lat="44.2834117" lon="10.9285267"><ele>693.75</ele><time>2026-04-24T15:57:47.028Z</time></trkpt><trkpt lat="44.2834733" lon="10.928715"><ele>693.5</ele><time>2026-04-24T15:57:48.028Z</time></trkpt><trkpt lat="44.2835483" lon="10.9288783"><ele>693.25</ele><time>2026-04-24T15:57:49.029Z</time></trkpt><trkpt lat="44.2836467" lon="10.929025"><ele>693.0</ele><time>2026-04-24T15:57:50.029Z</time></trkpt><trkpt lat="44.2837433" lon="10.92917"><ele>695.0</ele><time>2026-04-24T15:57:51.029Z</time></trkpt><trkpt lat="44.2838567" lon="10.9293067"><ele>697.0</ele><time>2026-04-24T15:57:52.028Z</time></trkpt><trkpt lat="44.2839783" lon="10.9294417"><ele>699.0</ele><time>2026-04-24T15:57:53.029Z</time></trkpt><trkpt lat="44.2841067" lon="10.929575"><ele>700.75</ele><time>2026-04-24T15:57:54.029Z</time></trkpt><trkpt lat="44.284225" lon="10.9296983"><ele>702.5</ele><time>2026-04-24T15:57:55.029Z</time></trkpt><trkpt lat="44.284325" lon="10.9298233"><ele>704.25</ele><time>2026-04-24T15:57:56.029Z</time></trkpt><trkpt lat="44.2844167" lon="10.929935"><ele>706.0</ele><time>2026-04-24T15:57:57.028Z</time></trkpt><trkpt lat="44.2844983" lon="10.9300283"><ele>707.1999999999999</ele><time>2026-04-24T15:57:58.028Z</time></trkpt><trkpt lat="44.284575" lon="10.9301233"><ele>708.4</ele><time>2026-04-24T15:57:59.028Z</time></trkpt><trkpt lat="44.2846367" lon="10.930225"><ele>709.6</ele><time>2026-04-24T15:58:00.029Z</time></trkpt><trkpt lat="44.284685" lon="10.93036"><ele>710.8</ele><time>2026-04-24T15:58:01.028Z</time></trkpt><trkpt lat="44.2846967" lon="10.9304933"><ele>712.0</ele><time>2026-04-24T15:58:02.029Z</time></trkpt><trkpt lat="44.2846683" lon="10.93061"><ele>712.0</ele><time>2026-04-24T15:58:03.029Z</time></trkpt><trkpt lat="44.2846133" lon="10.93071"><ele>712.0</ele><time>2026-04-24T15:58:04.029Z</time></trkpt><trkpt lat="44.2845233" lon="10.93078"><ele>712.0</ele><time>2026-04-24T15:58:05.028Z</time></trkpt><trkpt lat="44.2844033" lon="10.93082"><ele>712.0</ele><time>2026-04-24T15:58:06.029Z</time></trkpt><trkpt lat="44.284275" lon="10.9308467"><ele>712.0</ele><time>2026-04-24T15:58:07.029Z</time></trkpt><trkpt lat="44.2841383" lon="10.930885"><ele>714.75</ele><time>2026-04-24T15:58:08.029Z</time></trkpt><trkpt lat="44.2840083" lon="10.93092"><ele>717.5</ele><time>2026-04-24T15:58:09.029Z</time></trkpt><trkpt lat="44.283885" lon="10.9309517"><ele>720.25</ele><time>2026-04-24T15:58:10.029Z</time></trkpt><trkpt lat="44.2837617" lon="10.9309867"><ele>723.0</ele><time>2026-04-24T15:58:11.029Z</time></trkpt><trkpt lat="44.283645" lon="10.931025"><ele>723.0</ele><time>2026-04-24T15:58:12.029Z</time></trkpt><trkpt lat="44.2835317" lon="10.9310833"><ele>723.0</ele><time>2026-04-24T15:58:13.029Z</time></trkpt><trkpt lat="44.28343" lon="10.9311633"><ele>723.0</ele><time>2026-04-24T15:58:14.029Z</time></trkpt><trkpt lat="44.2833417" lon="10.9312767"><ele>723.0</ele><time>2026-04-24T15:58:15.029Z</time></trkpt><trkpt lat="44.2832633" lon="10.931435"><ele>723.0</ele><time>2026-04-24T15:58:16.029Z</time></trkpt><trkpt lat="44.2831667" lon="10.9315867"><ele>723.0</ele><time>2026-04-24T15:58:17.029Z</time></trkpt><trkpt lat="44.2830767" lon="10.9317183"><ele>723.0</ele><time>2026-04-24T15:58:18.029Z</time></trkpt><trkpt lat="44.28299" lon="10.9318333"><ele>723.0</ele><time>2026-04-24T15:58:19.028Z</time></trkpt><trkpt lat="44.282905" lon="10.9319483"><ele>723.2</ele><time>2026-04-24T15:58:20.029Z</time></trkpt><trkpt lat="44.2828217" lon="10.9320583"><ele>723.4</ele><time>2026-04-24T15:58:21.029Z</time></trkpt><trkpt lat="44.2827633" lon="10.9321617"><ele>723.6</ele><time>2026-04-24T15:58:22.029Z</time></trkpt><trkpt lat="44.2827383" lon="10.9322867"><ele>723.8000000000001</ele><time>2026-04-24T15:58:23.028Z</time></trkpt><trkpt lat="44.2827267" lon="10.9324683"><ele>724.0</ele><time>2026-04-24T15:58:24.029Z</time></trkpt><trkpt lat="44.2827267" lon="10.932625"><ele>727.25</ele><time>2026-04-24T15:58:25.028Z</time></trkpt><trkpt lat="44.2827033" lon="10.93279"><ele>730.5</ele><time>2026-04-24T15:58:26.029Z</time></trkpt><trkpt lat="44.2826467" lon="10.93294"><ele>733.75</ele><time>2026-04-24T15:58:27.029Z</time></trkpt><trkpt lat="44.2825567" lon="10.933075"><ele>737.0</ele><time>2026-04-24T15:58:28.029Z</time></trkpt><trkpt lat="44.2824583" lon="10.93318"><ele>737.0</ele><time>2026-04-24T15:58:29.028Z</time></trkpt><trkpt lat="44.2823367" lon="10.9332517"><ele>737.0</ele><time>2026-04-24T15:58:30.028Z</time></trkpt><trkpt lat="44.282205" lon="10.9333317"><ele>737.0</ele><time>2026-04-24T15:58:31.029Z</time></trkpt><trkpt lat="44.2820683" lon="10.9333767"><ele>737.0</ele><time>2026-04-24T15:58:32.029Z</time></trkpt><trkpt lat="44.2819267" lon="10.93341"><ele>740.3333333333333</ele><time>2026-04-24T15:58:33.028Z</time></trkpt><trkpt lat="44.2817817" lon="10.9334317"><ele>743.6666666666666</ele><time>2026-04-24T15:58:34.028Z</time></trkpt><trkpt lat="44.2816233" lon="10.9334517"><ele>747.0</ele><time>2026-04-24T15:58:35.029Z</time></trkpt><trkpt lat="44.28145" lon="10.933475"><ele>748.0</ele><time>2026-04-24T15:58:36.029Z</time></trkpt><trkpt lat="44.2813017" lon="10.9334983"><ele>749.0</ele><time>2026-04-24T15:58:37.029Z</time></trkpt><trkpt lat="44.2811533" lon="10.9335333"><ele>750.0</ele><time>2026-04-24T15:58:38.028Z</time></trkpt><trkpt lat="44.2809967" lon="10.933555"><ele>750.0</ele><time>2026-04-24T15:58:39.029Z</time></trkpt><trkpt lat="44.28084" lon="10.9335867"><ele>750.0</ele><time>2026-04-24T15:58:40.029Z</time></trkpt><trkpt lat="44.2806917" lon="10.9336333"><ele>750.0</ele><time>2026-04-24T15:58:41.029Z</time></trkpt><trkpt lat="44.2805467" lon="10.9336833"><ele>751.25</ele><time>2026-04-24T15:58:42.028Z</time></trkpt><trkpt lat="44.28041" lon="10.9337367"><ele>752.5</ele><time>2026-04-24T15:58:43.028Z</time></trkpt><trkpt lat="44.2802633" lon="10.9337833"><ele>753.75</ele><time>2026-04-24T15:58:44.029Z</time></trkpt><trkpt lat="44.28013" lon="10.9338217"><ele>755.0</ele><time>2026-04-24T15:58:45.029Z</time></trkpt><trkpt lat="44.2799867" lon="10.9338833"><ele>755.0</ele><time>2026-04-24T15:58:46.028Z</time></trkpt><trkpt lat="44.279855" lon="10.9339617"><ele>755.0</ele><time>2026-04-24T15:58:47.029Z</time></trkpt><trkpt lat="44.27973" lon="10.9340633"><ele>755.0</ele><time>2026-04-24T15:58:48.029Z</time></trkpt><trkpt lat="44.2795917" lon="10.934195"><ele>755.6666666666666</ele><time>2026-04-24T15:58:49.028Z</time></trkpt><trkpt lat="44.27947" lon="10.9343417"><ele>756.3333333333334</ele><time>2026-04-24T15:58:50.029Z</time></trkpt><trkpt lat="44.2793567" lon="10.9344833"><ele>757.0</ele><time>2026-04-24T15:58:51.029Z</time></trkpt><trkpt lat="44.2792333" lon="10.9345967"><ele>757.0</ele><time>2026-04-24T15:58:52.029Z</time></trkpt><trkpt lat="44.279115" lon="10.934685"><ele>757.0</ele><time>2026-04-24T15:58:53.029Z</time></trkpt><trkpt lat="44.2790083" lon="10.9347417"><ele>757.0</ele><time>2026-04-24T15:58:54.029Z</time></trkpt><trkpt lat="44.2789167" lon="10.93479"><ele>757.0</ele><time>2026-04-24T15:58:55.028Z</time></trkpt><trkpt lat="44.278845" lon="10.934845"><ele>757.0</ele><time>2026-04-24T15:58:56.028Z</time></trkpt><trkpt lat="44.2787683" lon="10.9349167"><ele>756.6</ele><time>2026-04-24T15:58:57.028Z</time></trkpt><trkpt lat="44.2787167" lon="10.9350117"><ele>756.2</ele><time>2026-04-24T15:58:58.028Z</time></trkpt><trkpt lat="44.2786783" lon="10.9351267"><ele>755.8</ele><time>2026-04-24T15:58:59.029Z</time></trkpt><trkpt lat="44.278675" lon="10.9352833"><ele>755.4</ele><time>2026-04-24T15:59:00.029Z</time></trkpt><trkpt lat="44.2787" lon="10.9354367"><ele>755.0</ele><time>2026-04-24T15:59:01.029Z</time></trkpt><trkpt lat="44.2787417" lon="10.9355817"><ele>756.6666666666666</ele><time>2026-04-24T15:59:02.029Z</time></trkpt><trkpt lat="44.278775" lon="10.9357083"><ele>758.3333333333333</ele><time>2026-04-24T15:59:03.028Z</time></trkpt><trkpt lat="44.2787833" lon="10.93583"><ele>760.0</ele><time>2026-04-24T15:59:04.029Z</time></trkpt><trkpt lat="44.2787667" lon="10.9359367"><ele>761.6666666666666</ele><time>2026-04-24T15:59:05.029Z</time></trkpt><trkpt lat="44.2787267" lon="10.9360267"><ele>763.3333333333334</ele><time>2026-04-24T15:59:06.029Z</time></trkpt><trkpt lat="44.2786533" lon="10.9360533"><ele>765.0</ele><time>2026-04-24T15:59:07.028Z</time></trkpt><trkpt lat="44.27858" lon="10.936025"><ele>765.0</ele><time>2026-04-24T15:59:08.029Z</time></trkpt><trkpt lat="44.2785283" lon="10.93596"><ele>765.0</ele><time>2026-04-24T15:59:09.029Z</time></trkpt><trkpt lat="44.2784733" lon="10.9358317"><ele>765.0</ele><time>2026-04-24T15:59:10.029Z</time></trkpt><trkpt lat="44.278425" lon="10.93569"><ele>765.0</ele><time>2026-04-24T15:59:11.028Z</time></trkpt><trkpt lat="44.2783767" lon="10.935565"><ele>765.0</ele><time>2026-04-24T15:59:12.029Z</time></trkpt><trkpt lat="44.2783283" lon="10.93543"><ele>765.0</ele><time>2026-04-24T15:59:13.029Z</time></trkpt><trkpt lat="44.2782767" lon="10.9353033"><ele>765.0</ele><time>2026-04-24T15:59:14.029Z</time></trkpt><trkpt lat="44.2782233" lon="10.9352083"><ele>765.0</ele><time>2026-04-24T15:59:15.029Z</time></trkpt><trkpt lat="44.2781333" lon="10.9351267"><ele>765.0</ele><time>2026-04-24T15:59:16.029Z</time></trkpt><trkpt lat="44.2780283" lon="10.9350717"><ele>765.0</ele><time>2026-04-24T15:59:17.029Z</time></trkpt><trkpt lat="44.277915" lon="10.9350517"><ele>768.5</ele><time>2026-04-24T15:59:18.029Z</time></trkpt><trkpt lat="44.27779" lon="10.93506"><ele>772.0</ele><time>2026-04-24T15:59:19.029Z</time></trkpt><trkpt lat="44.2776583" lon="10.9350733"><ele>775.5</ele><time>2026-04-24T15:59:20.028Z</time></trkpt><trkpt lat="44.2775267" lon="10.9350833"><ele>779.0</ele><time>2026-04-24T15:59:21.028Z</time></trkpt><trkpt lat="44.2773833" lon="10.9351067"><ele>778.0</ele><time>2026-04-24T15:59:22.028Z</time></trkpt><trkpt lat="44.2772383" lon="10.9351183"><ele>777.0</ele><time>2026-04-24T15:59:23.028Z</time></trkpt><trkpt lat="44.2771" lon="10.9351483"><ele>776.0</ele><time>2026-04-24T15:59:24.028Z</time></trkpt><trkpt lat="44.2769767" lon="10.9351933"><ele>775.0</ele><time>2026-04-24T15:59:25.029Z</time></trkpt><trkpt lat="44.2768417" lon="10.9352767"><ele>775.0</ele><time>2026-04-24T15:59:26.029Z</time></trkpt><trkpt lat="44.27672" lon="10.9353917"><ele>775.0</ele><time>2026-04-24T15:59:27.028Z</time></trkpt><trkpt lat="44.2766033" lon="10.9355317"><ele>775.0</ele><time>2026-04-24T15:59:28.029Z</time></trkpt><trkpt lat="44.276495" lon="10.9356983"><ele>777.3333333333333</ele><time>2026-04-24T15:59:29.029Z</time></trkpt><trkpt lat="44.2763883" lon="10.9358667"><ele>779.6666666666667</ele><time>2026-04-24T15:59:30.028Z</time></trkpt><trkpt lat="44.2762917" lon="10.936025"><ele>782.0</ele><time>2026-04-24T15:59:31.029Z</time></trkpt><trkpt lat="44.2761883" lon="10.9361733"><ele>782.0</ele><time>2026-04-24T15:59:32.029Z</time></trkpt><trkpt lat="44.2760767" lon="10.9362933"><ele>782.0</ele><time>2026-04-24T15:59:33.029Z</time></trkpt><trkpt lat="44.275935" lon="10.9363817"><ele>782.0</ele><time>2026-04-24T15:59:34.029Z</time></trkpt><trkpt lat="44.27581" lon="10.9364633"><ele>782.0</ele><time>2026-04-24T15:59:35.029Z</time></trkpt><trkpt lat="44.2756633" lon="10.9365267"><ele>781.75</ele><time>2026-04-24T15:59:36.028Z</time></trkpt><trkpt lat="44.2755333" lon="10.936615"><ele>781.5</ele><time>2026-04-24T15:59:37.028Z</time></trkpt><trkpt lat="44.275415" lon="10.936735"><ele>781.25</ele><time>2026-04-24T15:59:38.029Z</time></trkpt><trkpt lat="44.2753067" lon="10.936865"><ele>781.0</ele><time>2026-04-24T15:59:39.029Z</time></trkpt><trkpt lat="44.2751933" lon="10.9370183"><ele>784.6666666666666</ele><time>2026-04-24T15:59:40.028Z</time></trkpt><trkpt lat="44.2750883" lon="10.9371767"><ele>788.3333333333333</ele><time>2026-04-24T15:59:41.029Z</time></trkpt><trkpt lat="44.27497" lon="10.9373017"><ele>792.0</ele><time>2026-04-24T15:59:42.029Z</time></trkpt><trkpt lat="44.2748333" lon="10.9374083"><ele>792.6666666666667</ele><time>2026-04-24T15:59:43.029Z</time></trkpt><trkpt lat="44.274685" lon="10.9375083"><ele>793.3333333333334</ele><time>2026-04-24T15:59:44.028Z</time></trkpt><trkpt lat="44.2745333" lon="10.937595"><ele>794.0</ele><time>2026-04-24T15:59:45.028Z</time></trkpt><trkpt lat="44.2743733" lon="10.93768"><ele>798.75</ele><time>2026-04-24T15:59:46.029Z</time></trkpt><trkpt lat="44.2742317" lon="10.9377667"><ele>803.5</ele><time>2026-04-24T15:59:47.028Z</time></trkpt><trkpt lat="44.2741" lon="10.9378483"><ele>808.25</ele><time>2026-04-24T15:59:48.029Z</time></trkpt><trkpt lat="44.2739817" lon="10.9378967"><ele>813.0</ele><time>2026-04-24T15:59:49.029Z</time></trkpt><trkpt lat="44.2738567" lon="10.9379217"><ele>813.0</ele><time>2026-04-24T15:59:50.029Z</time></trkpt><trkpt lat="44.2737217" lon="10.9379217"><ele>813.0</ele><time>2026-04-24T15:59:51.029Z</time></trkpt><trkpt lat="44.2735917" lon="10.9379117"><ele>813.0</ele><time>2026-04-24T15:59:52.029Z</time></trkpt><trkpt lat="44.2734667" lon="10.9379333"><ele>813.0</ele><time>2026-04-24T15:59:53.029Z</time></trkpt><trkpt lat="44.2733617" lon="10.9379767"><ele>813.0</ele><time>2026-04-24T15:59:54.029Z</time></trkpt><trkpt lat="44.2732633" lon="10.938045"><ele>813.0</ele><time>2026-04-24T15:59:55.029Z</time></trkpt><trkpt lat="44.2731783" lon="10.93813"><ele>813.0</ele><time>2026-04-24T15:59:56.029Z</time></trkpt><trkpt lat="44.2731" lon="10.9382317"><ele>813.0</ele><time>2026-04-24T15:59:57.028Z</time></trkpt><trkpt lat="44.2730383" lon="10.9383267"><ele>813.0</ele><time>2026-04-24T15:59:58.029Z</time></trkpt><trkpt lat="44.2729867" lon="10.9384167"><ele>813.2</ele><time>2026-04-24T15:59:59.028Z</time></trkpt><trkpt lat="44.2729267" lon="10.9384633"><ele>813.4</ele><time>2026-04-24T16:00:00.029Z</time></trkpt><trkpt lat="44.2728067" lon="10.93843"><ele>813.6</ele><time>2026-04-24T16:00:02.028Z</time></trkpt><trkpt lat="44.27276" lon="10.9383167"><ele>813.8000000000001</ele><time>2026-04-24T16:00:03.029Z</time></trkpt><trkpt lat="44.2727367" lon="10.9381917"><ele>814.0</ele><time>2026-04-24T16:00:04.029Z</time></trkpt><trkpt lat="44.2727117" lon="10.93805"><ele>814.0</ele><time>2026-04-24T16:00:05.029Z</time></trkpt><trkpt lat="44.272675" lon="10.937915"><ele>814.0</ele><time>2026-04-24T16:00:06.029Z</time></trkpt><trkpt lat="44.2726083" lon="10.9378133"><ele>814.0</ele><time>2026-04-24T16:00:07.029Z</time></trkpt><trkpt lat="44.2725083" lon="10.9377367"><ele>814.0</ele><time>2026-04-24T16:00:08.029Z</time></trkpt><trkpt lat="44.2724117" lon="10.9376567"><ele>814.0</ele><time>2026-04-24T16:00:09.029Z</time></trkpt><trkpt lat="44.27231" lon="10.9376417"><ele>814.5</ele><time>2026-04-24T16:00:10.028Z</time></trkpt><trkpt lat="44.2722267" lon="10.937685"><ele>815.0</ele><time>2026-04-24T16:00:11.029Z</time></trkpt><trkpt lat="44.2721283" lon="10.9377233"><ele>815.5</ele><time>2026-04-24T16:00:12.028Z</time></trkpt><trkpt lat="44.2720067" lon="10.93778"><ele>816.0</ele><time>2026-04-24T16:00:13.029Z</time></trkpt><trkpt lat="44.2718733" lon="10.9378083"><ele>816.0</ele><time>2026-04-24T16:00:14.028Z</time></trkpt><trkpt lat="44.2717567" lon="10.93781"><ele>816.0</ele><time>2026-04-24T16:00:15.028Z</time></trkpt><trkpt lat="44.2716267" lon="10.9378"><ele>816.0</ele><time>2026-04-24T16:00:16.029Z</time></trkpt><trkpt lat="44.2714733" lon="10.9377767"><ele>816.0</ele><time>2026-04-24T16:00:17.029Z</time></trkpt><trkpt lat="44.2713233" lon="10.9377583"><ele>812.75</ele><time>2026-04-24T16:00:18.029Z</time></trkpt><trkpt lat="44.271175" lon="10.9377417"><ele>809.5</ele><time>2026-04-24T16:00:19.029Z</time></trkpt><trkpt lat="44.2710383" lon="10.9377233"><ele>806.25</ele><time>2026-04-24T16:00:20.029Z</time></trkpt><trkpt lat="44.2709133" lon="10.9376767"><ele>803.0</ele><time>2026-04-24T16:00:21.029Z</time></trkpt><trkpt lat="44.2708067" lon="10.9376667"><ele>803.0</ele><time>2026-04-24T16:00:22.028Z</time></trkpt><trkpt lat="44.2707133" lon="10.9377"><ele>803.0</ele><time>2026-04-24T16:00:23.028Z</time></trkpt><trkpt lat="44.2706383" lon="10.9377567"><ele>803.0</ele><time>2026-04-24T16:00:24.028Z</time></trkpt><trkpt lat="44.2705733" lon="10.9378567"><ele>803.0</ele><time>2026-04-24T16:00:25.029Z</time></trkpt><trkpt lat="44.270525" lon="10.9379883"><ele>803.0</ele><time>2026-04-24T16:00:26.029Z</time></trkpt><trkpt lat="44.2704883" lon="10.9381283"><ele>803.0000000000001</ele><time>2026-04-24T16:00:27.029Z</time></trkpt><trkpt lat="44.2704633" lon="10.9382417"><ele>803.0</ele><time>2026-04-24T16:00:28.028Z</time></trkpt><trkpt lat="44.2704467" lon="10.938335"><ele>803.0</ele><time>2026-04-24T16:00:29.029Z</time></trkpt><trkpt lat="44.2704767" lon="10.938425"><ele>803.0</ele><time>2026-04-24T16:00:30.029Z</time></trkpt><trkpt lat="44.2705233" lon="10.93851"><ele>803.0000000000001</ele><time>2026-04-24T16:00:31.029Z</time></trkpt><trkpt lat="44.2706" lon="10.938595"><ele>803.0</ele><time>2026-04-24T16:00:32.028Z</time></trkpt><trkpt lat="44.27068" lon="10.938675"><ele>803.0000000000001</ele><time>2026-04-24T16:00:33.029Z</time></trkpt><trkpt lat="44.270745" lon="10.9387567"><ele>803.0</ele><time>2026-04-24T16:00:34.029Z</time></trkpt><trkpt lat="44.2707817" lon="10.938845"><ele>803.0</ele><time>2026-04-24T16:00:35.029Z</time></trkpt><trkpt lat="44.2708" lon="10.938955"><ele>803.0</ele><time>2026-04-24T16:00:36.028Z</time></trkpt><trkpt lat="44.27078" lon="10.9390583"><ele>803.0000000000001</ele><time>2026-04-24T16:00:37.029Z</time></trkpt><trkpt lat="44.2707333" lon="10.9391417"><ele>803.0</ele><time>2026-04-24T16:00:38.029Z</time></trkpt><trkpt lat="44.270665" lon="10.9392"><ele>801.4</ele><time>2026-04-24T16:00:39.028Z</time></trkpt><trkpt lat="44.2705833" lon="10.9392433"><ele>799.8</ele><time>2026-04-24T16:00:40.029Z</time></trkpt><trkpt lat="44.270465" lon="10.9392367"><ele>798.2</ele><time>2026-04-24T16:00:41.029Z</time></trkpt><trkpt lat="44.2703583" lon="10.9392183"><ele>796.6</ele><time>2026-04-24T16:00:42.029Z</time></trkpt><trkpt lat="44.2702383" lon="10.9392117"><ele>795.0</ele><time>2026-04-24T16:00:43.029Z</time></trkpt><trkpt lat="44.2701267" lon="10.9391983"><ele>795.0</ele><time>2026-04-24T16:00:44.029Z</time></trkpt><trkpt lat="44.2699983" lon="10.93919"><ele>795.0</ele><time>2026-04-24T16:00:45.029Z</time></trkpt><trkpt lat="44.2698717" lon="10.939195"><ele>795.0</ele><time>2026-04-24T16:00:46.029Z</time></trkpt><trkpt lat="44.2697633" lon="10.93918"><ele>795.0</ele><time>2026-04-24T16:00:47.028Z</time></trkpt><trkpt lat="44.2696683" lon="10.9391533"><ele>794.5</ele><time>2026-04-24T16:00:48.029Z</time></trkpt><trkpt lat="44.2695833" lon="10.9391533"><ele>794.0</ele><time>2026-04-24T16:00:49.029Z</time></trkpt><trkpt lat="44.2695067" lon="10.9391817"><ele>793.5</ele><time>2026-04-24T16:00:50.029Z</time></trkpt><trkpt lat="44.2694417" lon="10.93922"><ele>793.0</ele><time>2026-04-24T16:00:51.029Z</time></trkpt><trkpt lat="44.2693717" lon="10.9392467"><ele>792.5</ele><time>2026-04-24T16:00:52.028Z</time></trkpt><trkpt lat="44.269255" lon="10.93921"><ele>792.0</ele><time>2026-04-24T16:00:54.028Z</time></trkpt><trkpt lat="44.2692" lon="10.9391583"><ele>792.0</ele><time>2026-04-24T16:00:55.028Z</time></trkpt><trkpt lat="44.2691483" lon="10.93905"><ele>792.0</ele><time>2026-04-24T16:00:56.029Z</time></trkpt><trkpt lat="44.2690717" lon="10.938955"><ele>792.0</ele><time>2026-04-24T16:00:57.029Z</time></trkpt><trkpt lat="44.2690283" lon="10.9388667"><ele>792.0</ele><time>2026-04-24T16:00:58.029Z</time></trkpt><trkpt lat="44.2689767" lon="10.9387483"><ele>792.0</ele><time>2026-04-24T16:00:59.029Z</time></trkpt><trkpt lat="44.2689217" lon="10.9386233"><ele>796.8</ele><time>2026-04-24T16:01:00.029Z</time></trkpt><trkpt lat="44.268875" lon="10.93849"><ele>801.6</ele><time>2026-04-24T16:01:01.029Z</time></trkpt><trkpt lat="44.2688183" lon="10.9383633"><ele>806.4</ele><time>2026-04-24T16:01:02.028Z</time></trkpt><trkpt lat="44.26876" lon="10.9382517"><ele>811.1999999999999</ele><time>2026-04-24T16:01:03.029Z</time></trkpt><trkpt lat="44.2687033" lon="10.93815"><ele>816.0</ele><time>2026-04-24T16:01:04.029Z</time></trkpt><trkpt lat="44.2686467" lon="10.9380467"><ele>816.6666666666666</ele><time>2026-04-24T16:01:05.029Z</time></trkpt><trkpt lat="44.2685867" lon="10.937955"><ele>817.3333333333333</ele><time>2026-04-24T16:01:06.029Z</time></trkpt><trkpt lat="44.2685433" lon="10.9378817"><ele>818.0</ele><time>2026-04-24T16:01:07.029Z</time></trkpt><trkpt lat="44.2684933" lon="10.9377683"><ele>818.6666666666666</ele><time>2026-04-24T16:01:09.029Z</time></trkpt><trkpt lat="44.268445" lon="10.9376067"><ele>819.3333333333333</ele><time>2026-04-24T16:01:39.029Z</time></trkpt><trkpt lat="44.2684083" lon="10.937535"><ele>820.0</ele><time>2026-04-24T16:01:40.029Z</time></trkpt><trkpt lat="44.26835" lon="10.9374467"><ele>815.2</ele><time>2026-04-24T16:01:41.028Z</time></trkpt><trkpt lat="44.26827" lon="10.9373617"><ele>810.4</ele><time>2026-04-24T16:01:42.028Z</time></trkpt><trkpt lat="44.2681867" lon="10.9373517"><ele>805.5999999999999</ele><time>2026-04-24T16:01:43.028Z</time></trkpt><trkpt lat="44.2680983" lon="10.937385"><ele>800.8</ele><time>2026-04-24T16:01:44.029Z</time></trkpt><trkpt lat="44.2680117" lon="10.93743"><ele>796.0</ele><time>2026-04-24T16:01:45.029Z</time></trkpt><trkpt lat="44.267915" lon="10.9374867"><ele>796.0</ele><time>2026-04-24T16:01:46.029Z</time></trkpt><trkpt lat="44.2678033" lon="10.9375133"><ele>796.0</ele><time>2026-04-24T16:01:47.029Z</time></trkpt><trkpt lat="44.2676983" lon="10.9375017"><ele>796.0</ele><time>2026-04-24T16:01:48.029Z</time></trkpt><trkpt lat="44.2675833" lon="10.9374583"><ele>796.0</ele><time>2026-04-24T16:01:49.028Z</time></trkpt><trkpt lat="44.26749" lon="10.9373967"><ele>796.0</ele><time>2026-04-24T16:01:50.029Z</time></trkpt><trkpt lat="44.2674217" lon="10.9373833"><ele>796.0</ele><time>2026-04-24T16:01:51.029Z</time></trkpt><trkpt lat="44.2672983" lon="10.93739"><ele>796.0</ele><time>2026-04-24T16:01:53.028Z</time></trkpt><trkpt lat="44.267265" lon="10.9374733"><ele>796.0</ele><time>2026-04-24T16:01:54.028Z</time></trkpt><trkpt lat="44.2672583" lon="10.9375717"><ele>796.0</ele><time>2026-04-24T16:01:55.029Z</time></trkpt><trkpt lat="44.2672617" lon="10.9376983"><ele>796.0</ele><time>2026-04-24T16:01:56.029Z</time></trkpt><trkpt lat="44.2672717" lon="10.9378517"><ele>793.0</ele><time>2026-04-24T16:01:57.029Z</time></trkpt><trkpt lat="44.2672733" lon="10.9380167"><ele>790.0</ele><time>2026-04-24T16:01:58.029Z</time></trkpt><trkpt lat="44.2672567" lon="10.9381967"><ele>787.0</ele><time>2026-04-24T16:01:59.029Z</time></trkpt><trkpt lat="44.267215" lon="10.93837"><ele>784.0</ele><time>2026-04-24T16:02:00.029Z</time></trkpt><trkpt lat="44.26716" lon="10.9385467"><ele>784.0</ele><time>2026-04-24T16:02:01.029Z</time></trkpt><trkpt lat="44.2671083" lon="10.938705"><ele>784.0</ele><time>2026-04-24T16:02:02.029Z</time></trkpt><trkpt lat="44.2670533" lon="10.93888"><ele>784.0</ele><time>2026-04-24T16:02:03.028Z</time></trkpt><trkpt lat="44.266995" lon="10.93903"><ele>784.0</ele><time>2026-04-24T16:02:04.028Z</time></trkpt><trkpt lat="44.266955" lon="10.9391717"><ele>784.0</ele><time>2026-04-24T16:02:05.029Z</time></trkpt><trkpt lat="44.2669117" lon="10.939305"><ele>784.0</ele><time>2026-04-24T16:02:06.029Z</time></trkpt><trkpt lat="44.2668717" lon="10.93944"><ele>784.0</ele><time>2026-04-24T16:02:07.029Z</time></trkpt><trkpt lat="44.26684" lon="10.9395733"><ele>784.0</ele><time>2026-04-24T16:02:08.029Z</time></trkpt><trkpt lat="44.2668217" lon="10.939685"><ele>784.0</ele><time>2026-04-24T16:02:09.028Z</time></trkpt><trkpt lat="44.266805" lon="10.93979"><ele>784.0</ele><time>2026-04-24T16:02:10.029Z</time></trkpt><trkpt lat="44.2667767" lon="10.9398867"><ele>784.0</ele><time>2026-04-24T16:02:11.029Z</time></trkpt><trkpt lat="44.2667817" lon="10.9399883"><ele>784.0</ele><time>2026-04-24T16:02:12.029Z</time></trkpt><trkpt lat="44.2668117" lon="10.940125"><ele>784.0</ele><time>2026-04-24T16:02:14.029Z</time></trkpt><trkpt lat="44.2669033" lon="10.9401633"><ele>784.0</ele><time>2026-04-24T16:02:16.028Z</time></trkpt><trkpt lat="44.2670267" lon="10.9402167"><ele>785.1428571428571</ele><time>2026-04-24T16:02:18.029Z</time></trkpt><trkpt lat="44.26711" lon="10.9402467"><ele>786.2857142857142</ele><time>2026-04-24T16:02:19.029Z</time></trkpt><trkpt lat="44.2671817" lon="10.94028"><ele>787.4285714285714</ele><time>2026-04-24T16:02:20.028Z</time></trkpt><trkpt lat="44.2672317" lon="10.940345"><ele>788.5714285714286</ele><time>2026-04-24T16:02:21.029Z</time></trkpt><trkpt lat="44.26728" lon="10.9404167"><ele>789.7142857142857</ele><time>2026-04-24T16:02:22.028Z</time></trkpt><trkpt lat="44.26733" lon="10.9404817"><ele>790.8571428571429</ele><time>2026-04-24T16:02:23.029Z</time></trkpt><trkpt lat="44.2673667" lon="10.94058"><ele>792.0</ele><time>2026-04-24T16:02:25.029Z</time></trkpt><trkpt lat="44.2672983" lon="10.9406283"><ele>792.0</ele><time>2026-04-24T16:02:28.028Z</time></trkpt><trkpt lat="44.2672383" lon="10.9405717"><ele>773.0</ele><time>2026-04-24T16:02:30.029Z</time></trkpt><trkpt lat="44.2671783" lon="10.9405"><ele>773.0</ele><time>2026-04-24T16:02:32.028Z</time></trkpt><trkpt lat="44.2671133" lon="10.9404117"><ele>773.0</ele><time>2026-04-24T16:02:35.029Z</time></trkpt><trkpt lat="44.2670617" lon="10.94036"><ele>773.0</ele><time>2026-04-24T16:02:37.028Z</time></trkpt><trkpt lat="44.267" lon="10.9403133"><ele>773.0</ele><time>2026-04-24T16:02:41.029Z</time></trkpt></trkseg><trkseg><trkpt lat="44.267019" lon="10.9402238"><ele>773.0</ele><time>2026-04-24T16:59:12.083Z</time></trkpt><trkpt lat="44.2670238" lon="10.9401327"><ele>773.0</ele><time>2026-04-24T16:59:20.08Z</time></trkpt><trkpt lat="44.2670852" lon="10.9401586"><ele>773.0</ele><time>2026-04-24T16:59:24.077Z</time></trkpt><trkpt lat="44.2671434" lon="10.9402083"><ele>773.0</ele><time>2026-04-24T16:59:28.073Z</time></trkpt><trkpt lat="44.2672056" lon="10.9402726"><ele>773.0</ele><time>2026-04-24T16:59:32.07Z</time></trkpt><trkpt lat="44.2672598" lon="10.9403496"><ele>773.0</ele><time>2026-04-24T16:59:37.132Z</time></trkpt><trkpt lat="44.2673154" lon="10.9403947"><ele>773.0</ele><time>2026-04-24T16:59:45.084Z</time></trkpt><trkpt lat="44.2673817" lon="10.9405"><ele>774.6666666666667</ele><time>2026-04-24T16:59:48.029Z</time></trkpt><trkpt lat="44.2674383" lon="10.9405717"><ele>776.3333333333334</ele><time>2026-04-24T16:59:49.028Z</time></trkpt><trkpt lat="44.2674917" lon="10.94065"><ele>778.0</ele><time>2026-04-24T16:59:50.029Z</time></trkpt><trkpt lat="44.2675567" lon="10.9407217"><ele>779.6666666666667</ele><time>2026-04-24T16:59:51.029Z</time></trkpt><trkpt lat="44.2676117" lon="10.9408117"><ele>781.3333333333334</ele><time>2026-04-24T16:59:52.029Z</time></trkpt><trkpt lat="44.2676683" lon="10.94089"><ele>783.0</ele><time>2026-04-24T16:59:53.028Z</time></trkpt><trkpt lat="44.267765" lon="10.9409917"><ele>783.0</ele><time>2026-04-24T16:59:55.029Z</time></trkpt><trkpt lat="44.2678567" lon="10.94105"><ele>783.0</ele><time>2026-04-24T16:59:57.029Z</time></trkpt><trkpt lat="44.2679517" lon="10.9410067"><ele>783.0</ele><time>2026-04-24T16:59:59.028Z</time></trkpt><trkpt lat="44.2680067" lon="10.9409583"><ele>783.0</ele><time>2026-04-24T17:00:00.029Z</time></trkpt><trkpt lat="44.2680617" lon="10.9409067"><ele>783.0</ele><time>2026-04-24T17:00:01.029Z</time></trkpt><trkpt lat="44.2681183" lon="10.9408533"><ele>783.0</ele><time>2026-04-24T17:00:02.029Z</time></trkpt><trkpt lat="44.2681767" lon="10.940805"><ele>784.7142857142857</ele><time>2026-04-24T17:00:03.029Z</time></trkpt><trkpt lat="44.2682383" lon="10.9407667"><ele>786.4285714285714</ele><time>2026-04-24T17:00:04.029Z</time></trkpt><trkpt lat="44.2683" lon="10.94072"><ele>788.1428571428571</ele><time>2026-04-24T17:00:05.029Z</time></trkpt><trkpt lat="44.268365" lon="10.9406883"><ele>789.8571428571429</ele><time>2026-04-24T17:00:06.029Z</time></trkpt><trkpt lat="44.2684317" lon="10.9406533"><ele>791.5714285714287</ele><time>2026-04-24T17:00:07.028Z</time></trkpt><trkpt lat="44.2684917" lon="10.9406183"><ele>793.2857142857143</ele><time>2026-04-24T17:00:08.029Z</time></trkpt><trkpt lat="44.26855" lon="10.9405783"><ele>795.0</ele><time>2026-04-24T17:00:09.029Z</time></trkpt><trkpt lat="44.2686417" lon="10.940475"><ele>795.0</ele><time>2026-04-24T17:00:11.029Z</time></trkpt><trkpt lat="44.2687167" lon="10.9403483"><ele>795.0</ele><time>2026-04-24T17:00:13.029Z</time></trkpt><trkpt lat="44.268785" lon="10.940235"><ele>795.0</ele><time>2026-04-24T17:00:15.029Z</time></trkpt><trkpt lat="44.268855" lon="10.9401417"><ele>795.0</ele><time>2026-04-24T17:00:17.029Z</time></trkpt><trkpt lat="44.268925" lon="10.9399967"><ele>795.0</ele><time>2026-04-24T17:00:19.029Z</time></trkpt><trkpt lat="44.2689567" lon="10.939915"><ele>795.7142857142858</ele><time>2026-04-24T17:00:20.028Z</time></trkpt><trkpt lat="44.2689917" lon="10.9398317"><ele>796.4285714285714</ele><time>2026-04-24T17:00:21.029Z</time></trkpt><trkpt lat="44.269025" lon="10.93975"><ele>797.1428571428571</ele><time>2026-04-24T17:00:22.029Z</time></trkpt><trkpt lat="44.269065" lon="10.9396733"><ele>797.8571428571429</ele><time>2026-04-24T17:00:23.029Z</time></trkpt><trkpt lat="44.2691033" lon="10.93959"><ele>798.5714285714286</ele><time>2026-04-24T17:00:24.028Z</time></trkpt><trkpt lat="44.2691433" lon="10.9395133"><ele>799.2857142857143</ele><time>2026-04-24T17:00:25.028Z</time></trkpt><trkpt lat="44.2691933" lon="10.9394417"><ele>800.0</ele><time>2026-04-24T17:00:26.029Z</time></trkpt><trkpt lat="44.26925" lon="10.9393733"><ele>800.0000000000001</ele><time>2026-04-24T17:00:27.029Z</time></trkpt><trkpt lat="44.26931" lon="10.9393033"><ele>800.0</ele><time>2026-04-24T17:00:28.028Z</time></trkpt><trkpt lat="44.26937" lon="10.9392383"><ele>800.0</ele><time>2026-04-24T17:00:29.028Z</time></trkpt><trkpt lat="44.2694383" lon="10.9391933"><ele>800.0</ele><time>2026-04-24T17:00:30.029Z</time></trkpt><trkpt lat="44.269505" lon="10.9391633"><ele>800.0</ele><time>2026-04-24T17:00:31.029Z</time></trkpt><trkpt lat="44.2695717" lon="10.93915"><ele>800.0000000000001</ele><time>2026-04-24T17:00:32.029Z</time></trkpt><trkpt lat="44.2696383" lon="10.93915"><ele>800.0</ele><time>2026-04-24T17:00:33.029Z</time></trkpt><trkpt lat="44.2697433" lon="10.9391717"><ele>799.0</ele><time>2026-04-24T17:00:35.029Z</time></trkpt><trkpt lat="44.2698517" lon="10.939175"><ele>798.0</ele><time>2026-04-24T17:00:37.029Z</time></trkpt><trkpt lat="44.269975" lon="10.9391917"><ele>797.0</ele><time>2026-04-24T17:00:39.029Z</time></trkpt><trkpt lat="44.2700433" lon="10.9392067"><ele>796.0</ele><time>2026-04-24T17:00:40.029Z</time></trkpt><trkpt lat="44.27012" lon="10.93922"><ele>795.0</ele><time>2026-04-24T17:00:41.028Z</time></trkpt><trkpt lat="44.2702033" lon="10.9392283"><ele>795.0</ele><time>2026-04-24T17:00:42.029Z</time></trkpt><trkpt lat="44.2702883" lon="10.9392317"><ele>795.0</ele><time>2026-04-24T17:00:43.029Z</time></trkpt><trkpt lat="44.2703733" lon="10.9392367"><ele>795.0</ele><time>2026-04-24T17:00:44.029Z</time></trkpt><trkpt lat="44.2704517" lon="10.9392333"><ele>795.0</ele><time>2026-04-24T17:00:45.029Z</time></trkpt><trkpt lat="44.27053" lon="10.9392233"><ele>795.0</ele><time>2026-04-24T17:00:46.028Z</time></trkpt><trkpt lat="44.2706067" lon="10.9392133"><ele>795.0</ele><time>2026-04-24T17:00:47.029Z</time></trkpt><trkpt lat="44.2706767" lon="10.9391967"><ele>796.3333333333334</ele><time>2026-04-24T17:00:48.028Z</time></trkpt><trkpt lat="44.270735" lon="10.9391517"><ele>797.6666666666667</ele><time>2026-04-24T17:00:49.029Z</time></trkpt><trkpt lat="44.2707883" lon="10.9390983"><ele>799.0</ele><time>2026-04-24T17:00:50.029Z</time></trkpt><trkpt lat="44.2708283" lon="10.9390133"><ele>800.3333333333334</ele><time>2026-04-24T17:00:51.029Z</time></trkpt><trkpt lat="44.2708517" lon="10.9389267"><ele>801.6666666666667</ele><time>2026-04-24T17:00:52.028Z</time></trkpt><trkpt lat="44.2708167" lon="10.9387433"><ele>803.0</ele><time>2026-04-24T17:00:54.029Z</time></trkpt><trkpt lat="44.2707617" lon="10.938655"><ele>803.0000000000001</ele><time>2026-04-24T17:00:55.028Z</time></trkpt><trkpt lat="44.2706883" lon="10.9385733"><ele>803.0</ele><time>2026-04-24T17:00:56.029Z</time></trkpt><trkpt lat="44.2706067" lon="10.9384883"><ele>803.0</ele><time>2026-04-24T17:00:57.029Z</time></trkpt><trkpt lat="44.2705333" lon="10.93841"><ele>803.0</ele><time>2026-04-24T17:00:58.029Z</time></trkpt><trkpt lat="44.2704933" lon="10.93832"><ele>803.0000000000001</ele><time>2026-04-24T17:00:59.029Z</time></trkpt><trkpt lat="44.270475" lon="10.9382233"><ele>803.0</ele><time>2026-04-24T17:01:00.029Z</time></trkpt><trkpt lat="44.270485" lon="10.93813"><ele>802.9999999999999</ele><time>2026-04-24T17:01:01.029Z</time></trkpt><trkpt lat="44.270505" lon="10.9380317"><ele>803.0</ele><time>2026-04-24T17:01:02.029Z</time></trkpt><trkpt lat="44.2705333" lon="10.9379367"><ele>803.0</ele><time>2026-04-24T17:01:03.028Z</time></trkpt><trkpt lat="44.2705667" lon="10.9378483"><ele>803.0</ele><time>2026-04-24T17:01:04.029Z</time></trkpt><trkpt lat="44.270615" lon="10.93777"><ele>803.0</ele><time>2026-04-24T17:01:05.029Z</time></trkpt><trkpt lat="44.2706783" lon="10.9377083"><ele>802.9999999999999</ele><time>2026-04-24T17:01:06.029Z</time></trkpt><trkpt lat="44.27075" lon="10.9376767"><ele>803.0</ele><time>2026-04-24T17:01:07.029Z</time></trkpt><trkpt lat="44.2708283" lon="10.93766"><ele>803.0</ele><time>2026-04-24T17:01:08.028Z</time></trkpt><trkpt lat="44.2709033" lon="10.9376683"><ele>803.0</ele><time>2026-04-24T17:01:09.029Z</time></trkpt><trkpt lat="44.27099" lon="10.9376833"><ele>803.0</ele><time>2026-04-24T17:01:10.028Z</time></trkpt><trkpt lat="44.2710817" lon="10.9376967"><ele>803.0</ele><time>2026-04-24T17:01:11.029Z</time></trkpt><trkpt lat="44.2711783" lon="10.9377017"><ele>803.0</ele><time>2026-04-24T17:01:12.029Z</time></trkpt><trkpt lat="44.27128" lon="10.937695"><ele>803.0</ele><time>2026-04-24T17:01:13.029Z</time></trkpt><trkpt lat="44.2713867" lon="10.937705"><ele>803.0</ele><time>2026-04-24T17:01:14.028Z</time></trkpt><trkpt lat="44.2715" lon="10.93772"><ele>803.0</ele><time>2026-04-24T17:01:15.029Z</time></trkpt><trkpt lat="44.2716133" lon="10.9377417"><ele>803.0</ele><time>2026-04-24T17:01:16.029Z</time></trkpt><trkpt lat="44.2717267" lon="10.93777"><ele>805.5999999999999</ele><time>2026-04-24T17:01:17.028Z</time></trkpt><trkpt lat="44.2718367" lon="10.9377817"><ele>808.1999999999999</ele><time>2026-04-24T17:01:18.028Z</time></trkpt><trkpt lat="44.27194" lon="10.93777"><ele>810.8</ele><time>2026-04-24T17:01:19.029Z</time></trkpt><trkpt lat="44.2720317" lon="10.9377483"><ele>813.4</ele><time>2026-04-24T17:01:20.028Z</time></trkpt><trkpt lat="44.2721217" lon="10.93772"><ele>816.0</ele><time>2026-04-24T17:01:21.029Z</time></trkpt><trkpt lat="44.27221" lon="10.9376933"><ele>815.6666666666666</ele><time>2026-04-24T17:01:22.029Z</time></trkpt><trkpt lat="44.2723" lon="10.9376833"><ele>815.3333333333333</ele><time>2026-04-24T17:01:23.029Z</time></trkpt><trkpt lat="44.2723867" lon="10.9377017"><ele>815.0</ele><time>2026-04-24T17:01:24.029Z</time></trkpt><trkpt lat="44.2724717" lon="10.9377367"><ele>814.6666666666666</ele><time>2026-04-24T17:01:25.029Z</time></trkpt><trkpt lat="44.272545" lon="10.9377833"><ele>814.3333333333333</ele><time>2026-04-24T17:01:26.029Z</time></trkpt><trkpt lat="44.272615" lon="10.9378417"><ele>814.0</ele><time>2026-04-24T17:01:27.028Z</time></trkpt><trkpt lat="44.2726733" lon="10.9379267"><ele>813.9999999999999</ele><time>2026-04-24T17:01:28.029Z</time></trkpt><trkpt lat="44.2727133" lon="10.9380233"><ele>814.0</ele><time>2026-04-24T17:01:29.029Z</time></trkpt><trkpt lat="44.272725" lon="10.938135"><ele>814.0</ele><time>2026-04-24T17:01:30.029Z</time></trkpt><trkpt lat="44.2727333" lon="10.9382433"><ele>814.0</ele><time>2026-04-24T17:01:31.028Z</time></trkpt><trkpt lat="44.2727617" lon="10.9383433"><ele>813.9999999999999</ele><time>2026-04-24T17:01:32.028Z</time></trkpt><trkpt lat="44.2728067" lon="10.93842"><ele>814.0</ele><time>2026-04-24T17:01:33.029Z</time></trkpt><trkpt lat="44.27287" lon="10.93846"><ele>814.0</ele><time>2026-04-24T17:01:34.029Z</time></trkpt><trkpt lat="44.2729567" lon="10.938435"><ele>814.0</ele><time>2026-04-24T17:01:35.028Z</time></trkpt><trkpt lat="44.27303" lon="10.9383717"><ele>814.0</ele><time>2026-04-24T17:01:36.029Z</time></trkpt><trkpt lat="44.273095" lon="10.9382833"><ele>814.0</ele><time>2026-04-24T17:01:37.029Z</time></trkpt><trkpt lat="44.27316" lon="10.9381833"><ele>814.0</ele><time>2026-04-24T17:01:38.029Z</time></trkpt><trkpt lat="44.273235" lon="10.9380933"><ele>813.8000000000001</ele><time>2026-04-24T17:01:39.029Z</time></trkpt><trkpt lat="44.273325" lon="10.9380183"><ele>813.6</ele><time>2026-04-24T17:01:40.029Z</time></trkpt><trkpt lat="44.273425" lon="10.9379683"><ele>813.4</ele><time>2026-04-24T17:01:41.029Z</time></trkpt><trkpt lat="44.273525" lon="10.93794"><ele>813.2</ele><time>2026-04-24T17:01:42.028Z</time></trkpt><trkpt lat="44.273615" lon="10.9379217"><ele>813.0</ele><time>2026-04-24T17:01:43.028Z</time></trkpt><trkpt lat="44.2737033" lon="10.9379133"><ele>813.0</ele><time>2026-04-24T17:01:44.029Z</time></trkpt><trkpt lat="44.273795" lon="10.9379133"><ele>813.0</ele><time>2026-04-24T17:01:45.029Z</time></trkpt><trkpt lat="44.273895" lon="10.93791"><ele>813.0</ele><time>2026-04-24T17:01:46.029Z</time></trkpt><trkpt lat="44.273995" lon="10.93789"><ele>813.0</ele><time>2026-04-24T17:01:47.029Z</time></trkpt><trkpt lat="44.2740933" lon="10.9378517"><ele>813.0</ele><time>2026-04-24T17:01:48.028Z</time></trkpt><trkpt lat="44.2741883" lon="10.9377967"><ele>814.0</ele><time>2026-04-24T17:01:49.029Z</time></trkpt><trkpt lat="44.2742767" lon="10.9377467"><ele>815.0</ele><time>2026-04-24T17:01:50.028Z</time></trkpt><trkpt lat="44.2743633" lon="10.9376967"><ele>816.0</ele><time>2026-04-24T17:01:51.029Z</time></trkpt><trkpt lat="44.274445" lon="10.9376517"><ele>817.0</ele><time>2026-04-24T17:01:52.029Z</time></trkpt><trkpt lat="44.2745267" lon="10.9376"><ele>818.0</ele><time>2026-04-24T17:01:53.029Z</time></trkpt><trkpt lat="44.274615" lon="10.9375517"><ele>812.0</ele><time>2026-04-24T17:01:54.029Z</time></trkpt><trkpt lat="44.2747117" lon="10.9374883"><ele>806.0</ele><time>2026-04-24T17:01:55.029Z</time></trkpt><trkpt lat="44.2748133" lon="10.93742"><ele>800.0</ele><time>2026-04-24T17:01:56.028Z</time></trkpt><trkpt lat="44.27492" lon="10.937355"><ele>794.0</ele><time>2026-04-24T17:01:57.029Z</time></trkpt><trkpt lat="44.2750317" lon="10.9372583"><ele>793.5</ele><time>2026-04-24T17:01:58.029Z</time></trkpt><trkpt lat="44.27514" lon="10.9371367"><ele>793.0</ele><time>2026-04-24T17:01:59.029Z</time></trkpt><trkpt lat="44.2752433" lon="10.9370117"><ele>792.5</ele><time>2026-04-24T17:02:00.029Z</time></trkpt><trkpt lat="44.2753317" lon="10.9368783"><ele>792.0</ele><time>2026-04-24T17:02:01.029Z</time></trkpt><trkpt lat="44.2754283" lon="10.93675"><ele>789.5</ele><time>2026-04-24T17:02:02.029Z</time></trkpt><trkpt lat="44.275535" lon="10.9366467"><ele>787.0</ele><time>2026-04-24T17:02:03.028Z</time></trkpt><trkpt lat="44.2756683" lon="10.9365483"><ele>784.5</ele><time>2026-04-24T17:02:04.029Z</time></trkpt><trkpt lat="44.275815" lon="10.9364583"><ele>782.0</ele><time>2026-04-24T17:02:05.029Z</time></trkpt><trkpt lat="44.2759583" lon="10.93637"><ele>782.0</ele><time>2026-04-24T17:02:06.029Z</time></trkpt><trkpt lat="44.2761" lon="10.93626"><ele>782.0</ele><time>2026-04-24T17:02:07.029Z</time></trkpt><trkpt lat="44.2762267" lon="10.9361183"><ele>782.0</ele><time>2026-04-24T17:02:08.029Z</time></trkpt><trkpt lat="44.276345" lon="10.9359483"><ele>779.6666666666667</ele><time>2026-04-24T17:02:09.029Z</time></trkpt><trkpt lat="44.27646" lon="10.9357633"><ele>777.3333333333333</ele><time>2026-04-24T17:02:10.028Z</time></trkpt><trkpt lat="44.2765683" lon="10.935595"><ele>775.0</ele><time>2026-04-24T17:02:11.028Z</time></trkpt><trkpt lat="44.2766733" lon="10.9354533"><ele>775.0</ele><time>2026-04-24T17:02:12.029Z</time></trkpt><trkpt lat="44.2767767" lon="10.9353433"><ele>775.0</ele><time>2026-04-24T17:02:13.029Z</time></trkpt><trkpt lat="44.2768833" lon="10.935255"><ele>775.0</ele><time>2026-04-24T17:02:14.029Z</time></trkpt><trkpt lat="44.2770117" lon="10.9351833"><ele>775.0</ele><time>2026-04-24T17:02:15.028Z</time></trkpt><trkpt lat="44.27715" lon="10.93513"><ele>776.3333333333333</ele><time>2026-04-24T17:02:16.029Z</time></trkpt><trkpt lat="44.2773" lon="10.935105"><ele>777.6666666666667</ele><time>2026-04-24T17:02:17.028Z</time></trkpt><trkpt lat="44.27746" lon="10.935085"><ele>779.0</ele><time>2026-04-24T17:02:18.028Z</time></trkpt><trkpt lat="44.27762" lon="10.9350683"><ele>779.0</ele><time>2026-04-24T17:02:19.029Z</time></trkpt><trkpt lat="44.2777733" lon="10.9350567"><ele>779.0</ele><time>2026-04-24T17:02:20.028Z</time></trkpt><trkpt lat="44.2779017" lon="10.93505"><ele>779.0</ele><time>2026-04-24T17:02:21.029Z</time></trkpt><trkpt lat="44.2780083" lon="10.9350583"><ele>779.0</ele><time>2026-04-24T17:02:22.029Z</time></trkpt><trkpt lat="44.2781117" lon="10.9350917"><ele>775.5</ele><time>2026-04-24T17:02:23.029Z</time></trkpt><trkpt lat="44.2782" lon="10.9351683"><ele>772.0</ele><time>2026-04-24T17:02:24.029Z</time></trkpt><trkpt lat="44.278265" lon="10.9352817"><ele>768.5</ele><time>2026-04-24T17:02:25.029Z</time></trkpt><trkpt lat="44.2783233" lon="10.9354267"><ele>765.0</ele><time>2026-04-24T17:02:26.029Z</time></trkpt><trkpt lat="44.278385" lon="10.9355817"><ele>765.0</ele><time>2026-04-24T17:02:27.028Z</time></trkpt><trkpt lat="44.27845" lon="10.9357483"><ele>765.0</ele><time>2026-04-24T17:02:28.029Z</time></trkpt><trkpt lat="44.2785167" lon="10.9358767"><ele>765.0</ele><time>2026-04-24T17:02:29.029Z</time></trkpt><trkpt lat="44.27857" lon="10.9359733"><ele>765.0</ele><time>2026-04-24T17:02:30.029Z</time></trkpt><trkpt lat="44.2786267" lon="10.9360383"><ele>765.0</ele><time>2026-04-24T17:02:31.028Z</time></trkpt><trkpt lat="44.278685" lon="10.9360717"><ele>765.0</ele><time>2026-04-24T17:02:32.029Z</time></trkpt><trkpt lat="44.2787583" lon="10.9360333"><ele>765.0</ele><time>2026-04-24T17:02:33.029Z</time></trkpt><trkpt lat="44.2788117" lon="10.93593"><ele>765.0</ele><time>2026-04-24T17:02:34.029Z</time></trkpt><trkpt lat="44.278835" lon="10.9357967"><ele>765.0</ele><time>2026-04-24T17:02:35.029Z</time></trkpt><trkpt lat="44.2788267" lon="10.9356533"><ele>765.0</ele><time>2026-04-24T17:02:36.029Z</time></trkpt><trkpt lat="44.2787983" lon="10.9355067"><ele>765.0</ele><time>2026-04-24T17:02:37.029Z</time></trkpt><trkpt lat="44.278765" lon="10.9353533"><ele>765.0</ele><time>2026-04-24T17:02:38.029Z</time></trkpt><trkpt lat="44.27875" lon="10.935215"><ele>765.0</ele><time>2026-04-24T17:02:39.029Z</time></trkpt><trkpt lat="44.2787567" lon="10.93508"><ele>765.0</ele><time>2026-04-24T17:02:40.029Z</time></trkpt><trkpt lat="44.2787867" lon="10.9349667"><ele>765.0</ele><time>2026-04-24T17:02:41.029Z</time></trkpt><trkpt lat="44.2788467" lon="10.9348683"><ele>763.0</ele><time>2026-04-24T17:02:42.029Z</time></trkpt><trkpt lat="44.2789333" lon="10.934785"><ele>761.0</ele><time>2026-04-24T17:02:43.029Z</time></trkpt><trkpt lat="44.279035" lon="10.9347083"><ele>759.0</ele><time>2026-04-24T17:02:44.029Z</time></trkpt><trkpt lat="44.2791533" lon="10.9346367"><ele>757.0</ele><time>2026-04-24T17:02:45.029Z</time></trkpt><trkpt lat="44.2792683" lon="10.934545"><ele>757.0</ele><time>2026-04-24T17:02:46.029Z</time></trkpt><trkpt lat="44.2793867" lon="10.9344383"><ele>757.0</ele><time>2026-04-24T17:02:47.029Z</time></trkpt><trkpt lat="44.2795" lon="10.934315"><ele>757.0</ele><time>2026-04-24T17:02:48.029Z</time></trkpt><trkpt lat="44.2796067" lon="10.9341867"><ele>757.0</ele><time>2026-04-24T17:02:49.029Z</time></trkpt><trkpt lat="44.2797267" lon="10.9340667"><ele>756.3333333333334</ele><time>2026-04-24T17:02:50.029Z</time></trkpt><trkpt lat="44.2798667" lon="10.9339667"><ele>755.6666666666666</ele><time>2026-04-24T17:02:51.029Z</time></trkpt><trkpt lat="44.2800233" lon="10.9338933"><ele>755.0</ele><time>2026-04-24T17:02:52.029Z</time></trkpt><trkpt lat="44.2801867" lon="10.9338433"><ele>755.0</ele><time>2026-04-24T17:02:53.028Z</time></trkpt><trkpt lat="44.2803467" lon="10.93378"><ele>755.0</ele><time>2026-04-24T17:02:54.028Z</time></trkpt><trkpt lat="44.2805017" lon="10.9337233"><ele>755.0</ele><time>2026-04-24T17:02:55.029Z</time></trkpt><trkpt lat="44.2806517" lon="10.9336683"><ele>753.3333333333333</ele><time>2026-04-24T17:02:56.029Z</time></trkpt><trkpt lat="44.2808033" lon="10.933615"><ele>751.6666666666666</ele><time>2026-04-24T17:02:57.029Z</time></trkpt><trkpt lat="44.280965" lon="10.9335783"><ele>750.0</ele><time>2026-04-24T17:02:58.029Z</time></trkpt><trkpt lat="44.2811383" lon="10.9335533"><ele>750.0</ele><time>2026-04-24T17:02:59.029Z</time></trkpt><trkpt lat="44.2813167" lon="10.9335233"><ele>750.0</ele><time>2026-04-24T17:03:00.029Z</time></trkpt><trkpt lat="44.2815017" lon="10.9334883"><ele>750.0</ele><time>2026-04-24T17:03:01.029Z</time></trkpt><trkpt lat="44.2816767" lon="10.9334633"><ele>749.0</ele><time>2026-04-24T17:03:02.028Z</time></trkpt><trkpt lat="44.2818433" lon="10.9334383"><ele>748.0</ele><time>2026-04-24T17:03:03.029Z</time></trkpt><trkpt lat="44.2820083" lon="10.933405"><ele>747.0</ele><time>2026-04-24T17:03:04.028Z</time></trkpt><trkpt lat="44.2821683" lon="10.9333467"><ele>743.6666666666666</ele><time>2026-04-24T17:03:05.029Z</time></trkpt><trkpt lat="44.282325" lon="10.9332583"><ele>740.3333333333333</ele><time>2026-04-24T17:03:06.028Z</time></trkpt><trkpt lat="44.2824633" lon="10.9331617"><ele>737.0</ele><time>2026-04-24T17:03:07.029Z</time></trkpt><trkpt lat="44.2825783" lon="10.9330617"><ele>737.0</ele><time>2026-04-24T17:03:08.028Z</time></trkpt><trkpt lat="44.28267" lon="10.932955"><ele>737.0</ele><time>2026-04-24T17:03:09.029Z</time></trkpt><trkpt lat="44.28274" lon="10.9328117"><ele>737.0</ele><time>2026-04-24T17:03:10.028Z</time></trkpt><trkpt lat="44.282775" lon="10.9326417"><ele>737.0</ele><time>2026-04-24T17:03:11.029Z</time></trkpt><trkpt lat="44.2827783" lon="10.9324433"><ele>733.75</ele><time>2026-04-24T17:03:12.029Z</time></trkpt><trkpt lat="44.2827883" lon="10.9322617"><ele>730.5</ele><time>2026-04-24T17:03:13.028Z</time></trkpt><trkpt lat="44.2828217" lon="10.9321183"><ele>727.25</ele><time>2026-04-24T17:03:14.029Z</time></trkpt><trkpt lat="44.28289" lon="10.931995"><ele>724.0</ele><time>2026-04-24T17:03:15.029Z</time></trkpt><trkpt lat="44.28298" lon="10.9318717"><ele>724.0</ele><time>2026-04-24T17:03:16.029Z</time></trkpt><trkpt lat="44.28309" lon="10.9317367"><ele>724.0</ele><time>2026-04-24T17:03:17.028Z</time></trkpt><trkpt lat="44.2831917" lon="10.9315767"><ele>724.0</ele><time>2026-04-24T17:03:18.029Z</time></trkpt><trkpt lat="44.2832817" lon="10.9314167"><ele>724.0</ele><time>2026-04-24T17:03:19.029Z</time></trkpt><trkpt lat="44.283385" lon="10.9312767"><ele>723.75</ele><time>2026-04-24T17:03:20.029Z</time></trkpt><trkpt lat="44.2835" lon="10.9311617"><ele>723.5</ele><time>2026-04-24T17:03:21.029Z</time></trkpt><trkpt lat="44.2836317" lon="10.9310533"><ele>723.25</ele><time>2026-04-24T17:03:22.029Z</time></trkpt><trkpt lat="44.2837817" lon="10.9310017"><ele>723.0</ele><time>2026-04-24T17:03:23.029Z</time></trkpt><trkpt lat="44.28394" lon="10.93096"><ele>724.3333333333334</ele><time>2026-04-24T17:03:24.029Z</time></trkpt><trkpt lat="44.2841067" lon="10.930915"><ele>725.6666666666667</ele><time>2026-04-24T17:03:25.029Z</time></trkpt><trkpt lat="44.2842683" lon="10.9308733"><ele>727.0</ele><time>2026-04-24T17:03:26.029Z</time></trkpt><trkpt lat="44.28441" lon="10.9308283"><ele>724.0</ele><time>2026-04-24T17:03:27.029Z</time></trkpt><trkpt lat="44.2845283" lon="10.93079"><ele>721.0</ele><time>2026-04-24T17:03:28.028Z</time></trkpt><trkpt lat="44.2846217" lon="10.9307217"><ele>718.0</ele><time>2026-04-24T17:03:29.028Z</time></trkpt><trkpt lat="44.2846983" lon="10.9306233"><ele>715.0</ele><time>2026-04-24T17:03:30.029Z</time></trkpt><trkpt lat="44.284735" lon="10.9305083"><ele>712.0</ele><time>2026-04-24T17:03:31.029Z</time></trkpt><trkpt lat="44.2847267" lon="10.930365"><ele>712.0</ele><time>2026-04-24T17:03:32.029Z</time></trkpt><trkpt lat="44.284685" lon="10.9302317"><ele>712.0</ele><time>2026-04-24T17:03:33.028Z</time></trkpt><trkpt lat="44.2846117" lon="10.9301"><ele>712.0</ele><time>2026-04-24T17:03:34.028Z</time></trkpt><trkpt lat="44.2845133" lon="10.9299733"><ele>712.0</ele><time>2026-04-24T17:03:35.029Z</time></trkpt><trkpt lat="44.2844017" lon="10.9298433"><ele>710.0</ele><time>2026-04-24T17:03:36.029Z</time></trkpt><trkpt lat="44.2842767" lon="10.929705"><ele>708.0</ele><time>2026-04-24T17:03:37.029Z</time></trkpt><trkpt lat="44.2841367" lon="10.929555"><ele>706.0</ele><time>2026-04-24T17:03:38.029Z</time></trkpt><trkpt lat="44.2839983" lon="10.9293917"><ele>703.6666666666667</ele><time>2026-04-24T17:03:39.029Z</time></trkpt><trkpt lat="44.2838633" lon="10.92924"><ele>701.3333333333334</ele><time>2026-04-24T17:03:40.029Z</time></trkpt><trkpt lat="44.283745" lon="10.9290983"><ele>699.0</ele><time>2026-04-24T17:03:41.028Z</time></trkpt><trkpt lat="44.2836417" lon="10.9289483"><ele>697.3333333333334</ele><time>2026-04-24T17:03:42.029Z</time></trkpt><trkpt lat="44.283555" lon="10.92877"><ele>695.6666666666667</ele><time>2026-04-24T17:03:43.028Z</time></trkpt><trkpt lat="44.2834767" lon="10.9285683"><ele>694.0</ele><time>2026-04-24T17:03:44.028Z</time></trkpt><trkpt lat="44.283405" lon="10.9283483"><ele>694.0</ele><time>2026-04-24T17:03:45.028Z</time></trkpt><trkpt lat="44.2833333" lon="10.9281167"><ele>694.0</ele><time>2026-04-24T17:03:46.029Z</time></trkpt><trkpt lat="44.2832583" lon="10.927875"><ele>694.0</ele><time>2026-04-24T17:03:47.029Z</time></trkpt><trkpt lat="44.2831883" lon="10.9276333"><ele>694.6666666666667</ele><time>2026-04-24T17:03:48.029Z</time></trkpt><trkpt lat="44.2831167" lon="10.9273833"><ele>695.3333333333334</ele><time>2026-04-24T17:03:49.029Z</time></trkpt><trkpt lat="44.2830483" lon="10.9271433"><ele>696.0</ele><time>2026-04-24T17:03:50.029Z</time></trkpt><trkpt lat="44.2829817" lon="10.9269117"><ele>691.6666666666666</ele><time>2026-04-24T17:03:51.029Z</time></trkpt><trkpt lat="44.2829117" lon="10.9266867"><ele>687.3333333333333</ele><time>2026-04-24T17:03:52.029Z</time></trkpt><trkpt lat="44.2828567" lon="10.9264617"><ele>683.0</ele><time>2026-04-24T17:03:53.029Z</time></trkpt><trkpt lat="44.28283" lon="10.9262333"><ele>683.0</ele><time>2026-04-24T17:03:54.029Z</time></trkpt><trkpt lat="44.2828067" lon="10.92601"><ele>683.0</ele><time>2026-04-24T17:03:55.029Z</time></trkpt><trkpt lat="44.2827967" lon="10.925795"><ele>683.0</ele><time>2026-04-24T17:03:56.028Z</time></trkpt><trkpt lat="44.2827867" lon="10.9255817"><ele>683.6666666666666</ele><time>2026-04-24T17:03:57.029Z</time></trkpt><trkpt lat="44.2827733" lon="10.9253517"><ele>684.3333333333334</ele><time>2026-04-24T17:03:58.029Z</time></trkpt><trkpt lat="44.2827567" lon="10.92514"><ele>685.0</ele><time>2026-04-24T17:03:59.028Z</time></trkpt><trkpt lat="44.2827333" lon="10.9249567"><ele>684.3333333333334</ele><time>2026-04-24T17:04:00.028Z</time></trkpt><trkpt lat="44.28271" lon="10.9248083"><ele>683.6666666666667</ele><time>2026-04-24T17:04:01.029Z</time></trkpt><trkpt lat="44.2826817" lon="10.9246917"><ele>683.0</ele><time>2026-04-24T17:04:02.029Z</time></trkpt><trkpt lat="44.2826433" lon="10.9246133"><ele>682.3333333333334</ele><time>2026-04-24T17:04:03.028Z</time></trkpt><trkpt lat="44.2825767" lon="10.924565"><ele>681.6666666666666</ele><time>2026-04-24T17:04:04.029Z</time></trkpt><trkpt lat="44.282495" lon="10.9245417"><ele>681.0</ele><time>2026-04-24T17:04:05.028Z</time></trkpt><trkpt lat="44.2824067" lon="10.9245667"><ele>681.0</ele><time>2026-04-24T17:04:06.029Z</time></trkpt><trkpt lat="44.282325" lon="10.9246367"><ele>681.0</ele><time>2026-04-24T17:04:07.028Z</time></trkpt><trkpt lat="44.28225" lon="10.924755"><ele>681.0</ele><time>2026-04-24T17:04:08.029Z</time></trkpt><trkpt lat="44.2821783" lon="10.92488"><ele>681.0</ele><time>2026-04-24T17:04:09.029Z</time></trkpt><trkpt lat="44.2820917" lon="10.9250167"><ele>679.4</ele><time>2026-04-24T17:04:10.028Z</time></trkpt><trkpt lat="44.2820017" lon="10.92515"><ele>677.8</ele><time>2026-04-24T17:04:11.029Z</time></trkpt><trkpt lat="44.2819133" lon="10.9252667"><ele>676.1999999999999</ele><time>2026-04-24T17:04:12.029Z</time></trkpt><trkpt lat="44.2818267" lon="10.9253517"><ele>674.5999999999999</ele><time>2026-04-24T17:04:13.028Z</time></trkpt><trkpt lat="44.28175" lon="10.925405"><ele>673.0</ele><time>2026-04-24T17:04:14.029Z</time></trkpt><trkpt lat="44.28167" lon="10.9254167"><ele>673.0</ele><time>2026-04-24T17:04:15.028Z</time></trkpt><trkpt lat="44.2815967" lon="10.9253833"><ele>673.0</ele><time>2026-04-24T17:04:16.029Z</time></trkpt><trkpt lat="44.281545" lon="10.9252933"><ele>673.0</ele><time>2026-04-24T17:04:17.028Z</time></trkpt><trkpt lat="44.2815133" lon="10.9251533"><ele>673.0</ele><time>2026-04-24T17:04:18.029Z</time></trkpt><trkpt lat="44.2815133" lon="10.9249967"><ele>673.0</ele><time>2026-04-24T17:04:19.029Z</time></trkpt><trkpt lat="44.281515" lon="10.924835"><ele>672.25</ele><time>2026-04-24T17:04:20.029Z</time></trkpt><trkpt lat="44.2815033" lon="10.9246633"><ele>671.5</ele><time>2026-04-24T17:04:21.029Z</time></trkpt><trkpt lat="44.2814717" lon="10.9244883"><ele>670.75</ele><time>2026-04-24T17:04:22.029Z</time></trkpt><trkpt lat="44.2814183" lon="10.9243233"><ele>670.0</ele><time>2026-04-24T17:04:23.029Z</time></trkpt><trkpt lat="44.2813517" lon="10.9241717"><ele>665.5</ele><time>2026-04-24T17:04:24.029Z</time></trkpt><trkpt lat="44.2812683" lon="10.924035"><ele>661.0</ele><time>2026-04-24T17:04:25.029Z</time></trkpt><trkpt lat="44.2811617" lon="10.923915"><ele>656.5</ele><time>2026-04-24T17:04:26.028Z</time></trkpt><trkpt lat="44.2810433" lon="10.923785"><ele>652.0</ele><time>2026-04-24T17:04:27.028Z</time></trkpt><trkpt lat="44.2809117" lon="10.9236433"><ele>652.0</ele><time>2026-04-24T17:04:28.029Z</time></trkpt><trkpt lat="44.28079" lon="10.9235133"><ele>652.0</ele><time>2026-04-24T17:04:29.028Z</time></trkpt><trkpt lat="44.2806817" lon="10.9233917"><ele>652.0</ele><time>2026-04-24T17:04:30.028Z</time></trkpt><trkpt lat="44.2805933" lon="10.923285"><ele>652.0</ele><time>2026-04-24T17:04:31.028Z</time></trkpt><trkpt lat="44.2805183" lon="10.9231817"><ele>648.8333333333334</ele><time>2026-04-24T17:04:32.029Z</time></trkpt><trkpt lat="44.2804583" lon="10.923075"><ele>645.6666666666667</ele><time>2026-04-24T17:04:33.028Z</time></trkpt><trkpt lat="44.2804283" lon="10.9229567"><ele>642.5</ele><time>2026-04-24T17:04:34.029Z</time></trkpt><trkpt lat="44.2804233" lon="10.9228483"><ele>639.3333333333334</ele><time>2026-04-24T17:04:35.029Z</time></trkpt><trkpt lat="44.2804467" lon="10.92275"><ele>636.1666666666666</ele><time>2026-04-24T17:04:36.028Z</time></trkpt><trkpt lat="44.2805017" lon="10.9226583"><ele>633.0</ele><time>2026-04-24T17:04:37.029Z</time></trkpt><trkpt lat="44.28059" lon="10.9225667"><ele>636.8</ele><time>2026-04-24T17:04:38.029Z</time></trkpt><trkpt lat="44.2806883" lon="10.92248"><ele>640.5999999999999</ele><time>2026-04-24T17:04:39.028Z</time></trkpt><trkpt lat="44.280775" lon="10.9223933"><ele>644.4000000000001</ele><time>2026-04-24T17:04:40.029Z</time></trkpt><trkpt lat="44.2808417" lon="10.92231"><ele>648.2</ele><time>2026-04-24T17:04:41.028Z</time></trkpt><trkpt lat="44.2808833" lon="10.922225"><ele>652.0</ele><time>2026-04-24T17:04:42.029Z</time></trkpt><trkpt lat="44.2808917" lon="10.9221367"><ele>652.0</ele><time>2026-04-24T17:04:43.029Z</time></trkpt><trkpt lat="44.2808633" lon="10.9220483"><ele>652.0</ele><time>2026-04-24T17:04:44.029Z</time></trkpt><trkpt lat="44.2808" lon="10.921985"><ele>652.0</ele><time>2026-04-24T17:04:45.029Z</time></trkpt><trkpt lat="44.2807133" lon="10.9219733"><ele>652.0</ele><time>2026-04-24T17:04:46.029Z</time></trkpt><trkpt lat="44.2806267" lon="10.922015"><ele>652.0</ele><time>2026-04-24T17:04:47.029Z</time></trkpt><trkpt lat="44.280535" lon="10.9220833"><ele>652.0</ele><time>2026-04-24T17:04:48.029Z</time></trkpt><trkpt lat="44.28044" lon="10.92217"><ele>646.0</ele><time>2026-04-24T17:04:49.029Z</time></trkpt><trkpt lat="44.280335" lon="10.9222717"><ele>640.0</ele><time>2026-04-24T17:04:50.029Z</time></trkpt><trkpt lat="44.2802317" lon="10.9223633"><ele>634.0</ele><time>2026-04-24T17:04:51.029Z</time></trkpt><trkpt lat="44.2800733" lon="10.9226083"><ele>633.75</ele><time>2026-04-24T17:04:53.029Z</time></trkpt><trkpt lat="44.2800333" lon="10.922745"><ele>633.5</ele><time>2026-04-24T17:04:54.028Z</time></trkpt><trkpt lat="44.2800233" lon="10.92291"><ele>633.25</ele><time>2026-04-24T17:04:55.028Z</time></trkpt><trkpt lat="44.28003" lon="10.9230917"><ele>633.0</ele><time>2026-04-24T17:04:56.029Z</time></trkpt><trkpt lat="44.2800567" lon="10.923275"><ele>632.0</ele><time>2026-04-24T17:04:57.029Z</time></trkpt><trkpt lat="44.2800933" lon="10.9234583"><ele>631.0</ele><time>2026-04-24T17:04:58.029Z</time></trkpt><trkpt lat="44.2801133" lon="10.923635"><ele>630.0</ele><time>2026-04-24T17:04:59.029Z</time></trkpt><trkpt lat="44.2801117" lon="10.9238033"><ele>629.0</ele><time>2026-04-24T17:05:00.029Z</time></trkpt><trkpt lat="44.28008" lon="10.9239667"><ele>629.0</ele><time>2026-04-24T17:05:01.029Z</time></trkpt><trkpt lat="44.2800233" lon="10.9241333"><ele>629.0</ele><time>2026-04-24T17:05:02.029Z</time></trkpt><trkpt lat="44.279945" lon="10.9242983"><ele>629.0</ele><time>2026-04-24T17:05:03.029Z</time></trkpt><trkpt lat="44.2798483" lon="10.9244733"><ele>629.0</ele><time>2026-04-24T17:05:04.029Z</time></trkpt><trkpt lat="44.2797567" lon="10.9246483"><ele>629.0</ele><time>2026-04-24T17:05:05.029Z</time></trkpt><trkpt lat="44.2796717" lon="10.9248067"><ele>629.0</ele><time>2026-04-24T17:05:06.029Z</time></trkpt><trkpt lat="44.2795983" lon="10.924945"><ele>629.0</ele><time>2026-04-24T17:05:07.029Z</time></trkpt><trkpt lat="44.2795383" lon="10.9250667"><ele>629.0</ele><time>2026-04-24T17:05:08.028Z</time></trkpt><trkpt lat="44.2794883" lon="10.925165"><ele>629.0</ele><time>2026-04-24T17:05:09.029Z</time></trkpt><trkpt lat="44.2794317" lon="10.9252233"><ele>629.0</ele><time>2026-04-24T17:05:10.029Z</time></trkpt><trkpt lat="44.27936" lon="10.9252367"><ele>629.0</ele><time>2026-04-24T17:05:11.029Z</time></trkpt><trkpt lat="44.2792933" lon="10.9252"><ele>629.0</ele><time>2026-04-24T17:05:12.029Z</time></trkpt><trkpt lat="44.279245" lon="10.92512"><ele>629.0</ele><time>2026-04-24T17:05:13.029Z</time></trkpt><trkpt lat="44.279225" lon="10.9250067"><ele>629.0</ele><time>2026-04-24T17:05:14.029Z</time></trkpt><trkpt lat="44.2792433" lon="10.92489"><ele>627.5</ele><time>2026-04-24T17:05:15.029Z</time></trkpt><trkpt lat="44.2792917" lon="10.9247567"><ele>626.0</ele><time>2026-04-24T17:05:16.028Z</time></trkpt><trkpt lat="44.2793517" lon="10.9246117"><ele>624.5</ele><time>2026-04-24T17:05:17.029Z</time></trkpt><trkpt lat="44.2794133" lon="10.9244517"><ele>623.0</ele><time>2026-04-24T17:05:18.029Z</time></trkpt><trkpt lat="44.2794767" lon="10.9242667"><ele>621.0</ele><time>2026-04-24T17:05:19.029Z</time></trkpt><trkpt lat="44.2795417" lon="10.924105"><ele>619.0</ele><time>2026-04-24T17:05:20.028Z</time></trkpt><trkpt lat="44.2795967" lon="10.9239383"><ele>617.0</ele><time>2026-04-24T17:05:21.029Z</time></trkpt><trkpt lat="44.27964" lon="10.9237717"><ele>615.0</ele><time>2026-04-24T17:05:22.029Z</time></trkpt><trkpt lat="44.2796667" lon="10.9236"><ele>615.0</ele><time>2026-04-24T17:05:23.029Z</time></trkpt><trkpt lat="44.2796717" lon="10.9234183"><ele>615.0</ele><time>2026-04-24T17:05:24.028Z</time></trkpt><trkpt lat="44.27966" lon="10.9232283"><ele>615.0</ele><time>2026-04-24T17:05:25.028Z</time></trkpt><trkpt lat="44.2796333" lon="10.9230317"><ele>615.0</ele><time>2026-04-24T17:05:26.029Z</time></trkpt><trkpt lat="44.27959" lon="10.9228433"><ele>613.75</ele><time>2026-04-24T17:05:27.028Z</time></trkpt><trkpt lat="44.2795167" lon="10.9226683"><ele>612.5</ele><time>2026-04-24T17:05:28.029Z</time></trkpt><trkpt lat="44.2794383" lon="10.9224883"><ele>611.25</ele><time>2026-04-24T17:05:29.029Z</time></trkpt><trkpt lat="44.2793433" lon="10.9223267"><ele>610.0</ele><time>2026-04-24T17:05:30.029Z</time></trkpt><trkpt lat="44.2792567" lon="10.9221733"><ele>609.5</ele><time>2026-04-24T17:05:31.029Z</time></trkpt><trkpt lat="44.2791917" lon="10.9220217"><ele>609.0</ele><time>2026-04-24T17:05:32.029Z</time></trkpt><trkpt lat="44.2791533" lon="10.9218583"><ele>608.5</ele><time>2026-04-24T17:05:33.029Z</time></trkpt><trkpt lat="44.2791333" lon="10.92167"><ele>608.0</ele><time>2026-04-24T17:05:34.029Z</time></trkpt><trkpt lat="44.2791217" lon="10.921465"><ele>608.3333333333333</ele><time>2026-04-24T17:05:35.028Z</time></trkpt><trkpt lat="44.2791117" lon="10.9212483"><ele>608.6666666666666</ele><time>2026-04-24T17:05:36.028Z</time></trkpt><trkpt lat="44.279095" lon="10.9210317"><ele>609.0</ele><time>2026-04-24T17:05:37.029Z</time></trkpt><trkpt lat="44.279075" lon="10.9207917"><ele>609.0</ele><time>2026-04-24T17:05:38.028Z</time></trkpt><trkpt lat="44.279045" lon="10.9205467"><ele>609.0</ele><time>2026-04-24T17:05:39.029Z</time></trkpt><trkpt lat="44.2790083" lon="10.92029"><ele>609.0</ele><time>2026-04-24T17:05:40.029Z</time></trkpt><trkpt lat="44.2789667" lon="10.920015"><ele>603.0</ele><time>2026-04-24T17:05:41.029Z</time></trkpt><trkpt lat="44.27893" lon="10.9197383"><ele>597.0</ele><time>2026-04-24T17:05:42.029Z</time></trkpt><trkpt lat="44.27889" lon="10.9194617"><ele>591.0</ele><time>2026-04-24T17:05:43.029Z</time></trkpt><trkpt lat="44.2788533" lon="10.919175"><ele>590.0</ele><time>2026-04-24T17:05:44.029Z</time></trkpt><trkpt lat="44.2788283" lon="10.9188883"><ele>589.0</ele><time>2026-04-24T17:05:45.029Z</time></trkpt><trkpt lat="44.27881" lon="10.9185967"><ele>588.0</ele><time>2026-04-24T17:05:46.029Z</time></trkpt><trkpt lat="44.2787917" lon="10.9183133"><ele>587.0</ele><time>2026-04-24T17:05:47.028Z</time></trkpt><trkpt lat="44.2787767" lon="10.9180417"><ele>586.0</ele><time>2026-04-24T17:05:48.029Z</time></trkpt><trkpt lat="44.2787633" lon="10.9177917"><ele>585.0</ele><time>2026-04-24T17:05:49.028Z</time></trkpt><trkpt lat="44.2787567" lon="10.9175583"><ele>583.3333333333334</ele><time>2026-04-24T17:05:50.029Z</time></trkpt><trkpt lat="44.27877" lon="10.9173483"><ele>581.6666666666667</ele><time>2026-04-24T17:05:51.028Z</time></trkpt><trkpt lat="44.27881" lon="10.9171483"><ele>580.0</ele><time>2026-04-24T17:05:52.029Z</time></trkpt><trkpt lat="44.2788733" lon="10.91695"><ele>581.3333333333334</ele><time>2026-04-24T17:05:53.029Z</time></trkpt><trkpt lat="44.27896" lon="10.91677"><ele>582.6666666666666</ele><time>2026-04-24T17:05:54.029Z</time></trkpt><trkpt lat="44.2790683" lon="10.9165967"><ele>584.0</ele><time>2026-04-24T17:05:55.029Z</time></trkpt><trkpt lat="44.2791983" lon="10.916435"><ele>584.0</ele><time>2026-04-24T17:05:56.029Z</time></trkpt><trkpt lat="44.2793383" lon="10.9162883"><ele>584.0</ele><time>2026-04-24T17:05:57.028Z</time></trkpt><trkpt lat="44.279475" lon="10.9161383"><ele>584.0</ele><time>2026-04-24T17:05:58.029Z</time></trkpt><trkpt lat="44.2796033" lon="10.9160017"><ele>582.75</ele><time>2026-04-24T17:05:59.029Z</time></trkpt><trkpt lat="44.2797233" lon="10.915885"><ele>581.5</ele><time>2026-04-24T17:06:00.029Z</time></trkpt><trkpt lat="44.2798433" lon="10.9158017"><ele>580.25</ele><time>2026-04-24T17:06:01.029Z</time></trkpt><trkpt lat="44.279975" lon="10.9157467"><ele>579.0</ele><time>2026-04-24T17:06:02.028Z</time></trkpt><trkpt lat="44.2801117" lon="10.9157167"><ele>579.0</ele><time>2026-04-24T17:06:03.029Z</time></trkpt><trkpt lat="44.2802583" lon="10.9157083"><ele>579.0</ele><time>2026-04-24T17:06:04.029Z</time></trkpt><trkpt lat="44.280415" lon="10.9157033"><ele>579.0</ele><time>2026-04-24T17:06:05.029Z</time></trkpt><trkpt lat="44.2805733" lon="10.9156867"><ele>580.0</ele><time>2026-04-24T17:06:06.028Z</time></trkpt><trkpt lat="44.2807267" lon="10.9156467"><ele>581.0</ele><time>2026-04-24T17:06:07.028Z</time></trkpt><trkpt lat="44.2808733" lon="10.9155733"><ele>582.0</ele><time>2026-04-24T17:06:08.028Z</time></trkpt><trkpt lat="44.2810317" lon="10.9154717"><ele>582.0</ele><time>2026-04-24T17:06:09.029Z</time></trkpt><trkpt lat="44.2811783" lon="10.9153617"><ele>582.0</ele><time>2026-04-24T17:06:10.029Z</time></trkpt><trkpt lat="44.2813133" lon="10.915255"><ele>582.0</ele><time>2026-04-24T17:06:11.029Z</time></trkpt><trkpt lat="44.28143" lon="10.9151767"><ele>583.8000000000001</ele><time>2026-04-24T17:06:12.029Z</time></trkpt><trkpt lat="44.2815417" lon="10.91513"><ele>585.6</ele><time>2026-04-24T17:06:13.029Z</time></trkpt><trkpt lat="44.2816467" lon="10.91512"><ele>587.4000000000001</ele><time>2026-04-24T17:06:14.028Z</time></trkpt><trkpt lat="44.2817533" lon="10.9151383"><ele>589.2</ele><time>2026-04-24T17:06:15.029Z</time></trkpt><trkpt lat="44.2818533" lon="10.9151667"><ele>591.0</ele><time>2026-04-24T17:06:16.029Z</time></trkpt><trkpt lat="44.2819383" lon="10.9151833"><ele>591.0</ele><time>2026-04-24T17:06:17.028Z</time></trkpt><trkpt lat="44.2820133" lon="10.91517"><ele>591.0</ele><time>2026-04-24T17:06:18.029Z</time></trkpt><trkpt lat="44.2820717" lon="10.9151117"><ele>591.0</ele><time>2026-04-24T17:06:19.029Z</time></trkpt><trkpt lat="44.2821033" lon="10.91502"><ele>591.0</ele><time>2026-04-24T17:06:20.029Z</time></trkpt><trkpt lat="44.2820983" lon="10.9149067"><ele>591.0</ele><time>2026-04-24T17:06:21.028Z</time></trkpt><trkpt lat="44.2820533" lon="10.9147867"><ele>591.0</ele><time>2026-04-24T17:06:22.029Z</time></trkpt><trkpt lat="44.2819833" lon="10.9146583"><ele>587.0</ele><time>2026-04-24T17:06:23.029Z</time></trkpt><trkpt lat="44.281915" lon="10.914525"><ele>583.0</ele><time>2026-04-24T17:06:24.029Z</time></trkpt><trkpt lat="44.2818333" lon="10.91437"><ele>579.0</ele><time>2026-04-24T17:06:25.029Z</time></trkpt><trkpt lat="44.2817667" lon="10.9141833"><ele>575.0</ele><time>2026-04-24T17:06:26.029Z</time></trkpt><trkpt lat="44.28172" lon="10.913995"><ele>574.25</ele><time>2026-04-24T17:06:27.029Z</time></trkpt><trkpt lat="44.2816817" lon="10.913805"><ele>573.5</ele><time>2026-04-24T17:06:28.029Z</time></trkpt><trkpt lat="44.281655" lon="10.9136"><ele>572.75</ele><time>2026-04-24T17:06:29.029Z</time></trkpt><trkpt lat="44.281605" lon="10.9133917"><ele>572.0</ele><time>2026-04-24T17:06:30.029Z</time></trkpt><trkpt lat="44.2815567" lon="10.9132083"><ele>572.0</ele><time>2026-04-24T17:06:31.029Z</time></trkpt><trkpt lat="44.28151" lon="10.9130517"><ele>572.0</ele><time>2026-04-24T17:06:32.028Z</time></trkpt><trkpt lat="44.281485" lon="10.9129"><ele>572.0</ele><time>2026-04-24T17:06:33.029Z</time></trkpt><trkpt lat="44.2814967" lon="10.9127483"><ele>572.0</ele><time>2026-04-24T17:06:34.029Z</time></trkpt><trkpt lat="44.28153" lon="10.91259"><ele>570.5</ele><time>2026-04-24T17:06:35.028Z</time></trkpt><trkpt lat="44.28161" lon="10.912455"><ele>569.0</ele><time>2026-04-24T17:06:36.028Z</time></trkpt><trkpt lat="44.281695" lon="10.9123083"><ele>567.5</ele><time>2026-04-24T17:06:37.029Z</time></trkpt><trkpt lat="44.281755" lon="10.9121433"><ele>566.0</ele><time>2026-04-24T17:06:38.028Z</time></trkpt><trkpt lat="44.28179" lon="10.9119767"><ele>566.0</ele><time>2026-04-24T17:06:39.028Z</time></trkpt><trkpt lat="44.2817933" lon="10.911785"><ele>566.0</ele><time>2026-04-24T17:06:40.028Z</time></trkpt><trkpt lat="44.2817717" lon="10.91158"><ele>566.0</ele><time>2026-04-24T17:06:41.029Z</time></trkpt><trkpt lat="44.28173" lon="10.9113783"><ele>566.0</ele><time>2026-04-24T17:06:42.028Z</time></trkpt><trkpt lat="44.281675" lon="10.9111867"><ele>565.75</ele><time>2026-04-24T17:06:43.028Z</time></trkpt><trkpt lat="44.281625" lon="10.911015"><ele>565.5</ele><time>2026-04-24T17:06:44.029Z</time></trkpt><trkpt lat="44.281595" lon="10.9108167"><ele>565.25</ele><time>2026-04-24T17:06:45.029Z</time></trkpt><trkpt lat="44.28159" lon="10.9106033"><ele>565.0</ele><time>2026-04-24T17:06:46.028Z</time></trkpt><trkpt lat="44.281605" lon="10.9103883"><ele>564.5</ele><time>2026-04-24T17:06:47.028Z</time></trkpt><trkpt lat="44.28164" lon="10.9101783"><ele>564.0</ele><time>2026-04-24T17:06:48.029Z</time></trkpt><trkpt lat="44.2816783" lon="10.9099933"><ele>563.5</ele><time>2026-04-24T17:06:49.029Z</time></trkpt><trkpt lat="44.2817267" lon="10.90983"><ele>563.0</ele><time>2026-04-24T17:06:50.028Z</time></trkpt><trkpt lat="44.281795" lon="10.9096867"><ele>563.0</ele><time>2026-04-24T17:06:51.029Z</time></trkpt><trkpt lat="44.2818817" lon="10.90954"><ele>563.0</ele><time>2026-04-24T17:06:52.029Z</time></trkpt><trkpt lat="44.2819917" lon="10.9094117"><ele>563.0</ele><time>2026-04-24T17:06:53.029Z</time></trkpt><trkpt lat="44.282105" lon="10.9092667"><ele>563.0</ele><time>2026-04-24T17:06:54.028Z</time></trkpt><trkpt lat="44.2822467" lon="10.9091417"><ele>564.6666666666666</ele><time>2026-04-24T17:06:55.028Z</time></trkpt><trkpt lat="44.2823933" lon="10.9090017"><ele>566.3333333333334</ele><time>2026-04-24T17:06:56.029Z</time></trkpt><trkpt lat="44.28255" lon="10.9088517"><ele>568.0</ele><time>2026-04-24T17:06:57.029Z</time></trkpt><trkpt lat="44.2827033" lon="10.908685"><ele>568.0</ele><time>2026-04-24T17:06:58.029Z</time></trkpt><trkpt lat="44.2828533" lon="10.9084967"><ele>568.0</ele><time>2026-04-24T17:06:59.029Z</time></trkpt><trkpt lat="44.2829933" lon="10.9083017"><ele>568.0</ele><time>2026-04-24T17:07:00.029Z</time></trkpt><trkpt lat="44.283125" lon="10.9081117"><ele>565.0</ele><time>2026-04-24T17:07:01.029Z</time></trkpt><trkpt lat="44.2832467" lon="10.9079267"><ele>562.0</ele><time>2026-04-24T17:07:02.028Z</time></trkpt><trkpt lat="44.2833583" lon="10.907755"><ele>559.0</ele><time>2026-04-24T17:07:03.028Z</time></trkpt><trkpt lat="44.2834633" lon="10.907625"><ele>558.0</ele><time>2026-04-24T17:07:04.029Z</time></trkpt><trkpt lat="44.2835683" lon="10.9075233"><ele>557.0</ele><time>2026-04-24T17:07:05.028Z</time></trkpt><trkpt lat="44.2836867" lon="10.9074483"><ele>556.0</ele><time>2026-04-24T17:07:06.029Z</time></trkpt><trkpt lat="44.283815" lon="10.9074117"><ele>555.0</ele><time>2026-04-24T17:07:07.029Z</time></trkpt><trkpt lat="44.2839433" lon="10.9074133"><ele>554.75</ele><time>2026-04-24T17:07:08.029Z</time></trkpt><trkpt lat="44.2840733" lon="10.9074367"><ele>554.5</ele><time>2026-04-24T17:07:09.029Z</time></trkpt><trkpt lat="44.2842083" lon="10.9074967"><ele>554.25</ele><time>2026-04-24T17:07:10.028Z</time></trkpt><trkpt lat="44.2843417" lon="10.90758"><ele>554.0</ele><time>2026-04-24T17:07:11.029Z</time></trkpt><trkpt lat="44.2844683" lon="10.9076833"><ele>557.25</ele><time>2026-04-24T17:07:12.029Z</time></trkpt><trkpt lat="44.2845967" lon="10.9077867"><ele>560.5</ele><time>2026-04-24T17:07:13.028Z</time></trkpt><trkpt lat="44.28471" lon="10.9078667"><ele>563.75</ele><time>2026-04-24T17:07:14.029Z</time></trkpt><trkpt lat="44.2848233" lon="10.9079267"><ele>567.0</ele><time>2026-04-24T17:07:15.028Z</time></trkpt><trkpt lat="44.28493" lon="10.907955"><ele>567.0</ele><time>2026-04-24T17:07:16.028Z</time></trkpt><trkpt lat="44.2850433" lon="10.9079433"><ele>567.0</ele><time>2026-04-24T17:07:17.029Z</time></trkpt><trkpt lat="44.2851633" lon="10.9078883"><ele>567.0</ele><time>2026-04-24T17:07:18.028Z</time></trkpt><trkpt lat="44.2852967" lon="10.907825"><ele>567.0</ele><time>2026-04-24T17:07:19.028Z</time></trkpt><trkpt lat="44.2854417" lon="10.9077533"><ele>567.0</ele><time>2026-04-24T17:07:20.029Z</time></trkpt><trkpt lat="44.2855783" lon="10.9076883"><ele>567.0</ele><time>2026-04-24T17:07:21.029Z</time></trkpt><trkpt lat="44.2856983" lon="10.9076267"><ele>567.0</ele><time>2026-04-24T17:07:22.029Z</time></trkpt><trkpt lat="44.2858017" lon="10.907555"><ele>567.0</ele><time>2026-04-24T17:07:23.029Z</time></trkpt><trkpt lat="44.2858833" lon="10.9074467"><ele>564.0</ele><time>2026-04-24T17:07:24.029Z</time></trkpt><trkpt lat="44.2859483" lon="10.907305"><ele>561.0</ele><time>2026-04-24T17:07:25.029Z</time></trkpt><trkpt lat="44.2859983" lon="10.9071133"><ele>558.0</ele><time>2026-04-24T17:07:26.028Z</time></trkpt><trkpt lat="44.28605" lon="10.9069133"><ele>555.0</ele><time>2026-04-24T17:07:27.029Z</time></trkpt><trkpt lat="44.2861233" lon="10.9067183"><ele>553.0</ele><time>2026-04-24T17:07:28.029Z</time></trkpt><trkpt lat="44.28621" lon="10.9065183"><ele>551.0</ele><time>2026-04-24T17:07:29.029Z</time></trkpt><trkpt lat="44.2863117" lon="10.9063233"><ele>549.0</ele><time>2026-04-24T17:07:30.028Z</time></trkpt><trkpt lat="44.2864" lon="10.90615"><ele>555.25</ele><time>2026-04-24T17:07:31.029Z</time></trkpt><trkpt lat="44.2864617" lon="10.906"><ele>561.5</ele><time>2026-04-24T17:07:32.028Z</time></trkpt><trkpt lat="44.2865" lon="10.9058467"><ele>567.75</ele><time>2026-04-24T17:07:33.029Z</time></trkpt><trkpt lat="44.2865067" lon="10.9056817"><ele>574.0</ele><time>2026-04-24T17:07:34.029Z</time></trkpt><trkpt lat="44.28649" lon="10.905505"><ele>574.0</ele><time>2026-04-24T17:07:35.028Z</time></trkpt><trkpt lat="44.2864567" lon="10.9053183"><ele>574.0</ele><time>2026-04-24T17:07:36.029Z</time></trkpt><trkpt lat="44.2864117" lon="10.905115"><ele>574.0</ele><time>2026-04-24T17:07:37.029Z</time></trkpt><trkpt lat="44.286365" lon="10.9049283"><ele>574.0</ele><time>2026-04-24T17:07:38.028Z</time></trkpt><trkpt lat="44.2863317" lon="10.90475"><ele>571.2</ele><time>2026-04-24T17:07:39.028Z</time></trkpt><trkpt lat="44.2863267" lon="10.904585"><ele>568.4</ele><time>2026-04-24T17:07:40.028Z</time></trkpt><trkpt lat="44.2863383" lon="10.9044383"><ele>565.6</ele><time>2026-04-24T17:07:41.028Z</time></trkpt><trkpt lat="44.286375" lon="10.90432"><ele>562.8</ele><time>2026-04-24T17:07:42.028Z</time></trkpt><trkpt lat="44.2864417" lon="10.9042133"><ele>560.0</ele><time>2026-04-24T17:07:43.028Z</time></trkpt><trkpt lat="44.286535" lon="10.9041317"><ele>560.0</ele><time>2026-04-24T17:07:44.029Z</time></trkpt><trkpt lat="44.28665" lon="10.904075"><ele>560.0</ele><time>2026-04-24T17:07:45.029Z</time></trkpt><trkpt lat="44.28676" lon="10.9040717"><ele>560.0</ele><time>2026-04-24T17:07:46.029Z</time></trkpt><trkpt lat="44.28686" lon="10.9040983"><ele>560.0</ele><time>2026-04-24T17:07:47.029Z</time></trkpt><trkpt lat="44.2869683" lon="10.904155"><ele>560.0</ele><time>2026-04-24T17:07:48.029Z</time></trkpt><trkpt lat="44.2870883" lon="10.9042333"><ele>562.75</ele><time>2026-04-24T17:07:49.028Z</time></trkpt><trkpt lat="44.2872267" lon="10.9042817"><ele>565.5</ele><time>2026-04-24T17:07:50.029Z</time></trkpt><trkpt lat="44.2873717" lon="10.9042967"><ele>568.25</ele><time>2026-04-24T17:07:51.029Z</time></trkpt><trkpt lat="44.287525" lon="10.9043117"><ele>571.0</ele><time>2026-04-24T17:07:52.028Z</time></trkpt><trkpt lat="44.2876833" lon="10.9043083"><ele>571.3333333333334</ele><time>2026-04-24T17:07:53.029Z</time></trkpt><trkpt lat="44.2878317" lon="10.9043117"><ele>571.6666666666666</ele><time>2026-04-24T17:07:54.028Z</time></trkpt><trkpt lat="44.287985" lon="10.9043417"><ele>572.0</ele><time>2026-04-24T17:07:55.029Z</time></trkpt><trkpt lat="44.2881483" lon="10.904395"><ele>572.0</ele><time>2026-04-24T17:07:56.029Z</time></trkpt><trkpt lat="44.2883133" lon="10.9044667"><ele>572.0</ele><time>2026-04-24T17:07:57.029Z</time></trkpt><trkpt lat="44.2884833" lon="10.9045367"><ele>572.0</ele><time>2026-04-24T17:07:58.029Z</time></trkpt><trkpt lat="44.2886417" lon="10.9045833"><ele>572.0</ele><time>2026-04-24T17:07:59.029Z</time></trkpt><trkpt lat="44.28879" lon="10.904625"><ele>572.0</ele><time>2026-04-24T17:08:00.029Z</time></trkpt><trkpt lat="44.28893" lon="10.9046367"><ele>572.0</ele><time>2026-04-24T17:08:01.029Z</time></trkpt><trkpt lat="44.28907" lon="10.9046083"><ele>572.0</ele><time>2026-04-24T17:08:02.029Z</time></trkpt><trkpt lat="44.2892083" lon="10.9045433"><ele>568.3333333333333</ele><time>2026-04-24T17:08:03.028Z</time></trkpt><trkpt lat="44.2893417" lon="10.9044433"><ele>564.6666666666666</ele><time>2026-04-24T17:08:04.029Z</time></trkpt><trkpt lat="44.289475" lon="10.9043233"><ele>561.0</ele><time>2026-04-24T17:08:05.029Z</time></trkpt><trkpt lat="44.2896067" lon="10.904205"><ele>558.0</ele><time>2026-04-24T17:08:06.029Z</time></trkpt><trkpt lat="44.2897317" lon="10.9040917"><ele>555.0</ele><time>2026-04-24T17:08:07.029Z</time></trkpt><trkpt lat="44.28986" lon="10.903985"><ele>552.0</ele><time>2026-04-24T17:08:08.029Z</time></trkpt><trkpt lat="44.28999" lon="10.9038883"><ele>549.0</ele><time>2026-04-24T17:08:09.029Z</time></trkpt><trkpt lat="44.2901183" lon="10.9038017"><ele>549.0</ele><time>2026-04-24T17:08:10.028Z</time></trkpt><trkpt lat="44.2902433" lon="10.9037183"><ele>549.0</ele><time>2026-04-24T17:08:11.029Z</time></trkpt><trkpt lat="44.2903633" lon="10.90364"><ele>549.0</ele><time>2026-04-24T17:08:12.029Z</time></trkpt><trkpt lat="44.2904767" lon="10.9035667"><ele>549.0</ele><time>2026-04-24T17:08:13.029Z</time></trkpt><trkpt lat="44.290575" lon="10.9034917"><ele>549.6666666666666</ele><time>2026-04-24T17:08:14.029Z</time></trkpt><trkpt lat="44.2906483" lon="10.9034283"><ele>550.3333333333334</ele><time>2026-04-24T17:08:15.029Z</time></trkpt><trkpt lat="44.2907017" lon="10.9033517"><ele>551.0</ele><time>2026-04-24T17:08:16.029Z</time></trkpt><trkpt lat="44.2907283" lon="10.903255"><ele>551.6666666666667</ele><time>2026-04-24T17:08:17.028Z</time></trkpt><trkpt lat="44.290705" lon="10.9031417"><ele>552.3333333333334</ele><time>2026-04-24T17:08:18.028Z</time></trkpt><trkpt lat="44.2906483" lon="10.9030417"><ele>553.0</ele><time>2026-04-24T17:08:19.029Z</time></trkpt><trkpt lat="44.2905583" lon="10.9029517"><ele>549.25</ele><time>2026-04-24T17:08:20.029Z</time></trkpt><trkpt lat="44.290445" lon="10.9028733"><ele>545.5</ele><time>2026-04-24T17:08:21.028Z</time></trkpt><trkpt lat="44.290315" lon="10.9027833"><ele>541.75</ele><time>2026-04-24T17:08:22.029Z</time></trkpt><trkpt lat="44.29018" lon="10.9026733"><ele>538.0</ele><time>2026-04-24T17:08:23.028Z</time></trkpt><trkpt lat="44.2900417" lon="10.9025533"><ele>536.3333333333334</ele><time>2026-04-24T17:08:24.029Z</time></trkpt><trkpt lat="44.2899067" lon="10.9024067"><ele>534.6666666666666</ele><time>2026-04-24T17:08:25.029Z</time></trkpt><trkpt lat="44.2897833" lon="10.9022317"><ele>533.0</ele><time>2026-04-24T17:08:26.029Z</time></trkpt><trkpt lat="44.28966" lon="10.9020267"><ele>529.6666666666666</ele><time>2026-04-24T17:08:27.028Z</time></trkpt><trkpt lat="44.289545" lon="10.9018"><ele>526.3333333333334</ele><time>2026-04-24T17:08:28.029Z</time></trkpt><trkpt lat="44.28943" lon="10.9015683"><ele>523.0</ele><time>2026-04-24T17:08:29.029Z</time></trkpt><trkpt lat="44.289315" lon="10.9013267"><ele>522.6666666666667</ele><time>2026-04-24T17:08:30.028Z</time></trkpt><trkpt lat="44.2892033" lon="10.90109"><ele>522.3333333333334</ele><time>2026-04-24T17:08:31.029Z</time></trkpt><trkpt lat="44.2890867" lon="10.90084"><ele>522.0</ele><time>2026-04-24T17:08:32.028Z</time></trkpt><trkpt lat="44.2889633" lon="10.9006"><ele>517.0</ele><time>2026-04-24T17:08:33.029Z</time></trkpt><trkpt lat="44.2888367" lon="10.900365"><ele>512.0</ele><time>2026-04-24T17:08:34.029Z</time></trkpt><trkpt lat="44.2886983" lon="10.900135"><ele>507.0</ele><time>2026-04-24T17:08:35.029Z</time></trkpt><trkpt lat="44.288555" lon="10.8999183"><ele>507.0</ele><time>2026-04-24T17:08:36.029Z</time></trkpt><trkpt lat="44.2884133" lon="10.8997167"><ele>507.0</ele><time>2026-04-24T17:08:37.029Z</time></trkpt><trkpt lat="44.2882967" lon="10.8995017"><ele>507.0</ele><time>2026-04-24T17:08:38.028Z</time></trkpt><trkpt lat="44.28819" lon="10.8992817"><ele>509.33333333333337</ele><time>2026-04-24T17:08:39.029Z</time></trkpt><trkpt lat="44.2880933" lon="10.8990783"><ele>511.6666666666667</ele><time>2026-04-24T17:08:40.028Z</time></trkpt><trkpt lat="44.2880033" lon="10.898885"><ele>514.0</ele><time>2026-04-24T17:08:41.029Z</time></trkpt><trkpt lat="44.287925" lon="10.8987217"><ele>506.0</ele><time>2026-04-24T17:08:42.029Z</time></trkpt><trkpt lat="44.2878683" lon="10.8985617"><ele>498.0</ele><time>2026-04-24T17:08:43.029Z</time></trkpt><trkpt lat="44.2878267" lon="10.8984"><ele>490.0</ele><time>2026-04-24T17:08:44.029Z</time></trkpt><trkpt lat="44.2878033" lon="10.89823"><ele>482.0</ele><time>2026-04-24T17:08:45.029Z</time></trkpt><trkpt lat="44.2877933" lon="10.89806"><ele>482.0</ele><time>2026-04-24T17:08:46.029Z</time></trkpt><trkpt lat="44.28779" lon="10.8979033"><ele>482.0</ele><time>2026-04-24T17:08:47.029Z</time></trkpt><trkpt lat="44.2878017" lon="10.89776"><ele>482.0</ele><time>2026-04-24T17:08:48.029Z</time></trkpt><trkpt lat="44.2878317" lon="10.897605"><ele>482.0</ele><time>2026-04-24T17:08:49.029Z</time></trkpt><trkpt lat="44.28787" lon="10.897445"><ele>482.0</ele><time>2026-04-24T17:08:50.029Z</time></trkpt><trkpt lat="44.2879083" lon="10.8972983"><ele>482.00000000000006</ele><time>2026-04-24T17:08:51.028Z</time></trkpt><trkpt lat="44.28795" lon="10.8971817"><ele>482.00000000000006</ele><time>2026-04-24T17:08:52.029Z</time></trkpt><trkpt lat="44.2880083" lon="10.89709"><ele>482.0</ele><time>2026-04-24T17:08:53.029Z</time></trkpt><trkpt lat="44.2880933" lon="10.8970217"><ele>482.0</ele><time>2026-04-24T17:08:54.029Z</time></trkpt><trkpt lat="44.2882133" lon="10.896965"><ele>492.0</ele><time>2026-04-24T17:08:55.029Z</time></trkpt><trkpt lat="44.2883483" lon="10.8969117"><ele>502.0</ele><time>2026-04-24T17:08:56.029Z</time></trkpt><trkpt lat="44.2884817" lon="10.8968683"><ele>512.0</ele><time>2026-04-24T17:08:57.029Z</time></trkpt><trkpt lat="44.2886083" lon="10.8968133"><ele>522.0</ele><time>2026-04-24T17:08:58.029Z</time></trkpt><trkpt lat="44.2887317" lon="10.896755"><ele>515.6666666666666</ele><time>2026-04-24T17:08:59.029Z</time></trkpt><trkpt lat="44.288865" lon="10.8966883"><ele>509.3333333333333</ele><time>2026-04-24T17:09:00.029Z</time></trkpt><trkpt lat="44.288995" lon="10.8965867"><ele>503.0</ele><time>2026-04-24T17:09:01.028Z</time></trkpt><trkpt lat="44.2891317" lon="10.8964733"><ele>503.0</ele><time>2026-04-24T17:09:02.029Z</time></trkpt><trkpt lat="44.2892733" lon="10.8963567"><ele>503.0</ele><time>2026-04-24T17:09:03.029Z</time></trkpt><trkpt lat="44.289425" lon="10.8962383"><ele>503.0</ele><time>2026-04-24T17:09:04.029Z</time></trkpt><trkpt lat="44.28958" lon="10.896145"><ele>503.0</ele><time>2026-04-24T17:09:05.029Z</time></trkpt><trkpt lat="44.2897317" lon="10.8960633"><ele>503.0</ele><time>2026-04-24T17:09:06.028Z</time></trkpt><trkpt lat="44.2898817" lon="10.8959983"><ele>503.0</ele><time>2026-04-24T17:09:07.029Z</time></trkpt><trkpt lat="44.2900283" lon="10.8959517"><ele>504.5</ele><time>2026-04-24T17:09:08.029Z</time></trkpt><trkpt lat="44.290175" lon="10.89592"><ele>506.0</ele><time>2026-04-24T17:09:09.029Z</time></trkpt><trkpt lat="44.2903167" lon="10.895915"><ele>507.5</ele><time>2026-04-24T17:09:10.029Z</time></trkpt><trkpt lat="44.2904617" lon="10.8959317"><ele>509.0</ele><time>2026-04-24T17:09:11.029Z</time></trkpt><trkpt lat="44.2906017" lon="10.8959917"><ele>509.0</ele><time>2026-04-24T17:09:12.029Z</time></trkpt><trkpt lat="44.29074" lon="10.896055"><ele>509.0</ele><time>2026-04-24T17:09:13.028Z</time></trkpt><trkpt lat="44.2908683" lon="10.8961183"><ele>509.0</ele><time>2026-04-24T17:09:14.029Z</time></trkpt><trkpt lat="44.290995" lon="10.896165"><ele>509.0</ele><time>2026-04-24T17:09:15.028Z</time></trkpt><trkpt lat="44.2911117" lon="10.8961667"><ele>509.0</ele><time>2026-04-24T17:09:16.029Z</time></trkpt><trkpt lat="44.2912433" lon="10.8961333"><ele>509.0</ele><time>2026-04-24T17:09:17.029Z</time></trkpt><trkpt lat="44.2913967" lon="10.8960967"><ele>509.0</ele><time>2026-04-24T17:09:18.029Z</time></trkpt><trkpt lat="44.2915467" lon="10.8960717"><ele>509.0</ele><time>2026-04-24T17:09:19.029Z</time></trkpt><trkpt lat="44.2917" lon="10.8960633"><ele>505.66666666666663</ele><time>2026-04-24T17:09:20.029Z</time></trkpt><trkpt lat="44.2918583" lon="10.8960833"><ele>502.33333333333337</ele><time>2026-04-24T17:09:21.028Z</time></trkpt><trkpt lat="44.2920133" lon="10.89612"><ele>499.0</ele><time>2026-04-24T17:09:22.028Z</time></trkpt><trkpt lat="44.2921567" lon="10.89615"><ele>497.6</ele><time>2026-04-24T17:09:23.029Z</time></trkpt><trkpt lat="44.2922867" lon="10.8961617"><ele>496.2</ele><time>2026-04-24T17:09:24.028Z</time></trkpt><trkpt lat="44.292395" lon="10.8961617"><ele>494.80000000000007</ele><time>2026-04-24T17:09:25.029Z</time></trkpt><trkpt lat="44.2924783" lon="10.8961483"><ele>493.40000000000003</ele><time>2026-04-24T17:09:26.029Z</time></trkpt><trkpt lat="44.2925467" lon="10.89614"><ele>492.0</ele><time>2026-04-24T17:09:27.028Z</time></trkpt><trkpt lat="44.29263" lon="10.8961267"><ele>492.0</ele><time>2026-04-24T17:09:29.029Z</time></trkpt><trkpt lat="44.29272" lon="10.896085"><ele>492.00000000000006</ele><time>2026-04-24T17:10:38.029Z</time></trkpt><trkpt lat="44.292795" lon="10.8960667"><ele>492.00000000000006</ele><time>2026-04-24T17:10:40.029Z</time></trkpt><trkpt lat="44.2929" lon="10.896125"><ele>492.0</ele><time>2026-04-24T17:10:42.029Z</time></trkpt><trkpt lat="44.29296" lon="10.8961933"><ele>492.0</ele><time>2026-04-24T17:10:43.029Z</time></trkpt><trkpt lat="44.2930183" lon="10.8962917"><ele>492.0</ele><time>2026-04-24T17:10:44.028Z</time></trkpt><trkpt lat="44.2930667" lon="10.896415"><ele>492.00000000000006</ele><time>2026-04-24T17:10:45.029Z</time></trkpt><trkpt lat="44.293125" lon="10.8965417"><ele>492.00000000000006</ele><time>2026-04-24T17:10:46.029Z</time></trkpt><trkpt lat="44.2932017" lon="10.89666"><ele>492.0</ele><time>2026-04-24T17:10:47.028Z</time></trkpt><trkpt lat="44.2932933" lon="10.896755"><ele>492.0</ele><time>2026-04-24T17:10:48.028Z</time></trkpt><trkpt lat="44.29339" lon="10.896835"><ele>494.0</ele><time>2026-04-24T17:10:49.028Z</time></trkpt><trkpt lat="44.2934817" lon="10.8969"><ele>496.00000000000006</ele><time>2026-04-24T17:10:50.029Z</time></trkpt><trkpt lat="44.29358" lon="10.8969467"><ele>498.00000000000006</ele><time>2026-04-24T17:10:51.029Z</time></trkpt><trkpt lat="44.2936817" lon="10.8969517"><ele>500.0</ele><time>2026-04-24T17:10:52.029Z</time></trkpt><trkpt lat="44.2937783" lon="10.896915"><ele>502.0</ele><time>2026-04-24T17:10:53.029Z</time></trkpt><trkpt lat="44.2938633" lon="10.8968483"><ele>496.0</ele><time>2026-04-24T17:10:54.028Z</time></trkpt><trkpt lat="44.293955" lon="10.8967867"><ele>490.00000000000006</ele><time>2026-04-24T17:10:55.029Z</time></trkpt><trkpt lat="44.294055" lon="10.8967483"><ele>484.00000000000006</ele><time>2026-04-24T17:10:56.028Z</time></trkpt><trkpt lat="44.2941583" lon="10.89675"><ele>478.0</ele><time>2026-04-24T17:10:57.029Z</time></trkpt><trkpt lat="44.2942433" lon="10.8968167"><ele>472.0</ele><time>2026-04-24T17:10:58.029Z</time></trkpt><trkpt lat="44.2943083" lon="10.8969367"><ele>472.0</ele><time>2026-04-24T17:10:59.028Z</time></trkpt><trkpt lat="44.29435" lon="10.8970917"><ele>472.0</ele><time>2026-04-24T17:11:00.029Z</time></trkpt><trkpt lat="44.29439" lon="10.89726"><ele>472.0</ele><time>2026-04-24T17:11:01.029Z</time></trkpt><trkpt lat="44.2944333" lon="10.897445"><ele>472.0</ele><time>2026-04-24T17:11:02.029Z</time></trkpt><trkpt lat="44.2944867" lon="10.897635"><ele>478.33333333333337</ele><time>2026-04-24T17:11:03.029Z</time></trkpt><trkpt lat="44.2945617" lon="10.8978333"><ele>484.66666666666663</ele><time>2026-04-24T17:11:04.029Z</time></trkpt><trkpt lat="44.2946633" lon="10.89803"><ele>491.0</ele><time>2026-04-24T17:11:05.029Z</time></trkpt><trkpt lat="44.29478" lon="10.8982283"><ele>479.3333333333333</ele><time>2026-04-24T17:11:06.028Z</time></trkpt><trkpt lat="44.2948883" lon="10.8984217"><ele>467.66666666666663</ele><time>2026-04-24T17:11:07.029Z</time></trkpt><trkpt lat="44.2949883" lon="10.8986217"><ele>456.0</ele><time>2026-04-24T17:11:08.028Z</time></trkpt><trkpt lat="44.2950633" lon="10.89885"><ele>456.0</ele><time>2026-04-24T17:11:09.029Z</time></trkpt><trkpt lat="44.2951133" lon="10.8990867"><ele>456.0</ele><time>2026-04-24T17:11:10.029Z</time></trkpt><trkpt lat="44.2951517" lon="10.899305"><ele>456.0</ele><time>2026-04-24T17:11:11.029Z</time></trkpt><trkpt lat="44.2951967" lon="10.8995"><ele>458.5</ele><time>2026-04-24T17:11:12.029Z</time></trkpt><trkpt lat="44.2952683" lon="10.89967"><ele>461.0</ele><time>2026-04-24T17:11:13.029Z</time></trkpt><trkpt lat="44.2953767" lon="10.8998083"><ele>463.5</ele><time>2026-04-24T17:11:14.029Z</time></trkpt><trkpt lat="44.2955067" lon="10.899935"><ele>466.0</ele><time>2026-04-24T17:11:15.029Z</time></trkpt><trkpt lat="44.295645" lon="10.9000717"><ele>461.0</ele><time>2026-04-24T17:11:16.029Z</time></trkpt><trkpt lat="44.2957817" lon="10.9002217"><ele>456.0</ele><time>2026-04-24T17:11:17.028Z</time></trkpt><trkpt lat="44.295925" lon="10.900365"><ele>451.0</ele><time>2026-04-24T17:11:18.029Z</time></trkpt><trkpt lat="44.2960733" lon="10.9004967"><ele>451.0</ele><time>2026-04-24T17:11:19.029Z</time></trkpt><trkpt lat="44.2962233" lon="10.900625"><ele>451.0</ele><time>2026-04-24T17:11:20.029Z</time></trkpt><trkpt lat="44.29638" lon="10.900745"><ele>451.0</ele><time>2026-04-24T17:11:21.029Z</time></trkpt><trkpt lat="44.2965367" lon="10.9008517"><ele>453.5</ele><time>2026-04-24T17:11:22.029Z</time></trkpt><trkpt lat="44.2966833" lon="10.9009433"><ele>456.0</ele><time>2026-04-24T17:11:23.029Z</time></trkpt><trkpt lat="44.29682" lon="10.90101"><ele>458.5</ele><time>2026-04-24T17:11:24.029Z</time></trkpt><trkpt lat="44.296955" lon="10.9010567"><ele>461.0</ele><time>2026-04-24T17:11:25.029Z</time></trkpt><trkpt lat="44.2970967" lon="10.9010717"><ele>461.0</ele><time>2026-04-24T17:11:26.029Z</time></trkpt><trkpt lat="44.2972467" lon="10.9010567"><ele>461.0</ele><time>2026-04-24T17:11:27.029Z</time></trkpt><trkpt lat="44.297405" lon="10.9010067"><ele>461.0</ele><time>2026-04-24T17:11:28.028Z</time></trkpt><trkpt lat="44.29757" lon="10.9009367"><ele>452.3333333333333</ele><time>2026-04-24T17:11:29.029Z</time></trkpt><trkpt lat="44.2977317" lon="10.9008717"><ele>443.66666666666663</ele><time>2026-04-24T17:11:30.028Z</time></trkpt><trkpt lat="44.2978767" lon="10.900815"><ele>435.0</ele><time>2026-04-24T17:11:31.029Z</time></trkpt><trkpt lat="44.2980117" lon="10.90078"><ele>433.25</ele><time>2026-04-24T17:11:32.029Z</time></trkpt><trkpt lat="44.2981283" lon="10.900765"><ele>431.5</ele><time>2026-04-24T17:11:33.029Z</time></trkpt><trkpt lat="44.2982433" lon="10.9007733"><ele>429.75</ele><time>2026-04-24T17:11:34.029Z</time></trkpt><trkpt lat="44.2983633" lon="10.9008233"><ele>428.0</ele><time>2026-04-24T17:11:35.029Z</time></trkpt><trkpt lat="44.2984833" lon="10.9009017"><ele>428.66666666666663</ele><time>2026-04-24T17:11:36.029Z</time></trkpt><trkpt lat="44.2986183" lon="10.9009767"><ele>429.33333333333337</ele><time>2026-04-24T17:11:37.029Z</time></trkpt><trkpt lat="44.2987717" lon="10.9010367"><ele>430.0</ele><time>2026-04-24T17:11:38.029Z</time></trkpt><trkpt lat="44.2989283" lon="10.901085"><ele>430.0</ele><time>2026-04-24T17:11:39.029Z</time></trkpt><trkpt lat="44.2990667" lon="10.9011383"><ele>430.0</ele><time>2026-04-24T17:11:40.029Z</time></trkpt><trkpt lat="44.2991733" lon="10.9011867"><ele>430.0</ele><time>2026-04-24T17:11:41.029Z</time></trkpt><trkpt lat="44.299265" lon="10.9012767"><ele>430.0</ele><time>2026-04-24T17:11:42.029Z</time></trkpt><trkpt lat="44.2993333" lon="10.9013983"><ele>430.0</ele><time>2026-04-24T17:11:43.029Z</time></trkpt><trkpt lat="44.2993817" lon="10.9015533"><ele>430.0</ele><time>2026-04-24T17:11:44.029Z</time></trkpt><trkpt lat="44.2994283" lon="10.901735"><ele>430.0</ele><time>2026-04-24T17:11:45.028Z</time></trkpt><trkpt lat="44.299495" lon="10.9019033"><ele>430.0</ele><time>2026-04-24T17:11:46.029Z</time></trkpt><trkpt lat="44.299545" lon="10.90208"><ele>432.25</ele><time>2026-04-24T17:11:47.029Z</time></trkpt><trkpt lat="44.2995683" lon="10.9022517"><ele>434.5</ele><time>2026-04-24T17:11:48.028Z</time></trkpt><trkpt lat="44.29956" lon="10.9024267"><ele>436.75</ele><time>2026-04-24T17:11:49.028Z</time></trkpt><trkpt lat="44.2995333" lon="10.9026183"><ele>439.0</ele><time>2026-04-24T17:11:50.029Z</time></trkpt><trkpt lat="44.2995167" lon="10.902805"><ele>439.0</ele><time>2026-04-24T17:11:51.028Z</time></trkpt><trkpt lat="44.299505" lon="10.9029867"><ele>439.0</ele><time>2026-04-24T17:11:52.029Z</time></trkpt><trkpt lat="44.2994967" lon="10.9031517"><ele>439.0</ele><time>2026-04-24T17:11:53.029Z</time></trkpt><trkpt lat="44.299495" lon="10.903305"><ele>439.0</ele><time>2026-04-24T17:11:54.028Z</time></trkpt><trkpt lat="44.29951" lon="10.9034367"><ele>442.25</ele><time>2026-04-24T17:11:55.029Z</time></trkpt><trkpt lat="44.2995483" lon="10.9035717"><ele>445.5</ele><time>2026-04-24T17:11:56.029Z</time></trkpt><trkpt lat="44.2996167" lon="10.903695"><ele>448.75</ele><time>2026-04-24T17:11:57.029Z</time></trkpt><trkpt lat="44.2997117" lon="10.9037867"><ele>452.0</ele><time>2026-04-24T17:11:58.029Z</time></trkpt><trkpt lat="44.2998433" lon="10.9038417"><ele>444.75</ele><time>2026-04-24T17:11:59.029Z</time></trkpt><trkpt lat="44.29998" lon="10.9038617"><ele>437.5</ele><time>2026-04-24T17:12:00.029Z</time></trkpt><trkpt lat="44.30013" lon="10.9038483"><ele>430.25</ele><time>2026-04-24T17:12:01.028Z</time></trkpt><trkpt lat="44.30027" lon="10.9038333"><ele>423.0</ele><time>2026-04-24T17:12:02.029Z</time></trkpt><trkpt lat="44.3003967" lon="10.90382"><ele>423.0</ele><time>2026-04-24T17:12:03.029Z</time></trkpt><trkpt lat="44.3005133" lon="10.9038167"><ele>423.0</ele><time>2026-04-24T17:12:04.029Z</time></trkpt><trkpt lat="44.30061" lon="10.9038517"><ele>423.0</ele><time>2026-04-24T17:12:05.029Z</time></trkpt><trkpt lat="44.3007017" lon="10.9039217"><ele>423.0</ele><time>2026-04-24T17:12:06.028Z</time></trkpt><trkpt lat="44.3007933" lon="10.9040367"><ele>423.0</ele><time>2026-04-24T17:12:07.028Z</time></trkpt><trkpt lat="44.3009017" lon="10.90414"><ele>424.5</ele><time>2026-04-24T17:12:08.029Z</time></trkpt><trkpt lat="44.3010317" lon="10.9042183"><ele>426.0</ele><time>2026-04-24T17:12:09.029Z</time></trkpt><trkpt lat="44.3011567" lon="10.9042883"><ele>427.5</ele><time>2026-04-24T17:12:10.029Z</time></trkpt><trkpt lat="44.30126" lon="10.9043633"><ele>429.0</ele><time>2026-04-24T17:12:11.029Z</time></trkpt><trkpt lat="44.301335" lon="10.9044567"><ele>429.0</ele><time>2026-04-24T17:12:12.029Z</time></trkpt><trkpt lat="44.3013833" lon="10.9045917"><ele>429.0</ele><time>2026-04-24T17:12:13.029Z</time></trkpt><trkpt lat="44.3014017" lon="10.9047417"><ele>429.0</ele><time>2026-04-24T17:12:14.029Z</time></trkpt><trkpt lat="44.301425" lon="10.9049133"><ele>429.0</ele><time>2026-04-24T17:12:15.029Z</time></trkpt><trkpt lat="44.301465" lon="10.9050783"><ele>416.0</ele><time>2026-04-24T17:12:16.029Z</time></trkpt><trkpt lat="44.3014933" lon="10.90524"><ele>403.0</ele><time>2026-04-24T17:12:17.028Z</time></trkpt><trkpt lat="44.301505" lon="10.90539"><ele>390.0</ele><time>2026-04-24T17:12:18.029Z</time></trkpt><trkpt lat="44.301475" lon="10.9055633"><ele>377.0</ele><time>2026-04-24T17:12:19.029Z</time></trkpt><trkpt lat="44.30143" lon="10.905735"><ele>389.6666666666667</ele><time>2026-04-24T17:12:20.029Z</time></trkpt><trkpt lat="44.301375" lon="10.9059317"><ele>402.33333333333337</ele><time>2026-04-24T17:12:21.029Z</time></trkpt><trkpt lat="44.3013283" lon="10.9061417"><ele>415.0</ele><time>2026-04-24T17:12:22.028Z</time></trkpt><trkpt lat="44.301265" lon="10.9063433"><ele>415.0</ele><time>2026-04-24T17:12:23.029Z</time></trkpt><trkpt lat="44.3012117" lon="10.9065167"><ele>415.0</ele><time>2026-04-24T17:12:24.029Z</time></trkpt><trkpt lat="44.3011617" lon="10.9066667"><ele>415.0</ele><time>2026-04-24T17:12:25.028Z</time></trkpt><trkpt lat="44.3011533" lon="10.9068067"><ele>415.0</ele><time>2026-04-24T17:12:26.029Z</time></trkpt><trkpt lat="44.30117" lon="10.9069267"><ele>415.0</ele><time>2026-04-24T17:12:27.029Z</time></trkpt><trkpt lat="44.3012083" lon="10.9070283"><ele>412.8</ele><time>2026-04-24T17:12:28.029Z</time></trkpt><trkpt lat="44.301285" lon="10.9070933"><ele>410.6</ele><time>2026-04-24T17:12:29.029Z</time></trkpt><trkpt lat="44.3013917" lon="10.9071267"><ele>408.4</ele><time>2026-04-24T17:12:30.028Z</time></trkpt><trkpt lat="44.3015033" lon="10.907165"><ele>406.2</ele><time>2026-04-24T17:12:31.029Z</time></trkpt><trkpt lat="44.301625" lon="10.9071917"><ele>404.0</ele><time>2026-04-24T17:12:32.028Z</time></trkpt><trkpt lat="44.3017483" lon="10.907185"><ele>401.25</ele><time>2026-04-24T17:12:33.029Z</time></trkpt><trkpt lat="44.30188" lon="10.907155"><ele>398.5</ele><time>2026-04-24T17:12:34.029Z</time></trkpt><trkpt lat="44.3020167" lon="10.9071017"><ele>395.75</ele><time>2026-04-24T17:12:35.028Z</time></trkpt><trkpt lat="44.3021633" lon="10.9070417"><ele>393.0</ele><time>2026-04-24T17:12:36.029Z</time></trkpt><trkpt lat="44.3023267" lon="10.9070017"><ele>393.0</ele><time>2026-04-24T17:12:37.029Z</time></trkpt><trkpt lat="44.3024933" lon="10.906975"><ele>393.0</ele><time>2026-04-24T17:12:38.028Z</time></trkpt><trkpt lat="44.302655" lon="10.9069617"><ele>393.0</ele><time>2026-04-24T17:12:39.028Z</time></trkpt><trkpt lat="44.3028067" lon="10.906955"><ele>393.0</ele><time>2026-04-24T17:12:40.028Z</time></trkpt><trkpt lat="44.302955" lon="10.90697"><ele>393.0</ele><time>2026-04-24T17:12:41.029Z</time></trkpt><trkpt lat="44.3031" lon="10.9070117"><ele>393.0</ele><time>2026-04-24T17:12:42.029Z</time></trkpt><trkpt lat="44.303245" lon="10.9070717"><ele>393.0</ele><time>2026-04-24T17:12:43.029Z</time></trkpt><trkpt lat="44.3033717" lon="10.9071333"><ele>391.2</ele><time>2026-04-24T17:12:44.029Z</time></trkpt><trkpt lat="44.3034767" lon="10.9072"><ele>389.4</ele><time>2026-04-24T17:12:45.028Z</time></trkpt><trkpt lat="44.3035683" lon="10.9072783"><ele>387.59999999999997</ele><time>2026-04-24T17:12:46.028Z</time></trkpt><trkpt lat="44.3036333" lon="10.9073883"><ele>385.79999999999995</ele><time>2026-04-24T17:12:47.029Z</time></trkpt><trkpt lat="44.3036767" lon="10.9075317"><ele>384.0</ele><time>2026-04-24T17:12:48.029Z</time></trkpt><trkpt lat="44.3036917" lon="10.90769"><ele>380.75</ele><time>2026-04-24T17:12:49.028Z</time></trkpt><trkpt lat="44.3037283" lon="10.9078433"><ele>377.5</ele><time>2026-04-24T17:12:50.029Z</time></trkpt><trkpt lat="44.3037983" lon="10.90798"><ele>374.25</ele><time>2026-04-24T17:12:51.029Z</time></trkpt><trkpt lat="44.3039133" lon="10.9080867"><ele>371.0</ele><time>2026-04-24T17:12:52.029Z</time></trkpt><trkpt lat="44.3040567" lon="10.9081667"><ele>371.0</ele><time>2026-04-24T17:12:53.029Z</time></trkpt><trkpt lat="44.3041933" lon="10.9082483"><ele>371.0</ele><time>2026-04-24T17:12:54.029Z</time></trkpt><trkpt lat="44.3043167" lon="10.90833"><ele>371.0</ele><time>2026-04-24T17:12:55.029Z</time></trkpt><trkpt lat="44.304415" lon="10.9084433"><ele>371.0</ele><time>2026-04-24T17:12:56.029Z</time></trkpt><trkpt lat="44.3044883" lon="10.90859"><ele>375.5</ele><time>2026-04-24T17:12:57.029Z</time></trkpt><trkpt lat="44.3045483" lon="10.9087683"><ele>380.0</ele><time>2026-04-24T17:12:58.029Z</time></trkpt><trkpt lat="44.3045917" lon="10.9089617"><ele>384.5</ele><time>2026-04-24T17:12:59.029Z</time></trkpt><trkpt lat="44.3046517" lon="10.9091583"><ele>389.0</ele><time>2026-04-24T17:13:00.029Z</time></trkpt><trkpt lat="44.3047317" lon="10.9093583"><ele>380.66666666666663</ele><time>2026-04-24T17:13:01.029Z</time></trkpt><trkpt lat="44.3048333" lon="10.9095567"><ele>372.3333333333333</ele><time>2026-04-24T17:13:02.029Z</time></trkpt><trkpt lat="44.3049633" lon="10.909745"><ele>364.0</ele><time>2026-04-24T17:13:03.028Z</time></trkpt><trkpt lat="44.30509" lon="10.9099217"><ele>370.0</ele><time>2026-04-24T17:13:04.029Z</time></trkpt><trkpt lat="44.3052117" lon="10.910085"><ele>376.0</ele><time>2026-04-24T17:13:05.028Z</time></trkpt><trkpt lat="44.3053267" lon="10.9102433"><ele>382.0</ele><time>2026-04-24T17:13:06.028Z</time></trkpt><trkpt lat="44.30543" lon="10.91041"><ele>382.0</ele><time>2026-04-24T17:13:07.029Z</time></trkpt><trkpt lat="44.30553" lon="10.910575"><ele>382.0</ele><time>2026-04-24T17:13:08.029Z</time></trkpt><trkpt lat="44.3055983" lon="10.910745"><ele>382.0</ele><time>2026-04-24T17:13:09.028Z</time></trkpt><trkpt lat="44.3056483" lon="10.9109"><ele>382.0</ele><time>2026-04-24T17:13:10.029Z</time></trkpt><trkpt lat="44.3056967" lon="10.911035"><ele>376.25</ele><time>2026-04-24T17:13:11.029Z</time></trkpt><trkpt lat="44.30577" lon="10.9111467"><ele>370.5</ele><time>2026-04-24T17:13:12.029Z</time></trkpt><trkpt lat="44.305875" lon="10.91122"><ele>364.75</ele><time>2026-04-24T17:13:13.028Z</time></trkpt><trkpt lat="44.3060083" lon="10.9112717"><ele>359.0</ele><time>2026-04-24T17:13:14.028Z</time></trkpt><trkpt lat="44.306155" lon="10.911285"><ele>359.0</ele><time>2026-04-24T17:13:15.029Z</time></trkpt><trkpt lat="44.3063067" lon="10.91128"><ele>359.0</ele><time>2026-04-24T17:13:16.029Z</time></trkpt><trkpt lat="44.3064733" lon="10.911265"><ele>359.0</ele><time>2026-04-24T17:13:17.029Z</time></trkpt><trkpt lat="44.3066467" lon="10.9112433"><ele>356.0</ele><time>2026-04-24T17:13:18.029Z</time></trkpt><trkpt lat="44.30682" lon="10.9112233"><ele>353.0</ele><time>2026-04-24T17:13:19.029Z</time></trkpt><trkpt lat="44.3069717" lon="10.911205"><ele>350.0</ele><time>2026-04-24T17:13:20.028Z</time></trkpt><trkpt lat="44.30711" lon="10.9111983"><ele>350.0</ele><time>2026-04-24T17:13:21.028Z</time></trkpt><trkpt lat="44.307215" lon="10.911185"><ele>350.0</ele><time>2026-04-24T17:13:22.028Z</time></trkpt><trkpt lat="44.3072967" lon="10.9111533"><ele>350.0</ele><time>2026-04-24T17:13:23.028Z</time></trkpt><trkpt lat="44.3073633" lon="10.9111033"><ele>350.0</ele><time>2026-04-24T17:13:24.029Z</time></trkpt><trkpt lat="44.3074017" lon="10.9110267"><ele>350.0</ele><time>2026-04-24T17:13:25.029Z</time></trkpt><trkpt lat="44.3073867" lon="10.91093"><ele>350.0</ele><time>2026-04-24T17:13:26.029Z</time></trkpt><trkpt lat="44.307345" lon="10.9108533"><ele>350.0</ele><time>2026-04-24T17:13:27.029Z</time></trkpt><trkpt lat="44.3072733" lon="10.91081"><ele>350.0</ele><time>2026-04-24T17:13:28.028Z</time></trkpt><trkpt lat="44.3071883" lon="10.9108217"><ele>350.0</ele><time>2026-04-24T17:13:29.029Z</time></trkpt><trkpt lat="44.307095" lon="10.9108767"><ele>350.0</ele><time>2026-04-24T17:13:30.029Z</time></trkpt><trkpt lat="44.30699" lon="10.9109333"><ele>350.0</ele><time>2026-04-24T17:13:31.029Z</time></trkpt><trkpt lat="44.30687" lon="10.9109683"><ele>350.0</ele><time>2026-04-24T17:13:32.029Z</time></trkpt><trkpt lat="44.306745" lon="10.910965"><ele>350.0</ele><time>2026-04-24T17:13:33.028Z</time></trkpt><trkpt lat="44.3066367" lon="10.91093"><ele>350.0</ele><time>2026-04-24T17:13:34.028Z</time></trkpt><trkpt lat="44.3065417" lon="10.91086"><ele>350.0</ele><time>2026-04-24T17:13:35.028Z</time></trkpt><trkpt lat="44.3064667" lon="10.9107517"><ele>349.25</ele><time>2026-04-24T17:13:36.029Z</time></trkpt><trkpt lat="44.3063967" lon="10.9106183"><ele>348.5</ele><time>2026-04-24T17:13:37.029Z</time></trkpt><trkpt lat="44.3063233" lon="10.9104733"><ele>347.75</ele><time>2026-04-24T17:13:38.028Z</time></trkpt><trkpt lat="44.3062417" lon="10.9103533"><ele>347.0</ele><time>2026-04-24T17:13:39.028Z</time></trkpt><trkpt lat="44.3061667" lon="10.9102367"><ele>347.0</ele><time>2026-04-24T17:13:40.029Z</time></trkpt><trkpt lat="44.306105" lon="10.9101383"><ele>347.0</ele><time>2026-04-24T17:13:41.029Z</time></trkpt><trkpt lat="44.3060767" lon="10.9100317"><ele>347.0</ele><time>2026-04-24T17:13:42.029Z</time></trkpt><trkpt lat="44.3060933" lon="10.9099333"><ele>347.0</ele><time>2026-04-24T17:13:43.029Z</time></trkpt><trkpt lat="44.3061467" lon="10.9098533"><ele>347.0</ele><time>2026-04-24T17:13:44.028Z</time></trkpt><trkpt lat="44.3062217" lon="10.9098183"><ele>347.0</ele><time>2026-04-24T17:13:45.029Z</time></trkpt><trkpt lat="44.306305" lon="10.9098633"><ele>343.6</ele><time>2026-04-24T17:13:46.028Z</time></trkpt><trkpt lat="44.3063717" lon="10.909955"><ele>340.20000000000005</ele><time>2026-04-24T17:13:47.029Z</time></trkpt><trkpt lat="44.3064233" lon="10.9101"><ele>336.8</ele><time>2026-04-24T17:13:48.029Z</time></trkpt><trkpt lat="44.306465" lon="10.910245"><ele>333.4</ele><time>2026-04-24T17:13:49.029Z</time></trkpt><trkpt lat="44.3065117" lon="10.910375"><ele>330.0</ele><time>2026-04-24T17:13:50.029Z</time></trkpt><trkpt lat="44.3065733" lon="10.9104583"><ele>328.8</ele><time>2026-04-24T17:13:51.029Z</time></trkpt><trkpt lat="44.30666" lon="10.91049"><ele>327.6</ele><time>2026-04-24T17:13:52.029Z</time></trkpt><trkpt lat="44.306745" lon="10.9104667"><ele>326.4</ele><time>2026-04-24T17:13:53.029Z</time></trkpt><trkpt lat="44.306835" lon="10.9103983"><ele>325.2</ele><time>2026-04-24T17:13:54.028Z</time></trkpt><trkpt lat="44.3069283" lon="10.9103017"><ele>324.0</ele><time>2026-04-24T17:13:55.029Z</time></trkpt><trkpt lat="44.3070133" lon="10.910185"><ele>319.5</ele><time>2026-04-24T17:13:56.029Z</time></trkpt><trkpt lat="44.3070767" lon="10.91006"><ele>315.0</ele><time>2026-04-24T17:13:57.029Z</time></trkpt><trkpt lat="44.307105" lon="10.9099067"><ele>310.5</ele><time>2026-04-24T17:13:58.028Z</time></trkpt><trkpt lat="44.3071067" lon="10.9097383"><ele>306.0</ele><time>2026-04-24T17:13:59.029Z</time></trkpt><trkpt lat="44.3070883" lon="10.9095733"><ele>306.0</ele><time>2026-04-24T17:14:00.029Z</time></trkpt><trkpt lat="44.3070983" lon="10.9094333"><ele>306.0</ele><time>2026-04-24T17:14:01.029Z</time></trkpt><trkpt lat="44.3071283" lon="10.909295"><ele>306.0</ele><time>2026-04-24T17:14:02.028Z</time></trkpt><trkpt lat="44.3071917" lon="10.90917"><ele>306.0</ele><time>2026-04-24T17:14:03.029Z</time></trkpt><trkpt lat="44.307275" lon="10.909065"><ele>306.0</ele><time>2026-04-24T17:14:04.029Z</time></trkpt><trkpt lat="44.3073817" lon="10.9090167"><ele>306.25</ele><time>2026-04-24T17:14:05.029Z</time></trkpt><trkpt lat="44.30749" lon="10.90902"><ele>306.5</ele><time>2026-04-24T17:14:06.029Z</time></trkpt><trkpt lat="44.3075967" lon="10.9090733"><ele>306.75</ele><time>2026-04-24T17:14:07.029Z</time></trkpt><trkpt lat="44.3077117" lon="10.909165"><ele>307.0</ele><time>2026-04-24T17:14:08.029Z</time></trkpt><trkpt lat="44.30783" lon="10.909275"><ele>307.0</ele><time>2026-04-24T17:14:09.029Z</time></trkpt><trkpt lat="44.3079567" lon="10.9093967"><ele>307.0</ele><time>2026-04-24T17:14:10.029Z</time></trkpt><trkpt lat="44.3080833" lon="10.9095217"><ele>307.0</ele><time>2026-04-24T17:14:11.029Z</time></trkpt><trkpt lat="44.30821" lon="10.90964"><ele>302.0</ele><time>2026-04-24T17:14:12.029Z</time></trkpt><trkpt lat="44.3083383" lon="10.9097617"><ele>297.0</ele><time>2026-04-24T17:14:13.028Z</time></trkpt><trkpt lat="44.3084867" lon="10.9098567"><ele>292.0</ele><time>2026-04-24T17:14:14.029Z</time></trkpt><trkpt lat="44.3086383" lon="10.9099267"><ele>292.0</ele><time>2026-04-24T17:14:15.028Z</time></trkpt><trkpt lat="44.3087917" lon="10.9099883"><ele>292.0</ele><time>2026-04-24T17:14:16.029Z</time></trkpt><trkpt lat="44.30893" lon="10.91006"><ele>292.0</ele><time>2026-04-24T17:14:17.029Z</time></trkpt><trkpt lat="44.3090633" lon="10.910125"><ele>292.0</ele><time>2026-04-24T17:14:18.028Z</time></trkpt><trkpt lat="44.309185" lon="10.9102083"><ele>290.75</ele><time>2026-04-24T17:14:19.029Z</time></trkpt><trkpt lat="44.3092917" lon="10.9103033"><ele>289.5</ele><time>2026-04-24T17:14:20.028Z</time></trkpt><trkpt lat="44.3093883" lon="10.910415"><ele>288.25</ele><time>2026-04-24T17:14:21.029Z</time></trkpt><trkpt lat="44.309465" lon="10.9105567"><ele>287.0</ele><time>2026-04-24T17:14:22.029Z</time></trkpt><trkpt lat="44.3095117" lon="10.91071"><ele>287.0</ele><time>2026-04-24T17:14:23.029Z</time></trkpt><trkpt lat="44.3095533" lon="10.910865"><ele>287.0</ele><time>2026-04-24T17:14:24.029Z</time></trkpt><trkpt lat="44.309605" lon="10.9110317"><ele>287.0</ele><time>2026-04-24T17:14:25.029Z</time></trkpt><trkpt lat="44.309685" lon="10.9111933"><ele>287.0</ele><time>2026-04-24T17:14:26.029Z</time></trkpt><trkpt lat="44.309785" lon="10.9113283"><ele>281.75</ele><time>2026-04-24T17:14:27.029Z</time></trkpt><trkpt lat="44.30989" lon="10.9114283"><ele>276.5</ele><time>2026-04-24T17:14:28.029Z</time></trkpt><trkpt lat="44.3100067" lon="10.911505"><ele>271.25</ele><time>2026-04-24T17:14:29.028Z</time></trkpt><trkpt lat="44.3101367" lon="10.9115483"><ele>266.0</ele><time>2026-04-24T17:14:30.028Z</time></trkpt><trkpt lat="44.3102833" lon="10.9115633"><ele>266.0</ele><time>2026-04-24T17:14:31.028Z</time></trkpt><trkpt lat="44.310425" lon="10.911555"><ele>266.0</ele><time>2026-04-24T17:14:32.029Z</time></trkpt><trkpt lat="44.3105617" lon="10.911525"><ele>266.0</ele><time>2026-04-24T17:14:33.029Z</time></trkpt><trkpt lat="44.3106917" lon="10.911465"><ele>266.0</ele><time>2026-04-24T17:14:34.029Z</time></trkpt><trkpt lat="44.310815" lon="10.9113883"><ele>265.40000000000003</ele><time>2026-04-24T17:14:35.028Z</time></trkpt><trkpt lat="44.3109317" lon="10.911325"><ele>264.8</ele><time>2026-04-24T17:14:36.028Z</time></trkpt><trkpt lat="44.31102" lon="10.911285"><ele>264.20000000000005</ele><time>2026-04-24T17:14:37.029Z</time></trkpt><trkpt lat="44.3111017" lon="10.9112433"><ele>263.6</ele><time>2026-04-24T17:14:38.029Z</time></trkpt><trkpt lat="44.3111667" lon="10.91122"><ele>263.0</ele><time>2026-04-24T17:14:39.029Z</time></trkpt><trkpt lat="44.3112667" lon="10.9112367"><ele>263.0</ele><time>2026-04-24T17:14:41.029Z</time></trkpt><trkpt lat="44.311325" lon="10.91129"><ele>263.0</ele><time>2026-04-24T17:14:42.029Z</time></trkpt><trkpt lat="44.31139" lon="10.9113867"><ele>263.0</ele><time>2026-04-24T17:14:43.029Z</time></trkpt><trkpt lat="44.3114817" lon="10.9115"><ele>263.0</ele><time>2026-04-24T17:14:44.029Z</time></trkpt><trkpt lat="44.3116083" lon="10.9116083"><ele>263.0</ele><time>2026-04-24T17:14:45.029Z</time></trkpt><trkpt lat="44.3117533" lon="10.9116967"><ele>265.0</ele><time>2026-04-24T17:14:46.029Z</time></trkpt><trkpt lat="44.3119267" lon="10.9117717"><ele>267.0</ele><time>2026-04-24T17:14:47.028Z</time></trkpt><trkpt lat="44.31211" lon="10.91185"><ele>269.0</ele><time>2026-04-24T17:14:48.028Z</time></trkpt><trkpt lat="44.3122783" lon="10.9119367"><ele>270.6666666666667</ele><time>2026-04-24T17:14:49.029Z</time></trkpt><trkpt lat="44.3124217" lon="10.9120483"><ele>272.3333333333333</ele><time>2026-04-24T17:14:50.028Z</time></trkpt><trkpt lat="44.31256" lon="10.9121733"><ele>274.0</ele><time>2026-04-24T17:14:51.029Z</time></trkpt><trkpt lat="44.3127017" lon="10.9122783"><ele>274.0</ele><time>2026-04-24T17:14:52.028Z</time></trkpt><trkpt lat="44.312855" lon="10.9123517"><ele>274.0</ele><time>2026-04-24T17:14:53.028Z</time></trkpt><trkpt lat="44.3130083" lon="10.9123917"><ele>274.0</ele><time>2026-04-24T17:14:54.028Z</time></trkpt><trkpt lat="44.3131567" lon="10.91241"><ele>274.5</ele><time>2026-04-24T17:14:55.029Z</time></trkpt><trkpt lat="44.313295" lon="10.9124417"><ele>275.0</ele><time>2026-04-24T17:14:56.029Z</time></trkpt><trkpt lat="44.3134167" lon="10.9125233"><ele>275.5</ele><time>2026-04-24T17:14:57.029Z</time></trkpt><trkpt lat="44.3135183" lon="10.91264"><ele>276.0</ele><time>2026-04-24T17:14:58.029Z</time></trkpt><trkpt lat="44.3136083" lon="10.91279"><ele>276.0</ele><time>2026-04-24T17:14:59.028Z</time></trkpt><trkpt lat="44.3136983" lon="10.912955"><ele>276.0</ele><time>2026-04-24T17:15:00.029Z</time></trkpt><trkpt lat="44.313795" lon="10.913135"><ele>276.0</ele><time>2026-04-24T17:15:01.028Z</time></trkpt><trkpt lat="44.3139033" lon="10.9133033"><ele>278.3333333333333</ele><time>2026-04-24T17:15:02.028Z</time></trkpt><trkpt lat="44.3140267" lon="10.9134483"><ele>280.66666666666663</ele><time>2026-04-24T17:15:03.029Z</time></trkpt><trkpt lat="44.31416" lon="10.91359"><ele>283.0</ele><time>2026-04-24T17:15:04.029Z</time></trkpt><trkpt lat="44.3142867" lon="10.9137383"><ele>283.0</ele><time>2026-04-24T17:15:05.028Z</time></trkpt><trkpt lat="44.31441" lon="10.9139067"><ele>283.0</ele><time>2026-04-24T17:15:06.028Z</time></trkpt><trkpt lat="44.3145167" lon="10.9140917"><ele>283.0</ele><time>2026-04-24T17:15:07.029Z</time></trkpt><trkpt lat="44.3146117" lon="10.9142917"><ele>281.75</ele><time>2026-04-24T17:15:08.028Z</time></trkpt><trkpt lat="44.3146867" lon="10.91449"><ele>280.5</ele><time>2026-04-24T17:15:09.029Z</time></trkpt><trkpt lat="44.31474" lon="10.9146767"><ele>279.25</ele><time>2026-04-24T17:15:10.029Z</time></trkpt><trkpt lat="44.31478" lon="10.9148583"><ele>278.0</ele><time>2026-04-24T17:15:11.029Z</time></trkpt><trkpt lat="44.31481" lon="10.9150517"><ele>278.25</ele><time>2026-04-24T17:15:12.029Z</time></trkpt><trkpt lat="44.31481" lon="10.91523"><ele>278.5</ele><time>2026-04-24T17:15:13.029Z</time></trkpt><trkpt lat="44.3147883" lon="10.9154083"><ele>278.75</ele><time>2026-04-24T17:15:14.028Z</time></trkpt><trkpt lat="44.3147467" lon="10.9155883"><ele>279.0</ele><time>2026-04-24T17:15:15.029Z</time></trkpt><trkpt lat="44.3146817" lon="10.9157567"><ele>279.5</ele><time>2026-04-24T17:15:16.029Z</time></trkpt><trkpt lat="44.3146" lon="10.9159217"><ele>280.0</ele><time>2026-04-24T17:15:17.029Z</time></trkpt><trkpt lat="44.3145217" lon="10.9160983"><ele>280.5</ele><time>2026-04-24T17:15:18.029Z</time></trkpt><trkpt lat="44.3144633" lon="10.9162667"><ele>281.0</ele><time>2026-04-24T17:15:19.028Z</time></trkpt><trkpt lat="44.3144283" lon="10.916435"><ele>281.0</ele><time>2026-04-24T17:15:20.029Z</time></trkpt><trkpt lat="44.3144217" lon="10.9166233"><ele>281.0</ele><time>2026-04-24T17:15:21.027Z</time></trkpt><trkpt lat="44.3144467" lon="10.9168167"><ele>281.0</ele><time>2026-04-24T17:15:22.028Z</time></trkpt><trkpt lat="44.3145" lon="10.91702"><ele>281.0</ele><time>2026-04-24T17:15:23.029Z</time></trkpt><trkpt lat="44.3145783" lon="10.9172333"><ele>281.0</ele><time>2026-04-24T17:15:24.029Z</time></trkpt><trkpt lat="44.314675" lon="10.9174517"><ele>281.0</ele><time>2026-04-24T17:15:25.029Z</time></trkpt><trkpt lat="44.3147983" lon="10.9176883"><ele>281.0</ele><time>2026-04-24T17:15:26.028Z</time></trkpt><trkpt lat="44.31494" lon="10.9179283"><ele>281.0</ele><time>2026-04-24T17:15:27.028Z</time></trkpt><trkpt lat="44.315095" lon="10.91818"><ele>281.0</ele><time>2026-04-24T17:15:28.029Z</time></trkpt><trkpt lat="44.3152517" lon="10.91843"><ele>282.33333333333337</ele><time>2026-04-24T17:15:29.029Z</time></trkpt><trkpt lat="44.3154" lon="10.9186717"><ele>283.6666666666667</ele><time>2026-04-24T17:15:30.029Z</time></trkpt><trkpt lat="44.315545" lon="10.9189017"><ele>285.0</ele><time>2026-04-24T17:15:31.029Z</time></trkpt><trkpt lat="44.3156817" lon="10.9191217"><ele>282.6666666666667</ele><time>2026-04-24T17:15:32.028Z</time></trkpt><trkpt lat="44.3158117" lon="10.91933"><ele>280.33333333333337</ele><time>2026-04-24T17:15:33.029Z</time></trkpt><trkpt lat="44.31595" lon="10.9195233"><ele>278.0</ele><time>2026-04-24T17:15:34.029Z</time></trkpt><trkpt lat="44.31611" lon="10.9197033"><ele>278.0</ele><time>2026-04-24T17:15:35.029Z</time></trkpt><trkpt lat="44.3162867" lon="10.9198683"><ele>278.0</ele><time>2026-04-24T17:15:36.028Z</time></trkpt><trkpt lat="44.3164683" lon="10.9200017"><ele>278.0</ele><time>2026-04-24T17:15:37.029Z</time></trkpt><trkpt lat="44.316675" lon="10.9201317"><ele>272.5</ele><time>2026-04-24T17:15:38.029Z</time></trkpt><trkpt lat="44.3168867" lon="10.920255"><ele>267.0</ele><time>2026-04-24T17:15:39.029Z</time></trkpt><trkpt lat="44.317105" lon="10.9203717"><ele>269.0</ele><time>2026-04-24T17:15:40.028Z</time></trkpt><trkpt lat="44.3173117" lon="10.9204883"><ele>271.0</ele><time>2026-04-24T17:15:41.029Z</time></trkpt><trkpt lat="44.3175117" lon="10.9205967"><ele>273.0</ele><time>2026-04-24T17:15:42.029Z</time></trkpt><trkpt lat="44.3176983" lon="10.92071"><ele>273.0</ele><time>2026-04-24T17:15:43.029Z</time></trkpt><trkpt lat="44.317875" lon="10.92084"><ele>273.0</ele><time>2026-04-24T17:15:44.029Z</time></trkpt><trkpt lat="44.318045" lon="10.9209917"><ele>273.0</ele><time>2026-04-24T17:15:45.029Z</time></trkpt><trkpt lat="44.3182067" lon="10.9211683"><ele>271.0</ele><time>2026-04-24T17:15:46.029Z</time></trkpt><trkpt lat="44.31836" lon="10.921355"><ele>269.0</ele><time>2026-04-24T17:15:47.029Z</time></trkpt><trkpt lat="44.31851" lon="10.9215467"><ele>267.0</ele><time>2026-04-24T17:15:48.029Z</time></trkpt><trkpt lat="44.3186717" lon="10.921735"><ele>266.3333333333333</ele><time>2026-04-24T17:15:49.029Z</time></trkpt><trkpt lat="44.3188417" lon="10.9219083"><ele>265.66666666666663</ele><time>2026-04-24T17:15:50.029Z</time></trkpt><trkpt lat="44.31901" lon="10.9220733"><ele>265.0</ele><time>2026-04-24T17:15:51.029Z</time></trkpt><trkpt lat="44.31917" lon="10.9222317"><ele>265.0</ele><time>2026-04-24T17:15:52.028Z</time></trkpt><trkpt lat="44.31932" lon="10.9224067"><ele>265.0</ele><time>2026-04-24T17:15:53.029Z</time></trkpt><trkpt lat="44.3194383" lon="10.9226033"><ele>265.0</ele><time>2026-04-24T17:15:54.028Z</time></trkpt><trkpt lat="44.31955" lon="10.9228167"><ele>267.0</ele><time>2026-04-24T17:15:55.029Z</time></trkpt><trkpt lat="44.3196733" lon="10.9230283"><ele>269.0</ele><time>2026-04-24T17:15:56.029Z</time></trkpt><trkpt lat="44.3198033" lon="10.923245"><ele>271.0</ele><time>2026-04-24T17:15:57.029Z</time></trkpt><trkpt lat="44.3199333" lon="10.92346"><ele>267.0</ele><time>2026-04-24T17:15:58.029Z</time></trkpt><trkpt lat="44.3200717" lon="10.9236667"><ele>263.0</ele><time>2026-04-24T17:15:59.028Z</time></trkpt><trkpt lat="44.32021" lon="10.9238717"><ele>259.0</ele><time>2026-04-24T17:16:00.028Z</time></trkpt><trkpt lat="44.320355" lon="10.9240733"><ele>258.3333333333333</ele><time>2026-04-24T17:16:01.028Z</time></trkpt><trkpt lat="44.3205" lon="10.924285"><ele>257.6666666666667</ele><time>2026-04-24T17:16:02.029Z</time></trkpt><trkpt lat="44.3206483" lon="10.9244867"><ele>257.0</ele><time>2026-04-24T17:16:03.029Z</time></trkpt><trkpt lat="44.32081" lon="10.9246867"><ele>257.0</ele><time>2026-04-24T17:16:04.029Z</time></trkpt><trkpt lat="44.3209733" lon="10.9248833"><ele>257.0</ele><time>2026-04-24T17:16:05.028Z</time></trkpt><trkpt lat="44.3211467" lon="10.9250733"><ele>257.0</ele><time>2026-04-24T17:16:06.029Z</time></trkpt><trkpt lat="44.3213117" lon="10.9252433"><ele>255.66666666666669</ele><time>2026-04-24T17:16:07.028Z</time></trkpt><trkpt lat="44.321475" lon="10.9254083"><ele>254.33333333333331</ele><time>2026-04-24T17:16:08.028Z</time></trkpt><trkpt lat="44.32162" lon="10.9255567"><ele>253.0</ele><time>2026-04-24T17:16:09.029Z</time></trkpt><trkpt lat="44.321755" lon="10.925685"><ele>253.0</ele><time>2026-04-24T17:16:10.028Z</time></trkpt><trkpt lat="44.32189" lon="10.9257933"><ele>253.0</ele><time>2026-04-24T17:16:11.028Z</time></trkpt><trkpt lat="44.3220383" lon="10.9258767"><ele>253.0</ele><time>2026-04-24T17:16:12.029Z</time></trkpt><trkpt lat="44.322205" lon="10.9259417"><ele>250.66666666666666</ele><time>2026-04-24T17:16:13.029Z</time></trkpt><trkpt lat="44.3223833" lon="10.9260033"><ele>248.33333333333331</ele><time>2026-04-24T17:16:14.029Z</time></trkpt><trkpt lat="44.3225617" lon="10.926055"><ele>246.0</ele><time>2026-04-24T17:16:15.029Z</time></trkpt><trkpt lat="44.322745" lon="10.926085"><ele>246.0</ele><time>2026-04-24T17:16:16.029Z</time></trkpt><trkpt lat="44.32293" lon="10.9261017"><ele>246.0</ele><time>2026-04-24T17:16:17.029Z</time></trkpt><trkpt lat="44.323125" lon="10.926085"><ele>246.0</ele><time>2026-04-24T17:16:18.028Z</time></trkpt><trkpt lat="44.3233267" lon="10.9260567"><ele>246.33333333333331</ele><time>2026-04-24T17:16:19.028Z</time></trkpt><trkpt lat="44.3235383" lon="10.9260167"><ele>246.66666666666666</ele><time>2026-04-24T17:16:20.029Z</time></trkpt><trkpt lat="44.3237517" lon="10.9259967"><ele>247.0</ele><time>2026-04-24T17:16:21.029Z</time></trkpt><trkpt lat="44.3239767" lon="10.9259933"><ele>247.0</ele><time>2026-04-24T17:16:22.029Z</time></trkpt><trkpt lat="44.324195" lon="10.9260133"><ele>247.0</ele><time>2026-04-24T17:16:23.029Z</time></trkpt><trkpt lat="44.32441" lon="10.9260517"><ele>247.0</ele><time>2026-04-24T17:16:24.029Z</time></trkpt><trkpt lat="44.3246117" lon="10.9260917"><ele>247.0</ele><time>2026-04-24T17:16:25.029Z</time></trkpt><trkpt lat="44.3248033" lon="10.9261217"><ele>247.0</ele><time>2026-04-24T17:16:26.029Z</time></trkpt><trkpt lat="44.3250017" lon="10.9261317"><ele>247.0</ele><time>2026-04-24T17:16:27.029Z</time></trkpt><trkpt lat="44.3252067" lon="10.9261133"><ele>247.0</ele><time>2026-04-24T17:16:28.029Z</time></trkpt><trkpt lat="44.3254167" lon="10.9260733"><ele>247.0</ele><time>2026-04-24T17:16:29.029Z</time></trkpt><trkpt lat="44.3256133" lon="10.92603"><ele>247.0</ele><time>2026-04-24T17:16:30.029Z</time></trkpt><trkpt lat="44.325795" lon="10.9259983"><ele>246.66666666666666</ele><time>2026-04-24T17:16:31.029Z</time></trkpt><trkpt lat="44.3259667" lon="10.9259817"><ele>246.33333333333331</ele><time>2026-04-24T17:16:32.028Z</time></trkpt><trkpt lat="44.32613" lon="10.926"><ele>246.0</ele><time>2026-04-24T17:16:33.028Z</time></trkpt><trkpt lat="44.3262817" lon="10.92605"><ele>245.66666666666669</ele><time>2026-04-24T17:16:34.028Z</time></trkpt><trkpt lat="44.3264283" lon="10.9261333"><ele>245.33333333333334</ele><time>2026-04-24T17:16:35.028Z</time></trkpt><trkpt lat="44.3265867" lon="10.9262533"><ele>245.0</ele><time>2026-04-24T17:16:36.029Z</time></trkpt><trkpt lat="44.326755" lon="10.9264033"><ele>245.0</ele><time>2026-04-24T17:16:37.029Z</time></trkpt><trkpt lat="44.3269333" lon="10.9265683"><ele>245.0</ele><time>2026-04-24T17:16:38.028Z</time></trkpt><trkpt lat="44.3271217" lon="10.9267383"><ele>245.0</ele><time>2026-04-24T17:16:39.029Z</time></trkpt><trkpt lat="44.3273117" lon="10.9269067"><ele>244.5</ele><time>2026-04-24T17:16:40.028Z</time></trkpt><trkpt lat="44.327505" lon="10.9270833"><ele>244.0</ele><time>2026-04-24T17:16:41.029Z</time></trkpt><trkpt lat="44.3277017" lon="10.9272533"><ele>244.0</ele><time>2026-04-24T17:16:42.029Z</time></trkpt><trkpt lat="44.3278883" lon="10.9274217"><ele>244.0</ele><time>2026-04-24T17:16:43.029Z</time></trkpt><trkpt lat="44.3280717" lon="10.9275783"><ele>244.0</ele><time>2026-04-24T17:16:44.028Z</time></trkpt><trkpt lat="44.3282667" lon="10.927705"><ele>243.33333333333331</ele><time>2026-04-24T17:16:45.029Z</time></trkpt><trkpt lat="44.328465" lon="10.9278267"><ele>242.66666666666669</ele><time>2026-04-24T17:16:46.029Z</time></trkpt><trkpt lat="44.32867" lon="10.9279483"><ele>242.0</ele><time>2026-04-24T17:16:47.029Z</time></trkpt><trkpt lat="44.32889" lon="10.9280533"><ele>242.5</ele><time>2026-04-24T17:16:48.029Z</time></trkpt><trkpt lat="44.3291117" lon="10.9281467"><ele>243.0</ele><time>2026-04-24T17:16:49.029Z</time></trkpt><trkpt lat="44.329335" lon="10.9282417"><ele>243.0</ele><time>2026-04-24T17:16:50.029Z</time></trkpt><trkpt lat="44.32956" lon="10.92833"><ele>243.0</ele><time>2026-04-24T17:16:51.029Z</time></trkpt><trkpt lat="44.3297717" lon="10.9284217"><ele>241.66666666666669</ele><time>2026-04-24T17:16:52.028Z</time></trkpt><trkpt lat="44.3299717" lon="10.92851"><ele>240.33333333333334</ele><time>2026-04-24T17:16:53.028Z</time></trkpt><trkpt lat="44.3301733" lon="10.9285867"><ele>239.0</ele><time>2026-04-24T17:16:54.029Z</time></trkpt><trkpt lat="44.3303783" lon="10.928645"><ele>239.0</ele><time>2026-04-24T17:16:55.029Z</time></trkpt><trkpt lat="44.33058" lon="10.9286833"><ele>239.0</ele><time>2026-04-24T17:16:56.029Z</time></trkpt><trkpt lat="44.3307833" lon="10.9286883"><ele>239.0</ele><time>2026-04-24T17:16:57.028Z</time></trkpt><trkpt lat="44.3309833" lon="10.9286733"><ele>239.0</ele><time>2026-04-24T17:16:58.029Z</time></trkpt><trkpt lat="44.33118" lon="10.9286233"><ele>239.0</ele><time>2026-04-24T17:16:59.029Z</time></trkpt><trkpt lat="44.33138" lon="10.92857"><ele>239.0</ele><time>2026-04-24T17:17:00.029Z</time></trkpt><trkpt lat="44.33158" lon="10.9285133"><ele>238.66666666666669</ele><time>2026-04-24T17:17:01.029Z</time></trkpt><trkpt lat="44.331785" lon="10.9284483"><ele>238.33333333333331</ele><time>2026-04-24T17:17:02.028Z</time></trkpt><trkpt lat="44.331995" lon="10.92838"><ele>238.0</ele><time>2026-04-24T17:17:03.028Z</time></trkpt><trkpt lat="44.3322033" lon="10.9282983"><ele>241.0</ele><time>2026-04-24T17:17:04.028Z</time></trkpt><trkpt lat="44.33241" lon="10.928205"><ele>244.0</ele><time>2026-04-24T17:17:05.028Z</time></trkpt><trkpt lat="44.3326117" lon="10.9281183"><ele>247.0</ele><time>2026-04-24T17:17:06.029Z</time></trkpt><trkpt lat="44.3328133" lon="10.9280533"><ele>247.0</ele><time>2026-04-24T17:17:07.028Z</time></trkpt><trkpt lat="44.3330083" lon="10.9280233"><ele>247.0</ele><time>2026-04-24T17:17:08.029Z</time></trkpt><trkpt lat="44.3332117" lon="10.9280117"><ele>247.0</ele><time>2026-04-24T17:17:09.029Z</time></trkpt><trkpt lat="44.33342" lon="10.9280133"><ele>246.0</ele><time>2026-04-24T17:17:10.029Z</time></trkpt><trkpt lat="44.3336317" lon="10.9280117"><ele>245.0</ele><time>2026-04-24T17:17:11.028Z</time></trkpt><trkpt lat="44.3338267" lon="10.928015"><ele>244.0</ele><time>2026-04-24T17:17:12.029Z</time></trkpt><trkpt lat="44.3340117" lon="10.928015"><ele>243.33333333333331</ele><time>2026-04-24T17:17:13.029Z</time></trkpt><trkpt lat="44.3341817" lon="10.9280017"><ele>242.66666666666669</ele><time>2026-04-24T17:17:14.029Z</time></trkpt><trkpt lat="44.3343417" lon="10.9279767"><ele>242.0</ele><time>2026-04-24T17:17:15.028Z</time></trkpt><trkpt lat="44.3344917" lon="10.9279317"><ele>242.0</ele><time>2026-04-24T17:17:16.029Z</time></trkpt><trkpt lat="44.3346333" lon="10.9278367"><ele>242.0</ele><time>2026-04-24T17:17:17.029Z</time></trkpt><trkpt lat="44.3347817" lon="10.9277017"><ele>242.0</ele><time>2026-04-24T17:17:18.029Z</time></trkpt><trkpt lat="44.33493" lon="10.92753"><ele>242.66666666666669</ele><time>2026-04-24T17:17:19.029Z</time></trkpt><trkpt lat="44.33508" lon="10.92734"><ele>243.33333333333331</ele><time>2026-04-24T17:17:20.029Z</time></trkpt><trkpt lat="44.3352383" lon="10.92715"><ele>244.0</ele><time>2026-04-24T17:17:21.029Z</time></trkpt><trkpt lat="44.3353967" lon="10.9269617"><ele>243.66666666666666</ele><time>2026-04-24T17:17:22.029Z</time></trkpt><trkpt lat="44.3355683" lon="10.9267917"><ele>243.33333333333331</ele><time>2026-04-24T17:17:23.029Z</time></trkpt><trkpt lat="44.3357533" lon="10.926635"><ele>243.0</ele><time>2026-04-24T17:17:24.029Z</time></trkpt><trkpt lat="44.3359433" lon="10.926485"><ele>243.0</ele><time>2026-04-24T17:17:25.029Z</time></trkpt><trkpt lat="44.3361317" lon="10.9263467"><ele>243.0</ele><time>2026-04-24T17:17:26.028Z</time></trkpt><trkpt lat="44.3363267" lon="10.9262367"><ele>243.0</ele><time>2026-04-24T17:17:27.028Z</time></trkpt><trkpt lat="44.3365317" lon="10.9261467"><ele>240.33333333333331</ele><time>2026-04-24T17:17:28.029Z</time></trkpt><trkpt lat="44.3367517" lon="10.9260817"><ele>237.66666666666666</ele><time>2026-04-24T17:17:29.029Z</time></trkpt><trkpt lat="44.3369683" lon="10.9260383"><ele>235.0</ele><time>2026-04-24T17:17:30.029Z</time></trkpt><trkpt lat="44.3372133" lon="10.9259833"><ele>234.0</ele><time>2026-04-24T17:17:31.029Z</time></trkpt><trkpt lat="44.33746" lon="10.92592"><ele>233.0</ele><time>2026-04-24T17:17:32.028Z</time></trkpt><trkpt lat="44.3377067" lon="10.92586"><ele>236.5</ele><time>2026-04-24T17:17:33.029Z</time></trkpt><trkpt lat="44.3379433" lon="10.9257933"><ele>240.0</ele><time>2026-04-24T17:17:34.029Z</time></trkpt><trkpt lat="44.33817" lon="10.92573"><ele>240.0</ele><time>2026-04-24T17:17:35.029Z</time></trkpt><trkpt lat="44.3383783" lon="10.9256617"><ele>240.0</ele><time>2026-04-24T17:17:36.029Z</time></trkpt><trkpt lat="44.3385883" lon="10.9255783"><ele>240.0</ele><time>2026-04-24T17:17:37.029Z</time></trkpt><trkpt lat="44.33879" lon="10.9254717"><ele>239.0</ele><time>2026-04-24T17:17:38.028Z</time></trkpt><trkpt lat="44.3389867" lon="10.9253267"><ele>238.0</ele><time>2026-04-24T17:17:39.029Z</time></trkpt><trkpt lat="44.339185" lon="10.92518"><ele>237.0</ele><time>2026-04-24T17:17:40.029Z</time></trkpt><trkpt lat="44.3393967" lon="10.9250383"><ele>239.0</ele><time>2026-04-24T17:17:41.029Z</time></trkpt><trkpt lat="44.339615" lon="10.924905"><ele>241.0</ele><time>2026-04-24T17:17:42.029Z</time></trkpt><trkpt lat="44.33984" lon="10.9247833"><ele>241.0</ele><time>2026-04-24T17:17:43.029Z</time></trkpt><trkpt lat="44.3400717" lon="10.9246683"><ele>241.0</ele><time>2026-04-24T17:17:44.029Z</time></trkpt><trkpt lat="44.340295" lon="10.9245517"><ele>241.0</ele><time>2026-04-24T17:17:45.028Z</time></trkpt><trkpt lat="44.3405233" lon="10.9244133"><ele>241.0</ele><time>2026-04-24T17:17:46.029Z</time></trkpt><trkpt lat="44.3407517" lon="10.924275"><ele>243.0</ele><time>2026-04-24T17:17:47.029Z</time></trkpt><trkpt lat="44.34097" lon="10.92415"><ele>245.0</ele><time>2026-04-24T17:17:48.029Z</time></trkpt><trkpt lat="44.3411733" lon="10.9240267"><ele>245.0</ele><time>2026-04-24T17:17:49.029Z</time></trkpt><trkpt lat="44.3413633" lon="10.92391"><ele>245.0</ele><time>2026-04-24T17:17:50.029Z</time></trkpt><trkpt lat="44.3415333" lon="10.923805"><ele>245.0</ele><time>2026-04-24T17:17:51.029Z</time></trkpt><trkpt lat="44.3416833" lon="10.9237233"><ele>243.0</ele><time>2026-04-24T17:17:52.029Z</time></trkpt><trkpt lat="44.3418233" lon="10.9236867"><ele>241.0</ele><time>2026-04-24T17:17:53.029Z</time></trkpt><trkpt lat="44.3419667" lon="10.9236783"><ele>239.0</ele><time>2026-04-24T17:17:54.029Z</time></trkpt><trkpt lat="44.3421283" lon="10.9236933"><ele>237.0</ele><time>2026-04-24T17:17:55.029Z</time></trkpt><trkpt lat="44.3422983" lon="10.92374"><ele>237.0</ele><time>2026-04-24T17:17:56.029Z</time></trkpt><trkpt lat="44.3424883" lon="10.923795"><ele>237.0</ele><time>2026-04-24T17:17:57.029Z</time></trkpt><trkpt lat="44.3426883" lon="10.92386"><ele>237.0</ele><time>2026-04-24T17:17:58.029Z</time></trkpt><trkpt lat="44.3428983" lon="10.9239267"><ele>238.33333333333331</ele><time>2026-04-24T17:17:59.028Z</time></trkpt><trkpt lat="44.3431067" lon="10.9240033"><ele>239.66666666666666</ele><time>2026-04-24T17:18:00.029Z</time></trkpt><trkpt lat="44.3432833" lon="10.9240733"><ele>241.0</ele><time>2026-04-24T17:18:01.028Z</time></trkpt><trkpt lat="44.3434283" lon="10.9241217"><ele>241.0</ele><time>2026-04-24T17:18:02.029Z</time></trkpt><trkpt lat="44.3435533" lon="10.9241367"><ele>241.0</ele><time>2026-04-24T17:18:03.029Z</time></trkpt><trkpt lat="44.3436767" lon="10.9241283"><ele>241.0</ele><time>2026-04-24T17:18:04.028Z</time></trkpt><trkpt lat="44.3438133" lon="10.924075"><ele>241.0</ele><time>2026-04-24T17:18:05.029Z</time></trkpt><trkpt lat="44.3439633" lon="10.92402"><ele>240.0</ele><time>2026-04-24T17:18:06.028Z</time></trkpt><trkpt lat="44.3441217" lon="10.9239733"><ele>239.0</ele><time>2026-04-24T17:18:07.028Z</time></trkpt><trkpt lat="44.3442967" lon="10.92396"><ele>238.0</ele><time>2026-04-24T17:18:08.029Z</time></trkpt><trkpt lat="44.3444783" lon="10.92397"><ele>238.0</ele><time>2026-04-24T17:18:09.029Z</time></trkpt><trkpt lat="44.3446517" lon="10.923995"><ele>238.0</ele><time>2026-04-24T17:18:10.029Z</time></trkpt><trkpt lat="44.3448117" lon="10.92404"><ele>238.0</ele><time>2026-04-24T17:18:11.029Z</time></trkpt><trkpt lat="44.3449583" lon="10.9241083"><ele>238.66666666666666</ele><time>2026-04-24T17:18:12.029Z</time></trkpt><trkpt lat="44.3450983" lon="10.9242033"><ele>239.33333333333331</ele><time>2026-04-24T17:18:13.029Z</time></trkpt><trkpt lat="44.3452383" lon="10.92433"><ele>240.0</ele><time>2026-04-24T17:18:14.029Z</time></trkpt><trkpt lat="44.3453817" lon="10.9244583"><ele>239.0</ele><time>2026-04-24T17:18:15.029Z</time></trkpt><trkpt lat="44.34552" lon="10.9245883"><ele>238.0</ele><time>2026-04-24T17:18:16.028Z</time></trkpt><trkpt lat="44.34565" lon="10.9247117"><ele>237.0</ele><time>2026-04-24T17:18:17.028Z</time></trkpt><trkpt lat="44.345775" lon="10.924825"><ele>237.0</ele><time>2026-04-24T17:18:18.029Z</time></trkpt><trkpt lat="44.345905" lon="10.9249267"><ele>237.0</ele><time>2026-04-24T17:18:19.029Z</time></trkpt><trkpt lat="44.3460433" lon="10.9249917"><ele>237.0</ele><time>2026-04-24T17:18:20.029Z</time></trkpt><trkpt lat="44.3461883" lon="10.92504"><ele>237.0</ele><time>2026-04-24T17:18:21.029Z</time></trkpt><trkpt lat="44.3463417" lon="10.9250717"><ele>233.66666666666669</ele><time>2026-04-24T17:18:22.029Z</time></trkpt><trkpt lat="44.3465017" lon="10.92509"><ele>230.33333333333334</ele><time>2026-04-24T17:18:23.029Z</time></trkpt><trkpt lat="44.3466683" lon="10.9251033"><ele>227.0</ele><time>2026-04-24T17:18:24.028Z</time></trkpt><trkpt lat="44.346845" lon="10.92511"><ele>227.0</ele><time>2026-04-24T17:18:25.028Z</time></trkpt><trkpt lat="44.3470233" lon="10.9251167"><ele>227.0</ele><time>2026-04-24T17:18:26.029Z</time></trkpt><trkpt lat="44.3472" lon="10.9251233"><ele>227.0</ele><time>2026-04-24T17:18:27.029Z</time></trkpt><trkpt lat="44.3473733" lon="10.9251233"><ele>228.0</ele><time>2026-04-24T17:18:28.028Z</time></trkpt><trkpt lat="44.34754" lon="10.92511"><ele>229.0</ele><time>2026-04-24T17:18:29.029Z</time></trkpt><trkpt lat="44.3476983" lon="10.92508"><ele>230.0</ele><time>2026-04-24T17:18:30.028Z</time></trkpt><trkpt lat="44.3478417" lon="10.9250233"><ele>232.66666666666669</ele><time>2026-04-24T17:18:31.029Z</time></trkpt><trkpt lat="44.3479917" lon="10.9249433"><ele>235.33333333333331</ele><time>2026-04-24T17:18:32.029Z</time></trkpt><trkpt lat="44.3481533" lon="10.9248517"><ele>238.0</ele><time>2026-04-24T17:18:33.029Z</time></trkpt><trkpt lat="44.34832" lon="10.92477"><ele>238.0</ele><time>2026-04-24T17:18:34.029Z</time></trkpt><trkpt lat="44.3484967" lon="10.9246717"><ele>238.0</ele><time>2026-04-24T17:18:35.029Z</time></trkpt><trkpt lat="44.3486767" lon="10.92458"><ele>238.0</ele><time>2026-04-24T17:18:36.029Z</time></trkpt><trkpt lat="44.3488483" lon="10.924485"><ele>239.0</ele><time>2026-04-24T17:18:37.029Z</time></trkpt><trkpt lat="44.3490017" lon="10.9243917"><ele>240.0</ele><time>2026-04-24T17:18:38.028Z</time></trkpt><trkpt lat="44.3491467" lon="10.9242783"><ele>241.0</ele><time>2026-04-24T17:18:39.029Z</time></trkpt><trkpt lat="44.3492817" lon="10.924125"><ele>241.0</ele><time>2026-04-24T17:18:40.029Z</time></trkpt><trkpt lat="44.3493983" lon="10.92396"><ele>241.0</ele><time>2026-04-24T17:18:41.028Z</time></trkpt><trkpt lat="44.349515" lon="10.9237817"><ele>241.0</ele><time>2026-04-24T17:18:42.029Z</time></trkpt><trkpt lat="44.3496267" lon="10.9236033"><ele>241.0</ele><time>2026-04-24T17:18:43.029Z</time></trkpt><trkpt lat="44.349755" lon="10.92344"><ele>241.0</ele><time>2026-04-24T17:18:44.029Z</time></trkpt><trkpt lat="44.3499" lon="10.9233117"><ele>241.0</ele><time>2026-04-24T17:18:45.029Z</time></trkpt><trkpt lat="44.350075" lon="10.9232133"><ele>241.0</ele><time>2026-04-24T17:18:46.029Z</time></trkpt><trkpt lat="44.3502583" lon="10.9231283"><ele>241.0</ele><time>2026-04-24T17:18:47.029Z</time></trkpt><trkpt lat="44.3504517" lon="10.92303"><ele>241.0</ele><time>2026-04-24T17:18:48.029Z</time></trkpt><trkpt lat="44.3506433" lon="10.9229367"><ele>238.0</ele><time>2026-04-24T17:18:49.029Z</time></trkpt><trkpt lat="44.3508383" lon="10.9228517"><ele>235.0</ele><time>2026-04-24T17:18:50.028Z</time></trkpt><trkpt lat="44.3510083" lon="10.9227667"><ele>232.0</ele><time>2026-04-24T17:18:51.028Z</time></trkpt><trkpt lat="44.351165" lon="10.922685"><ele>232.0</ele><time>2026-04-24T17:18:52.029Z</time></trkpt><trkpt lat="44.3513117" lon="10.92259"><ele>232.0</ele><time>2026-04-24T17:18:53.029Z</time></trkpt><trkpt lat="44.35145" lon="10.9224633"><ele>232.0</ele><time>2026-04-24T17:18:54.029Z</time></trkpt><trkpt lat="44.351585" lon="10.9222967"><ele>233.66666666666666</ele><time>2026-04-24T17:18:55.028Z</time></trkpt><trkpt lat="44.3517183" lon="10.9221283"><ele>235.33333333333331</ele><time>2026-04-24T17:18:56.029Z</time></trkpt><trkpt lat="44.3518667" lon="10.92196"><ele>237.0</ele><time>2026-04-24T17:18:57.029Z</time></trkpt><trkpt lat="44.3520217" lon="10.9218217"><ele>237.66666666666669</ele><time>2026-04-24T17:18:58.029Z</time></trkpt><trkpt lat="44.3521967" lon="10.9216967"><ele>238.33333333333334</ele><time>2026-04-24T17:18:59.029Z</time></trkpt><trkpt lat="44.35239" lon="10.9215967"><ele>239.0</ele><time>2026-04-24T17:19:00.029Z</time></trkpt><trkpt lat="44.352595" lon="10.9215317"><ele>239.0</ele><time>2026-04-24T17:19:01.028Z</time></trkpt><trkpt lat="44.3528083" lon="10.9214667"><ele>239.0</ele><time>2026-04-24T17:19:02.029Z</time></trkpt><trkpt lat="44.3530317" lon="10.921405"><ele>239.0</ele><time>2026-04-24T17:19:03.029Z</time></trkpt><trkpt lat="44.3532667" lon="10.9213367"><ele>233.0</ele><time>2026-04-24T17:19:04.029Z</time></trkpt><trkpt lat="44.3535017" lon="10.92126"><ele>227.0</ele><time>2026-04-24T17:19:05.029Z</time></trkpt><trkpt lat="44.3537267" lon="10.9211917"><ele>225.0</ele><time>2026-04-24T17:19:06.029Z</time></trkpt><trkpt lat="44.3539267" lon="10.9211283"><ele>223.0</ele><time>2026-04-24T17:19:07.029Z</time></trkpt><trkpt lat="44.3541067" lon="10.9210767"><ele>221.0</ele><time>2026-04-24T17:19:08.029Z</time></trkpt><trkpt lat="44.3542783" lon="10.9210467"><ele>221.0</ele><time>2026-04-24T17:19:09.029Z</time></trkpt><trkpt lat="44.354445" lon="10.9210433"><ele>221.0</ele><time>2026-04-24T17:19:10.029Z</time></trkpt><trkpt lat="44.354615" lon="10.9210833"><ele>221.0</ele><time>2026-04-24T17:19:11.029Z</time></trkpt><trkpt lat="44.3547867" lon="10.9211533"><ele>221.33333333333334</ele><time>2026-04-24T17:19:12.029Z</time></trkpt><trkpt lat="44.3549617" lon="10.9212467"><ele>221.66666666666669</ele><time>2026-04-24T17:19:13.029Z</time></trkpt><trkpt lat="44.3551333" lon="10.921345"><ele>222.0</ele><time>2026-04-24T17:19:14.028Z</time></trkpt><trkpt lat="44.3553" lon="10.9214233"><ele>222.0</ele><time>2026-04-24T17:19:15.029Z</time></trkpt><trkpt lat="44.3554567" lon="10.921495"><ele>222.0</ele><time>2026-04-24T17:19:16.029Z</time></trkpt><trkpt lat="44.35561" lon="10.9215633"><ele>222.0</ele><time>2026-04-24T17:19:17.029Z</time></trkpt><trkpt lat="44.3557617" lon="10.9215967"><ele>225.0</ele><time>2026-04-24T17:19:18.029Z</time></trkpt><trkpt lat="44.3559267" lon="10.9215883"><ele>228.0</ele><time>2026-04-24T17:19:19.029Z</time></trkpt><trkpt lat="44.3561033" lon="10.92155"><ele>231.0</ele><time>2026-04-24T17:19:20.029Z</time></trkpt><trkpt lat="44.356285" lon="10.921485"><ele>229.66666666666669</ele><time>2026-04-24T17:19:21.029Z</time></trkpt><trkpt lat="44.3564717" lon="10.92138"><ele>228.33333333333334</ele><time>2026-04-24T17:19:22.029Z</time></trkpt><trkpt lat="44.35666" lon="10.921255"><ele>227.0</ele><time>2026-04-24T17:19:23.029Z</time></trkpt><trkpt lat="44.3568533" lon="10.9211333"><ele>227.0</ele><time>2026-04-24T17:19:24.029Z</time></trkpt><trkpt lat="44.3570417" lon="10.9210283"><ele>227.0</ele><time>2026-04-24T17:19:25.029Z</time></trkpt><trkpt lat="44.3572233" lon="10.9209467"><ele>227.0</ele><time>2026-04-24T17:19:26.028Z</time></trkpt><trkpt lat="44.3573983" lon="10.9208817"><ele>230.0</ele><time>2026-04-24T17:19:27.029Z</time></trkpt><trkpt lat="44.3575667" lon="10.920825"><ele>233.0</ele><time>2026-04-24T17:19:28.029Z</time></trkpt><trkpt lat="44.3577233" lon="10.9207283"><ele>236.0</ele><time>2026-04-24T17:19:29.028Z</time></trkpt><trkpt lat="44.3578683" lon="10.9206117"><ele>236.0</ele><time>2026-04-24T17:19:30.029Z</time></trkpt><trkpt lat="44.35801" lon="10.9204667"><ele>236.0</ele><time>2026-04-24T17:19:31.029Z</time></trkpt><trkpt lat="44.3581567" lon="10.9203117"><ele>236.0</ele><time>2026-04-24T17:19:32.029Z</time></trkpt><trkpt lat="44.3583033" lon="10.9201567"><ele>239.0</ele><time>2026-04-24T17:19:33.029Z</time></trkpt><trkpt lat="44.35845" lon="10.920005"><ele>242.0</ele><time>2026-04-24T17:19:34.029Z</time></trkpt><trkpt lat="44.3585983" lon="10.91986"><ele>245.0</ele><time>2026-04-24T17:19:35.029Z</time></trkpt><trkpt lat="44.3587567" lon="10.9197167"><ele>240.33333333333334</ele><time>2026-04-24T17:19:36.029Z</time></trkpt><trkpt lat="44.3589267" lon="10.9195867"><ele>235.66666666666669</ele><time>2026-04-24T17:19:37.029Z</time></trkpt><trkpt lat="44.3591083" lon="10.9194683"><ele>231.0</ele><time>2026-04-24T17:19:38.029Z</time></trkpt><trkpt lat="44.3592967" lon="10.9193667"><ele>231.0</ele><time>2026-04-24T17:19:39.029Z</time></trkpt><trkpt lat="44.3594783" lon="10.9192783"><ele>231.0</ele><time>2026-04-24T17:19:40.028Z</time></trkpt><trkpt lat="44.359645" lon="10.9191733"><ele>231.0</ele><time>2026-04-24T17:19:41.029Z</time></trkpt><trkpt lat="44.3598017" lon="10.91905"><ele>233.66666666666669</ele><time>2026-04-24T17:19:42.029Z</time></trkpt><trkpt lat="44.3599567" lon="10.91891"><ele>236.33333333333334</ele><time>2026-04-24T17:19:43.029Z</time></trkpt><trkpt lat="44.36012" lon="10.9187483"><ele>239.0</ele><time>2026-04-24T17:19:44.029Z</time></trkpt><trkpt lat="44.3602917" lon="10.9185733"><ele>241.0</ele><time>2026-04-24T17:19:45.028Z</time></trkpt><trkpt lat="44.3604667" lon="10.91838"><ele>243.0</ele><time>2026-04-24T17:19:46.029Z</time></trkpt><trkpt lat="44.3606467" lon="10.918175"><ele>243.0</ele><time>2026-04-24T17:19:47.028Z</time></trkpt><trkpt lat="44.36083" lon="10.9179717"><ele>243.0</ele><time>2026-04-24T17:19:48.029Z</time></trkpt><trkpt lat="44.361015" lon="10.9177567"><ele>245.33333333333331</ele><time>2026-04-24T17:19:49.028Z</time></trkpt><trkpt lat="44.3611833" lon="10.917555"><ele>247.66666666666666</ele><time>2026-04-24T17:19:50.028Z</time></trkpt><trkpt lat="44.3613333" lon="10.91737"><ele>250.0</ele><time>2026-04-24T17:19:51.028Z</time></trkpt><trkpt lat="44.361475" lon="10.9172067"><ele>244.0</ele><time>2026-04-24T17:19:52.029Z</time></trkpt><trkpt lat="44.361615" lon="10.9170817"><ele>238.0</ele><time>2026-04-24T17:19:53.029Z</time></trkpt><trkpt lat="44.36176" lon="10.9169917"><ele>232.0</ele><time>2026-04-24T17:19:54.029Z</time></trkpt><trkpt lat="44.361915" lon="10.9169417"><ele>232.0</ele><time>2026-04-24T17:19:55.029Z</time></trkpt><trkpt lat="44.3620833" lon="10.916915"><ele>232.0</ele><time>2026-04-24T17:19:56.029Z</time></trkpt><trkpt lat="44.3622617" lon="10.9169183"><ele>232.0</ele><time>2026-04-24T17:19:57.029Z</time></trkpt><trkpt lat="44.3624467" lon="10.9169467"><ele>232.0</ele><time>2026-04-24T17:19:58.028Z</time></trkpt><trkpt lat="44.3626417" lon="10.9169783"><ele>232.0</ele><time>2026-04-24T17:19:59.028Z</time></trkpt><trkpt lat="44.3628417" lon="10.9169983"><ele>232.0</ele><time>2026-04-24T17:20:00.029Z</time></trkpt><trkpt lat="44.3630383" lon="10.9170033"><ele>231.66666666666666</ele><time>2026-04-24T17:20:01.029Z</time></trkpt><trkpt lat="44.36323" lon="10.9170033"><ele>231.33333333333331</ele><time>2026-04-24T17:20:02.029Z</time></trkpt><trkpt lat="44.3634417" lon="10.9169617"><ele>231.0</ele><time>2026-04-24T17:20:03.028Z</time></trkpt><trkpt lat="44.3636583" lon="10.9169"><ele>224.5</ele><time>2026-04-24T17:20:04.029Z</time></trkpt><trkpt lat="44.36388" lon="10.9168317"><ele>218.0</ele><time>2026-04-24T17:20:05.029Z</time></trkpt><trkpt lat="44.364115" lon="10.9167583"><ele>228.0</ele><time>2026-04-24T17:20:06.029Z</time></trkpt><trkpt lat="44.3643533" lon="10.9166833"><ele>238.0</ele><time>2026-04-24T17:20:07.029Z</time></trkpt><trkpt lat="44.3646" lon="10.9166017"><ele>231.0</ele><time>2026-04-24T17:20:08.029Z</time></trkpt><trkpt lat="44.3648483" lon="10.91653"><ele>224.0</ele><time>2026-04-24T17:20:09.028Z</time></trkpt><trkpt lat="44.3651083" lon="10.9164483"><ele>224.0</ele><time>2026-04-24T17:20:10.028Z</time></trkpt><trkpt lat="44.36537" lon="10.9163617"><ele>224.0</ele><time>2026-04-24T17:20:11.028Z</time></trkpt><trkpt lat="44.3656333" lon="10.9162733"><ele>221.0</ele><time>2026-04-24T17:20:12.029Z</time></trkpt><trkpt lat="44.3659" lon="10.9161783"><ele>218.0</ele><time>2026-04-24T17:20:13.029Z</time></trkpt><trkpt lat="44.3661667" lon="10.9160717"><ele>216.5</ele><time>2026-04-24T17:20:14.028Z</time></trkpt><trkpt lat="44.3664317" lon="10.9159533"><ele>215.0</ele><time>2026-04-24T17:20:15.029Z</time></trkpt><trkpt lat="44.3666967" lon="10.9158283"><ele>215.0</ele><time>2026-04-24T17:20:16.028Z</time></trkpt><trkpt lat="44.3669667" lon="10.9157"><ele>215.0</ele><time>2026-04-24T17:20:17.029Z</time></trkpt><trkpt lat="44.36723" lon="10.9155733"><ele>213.0</ele><time>2026-04-24T17:20:18.028Z</time></trkpt><trkpt lat="44.367495" lon="10.915445"><ele>211.0</ele><time>2026-04-24T17:20:19.029Z</time></trkpt><trkpt lat="44.3677567" lon="10.9153217"><ele>211.0</ele><time>2026-04-24T17:20:20.029Z</time></trkpt><trkpt lat="44.3680233" lon="10.9151883"><ele>211.0</ele><time>2026-04-24T17:20:21.029Z</time></trkpt><trkpt lat="44.3682883" lon="10.9150633"><ele>216.0</ele><time>2026-04-24T17:20:22.029Z</time></trkpt><trkpt lat="44.3685567" lon="10.91494"><ele>221.0</ele><time>2026-04-24T17:20:23.029Z</time></trkpt><trkpt lat="44.3688167" lon="10.9148267"><ele>218.0</ele><time>2026-04-24T17:20:24.028Z</time></trkpt><trkpt lat="44.3690617" lon="10.9147283"><ele>215.0</ele><time>2026-04-24T17:20:25.029Z</time></trkpt><trkpt lat="44.3692967" lon="10.9146333"><ele>215.0</ele><time>2026-04-24T17:20:26.028Z</time></trkpt><trkpt lat="44.369515" lon="10.9145467"><ele>215.0</ele><time>2026-04-24T17:20:27.029Z</time></trkpt><trkpt lat="44.3697217" lon="10.91446"><ele>215.0</ele><time>2026-04-24T17:20:28.029Z</time></trkpt><trkpt lat="44.369915" lon="10.9143833"><ele>214.0</ele><time>2026-04-24T17:20:29.029Z</time></trkpt><trkpt lat="44.3701133" lon="10.914325"><ele>213.0</ele><time>2026-04-24T17:20:30.029Z</time></trkpt><trkpt lat="44.370315" lon="10.9142917"><ele>212.0</ele><time>2026-04-24T17:20:31.029Z</time></trkpt><trkpt lat="44.3705083" lon="10.914285"><ele>211.66666666666669</ele><time>2026-04-24T17:20:32.029Z</time></trkpt><trkpt lat="44.3706967" lon="10.9142967"><ele>211.33333333333331</ele><time>2026-04-24T17:20:33.029Z</time></trkpt><trkpt lat="44.3708883" lon="10.91431"><ele>211.0</ele><time>2026-04-24T17:20:34.029Z</time></trkpt><trkpt lat="44.37108" lon="10.9143317"><ele>211.0</ele><time>2026-04-24T17:20:35.029Z</time></trkpt><trkpt lat="44.3712767" lon="10.9143467"><ele>211.0</ele><time>2026-04-24T17:20:36.028Z</time></trkpt><trkpt lat="44.3714817" lon="10.91436"><ele>211.0</ele><time>2026-04-24T17:20:37.029Z</time></trkpt><trkpt lat="44.3717" lon="10.9143567"><ele>210.33333333333331</ele><time>2026-04-24T17:20:38.029Z</time></trkpt><trkpt lat="44.371915" lon="10.9143467"><ele>209.66666666666669</ele><time>2026-04-24T17:20:39.029Z</time></trkpt><trkpt lat="44.3721317" lon="10.9143167"><ele>209.0</ele><time>2026-04-24T17:20:40.029Z</time></trkpt><trkpt lat="44.3723467" lon="10.9142783"><ele>212.33333333333334</ele><time>2026-04-24T17:20:41.029Z</time></trkpt><trkpt lat="44.3725617" lon="10.91423"><ele>215.66666666666669</ele><time>2026-04-24T17:20:42.028Z</time></trkpt><trkpt lat="44.3727783" lon="10.914175"><ele>219.0</ele><time>2026-04-24T17:20:43.028Z</time></trkpt><trkpt lat="44.3729833" lon="10.9141217"><ele>218.0</ele><time>2026-04-24T17:20:44.029Z</time></trkpt><trkpt lat="44.373175" lon="10.9140717"><ele>217.0</ele><time>2026-04-24T17:20:45.029Z</time></trkpt><trkpt lat="44.37335" lon="10.91403"><ele>216.0</ele><time>2026-04-24T17:20:46.029Z</time></trkpt><trkpt lat="44.3735167" lon="10.914"><ele>216.0</ele><time>2026-04-24T17:20:47.028Z</time></trkpt><trkpt lat="44.37368" lon="10.91399"><ele>216.0</ele><time>2026-04-24T17:20:48.028Z</time></trkpt><trkpt lat="44.37384" lon="10.91401"><ele>216.0</ele><time>2026-04-24T17:20:49.029Z</time></trkpt><trkpt lat="44.37401" lon="10.9140483"><ele>218.0</ele><time>2026-04-24T17:20:50.028Z</time></trkpt><trkpt lat="44.374175" lon="10.914115"><ele>220.0</ele><time>2026-04-24T17:20:51.029Z</time></trkpt><trkpt lat="44.3743367" lon="10.91421"><ele>222.0</ele><time>2026-04-24T17:20:52.029Z</time></trkpt><trkpt lat="44.3745" lon="10.914295"><ele>219.33333333333331</ele><time>2026-04-24T17:20:53.029Z</time></trkpt><trkpt lat="44.374665" lon="10.9143883"><ele>216.66666666666666</ele><time>2026-04-24T17:20:54.029Z</time></trkpt><trkpt lat="44.3748317" lon="10.9144883"><ele>214.0</ele><time>2026-04-24T17:20:55.028Z</time></trkpt><trkpt lat="44.3750033" lon="10.9145867"><ele>214.0</ele><time>2026-04-24T17:20:56.029Z</time></trkpt><trkpt lat="44.3751767" lon="10.9146767"><ele>214.0</ele><time>2026-04-24T17:20:57.029Z</time></trkpt><trkpt lat="44.3753317" lon="10.9147633"><ele>214.0</ele><time>2026-04-24T17:20:58.029Z</time></trkpt><trkpt lat="44.3754733" lon="10.9148483"><ele>213.25</ele><time>2026-04-24T17:20:59.029Z</time></trkpt><trkpt lat="44.3755967" lon="10.9149533"><ele>212.5</ele><time>2026-04-24T17:21:00.029Z</time></trkpt><trkpt lat="44.3757183" lon="10.915065"><ele>211.75</ele><time>2026-04-24T17:21:01.029Z</time></trkpt><trkpt lat="44.3758367" lon="10.9152"><ele>211.0</ele><time>2026-04-24T17:21:02.029Z</time></trkpt><trkpt lat="44.375945" lon="10.915345"><ele>211.0</ele><time>2026-04-24T17:21:03.029Z</time></trkpt><trkpt lat="44.3760533" lon="10.9154717"><ele>211.0</ele><time>2026-04-24T17:21:04.029Z</time></trkpt><trkpt lat="44.3761633" lon="10.9155767"><ele>211.0</ele><time>2026-04-24T17:21:05.028Z</time></trkpt><trkpt lat="44.3762817" lon="10.9156433"><ele>211.0</ele><time>2026-04-24T17:21:06.029Z</time></trkpt><trkpt lat="44.3764183" lon="10.9156783"><ele>213.33333333333331</ele><time>2026-04-24T17:21:07.029Z</time></trkpt><trkpt lat="44.37657" lon="10.9156817"><ele>215.66666666666669</ele><time>2026-04-24T17:21:08.029Z</time></trkpt><trkpt lat="44.3767183" lon="10.915655"><ele>218.0</ele><time>2026-04-24T17:21:09.029Z</time></trkpt><trkpt lat="44.37687" lon="10.9156033"><ele>218.0</ele><time>2026-04-24T17:21:10.029Z</time></trkpt><trkpt lat="44.3770333" lon="10.9155383"><ele>218.0</ele><time>2026-04-24T17:21:11.029Z</time></trkpt><trkpt lat="44.3772033" lon="10.9154633"><ele>218.0</ele><time>2026-04-24T17:21:12.029Z</time></trkpt><trkpt lat="44.377375" lon="10.915385"><ele>216.66666666666669</ele><time>2026-04-24T17:21:13.028Z</time></trkpt><trkpt lat="44.3775483" lon="10.9152933"><ele>215.33333333333331</ele><time>2026-04-24T17:21:14.029Z</time></trkpt><trkpt lat="44.377725" lon="10.9151917"><ele>214.0</ele><time>2026-04-24T17:21:15.029Z</time></trkpt><trkpt lat="44.37789" lon="10.915065"><ele>213.33333333333331</ele><time>2026-04-24T17:21:16.029Z</time></trkpt><trkpt lat="44.37805" lon="10.9149267"><ele>212.66666666666669</ele><time>2026-04-24T17:21:17.029Z</time></trkpt><trkpt lat="44.3782117" lon="10.9147733"><ele>212.0</ele><time>2026-04-24T17:21:18.028Z</time></trkpt><trkpt lat="44.3783717" lon="10.914605"><ele>212.0</ele><time>2026-04-24T17:21:19.029Z</time></trkpt><trkpt lat="44.37853" lon="10.9144233"><ele>212.0</ele><time>2026-04-24T17:21:20.029Z</time></trkpt><trkpt lat="44.3786917" lon="10.9142467"><ele>212.0</ele><time>2026-04-24T17:21:21.029Z</time></trkpt><trkpt lat="44.3788567" lon="10.914065"><ele>211.0</ele><time>2026-04-24T17:21:22.029Z</time></trkpt><trkpt lat="44.3790333" lon="10.9138683"><ele>210.0</ele><time>2026-04-24T17:21:23.028Z</time></trkpt><trkpt lat="44.3792017" lon="10.9136867"><ele>209.0</ele><time>2026-04-24T17:21:24.029Z</time></trkpt><trkpt lat="44.3793717" lon="10.9135017"><ele>208.0</ele><time>2026-04-24T17:21:25.029Z</time></trkpt><trkpt lat="44.3795383" lon="10.9133267"><ele>207.0</ele><time>2026-04-24T17:21:26.029Z</time></trkpt><trkpt lat="44.3797033" lon="10.9131633"><ele>206.0</ele><time>2026-04-24T17:21:27.028Z</time></trkpt><trkpt lat="44.3798733" lon="10.91302"><ele>206.0</ele><time>2026-04-24T17:21:28.028Z</time></trkpt><trkpt lat="44.3800567" lon="10.912895"><ele>206.0</ele><time>2026-04-24T17:21:29.029Z</time></trkpt><trkpt lat="44.380255" lon="10.9128017"><ele>206.0</ele><time>2026-04-24T17:21:30.029Z</time></trkpt><trkpt lat="44.3804717" lon="10.912715"><ele>202.5</ele><time>2026-04-24T17:21:31.029Z</time></trkpt><trkpt lat="44.380695" lon="10.9126417"><ele>199.0</ele><time>2026-04-24T17:21:32.029Z</time></trkpt><trkpt lat="44.3809283" lon="10.9125733"><ele>203.0</ele><time>2026-04-24T17:21:33.029Z</time></trkpt><trkpt lat="44.3811633" lon="10.9125033"><ele>207.0</ele><time>2026-04-24T17:21:34.029Z</time></trkpt><trkpt lat="44.381395" lon="10.9124333"><ele>207.0</ele><time>2026-04-24T17:21:35.029Z</time></trkpt><trkpt lat="44.38162" lon="10.9123633"><ele>207.0</ele><time>2026-04-24T17:21:36.028Z</time></trkpt><trkpt lat="44.3818417" lon="10.9122967"><ele>207.0</ele><time>2026-04-24T17:21:37.028Z</time></trkpt><trkpt lat="44.382065" lon="10.91224"><ele>207.0</ele><time>2026-04-24T17:21:38.029Z</time></trkpt><trkpt lat="44.3822967" lon="10.9121883"><ele>205.33333333333331</ele><time>2026-04-24T17:21:39.029Z</time></trkpt><trkpt lat="44.38252" lon="10.9121533"><ele>203.66666666666666</ele><time>2026-04-24T17:21:40.029Z</time></trkpt><trkpt lat="44.38274" lon="10.912145"><ele>202.0</ele><time>2026-04-24T17:21:41.029Z</time></trkpt><trkpt lat="44.38296" lon="10.91215"><ele>200.5</ele><time>2026-04-24T17:21:42.029Z</time></trkpt><trkpt lat="44.383185" lon="10.9121683"><ele>199.0</ele><time>2026-04-24T17:21:43.029Z</time></trkpt><trkpt lat="44.3834117" lon="10.9122083"><ele>199.0</ele><time>2026-04-24T17:21:44.029Z</time></trkpt><trkpt lat="44.38362" lon="10.912265"><ele>199.0</ele><time>2026-04-24T17:21:45.029Z</time></trkpt><trkpt lat="44.3838167" lon="10.9123233"><ele>199.0</ele><time>2026-04-24T17:21:46.028Z</time></trkpt><trkpt lat="44.3840033" lon="10.9123917"><ele>200.33333333333331</ele><time>2026-04-24T17:21:47.029Z</time></trkpt><trkpt lat="44.3841883" lon="10.9124483"><ele>201.66666666666669</ele><time>2026-04-24T17:21:48.029Z</time></trkpt><trkpt lat="44.3843733" lon="10.9125083"><ele>203.0</ele><time>2026-04-24T17:21:49.029Z</time></trkpt><trkpt lat="44.384565" lon="10.912565"><ele>201.0</ele><time>2026-04-24T17:21:50.028Z</time></trkpt><trkpt lat="44.38476" lon="10.91262"><ele>199.0</ele><time>2026-04-24T17:21:51.029Z</time></trkpt><trkpt lat="44.3849617" lon="10.9126783"><ele>197.0</ele><time>2026-04-24T17:21:52.028Z</time></trkpt><trkpt lat="44.38515" lon="10.912765"><ele>197.0</ele><time>2026-04-24T17:21:53.028Z</time></trkpt><trkpt lat="44.385325" lon="10.91287"><ele>197.0</ele><time>2026-04-24T17:21:54.028Z</time></trkpt><trkpt lat="44.3854983" lon="10.9129917"><ele>197.0</ele><time>2026-04-24T17:21:55.029Z</time></trkpt><trkpt lat="44.3856833" lon="10.9131483"><ele>197.0</ele><time>2026-04-24T17:21:56.029Z</time></trkpt><trkpt lat="44.38588" lon="10.9133117"><ele>197.0</ele><time>2026-04-24T17:21:57.029Z</time></trkpt><trkpt lat="44.38608" lon="10.9134883"><ele>197.5</ele><time>2026-04-24T17:21:58.029Z</time></trkpt><trkpt lat="44.3862867" lon="10.9136733"><ele>198.0</ele><time>2026-04-24T17:21:59.029Z</time></trkpt><trkpt lat="44.386495" lon="10.91387"><ele>198.0</ele><time>2026-04-24T17:22:00.028Z</time></trkpt><trkpt lat="44.38671" lon="10.9140767"><ele>198.0</ele><time>2026-04-24T17:22:01.028Z</time></trkpt><trkpt lat="44.3869267" lon="10.9142883"><ele>196.5</ele><time>2026-04-24T17:22:02.029Z</time></trkpt><trkpt lat="44.387145" lon="10.914495"><ele>195.0</ele><time>2026-04-24T17:22:03.029Z</time></trkpt><trkpt lat="44.3873717" lon="10.9146967"><ele>195.0</ele><time>2026-04-24T17:22:04.028Z</time></trkpt><trkpt lat="44.387605" lon="10.914905"><ele>195.0</ele><time>2026-04-24T17:22:05.029Z</time></trkpt><trkpt lat="44.3878267" lon="10.91511"><ele>195.0</ele><time>2026-04-24T17:22:06.029Z</time></trkpt><trkpt lat="44.3880467" lon="10.9153117"><ele>195.0</ele><time>2026-04-24T17:22:07.029Z</time></trkpt><trkpt lat="44.3882617" lon="10.9155033"><ele>195.0</ele><time>2026-04-24T17:22:08.028Z</time></trkpt><trkpt lat="44.3884667" lon="10.91569"><ele>195.0</ele><time>2026-04-24T17:22:09.029Z</time></trkpt><trkpt lat="44.38867" lon="10.9158733"><ele>194.5</ele><time>2026-04-24T17:22:10.029Z</time></trkpt><trkpt lat="44.3888733" lon="10.916045"><ele>194.0</ele><time>2026-04-24T17:22:11.029Z</time></trkpt><trkpt lat="44.3890783" lon="10.916205"><ele>194.0</ele><time>2026-04-24T17:22:12.029Z</time></trkpt><trkpt lat="44.3892983" lon="10.916335"><ele>194.0</ele><time>2026-04-24T17:22:13.029Z</time></trkpt><trkpt lat="44.389525" lon="10.9164567"><ele>197.0</ele><time>2026-04-24T17:22:14.029Z</time></trkpt><trkpt lat="44.3897517" lon="10.9165783"><ele>200.0</ele><time>2026-04-24T17:22:15.029Z</time></trkpt><trkpt lat="44.3899783" lon="10.9166933"><ele>196.5</ele><time>2026-04-24T17:22:16.029Z</time></trkpt><trkpt lat="44.3902117" lon="10.9168083"><ele>193.0</ele><time>2026-04-24T17:22:17.029Z</time></trkpt><trkpt lat="44.390445" lon="10.91691"><ele>196.0</ele><time>2026-04-24T17:22:18.029Z</time></trkpt><trkpt lat="44.3906833" lon="10.9170033"><ele>199.0</ele><time>2026-04-24T17:22:19.029Z</time></trkpt><trkpt lat="44.3909217" lon="10.917095"><ele>199.0</ele><time>2026-04-24T17:22:20.029Z</time></trkpt><trkpt lat="44.3911567" lon="10.9171933"><ele>199.0</ele><time>2026-04-24T17:22:21.029Z</time></trkpt><trkpt lat="44.3913883" lon="10.917295"><ele>203.0</ele><time>2026-04-24T17:22:22.029Z</time></trkpt><trkpt lat="44.391625" lon="10.9173867"><ele>207.0</ele><time>2026-04-24T17:22:23.029Z</time></trkpt><trkpt lat="44.3918617" lon="10.9174717"><ele>207.0</ele><time>2026-04-24T17:22:24.029Z</time></trkpt><trkpt lat="44.3920933" lon="10.9175617"><ele>207.0</ele><time>2026-04-24T17:22:25.029Z</time></trkpt><trkpt lat="44.39233" lon="10.9176617"><ele>204.0</ele><time>2026-04-24T17:22:26.029Z</time></trkpt><trkpt lat="44.3925667" lon="10.9177567"><ele>201.0</ele><time>2026-04-24T17:22:27.029Z</time></trkpt><trkpt lat="44.3927983" lon="10.9178417"><ele>204.0</ele><time>2026-04-24T17:22:28.029Z</time></trkpt><trkpt lat="44.3930333" lon="10.9179267"><ele>207.0</ele><time>2026-04-24T17:22:29.029Z</time></trkpt><trkpt lat="44.3932683" lon="10.9180067"><ele>207.0</ele><time>2026-04-24T17:22:30.029Z</time></trkpt><trkpt lat="44.3935033" lon="10.9180933"><ele>207.0</ele><time>2026-04-24T17:22:31.029Z</time></trkpt><trkpt lat="44.3937317" lon="10.91818"><ele>210.5</ele><time>2026-04-24T17:22:32.029Z</time></trkpt><trkpt lat="44.3939617" lon="10.9182583"><ele>214.0</ele><time>2026-04-24T17:22:33.028Z</time></trkpt><trkpt lat="44.39418" lon="10.91833"><ele>214.0</ele><time>2026-04-24T17:22:34.028Z</time></trkpt><trkpt lat="44.3943883" lon="10.9183983"><ele>214.0</ele><time>2026-04-24T17:22:35.029Z</time></trkpt><trkpt lat="44.3945867" lon="10.918465"><ele>214.0</ele><time>2026-04-24T17:22:36.028Z</time></trkpt><trkpt lat="44.3947833" lon="10.9185283"><ele>209.66666666666666</ele><time>2026-04-24T17:22:37.029Z</time></trkpt><trkpt lat="44.39498" lon="10.9185967"><ele>205.33333333333331</ele><time>2026-04-24T17:22:38.028Z</time></trkpt><trkpt lat="44.395165" lon="10.91869"><ele>201.0</ele><time>2026-04-24T17:22:39.028Z</time></trkpt><trkpt lat="44.39535" lon="10.9187883"><ele>202.33333333333331</ele><time>2026-04-24T17:22:40.028Z</time></trkpt><trkpt lat="44.3955417" lon="10.9189017"><ele>203.66666666666666</ele><time>2026-04-24T17:22:41.029Z</time></trkpt><trkpt lat="44.395735" lon="10.9190217"><ele>205.0</ele><time>2026-04-24T17:22:42.029Z</time></trkpt><trkpt lat="44.3959183" lon="10.91914"><ele>201.0</ele><time>2026-04-24T17:22:43.028Z</time></trkpt><trkpt lat="44.3960883" lon="10.91925"><ele>197.0</ele><time>2026-04-24T17:22:44.028Z</time></trkpt><trkpt lat="44.3962583" lon="10.91935"><ele>193.0</ele><time>2026-04-24T17:22:45.029Z</time></trkpt><trkpt lat="44.3964267" lon="10.9194383"><ele>193.0</ele><time>2026-04-24T17:22:46.029Z</time></trkpt><trkpt lat="44.3965967" lon="10.91951"><ele>193.0</ele><time>2026-04-24T17:22:47.029Z</time></trkpt><trkpt lat="44.3967717" lon="10.91955"><ele>193.0</ele><time>2026-04-24T17:22:48.029Z</time></trkpt><trkpt lat="44.3969517" lon="10.919565"><ele>193.0</ele><time>2026-04-24T17:22:49.029Z</time></trkpt><trkpt lat="44.3971367" lon="10.919555"><ele>193.0</ele><time>2026-04-24T17:22:50.029Z</time></trkpt><trkpt lat="44.3973233" lon="10.9195133"><ele>193.0</ele><time>2026-04-24T17:22:51.029Z</time></trkpt><trkpt lat="44.3975" lon="10.9194817"><ele>192.33333333333331</ele><time>2026-04-24T17:22:52.029Z</time></trkpt><trkpt lat="44.3976767" lon="10.9194667"><ele>191.66666666666666</ele><time>2026-04-24T17:22:53.029Z</time></trkpt><trkpt lat="44.3978567" lon="10.919485"><ele>191.0</ele><time>2026-04-24T17:22:54.029Z</time></trkpt><trkpt lat="44.3980417" lon="10.919545"><ele>190.33333333333331</ele><time>2026-04-24T17:22:55.028Z</time></trkpt><trkpt lat="44.3982367" lon="10.91962"><ele>189.66666666666666</ele><time>2026-04-24T17:22:56.029Z</time></trkpt><trkpt lat="44.39844" lon="10.9197"><ele>189.0</ele><time>2026-04-24T17:22:57.029Z</time></trkpt><trkpt lat="44.398645" lon="10.9197867"><ele>190.33333333333331</ele><time>2026-04-24T17:22:58.029Z</time></trkpt><trkpt lat="44.39886" lon="10.9198817"><ele>191.66666666666666</ele><time>2026-04-24T17:22:59.029Z</time></trkpt><trkpt lat="44.3990717" lon="10.9199717"><ele>193.0</ele><time>2026-04-24T17:23:00.028Z</time></trkpt><trkpt lat="44.3992683" lon="10.9200517"><ele>191.66666666666666</ele><time>2026-04-24T17:23:01.029Z</time></trkpt><trkpt lat="44.3994467" lon="10.9201433"><ele>190.33333333333331</ele><time>2026-04-24T17:23:02.029Z</time></trkpt><trkpt lat="44.3996167" lon="10.9202533"><ele>189.0</ele><time>2026-04-24T17:23:03.029Z</time></trkpt><trkpt lat="44.3997783" lon="10.9203933"><ele>189.0</ele><time>2026-04-24T17:23:04.029Z</time></trkpt><trkpt lat="44.3999417" lon="10.9205317"><ele>189.0</ele><time>2026-04-24T17:23:05.029Z</time></trkpt><trkpt lat="44.4001133" lon="10.920675"><ele>189.0</ele><time>2026-04-24T17:23:06.028Z</time></trkpt><trkpt lat="44.4003067" lon="10.92081"><ele>187.66666666666666</ele><time>2026-04-24T17:23:07.028Z</time></trkpt><trkpt lat="44.4005067" lon="10.92094"><ele>186.33333333333331</ele><time>2026-04-24T17:23:08.029Z</time></trkpt><trkpt lat="44.4007083" lon="10.9210567"><ele>185.0</ele><time>2026-04-24T17:23:09.028Z</time></trkpt><trkpt lat="44.400895" lon="10.921165"><ele>185.0</ele><time>2026-04-24T17:23:10.029Z</time></trkpt><trkpt lat="44.4010633" lon="10.921245"><ele>185.0</ele><time>2026-04-24T17:23:11.028Z</time></trkpt><trkpt lat="44.4012267" lon="10.9213"><ele>185.0</ele><time>2026-04-24T17:23:12.029Z</time></trkpt><trkpt lat="44.4013983" lon="10.9213283"><ele>185.0</ele><time>2026-04-24T17:23:13.029Z</time></trkpt><trkpt lat="44.401575" lon="10.92132"><ele>185.0</ele><time>2026-04-24T17:23:14.029Z</time></trkpt><trkpt lat="44.4017683" lon="10.9212917"><ele>185.0</ele><time>2026-04-24T17:23:15.029Z</time></trkpt><trkpt lat="44.4019817" lon="10.92126"><ele>184.5</ele><time>2026-04-24T17:23:16.028Z</time></trkpt><trkpt lat="44.402205" lon="10.92124"><ele>184.0</ele><time>2026-04-24T17:23:17.028Z</time></trkpt><trkpt lat="44.4024367" lon="10.9212317"><ele>184.0</ele><time>2026-04-24T17:23:18.029Z</time></trkpt><trkpt lat="44.402685" lon="10.9212417"><ele>184.0</ele><time>2026-04-24T17:23:19.029Z</time></trkpt><trkpt lat="44.4029117" lon="10.921265"><ele>185.0</ele><time>2026-04-24T17:23:20.029Z</time></trkpt><trkpt lat="44.403115" lon="10.92127"><ele>186.0</ele><time>2026-04-24T17:23:21.028Z</time></trkpt><trkpt lat="44.4032883" lon="10.9212633"><ele>187.0</ele><time>2026-04-24T17:23:22.028Z</time></trkpt><trkpt lat="44.4034367" lon="10.9212383"><ele>187.0</ele><time>2026-04-24T17:23:23.029Z</time></trkpt><trkpt lat="44.40357" lon="10.9211833"><ele>187.0</ele><time>2026-04-24T17:23:24.028Z</time></trkpt><trkpt lat="44.403695" lon="10.92109"><ele>187.0</ele><time>2026-04-24T17:23:25.028Z</time></trkpt><trkpt lat="44.4038183" lon="10.920965"><ele>187.0</ele><time>2026-04-24T17:23:26.029Z</time></trkpt><trkpt lat="44.403955" lon="10.9208267"><ele>187.33333333333334</ele><time>2026-04-24T17:23:27.028Z</time></trkpt><trkpt lat="44.4040933" lon="10.9206733"><ele>187.66666666666666</ele><time>2026-04-24T17:23:28.029Z</time></trkpt><trkpt lat="44.404235" lon="10.9205183"><ele>188.0</ele><time>2026-04-24T17:23:29.029Z</time></trkpt><trkpt lat="44.40438" lon="10.920385"><ele>188.0</ele><time>2026-04-24T17:23:30.029Z</time></trkpt><trkpt lat="44.4045283" lon="10.9202933"><ele>188.0</ele><time>2026-04-24T17:23:31.029Z</time></trkpt><trkpt lat="44.404695" lon="10.9202333"><ele>188.0</ele><time>2026-04-24T17:23:32.029Z</time></trkpt><trkpt lat="44.4048817" lon="10.9201967"><ele>187.33333333333331</ele><time>2026-04-24T17:23:33.029Z</time></trkpt><trkpt lat="44.4050767" lon="10.920165"><ele>186.66666666666666</ele><time>2026-04-24T17:23:34.029Z</time></trkpt><trkpt lat="44.405275" lon="10.9201367"><ele>186.0</ele><time>2026-04-24T17:23:35.029Z</time></trkpt><trkpt lat="44.4054733" lon="10.9201183"><ele>185.66666666666666</ele><time>2026-04-24T17:23:36.028Z</time></trkpt><trkpt lat="44.4056717" lon="10.9201233"><ele>185.33333333333331</ele><time>2026-04-24T17:23:37.029Z</time></trkpt><trkpt lat="44.4058733" lon="10.9201417"><ele>185.0</ele><time>2026-04-24T17:23:38.028Z</time></trkpt><trkpt lat="44.4060717" lon="10.9201783"><ele>185.0</ele><time>2026-04-24T17:23:39.029Z</time></trkpt><trkpt lat="44.4062767" lon="10.9202183"><ele>185.0</ele><time>2026-04-24T17:23:40.029Z</time></trkpt><trkpt lat="44.40649" lon="10.9202617"><ele>185.0</ele><time>2026-04-24T17:23:41.029Z</time></trkpt><trkpt lat="44.4066967" lon="10.9203333"><ele>185.66666666666666</ele><time>2026-04-24T17:23:42.029Z</time></trkpt><trkpt lat="44.4068833" lon="10.9204383"><ele>186.33333333333334</ele><time>2026-04-24T17:23:43.029Z</time></trkpt><trkpt lat="44.4070583" lon="10.920545"><ele>187.0</ele><time>2026-04-24T17:23:44.028Z</time></trkpt><trkpt lat="44.4072267" lon="10.92064"><ele>189.33333333333334</ele><time>2026-04-24T17:23:45.029Z</time></trkpt><trkpt lat="44.4074033" lon="10.9207117"><ele>191.66666666666669</ele><time>2026-04-24T17:23:46.029Z</time></trkpt><trkpt lat="44.4075967" lon="10.9207517"><ele>194.0</ele><time>2026-04-24T17:23:47.029Z</time></trkpt><trkpt lat="44.4078033" lon="10.92077"><ele>194.33333333333334</ele><time>2026-04-24T17:23:48.028Z</time></trkpt><trkpt lat="44.4080183" lon="10.9207667"><ele>194.66666666666669</ele><time>2026-04-24T17:23:49.029Z</time></trkpt><trkpt lat="44.4082217" lon="10.9207733"><ele>195.0</ele><time>2026-04-24T17:23:50.029Z</time></trkpt><trkpt lat="44.4084283" lon="10.92076"><ele>195.0</ele><time>2026-04-24T17:23:51.029Z</time></trkpt><trkpt lat="44.4086383" lon="10.9207317"><ele>195.0</ele><time>2026-04-24T17:23:52.029Z</time></trkpt><trkpt lat="44.4088317" lon="10.9206933"><ele>195.0</ele><time>2026-04-24T17:23:53.028Z</time></trkpt><trkpt lat="44.40901" lon="10.9206417"><ele>193.66666666666666</ele><time>2026-04-24T17:23:54.029Z</time></trkpt><trkpt lat="44.4091717" lon="10.9206083"><ele>192.33333333333331</ele><time>2026-04-24T17:23:55.029Z</time></trkpt><trkpt lat="44.4093217" lon="10.9205817"><ele>191.0</ele><time>2026-04-24T17:23:56.029Z</time></trkpt><trkpt lat="44.4094717" lon="10.9205717"><ele>191.0</ele><time>2026-04-24T17:23:57.029Z</time></trkpt><trkpt lat="44.4096183" lon="10.920575"><ele>191.0</ele><time>2026-04-24T17:23:58.029Z</time></trkpt><trkpt lat="44.409755" lon="10.9206"><ele>191.0</ele><time>2026-04-24T17:23:59.029Z</time></trkpt><trkpt lat="44.4098783" lon="10.9206517"><ele>191.0</ele><time>2026-04-24T17:24:00.029Z</time></trkpt><trkpt lat="44.4099833" lon="10.920735"><ele>192.25</ele><time>2026-04-24T17:24:01.029Z</time></trkpt><trkpt lat="44.41007" lon="10.92086"><ele>193.5</ele><time>2026-04-24T17:24:02.028Z</time></trkpt><trkpt lat="44.4101483" lon="10.9210183"><ele>194.75</ele><time>2026-04-24T17:24:03.029Z</time></trkpt><trkpt lat="44.41022" lon="10.92119"><ele>196.0</ele><time>2026-04-24T17:24:04.029Z</time></trkpt><trkpt lat="44.4103" lon="10.9213567"><ele>196.25</ele><time>2026-04-24T17:24:05.028Z</time></trkpt><trkpt lat="44.4103867" lon="10.9214983"><ele>196.5</ele><time>2026-04-24T17:24:06.029Z</time></trkpt><trkpt lat="44.41049" lon="10.9216033"><ele>196.75</ele><time>2026-04-24T17:24:07.029Z</time></trkpt><trkpt lat="44.4106133" lon="10.921675"><ele>197.0</ele><time>2026-04-24T17:24:08.029Z</time></trkpt><trkpt lat="44.41074" lon="10.921705"><ele>197.0</ele><time>2026-04-24T17:24:09.029Z</time></trkpt><trkpt lat="44.4108733" lon="10.9216833"><ele>197.0</ele><time>2026-04-24T17:24:10.029Z</time></trkpt><trkpt lat="44.410995" lon="10.9216217"><ele>197.0</ele><time>2026-04-24T17:24:11.028Z</time></trkpt><trkpt lat="44.4111133" lon="10.9215167"><ele>197.0</ele><time>2026-04-24T17:24:12.028Z</time></trkpt><trkpt lat="44.4112267" lon="10.9213817"><ele>197.25</ele><time>2026-04-24T17:24:13.029Z</time></trkpt><trkpt lat="44.4113417" lon="10.921235"><ele>197.5</ele><time>2026-04-24T17:24:14.028Z</time></trkpt><trkpt lat="44.4114517" lon="10.921105"><ele>197.75</ele><time>2026-04-24T17:24:15.029Z</time></trkpt><trkpt lat="44.4115533" lon="10.920985"><ele>198.0</ele><time>2026-04-24T17:24:16.028Z</time></trkpt><trkpt lat="44.411645" lon="10.9208833"><ele>198.75</ele><time>2026-04-24T17:24:17.028Z</time></trkpt><trkpt lat="44.411735" lon="10.9207933"><ele>199.5</ele><time>2026-04-24T17:24:18.028Z</time></trkpt><trkpt lat="44.4118333" lon="10.92071"><ele>200.25</ele><time>2026-04-24T17:24:19.029Z</time></trkpt><trkpt lat="44.4119417" lon="10.9206467"><ele>201.0</ele><time>2026-04-24T17:24:20.028Z</time></trkpt><trkpt lat="44.4120583" lon="10.920625"><ele>201.5</ele><time>2026-04-24T17:24:21.029Z</time></trkpt><trkpt lat="44.41217" lon="10.9206317"><ele>202.0</ele><time>2026-04-24T17:24:22.029Z</time></trkpt><trkpt lat="44.4122767" lon="10.9206883"><ele>202.5</ele><time>2026-04-24T17:24:23.029Z</time></trkpt><trkpt lat="44.4123917" lon="10.9207667"><ele>203.0</ele><time>2026-04-24T17:24:24.029Z</time></trkpt><trkpt lat="44.4125183" lon="10.9208417"><ele>201.33333333333334</ele><time>2026-04-24T17:24:25.028Z</time></trkpt><trkpt lat="44.4126583" lon="10.920915"><ele>199.66666666666669</ele><time>2026-04-24T17:24:26.029Z</time></trkpt><trkpt lat="44.4128267" lon="10.9209767"><ele>198.0</ele><time>2026-04-24T17:24:27.029Z</time></trkpt><trkpt lat="44.4129833" lon="10.9210367"><ele>195.5</ele><time>2026-04-24T17:24:28.029Z</time></trkpt><trkpt lat="44.4131317" lon="10.9210983"><ele>193.0</ele><time>2026-04-24T17:24:29.028Z</time></trkpt><trkpt lat="44.4132717" lon="10.9211467"><ele>190.5</ele><time>2026-04-24T17:24:30.029Z</time></trkpt><trkpt lat="44.413405" lon="10.9211767"><ele>188.0</ele><time>2026-04-24T17:24:31.029Z</time></trkpt><trkpt lat="44.41352" lon="10.9211733"><ele>188.0</ele><time>2026-04-24T17:24:32.029Z</time></trkpt><trkpt lat="44.4136283" lon="10.9211317"><ele>188.0</ele><time>2026-04-24T17:24:33.028Z</time></trkpt><trkpt lat="44.4137383" lon="10.9210483"><ele>188.0</ele><time>2026-04-24T17:24:34.029Z</time></trkpt><trkpt lat="44.41386" lon="10.920955"><ele>188.0</ele><time>2026-04-24T17:24:35.029Z</time></trkpt><trkpt lat="44.413985" lon="10.92085"><ele>188.25</ele><time>2026-04-24T17:24:36.029Z</time></trkpt><trkpt lat="44.414095" lon="10.92075"><ele>188.5</ele><time>2026-04-24T17:24:37.029Z</time></trkpt><trkpt lat="44.4141867" lon="10.9206367"><ele>188.75</ele><time>2026-04-24T17:24:38.029Z</time></trkpt><trkpt lat="44.41426" lon="10.9205067"><ele>189.0</ele><time>2026-04-24T17:24:39.029Z</time></trkpt><trkpt lat="44.414315" lon="10.92035"><ele>189.0</ele><time>2026-04-24T17:24:40.029Z</time></trkpt><trkpt lat="44.4143667" lon="10.9201833"><ele>189.0</ele><time>2026-04-24T17:24:41.029Z</time></trkpt><trkpt lat="44.4144083" lon="10.9200067"><ele>189.0</ele><time>2026-04-24T17:24:42.028Z</time></trkpt><trkpt lat="44.4144367" lon="10.9198267"><ele>189.0</ele><time>2026-04-24T17:24:43.028Z</time></trkpt><trkpt lat="44.4144567" lon="10.9196533"><ele>191.2</ele><time>2026-04-24T17:24:44.029Z</time></trkpt><trkpt lat="44.4144717" lon="10.91949"><ele>193.39999999999998</ele><time>2026-04-24T17:24:45.029Z</time></trkpt><trkpt lat="44.414495" lon="10.9193383"><ele>195.6</ele><time>2026-04-24T17:24:46.029Z</time></trkpt><trkpt lat="44.4145267" lon="10.9192233"><ele>197.8</ele><time>2026-04-24T17:24:47.029Z</time></trkpt><trkpt lat="44.4145767" lon="10.9191383"><ele>200.0</ele><time>2026-04-24T17:24:48.028Z</time></trkpt><trkpt lat="44.4146517" lon="10.9190783"><ele>196.0</ele><time>2026-04-24T17:24:49.028Z</time></trkpt><trkpt lat="44.4147517" lon="10.919065"><ele>192.0</ele><time>2026-04-24T17:24:50.029Z</time></trkpt><trkpt lat="44.414855" lon="10.9190867"><ele>188.0</ele><time>2026-04-24T17:24:51.029Z</time></trkpt><trkpt lat="44.41496" lon="10.9191317"><ele>184.0</ele><time>2026-04-24T17:24:52.029Z</time></trkpt><trkpt lat="44.41508" lon="10.91918"><ele>180.0</ele><time>2026-04-24T17:24:53.029Z</time></trkpt><trkpt lat="44.4152033" lon="10.91923"><ele>180.25</ele><time>2026-04-24T17:24:54.028Z</time></trkpt><trkpt lat="44.4153317" lon="10.9192767"><ele>180.5</ele><time>2026-04-24T17:24:55.029Z</time></trkpt><trkpt lat="44.41546" lon="10.9193283"><ele>180.75</ele><time>2026-04-24T17:24:56.029Z</time></trkpt><trkpt lat="44.4155867" lon="10.919405"><ele>181.0</ele><time>2026-04-24T17:24:57.029Z</time></trkpt><trkpt lat="44.4156917" lon="10.919515"><ele>181.0</ele><time>2026-04-24T17:24:58.029Z</time></trkpt><trkpt lat="44.415785" lon="10.9196617"><ele>181.0</ele><time>2026-04-24T17:24:59.028Z</time></trkpt><trkpt lat="44.4158817" lon="10.9198317"><ele>181.0</ele><time>2026-04-24T17:25:00.029Z</time></trkpt><trkpt lat="44.41598" lon="10.9199983"><ele>180.66666666666669</ele><time>2026-04-24T17:25:01.028Z</time></trkpt><trkpt lat="44.41609" lon="10.9201433"><ele>180.33333333333334</ele><time>2026-04-24T17:25:02.028Z</time></trkpt><trkpt lat="44.4162133" lon="10.9202617"><ele>180.0</ele><time>2026-04-24T17:25:03.028Z</time></trkpt><trkpt lat="44.41636" lon="10.9203467"><ele>180.0</ele><time>2026-04-24T17:25:04.029Z</time></trkpt><trkpt lat="44.4165117" lon="10.9204117"><ele>180.0</ele><time>2026-04-24T17:25:05.029Z</time></trkpt><trkpt lat="44.4166617" lon="10.92047"><ele>180.0</ele><time>2026-04-24T17:25:06.029Z</time></trkpt><trkpt lat="44.4167967" lon="10.9205267"><ele>180.0</ele><time>2026-04-24T17:25:07.029Z</time></trkpt><trkpt lat="44.4169217" lon="10.9205883"><ele>180.0</ele><time>2026-04-24T17:25:08.028Z</time></trkpt><trkpt lat="44.41705" lon="10.9206383"><ele>180.0</ele><time>2026-04-24T17:25:09.029Z</time></trkpt><trkpt lat="44.4171917" lon="10.920695"><ele>180.0</ele><time>2026-04-24T17:25:10.028Z</time></trkpt><trkpt lat="44.4173333" lon="10.92078"><ele>180.66666666666666</ele><time>2026-04-24T17:25:11.029Z</time></trkpt><trkpt lat="44.4174583" lon="10.9208767"><ele>181.33333333333331</ele><time>2026-04-24T17:25:12.028Z</time></trkpt><trkpt lat="44.41759" lon="10.9210017"><ele>182.0</ele><time>2026-04-24T17:25:13.028Z</time></trkpt><trkpt lat="44.417715" lon="10.9211367"><ele>182.0</ele><time>2026-04-24T17:25:14.028Z</time></trkpt><trkpt lat="44.4178467" lon="10.9212817"><ele>182.0</ele><time>2026-04-24T17:25:15.029Z</time></trkpt><trkpt lat="44.4179817" lon="10.9214183"><ele>182.0</ele><time>2026-04-24T17:25:16.029Z</time></trkpt><trkpt lat="44.4181067" lon="10.9215667"><ele>182.0</ele><time>2026-04-24T17:25:17.029Z</time></trkpt><trkpt lat="44.4182333" lon="10.9217283"><ele>182.0</ele><time>2026-04-24T17:25:18.029Z</time></trkpt><trkpt lat="44.41835" lon="10.9219083"><ele>182.0</ele><time>2026-04-24T17:25:19.028Z</time></trkpt><trkpt lat="44.4184633" lon="10.92209"><ele>180.0</ele><time>2026-04-24T17:25:20.028Z</time></trkpt><trkpt lat="44.4185783" lon="10.9222783"><ele>178.0</ele><time>2026-04-24T17:25:21.028Z</time></trkpt><trkpt lat="44.4187" lon="10.9224617"><ele>176.0</ele><time>2026-04-24T17:25:22.028Z</time></trkpt><trkpt lat="44.4188183" lon="10.9226433"><ele>175.33333333333331</ele><time>2026-04-24T17:25:23.029Z</time></trkpt><trkpt lat="44.4189483" lon="10.9228117"><ele>174.66666666666666</ele><time>2026-04-24T17:25:24.028Z</time></trkpt><trkpt lat="44.4191" lon="10.9229567"><ele>174.0</ele><time>2026-04-24T17:25:25.029Z</time></trkpt><trkpt lat="44.41926" lon="10.9230933"><ele>174.0</ele><time>2026-04-24T17:25:26.029Z</time></trkpt><trkpt lat="44.4194333" lon="10.92321"><ele>174.0</ele><time>2026-04-24T17:25:27.029Z</time></trkpt><trkpt lat="44.4196117" lon="10.92331"><ele>174.0</ele><time>2026-04-24T17:25:28.028Z</time></trkpt><trkpt lat="44.4197833" lon="10.9234017"><ele>172.0</ele><time>2026-04-24T17:25:29.029Z</time></trkpt><trkpt lat="44.4199517" lon="10.9234767"><ele>170.0</ele><time>2026-04-24T17:25:30.029Z</time></trkpt><trkpt lat="44.42011" lon="10.9235483"><ele>168.0</ele><time>2026-04-24T17:25:31.028Z</time></trkpt><trkpt lat="44.4202667" lon="10.923615"><ele>168.0</ele><time>2026-04-24T17:25:32.029Z</time></trkpt><trkpt lat="44.420415" lon="10.9236833"><ele>168.0</ele><time>2026-04-24T17:25:33.029Z</time></trkpt><trkpt lat="44.4205683" lon="10.9237433"><ele>168.0</ele><time>2026-04-24T17:25:34.029Z</time></trkpt><trkpt lat="44.4207283" lon="10.923795"><ele>169.0</ele><time>2026-04-24T17:25:35.029Z</time></trkpt><trkpt lat="44.4208817" lon="10.92384"><ele>170.0</ele><time>2026-04-24T17:25:36.028Z</time></trkpt><trkpt lat="44.4210383" lon="10.9238867"><ele>171.0</ele><time>2026-04-24T17:25:37.029Z</time></trkpt><trkpt lat="44.4211967" lon="10.9239317"><ele>171.33333333333334</ele><time>2026-04-24T17:25:38.028Z</time></trkpt><trkpt lat="44.4213567" lon="10.92398"><ele>171.66666666666669</ele><time>2026-04-24T17:25:39.029Z</time></trkpt><trkpt lat="44.4215117" lon="10.924035"><ele>172.0</ele><time>2026-04-24T17:25:40.029Z</time></trkpt><trkpt lat="44.4216683" lon="10.92409"><ele>172.0</ele><time>2026-04-24T17:25:41.029Z</time></trkpt><trkpt lat="44.4218233" lon="10.9241333"><ele>172.0</ele><time>2026-04-24T17:25:42.029Z</time></trkpt><trkpt lat="44.4219817" lon="10.9241783"><ele>172.0</ele><time>2026-04-24T17:25:43.028Z</time></trkpt><trkpt lat="44.4221433" lon="10.924215"><ele>171.0</ele><time>2026-04-24T17:25:44.029Z</time></trkpt><trkpt lat="44.4223017" lon="10.92425"><ele>170.0</ele><time>2026-04-24T17:25:45.029Z</time></trkpt><trkpt lat="44.4224617" lon="10.924275"><ele>169.0</ele><time>2026-04-24T17:25:46.029Z</time></trkpt><trkpt lat="44.4226133" lon="10.9242967"><ele>169.0</ele><time>2026-04-24T17:25:47.029Z</time></trkpt><trkpt lat="44.4227467" lon="10.9242967"><ele>169.0</ele><time>2026-04-24T17:25:48.029Z</time></trkpt><trkpt lat="44.4228417" lon="10.9242917"><ele>169.0</ele><time>2026-04-24T17:25:49.029Z</time></trkpt><trkpt lat="44.42292" lon="10.9242833"><ele>169.0</ele><time>2026-04-24T17:25:50.029Z</time></trkpt><trkpt lat="44.4230233" lon="10.92425"><ele>169.0</ele><time>2026-04-24T17:25:52.029Z</time></trkpt><trkpt lat="44.423065" lon="10.9241367"><ele>169.0</ele><time>2026-04-24T17:25:54.028Z</time></trkpt><trkpt lat="44.4230683" lon="10.92402"><ele>169.0</ele><time>2026-04-24T17:25:56.028Z</time></trkpt><trkpt lat="44.4229933" lon="10.924045"><ele>169.0</ele><time>2026-04-24T17:25:59.029Z</time></trkpt><trkpt lat="44.4229983" lon="10.924155"><ele>169.0</ele><time>2026-04-24T17:26:01.028Z</time></trkpt><trkpt lat="44.42292" lon="10.9242583"><ele>169.0</ele><time>2026-04-24T17:26:04.029Z</time></trkpt><trkpt lat="44.4228517" lon="10.924265"><ele>169.0</ele><time>2026-04-24T17:26:05.028Z</time></trkpt><trkpt lat="44.4227617" lon="10.9242533"><ele>169.0</ele><time>2026-04-24T17:26:06.029Z</time></trkpt><trkpt lat="44.4226467" lon="10.9242417"><ele>169.0</ele><time>2026-04-24T17:26:07.029Z</time></trkpt><trkpt lat="44.4225067" lon="10.924225"><ele>169.0</ele><time>2026-04-24T17:26:08.029Z</time></trkpt><trkpt lat="44.4223517" lon="10.9241967"><ele>169.0</ele><time>2026-04-24T17:26:09.029Z</time></trkpt><trkpt lat="44.4221833" lon="10.92417"><ele>170.0</ele><time>2026-04-24T17:26:10.029Z</time></trkpt><trkpt lat="44.4219983" lon="10.92414"><ele>171.0</ele><time>2026-04-24T17:26:11.029Z</time></trkpt><trkpt lat="44.421805" lon="10.9240917"><ele>172.0</ele><time>2026-04-24T17:26:12.029Z</time></trkpt><trkpt lat="44.4216083" lon="10.9240283"><ele>172.0</ele><time>2026-04-24T17:26:13.029Z</time></trkpt><trkpt lat="44.4214033" lon="10.9239617"><ele>172.0</ele><time>2026-04-24T17:26:14.029Z</time></trkpt><trkpt lat="44.4212067" lon="10.923895"><ele>172.0</ele><time>2026-04-24T17:26:15.029Z</time></trkpt><trkpt lat="44.42103" lon="10.9238367"><ele>171.66666666666669</ele><time>2026-04-24T17:26:16.028Z</time></trkpt><trkpt lat="44.42086" lon="10.9237817"><ele>171.33333333333334</ele><time>2026-04-24T17:26:17.029Z</time></trkpt><trkpt lat="44.4207017" lon="10.9237267"><ele>171.0</ele><time>2026-04-24T17:26:18.028Z</time></trkpt><trkpt lat="44.4205467" lon="10.9236733"><ele>170.25</ele><time>2026-04-24T17:26:19.029Z</time></trkpt><trkpt lat="44.420395" lon="10.9236183"><ele>169.5</ele><time>2026-04-24T17:26:20.029Z</time></trkpt><trkpt lat="44.4202633" lon="10.9235633"><ele>168.75</ele><time>2026-04-24T17:26:21.029Z</time></trkpt><trkpt lat="44.4201567" lon="10.9235233"><ele>168.0</ele><time>2026-04-24T17:26:22.028Z</time></trkpt><trkpt lat="44.4200783" lon="10.923495"><ele>168.0</ele><time>2026-04-24T17:26:23.029Z</time></trkpt><trkpt lat="44.41998" lon="10.9235083"><ele>168.0</ele><time>2026-04-24T17:26:25.029Z</time></trkpt><trkpt lat="44.4199167" lon="10.92364"><ele>168.0</ele><time>2026-04-24T17:26:27.029Z</time></trkpt><trkpt lat="44.419885" lon="10.9237333"><ele>168.0</ele><time>2026-04-24T17:26:28.028Z</time></trkpt><trkpt lat="44.419845" lon="10.9238417"><ele>168.0</ele><time>2026-04-24T17:26:29.029Z</time></trkpt><trkpt lat="44.4198067" lon="10.9239517"><ele>168.0</ele><time>2026-04-24T17:26:30.029Z</time></trkpt><trkpt lat="44.41977" lon="10.924055"><ele>168.0</ele><time>2026-04-24T17:26:31.029Z</time></trkpt><trkpt lat="44.4197333" lon="10.92416"><ele>168.0</ele><time>2026-04-24T17:26:32.028Z</time></trkpt><trkpt lat="44.4197" lon="10.9242583"><ele>168.0</ele><time>2026-04-24T17:26:33.029Z</time></trkpt><trkpt lat="44.4196667" lon="10.9243583"><ele>168.0</ele><time>2026-04-24T17:26:34.029Z</time></trkpt><trkpt lat="44.4196333" lon="10.9244683"><ele>168.0</ele><time>2026-04-24T17:26:35.029Z</time></trkpt><trkpt lat="44.4195967" lon="10.9245733"><ele>168.60000000000002</ele><time>2026-04-24T17:26:36.029Z</time></trkpt><trkpt lat="44.4195617" lon="10.92469"><ele>169.20000000000002</ele><time>2026-04-24T17:26:37.028Z</time></trkpt><trkpt lat="44.419525" lon="10.9248067"><ele>169.8</ele><time>2026-04-24T17:26:38.029Z</time></trkpt><trkpt lat="44.4194833" lon="10.9249267"><ele>170.4</ele><time>2026-04-24T17:26:39.029Z</time></trkpt><trkpt lat="44.4194433" lon="10.9250483"><ele>171.0</ele><time>2026-04-24T17:26:40.028Z</time></trkpt><trkpt lat="44.4194017" lon="10.9251717"><ele>171.8</ele><time>2026-04-24T17:26:41.029Z</time></trkpt><trkpt lat="44.4193617" lon="10.9252933"><ele>172.60000000000002</ele><time>2026-04-24T17:26:42.028Z</time></trkpt><trkpt lat="44.4193083" lon="10.92541"><ele>173.4</ele><time>2026-04-24T17:26:43.029Z</time></trkpt><trkpt lat="44.41924" lon="10.92552"><ele>174.2</ele><time>2026-04-24T17:26:44.028Z</time></trkpt><trkpt lat="44.419155" lon="10.925615"><ele>175.0</ele><time>2026-04-24T17:26:45.029Z</time></trkpt><trkpt lat="44.4190633" lon="10.9257017"><ele>175.0</ele><time>2026-04-24T17:26:46.029Z</time></trkpt><trkpt lat="44.4189617" lon="10.9257883"><ele>175.0</ele><time>2026-04-24T17:26:47.029Z</time></trkpt><trkpt lat="44.418855" lon="10.92588"><ele>175.0</ele><time>2026-04-24T17:26:48.029Z</time></trkpt><trkpt lat="44.41875" lon="10.925965"><ele>175.0</ele><time>2026-04-24T17:26:49.029Z</time></trkpt><trkpt lat="44.4186583" lon="10.926035"><ele>178.0</ele><time>2026-04-24T17:26:50.029Z</time></trkpt><trkpt lat="44.4185617" lon="10.926095"><ele>181.0</ele><time>2026-04-24T17:26:51.029Z</time></trkpt><trkpt lat="44.418465" lon="10.92613"><ele>184.0</ele><time>2026-04-24T17:26:52.028Z</time></trkpt><trkpt lat="44.418355" lon="10.9261283"><ele>187.0</ele><time>2026-04-24T17:26:53.029Z</time></trkpt><trkpt lat="44.418235" lon="10.9260933"><ele>190.0</ele><time>2026-04-24T17:26:54.029Z</time></trkpt><trkpt lat="44.418095" lon="10.926045"><ele>192.2</ele><time>2026-04-24T17:26:55.028Z</time></trkpt><trkpt lat="44.41796" lon="10.9259867"><ele>194.4</ele><time>2026-04-24T17:26:56.029Z</time></trkpt><trkpt lat="44.4178417" lon="10.9259483"><ele>196.60000000000002</ele><time>2026-04-24T17:26:57.029Z</time></trkpt><trkpt lat="44.4177417" lon="10.9259217"><ele>198.8</ele><time>2026-04-24T17:26:58.028Z</time></trkpt><trkpt lat="44.41766" lon="10.9259183"><ele>201.0</ele><time>2026-04-24T17:26:59.028Z</time></trkpt><trkpt lat="44.417585" lon="10.9259367"><ele>201.0</ele><time>2026-04-24T17:27:00.029Z</time></trkpt><trkpt lat="44.4175017" lon="10.925975"><ele>201.0</ele><time>2026-04-24T17:27:01.029Z</time></trkpt><trkpt lat="44.4174233" lon="10.9260417"><ele>201.0</ele><time>2026-04-24T17:27:02.029Z</time></trkpt><trkpt lat="44.4173433" lon="10.926135"><ele>201.0</ele><time>2026-04-24T17:27:03.029Z</time></trkpt><trkpt lat="44.417265" lon="10.9262333"><ele>201.0</ele><time>2026-04-24T17:27:04.029Z</time></trkpt><trkpt lat="44.4171867" lon="10.9263283"><ele>201.16666666666666</ele><time>2026-04-24T17:27:05.029Z</time></trkpt><trkpt lat="44.4171233" lon="10.9264033"><ele>201.33333333333331</ele><time>2026-04-24T17:27:06.028Z</time></trkpt><trkpt lat="44.4170667" lon="10.9264817"><ele>201.5</ele><time>2026-04-24T17:27:07.029Z</time></trkpt><trkpt lat="44.41702" lon="10.9265517"><ele>201.66666666666666</ele><time>2026-04-24T17:27:08.029Z</time></trkpt><trkpt lat="44.4169917" lon="10.9266833"><ele>201.83333333333331</ele><time>2026-04-24T17:27:10.029Z</time></trkpt><trkpt lat="44.4170883" lon="10.9267783"><ele>202.0</ele><time>2026-04-24T17:27:12.029Z</time></trkpt><trkpt lat="44.4171783" lon="10.926785"><ele>205.39999999999998</ele><time>2026-04-24T17:27:13.029Z</time></trkpt><trkpt lat="44.4172883" lon="10.9267833"><ele>208.79999999999998</ele><time>2026-04-24T17:27:14.028Z</time></trkpt><trkpt lat="44.4174" lon="10.9267833"><ele>212.2</ele><time>2026-04-24T17:27:15.029Z</time></trkpt><trkpt lat="44.4175083" lon="10.9268067"><ele>215.6</ele><time>2026-04-24T17:27:16.029Z</time></trkpt><trkpt lat="44.4176083" lon="10.9268533"><ele>219.0</ele><time>2026-04-24T17:27:17.029Z</time></trkpt><trkpt lat="44.4176883" lon="10.9269567"><ele>219.0</ele><time>2026-04-24T17:27:18.028Z</time></trkpt><trkpt lat="44.4177717" lon="10.9270933"><ele>219.0</ele><time>2026-04-24T17:27:19.029Z</time></trkpt><trkpt lat="44.41785" lon="10.92723"><ele>219.0</ele><time>2026-04-24T17:27:20.029Z</time></trkpt><trkpt lat="44.417915" lon="10.9273617"><ele>219.0</ele><time>2026-04-24T17:27:21.029Z</time></trkpt><trkpt lat="44.41797" lon="10.92749"><ele>218.83333333333334</ele><time>2026-04-24T17:27:22.029Z</time></trkpt><trkpt lat="44.4179983" lon="10.9276233"><ele>218.66666666666669</ele><time>2026-04-24T17:27:23.029Z</time></trkpt><trkpt lat="44.418015" lon="10.927765"><ele>218.5</ele><time>2026-04-24T17:27:24.028Z</time></trkpt><trkpt lat="44.418025" lon="10.92789"><ele>218.33333333333334</ele><time>2026-04-24T17:27:25.029Z</time></trkpt><trkpt lat="44.41804" lon="10.9279967"><ele>218.16666666666669</ele><time>2026-04-24T17:27:26.029Z</time></trkpt><trkpt lat="44.4180517" lon="10.92809"><ele>218.0</ele><time>2026-04-24T17:27:27.029Z</time></trkpt><trkpt lat="44.4180767" lon="10.928185"><ele>218.0</ele><time>2026-04-24T17:27:28.029Z</time></trkpt><trkpt lat="44.41812" lon="10.9282783"><ele>218.0</ele><time>2026-04-24T17:27:29.029Z</time></trkpt><trkpt lat="44.4181783" lon="10.9283817"><ele>218.0</ele><time>2026-04-24T17:27:30.029Z</time></trkpt><trkpt lat="44.418245" lon="10.9284983"><ele>218.0</ele><time>2026-04-24T17:27:31.028Z</time></trkpt><trkpt lat="44.41832" lon="10.928595"><ele>218.0</ele><time>2026-04-24T17:27:32.029Z</time></trkpt><trkpt lat="44.4183883" lon="10.9286683"><ele>219.0</ele><time>2026-04-24T17:27:33.029Z</time></trkpt><trkpt lat="44.418475" lon="10.928725"><ele>220.0</ele><time>2026-04-24T17:27:34.029Z</time></trkpt><trkpt lat="44.4185767" lon="10.9287483"><ele>221.0</ele><time>2026-04-24T17:27:35.029Z</time></trkpt><trkpt lat="44.4186767" lon="10.9287667"><ele>222.0</ele><time>2026-04-24T17:27:36.029Z</time></trkpt><trkpt lat="44.418765" lon="10.92879"><ele>223.0</ele><time>2026-04-24T17:27:37.029Z</time></trkpt><trkpt lat="44.4188317" lon="10.9288433"><ele>223.0</ele><time>2026-04-24T17:27:38.029Z</time></trkpt><trkpt lat="44.4188767" lon="10.9289317"><ele>223.0</ele><time>2026-04-24T17:27:39.029Z</time></trkpt><trkpt lat="44.4189067" lon="10.9290533"><ele>223.0</ele><time>2026-04-24T17:27:40.029Z</time></trkpt><trkpt lat="44.4189333" lon="10.9292017"><ele>223.0</ele><time>2026-04-24T17:27:41.029Z</time></trkpt><trkpt lat="44.4189667" lon="10.9293533"><ele>223.0</ele><time>2026-04-24T17:27:42.029Z</time></trkpt><trkpt lat="44.41901" lon="10.929505"><ele>225.60000000000002</ele><time>2026-04-24T17:27:43.028Z</time></trkpt><trkpt lat="44.4190567" lon="10.92965"><ele>228.20000000000002</ele><time>2026-04-24T17:27:44.029Z</time></trkpt><trkpt lat="44.419095" lon="10.9297917"><ele>230.8</ele><time>2026-04-24T17:27:45.029Z</time></trkpt><trkpt lat="44.41912" lon="10.9299333"><ele>233.4</ele><time>2026-04-24T17:27:46.029Z</time></trkpt><trkpt lat="44.41914" lon="10.9300867"><ele>236.0</ele><time>2026-04-24T17:27:47.028Z</time></trkpt><trkpt lat="44.4191533" lon="10.930245"><ele>239.20000000000002</ele><time>2026-04-24T17:27:48.029Z</time></trkpt><trkpt lat="44.4191817" lon="10.93041"><ele>242.40000000000003</ele><time>2026-04-24T17:27:49.029Z</time></trkpt><trkpt lat="44.4192133" lon="10.9305567"><ele>245.6</ele><time>2026-04-24T17:27:50.029Z</time></trkpt><trkpt lat="44.4192583" lon="10.930685"><ele>248.8</ele><time>2026-04-24T17:27:51.028Z</time></trkpt><trkpt lat="44.4193133" lon="10.9307967"><ele>252.0</ele><time>2026-04-24T17:27:52.029Z</time></trkpt><trkpt lat="44.41937" lon="10.9308933"><ele>254.0</ele><time>2026-04-24T17:27:53.028Z</time></trkpt><trkpt lat="44.4194317" lon="10.9309783"><ele>256.0</ele><time>2026-04-24T17:27:54.029Z</time></trkpt><trkpt lat="44.41949" lon="10.9310433"><ele>258.0</ele><time>2026-04-24T17:27:55.029Z</time></trkpt><trkpt lat="44.4195517" lon="10.9310933"><ele>260.0</ele><time>2026-04-24T17:27:56.028Z</time></trkpt><trkpt lat="44.4196583" lon="10.931135"><ele>262.0</ele><time>2026-04-24T17:27:58.029Z</time></trkpt><trkpt lat="44.4197267" lon="10.931155"><ele>264.0</ele><time>2026-04-24T17:27:59.029Z</time></trkpt><trkpt lat="44.4198133" lon="10.931195"><ele>264.0</ele><time>2026-04-24T17:28:00.029Z</time></trkpt><trkpt lat="44.419905" lon="10.9312633"><ele>264.0</ele><time>2026-04-24T17:28:01.029Z</time></trkpt><trkpt lat="44.420005" lon="10.93136"><ele>264.0</ele><time>2026-04-24T17:28:02.029Z</time></trkpt><trkpt lat="44.4201017" lon="10.9314767"><ele>264.0</ele><time>2026-04-24T17:28:03.029Z</time></trkpt><trkpt lat="44.4202" lon="10.9316017"><ele>264.0</ele><time>2026-04-24T17:28:04.028Z</time></trkpt><trkpt lat="44.4203017" lon="10.931705"><ele>264.0</ele><time>2026-04-24T17:28:05.028Z</time></trkpt><trkpt lat="44.4203983" lon="10.9317933"><ele>264.0</ele><time>2026-04-24T17:28:06.029Z</time></trkpt><trkpt lat="44.4204867" lon="10.93188"><ele>264.0</ele><time>2026-04-24T17:28:07.029Z</time></trkpt><trkpt lat="44.4205667" lon="10.9319783"><ele>267.59999999999997</ele><time>2026-04-24T17:28:08.028Z</time></trkpt><trkpt lat="44.4206267" lon="10.9320867"><ele>271.2</ele><time>2026-04-24T17:28:09.029Z</time></trkpt><trkpt lat="44.4206783" lon="10.93221"><ele>274.79999999999995</ele><time>2026-04-24T17:28:10.029Z</time></trkpt><trkpt lat="44.420715" lon="10.9323583"><ele>278.4</ele><time>2026-04-24T17:28:11.029Z</time></trkpt><trkpt lat="44.420755" lon="10.9324883"><ele>282.0</ele><time>2026-04-24T17:28:12.029Z</time></trkpt><trkpt lat="44.42081" lon="10.932605"><ele>287.0</ele><time>2026-04-24T17:28:13.029Z</time></trkpt><trkpt lat="44.42088" lon="10.9327"><ele>292.0</ele><time>2026-04-24T17:28:14.029Z</time></trkpt><trkpt lat="44.4209633" lon="10.9327833"><ele>297.0</ele><time>2026-04-24T17:28:15.028Z</time></trkpt><trkpt lat="44.4210517" lon="10.9328517"><ele>302.0</ele><time>2026-04-24T17:28:16.029Z</time></trkpt><trkpt lat="44.421145" lon="10.9329117"><ele>307.0</ele><time>2026-04-24T17:28:17.029Z</time></trkpt><trkpt lat="44.4212367" lon="10.9329683"><ele>304.8</ele><time>2026-04-24T17:28:18.028Z</time></trkpt><trkpt lat="44.4213217" lon="10.933065"><ele>302.6</ele><time>2026-04-24T17:28:19.029Z</time></trkpt><trkpt lat="44.421395" lon="10.93315"><ele>300.40000000000003</ele><time>2026-04-24T17:28:20.029Z</time></trkpt><trkpt lat="44.4214867" lon="10.9332217"><ele>298.2</ele><time>2026-04-24T17:28:21.029Z</time></trkpt><trkpt lat="44.4215767" lon="10.9332617"><ele>296.0</ele><time>2026-04-24T17:28:22.029Z</time></trkpt><trkpt lat="44.4216667" lon="10.933305"><ele>296.0</ele><time>2026-04-24T17:28:23.028Z</time></trkpt><trkpt lat="44.4217367" lon="10.9333483"><ele>296.0</ele><time>2026-04-24T17:28:24.029Z</time></trkpt><trkpt lat="44.4217883" lon="10.9334967"><ele>296.0</ele><time>2026-04-24T17:28:26.029Z</time></trkpt><trkpt lat="44.4217683" lon="10.93359"><ele>296.0</ele><time>2026-04-24T17:28:27.029Z</time></trkpt><trkpt lat="44.4217217" lon="10.93367"><ele>296.0</ele><time>2026-04-24T17:28:28.029Z</time></trkpt><trkpt lat="44.421655" lon="10.9337283"><ele>296.0</ele><time>2026-04-24T17:28:29.029Z</time></trkpt><trkpt lat="44.4215767" lon="10.9337533"><ele>298.6</ele><time>2026-04-24T17:28:30.029Z</time></trkpt><trkpt lat="44.4214967" lon="10.93374"><ele>301.20000000000005</ele><time>2026-04-24T17:28:31.029Z</time></trkpt><trkpt lat="44.4214133" lon="10.9337083"><ele>303.79999999999995</ele><time>2026-04-24T17:28:32.029Z</time></trkpt><trkpt lat="44.421315" lon="10.9336583"><ele>306.4</ele><time>2026-04-24T17:28:33.029Z</time></trkpt><trkpt lat="44.421205" lon="10.9336117"><ele>309.0</ele><time>2026-04-24T17:28:34.029Z</time></trkpt><trkpt lat="44.4210883" lon="10.9335617"><ele>313.25</ele><time>2026-04-24T17:28:35.029Z</time></trkpt><trkpt lat="44.4209567" lon="10.9335183"><ele>317.5</ele><time>2026-04-24T17:28:36.029Z</time></trkpt><trkpt lat="44.4208233" lon="10.93348"><ele>321.75</ele><time>2026-04-24T17:28:37.029Z</time></trkpt><trkpt lat="44.4206867" lon="10.9334467"><ele>326.0</ele><time>2026-04-24T17:28:38.029Z</time></trkpt><trkpt lat="44.420545" lon="10.93341"><ele>324.0</ele><time>2026-04-24T17:28:39.028Z</time></trkpt><trkpt lat="44.4204133" lon="10.9333667"><ele>322.0</ele><time>2026-04-24T17:28:40.029Z</time></trkpt><trkpt lat="44.4202883" lon="10.9333267"><ele>320.0</ele><time>2026-04-24T17:28:41.029Z</time></trkpt><trkpt lat="44.420185" lon="10.93331"><ele>318.0</ele><time>2026-04-24T17:28:42.028Z</time></trkpt><trkpt lat="44.42008" lon="10.9333133"><ele>318.0</ele><time>2026-04-24T17:28:43.028Z</time></trkpt><trkpt lat="44.4199617" lon="10.933345"><ele>318.0</ele><time>2026-04-24T17:28:44.029Z</time></trkpt><trkpt lat="44.4198367" lon="10.9333917"><ele>318.0</ele><time>2026-04-24T17:28:45.029Z</time></trkpt><trkpt lat="44.419715" lon="10.9334367"><ele>318.0</ele><time>2026-04-24T17:28:46.029Z</time></trkpt><trkpt lat="44.4195933" lon="10.9334867"><ele>327.5</ele><time>2026-04-24T17:28:47.028Z</time></trkpt><trkpt lat="44.419465" lon="10.933535"><ele>337.0</ele><time>2026-04-24T17:28:48.029Z</time></trkpt><trkpt lat="44.419345" lon="10.9335767"><ele>346.5</ele><time>2026-04-24T17:28:49.029Z</time></trkpt><trkpt lat="44.4192417" lon="10.9336083"><ele>356.0</ele><time>2026-04-24T17:28:50.029Z</time></trkpt><trkpt lat="44.419135" lon="10.9336317"><ele>356.0</ele><time>2026-04-24T17:28:51.028Z</time></trkpt><trkpt lat="44.41903" lon="10.9336717"><ele>356.0</ele><time>2026-04-24T17:28:52.029Z</time></trkpt><trkpt lat="44.4189167" lon="10.93371"><ele>356.0</ele><time>2026-04-24T17:28:53.028Z</time></trkpt><trkpt lat="44.4188117" lon="10.9337433"><ele>356.0</ele><time>2026-04-24T17:28:54.029Z</time></trkpt><trkpt lat="44.4187233" lon="10.9337683"><ele>356.0</ele><time>2026-04-24T17:28:55.028Z</time></trkpt><trkpt lat="44.4186467" lon="10.9338033"><ele>352.83333333333337</ele><time>2026-04-24T17:28:56.028Z</time></trkpt><trkpt lat="44.418575" lon="10.933835"><ele>349.6666666666667</ele><time>2026-04-24T17:28:57.029Z</time></trkpt><trkpt lat="44.4185133" lon="10.9338717"><ele>346.5</ele><time>2026-04-24T17:28:58.029Z</time></trkpt><trkpt lat="44.4184317" lon="10.9339717"><ele>343.3333333333333</ele><time>2026-04-24T17:29:00.029Z</time></trkpt><trkpt lat="44.41847" lon="10.93405"><ele>340.16666666666663</ele><time>2026-04-24T17:29:02.029Z</time></trkpt><trkpt lat="44.418535" lon="10.9340717"><ele>337.0</ele><time>2026-04-24T17:29:03.029Z</time></trkpt><trkpt lat="44.4186333" lon="10.934085"><ele>337.0</ele><time>2026-04-24T17:29:04.029Z</time></trkpt><trkpt lat="44.4187467" lon="10.9341067"><ele>337.0</ele><time>2026-04-24T17:29:05.029Z</time></trkpt><trkpt lat="44.418865" lon="10.9341417"><ele>337.0</ele><time>2026-04-24T17:29:06.029Z</time></trkpt><trkpt lat="44.418975" lon="10.93417"><ele>337.0</ele><time>2026-04-24T17:29:07.028Z</time></trkpt><trkpt lat="44.4191" lon="10.9342133"><ele>349.0</ele><time>2026-04-24T17:29:08.029Z</time></trkpt><trkpt lat="44.4192317" lon="10.9342417"><ele>361.0</ele><time>2026-04-24T17:29:09.029Z</time></trkpt><trkpt lat="44.4193667" lon="10.9342617"><ele>373.0</ele><time>2026-04-24T17:29:10.029Z</time></trkpt><trkpt lat="44.4194967" lon="10.9342783"><ele>385.0</ele><time>2026-04-24T17:29:11.029Z</time></trkpt><trkpt lat="44.419615" lon="10.93431"><ele>384.8</ele><time>2026-04-24T17:29:12.029Z</time></trkpt><trkpt lat="44.4197183" lon="10.9343433"><ele>384.6</ele><time>2026-04-24T17:29:13.028Z</time></trkpt><trkpt lat="44.419815" lon="10.93439"><ele>384.4</ele><time>2026-04-24T17:29:14.029Z</time></trkpt><trkpt lat="44.4199" lon="10.934455"><ele>384.2</ele><time>2026-04-24T17:29:15.029Z</time></trkpt><trkpt lat="44.4199817" lon="10.9345283"><ele>384.0</ele><time>2026-04-24T17:29:16.029Z</time></trkpt><trkpt lat="44.42006" lon="10.9346367"><ele>384.0</ele><time>2026-04-24T17:29:17.029Z</time></trkpt><trkpt lat="44.4201317" lon="10.9347667"><ele>384.0</ele><time>2026-04-24T17:29:18.029Z</time></trkpt><trkpt lat="44.420215" lon="10.93489"><ele>384.0</ele><time>2026-04-24T17:29:19.028Z</time></trkpt><trkpt lat="44.4202967" lon="10.9349867"><ele>384.0</ele><time>2026-04-24T17:29:20.029Z</time></trkpt><trkpt lat="44.4203883" lon="10.9350617"><ele>386.25</ele><time>2026-04-24T17:29:21.029Z</time></trkpt><trkpt lat="44.4204883" lon="10.9351317"><ele>388.5</ele><time>2026-04-24T17:29:22.029Z</time></trkpt><trkpt lat="44.4206033" lon="10.93521"><ele>390.75</ele><time>2026-04-24T17:29:23.028Z</time></trkpt><trkpt lat="44.4207217" lon="10.93528"><ele>393.0</ele><time>2026-04-24T17:29:24.029Z</time></trkpt><trkpt lat="44.4208217" lon="10.9353333"><ele>393.0</ele><time>2026-04-24T17:29:25.029Z</time></trkpt><trkpt lat="44.4209133" lon="10.935385"><ele>393.0</ele><time>2026-04-24T17:29:26.029Z</time></trkpt><trkpt lat="44.420995" lon="10.9354683"><ele>393.0</ele><time>2026-04-24T17:29:27.029Z</time></trkpt><trkpt lat="44.4210683" lon="10.9355583"><ele>393.0</ele><time>2026-04-24T17:29:28.028Z</time></trkpt><trkpt lat="44.4211333" lon="10.9356683"><ele>393.0</ele><time>2026-04-24T17:29:29.028Z</time></trkpt><trkpt lat="44.4211833" lon="10.9357683"><ele>393.0</ele><time>2026-04-24T17:29:30.029Z</time></trkpt><trkpt lat="44.4212133" lon="10.9358683"><ele>393.0</ele><time>2026-04-24T17:29:31.029Z</time></trkpt><trkpt lat="44.4212217" lon="10.9359683"><ele>393.0</ele><time>2026-04-24T17:29:32.029Z</time></trkpt><trkpt lat="44.4212017" lon="10.9360683"><ele>393.0</ele><time>2026-04-24T17:29:33.028Z</time></trkpt><trkpt lat="44.4211683" lon="10.9361817"><ele>393.0</ele><time>2026-04-24T17:29:34.029Z</time></trkpt><trkpt lat="44.42111" lon="10.9362983"><ele>393.0</ele><time>2026-04-24T17:29:35.028Z</time></trkpt><trkpt lat="44.421045" lon="10.936425"><ele>393.5</ele><time>2026-04-24T17:29:36.029Z</time></trkpt><trkpt lat="44.420975" lon="10.93656"><ele>394.0</ele><time>2026-04-24T17:29:37.029Z</time></trkpt><trkpt lat="44.4208867" lon="10.9367033"><ele>394.5</ele><time>2026-04-24T17:29:38.028Z</time></trkpt><trkpt lat="44.4207933" lon="10.9368517"><ele>395.0</ele><time>2026-04-24T17:29:39.028Z</time></trkpt><trkpt lat="44.4206833" lon="10.93702"><ele>396.66666666666663</ele><time>2026-04-24T17:29:40.028Z</time></trkpt><trkpt lat="44.42058" lon="10.9371917"><ele>398.33333333333337</ele><time>2026-04-24T17:29:41.029Z</time></trkpt><trkpt lat="44.4204783" lon="10.9373667"><ele>400.0</ele><time>2026-04-24T17:29:42.029Z</time></trkpt><trkpt lat="44.4203883" lon="10.937535"><ele>399.5</ele><time>2026-04-24T17:29:43.029Z</time></trkpt><trkpt lat="44.4203167" lon="10.937715"><ele>399.0</ele><time>2026-04-24T17:29:44.029Z</time></trkpt><trkpt lat="44.4202583" lon="10.9379033"><ele>398.5</ele><time>2026-04-24T17:29:45.029Z</time></trkpt><trkpt lat="44.4202167" lon="10.9381017"><ele>398.0</ele><time>2026-04-24T17:29:46.029Z</time></trkpt><trkpt lat="44.4201867" lon="10.93829"><ele>399.75</ele><time>2026-04-24T17:29:47.029Z</time></trkpt><trkpt lat="44.420155" lon="10.9384817"><ele>401.5</ele><time>2026-04-24T17:29:48.029Z</time></trkpt><trkpt lat="44.420125" lon="10.93866"><ele>403.25</ele><time>2026-04-24T17:29:49.029Z</time></trkpt><trkpt lat="44.4201033" lon="10.9388283"><ele>405.0</ele><time>2026-04-24T17:29:50.029Z</time></trkpt><trkpt lat="44.4200783" lon="10.9389933"><ele>405.0</ele><time>2026-04-24T17:29:51.029Z</time></trkpt><trkpt lat="44.4200533" lon="10.9391667"><ele>405.0</ele><time>2026-04-24T17:29:52.028Z</time></trkpt><trkpt lat="44.4200217" lon="10.939345"><ele>405.0</ele><time>2026-04-24T17:29:53.028Z</time></trkpt><trkpt lat="44.41999" lon="10.9395267"><ele>405.0</ele><time>2026-04-24T17:29:54.029Z</time></trkpt><trkpt lat="44.4199667" lon="10.9397067"><ele>407.25</ele><time>2026-04-24T17:29:55.029Z</time></trkpt><trkpt lat="44.4199317" lon="10.9398817"><ele>409.5</ele><time>2026-04-24T17:29:56.028Z</time></trkpt><trkpt lat="44.4199017" lon="10.9400517"><ele>411.75</ele><time>2026-04-24T17:29:57.028Z</time></trkpt><trkpt lat="44.4198767" lon="10.9402067"><ele>414.0</ele><time>2026-04-24T17:29:58.029Z</time></trkpt><trkpt lat="44.41986" lon="10.9403417"><ele>414.79999999999995</ele><time>2026-04-24T17:29:59.029Z</time></trkpt><trkpt lat="44.4198483" lon="10.9404717"><ele>415.59999999999997</ele><time>2026-04-24T17:30:00.029Z</time></trkpt><trkpt lat="44.419815" lon="10.9405917"><ele>416.4</ele><time>2026-04-24T17:30:01.029Z</time></trkpt><trkpt lat="44.4197733" lon="10.9407167"><ele>417.2</ele><time>2026-04-24T17:30:02.028Z</time></trkpt><trkpt lat="44.41973" lon="10.9408467"><ele>418.0</ele><time>2026-04-24T17:30:03.029Z</time></trkpt><trkpt lat="44.41969" lon="10.94098"><ele>418.00000000000006</ele><time>2026-04-24T17:30:04.029Z</time></trkpt><trkpt lat="44.4196567" lon="10.9410917"><ele>418.0</ele><time>2026-04-24T17:30:05.029Z</time></trkpt><trkpt lat="44.419615" lon="10.9411833"><ele>418.0</ele><time>2026-04-24T17:30:06.028Z</time></trkpt><trkpt lat="44.4195667" lon="10.94126"><ele>418.0</ele><time>2026-04-24T17:30:07.029Z</time></trkpt><trkpt lat="44.4195133" lon="10.9413217"><ele>418.00000000000006</ele><time>2026-04-24T17:30:08.029Z</time></trkpt><trkpt lat="44.41946" lon="10.9414017"><ele>418.0</ele><time>2026-04-24T17:30:09.029Z</time></trkpt><trkpt lat="44.4194133" lon="10.9415067"><ele>418.2</ele><time>2026-04-24T17:30:10.029Z</time></trkpt><trkpt lat="44.419365" lon="10.9416333"><ele>418.4</ele><time>2026-04-24T17:30:11.029Z</time></trkpt><trkpt lat="44.4193283" lon="10.9417667"><ele>418.59999999999997</ele><time>2026-04-24T17:30:12.028Z</time></trkpt><trkpt lat="44.4193183" lon="10.9418883"><ele>418.79999999999995</ele><time>2026-04-24T17:30:13.029Z</time></trkpt><trkpt lat="44.41928" lon="10.9420467"><ele>419.0</ele><time>2026-04-24T17:30:14.029Z</time></trkpt><trkpt lat="44.419245" lon="10.9421933"><ele>419.0</ele><time>2026-04-24T17:30:15.029Z</time></trkpt><trkpt lat="44.4191967" lon="10.9423317"><ele>419.0</ele><time>2026-04-24T17:30:16.029Z</time></trkpt><trkpt lat="44.4191633" lon="10.9424667"><ele>419.0</ele><time>2026-04-24T17:30:17.028Z</time></trkpt><trkpt lat="44.4191367" lon="10.9425817"><ele>419.0</ele><time>2026-04-24T17:30:18.029Z</time></trkpt><trkpt lat="44.4191067" lon="10.9426917"><ele>419.0</ele><time>2026-04-24T17:30:19.029Z</time></trkpt><trkpt lat="44.419075" lon="10.94279"><ele>419.99999999999994</ele><time>2026-04-24T17:30:20.029Z</time></trkpt><trkpt lat="44.4190517" lon="10.942895"><ele>421.0</ele><time>2026-04-24T17:30:21.029Z</time></trkpt><trkpt lat="44.41903" lon="10.943015"><ele>422.0</ele><time>2026-04-24T17:30:22.029Z</time></trkpt><trkpt lat="44.4190033" lon="10.9431333"><ele>423.0</ele><time>2026-04-24T17:30:23.028Z</time></trkpt><trkpt lat="44.4189683" lon="10.94326"><ele>423.99999999999994</ele><time>2026-04-24T17:30:24.029Z</time></trkpt><trkpt lat="44.4189367" lon="10.94338"><ele>425.0</ele><time>2026-04-24T17:30:25.029Z</time></trkpt><trkpt lat="44.4189033" lon="10.943505"><ele>424.8</ele><time>2026-04-24T17:30:26.029Z</time></trkpt><trkpt lat="44.4188717" lon="10.943625"><ele>424.6</ele><time>2026-04-24T17:30:27.029Z</time></trkpt><trkpt lat="44.4188417" lon="10.9437267"><ele>424.4</ele><time>2026-04-24T17:30:28.028Z</time></trkpt><trkpt lat="44.41879" lon="10.9438333"><ele>424.2</ele><time>2026-04-24T17:30:29.029Z</time></trkpt><trkpt lat="44.418715" lon="10.94391"><ele>424.0</ele><time>2026-04-24T17:30:30.029Z</time></trkpt><trkpt lat="44.418625" lon="10.9439517"><ele>424.0</ele><time>2026-04-24T17:30:31.029Z</time></trkpt><trkpt lat="44.4185233" lon="10.943995"><ele>424.0</ele><time>2026-04-24T17:30:32.029Z</time></trkpt><trkpt lat="44.41841" lon="10.9440417"><ele>424.0</ele><time>2026-04-24T17:30:33.029Z</time></trkpt><trkpt lat="44.418285" lon="10.94409"><ele>424.0</ele><time>2026-04-24T17:30:34.029Z</time></trkpt><trkpt lat="44.4181517" lon="10.9441617"><ele>427.25</ele><time>2026-04-24T17:30:35.029Z</time></trkpt><trkpt lat="44.4180217" lon="10.9442333"><ele>430.5</ele><time>2026-04-24T17:30:36.029Z</time></trkpt><trkpt lat="44.4178983" lon="10.944305"><ele>433.75</ele><time>2026-04-24T17:30:37.029Z</time></trkpt><trkpt lat="44.41779" lon="10.9443717"><ele>437.0</ele><time>2026-04-24T17:30:38.029Z</time></trkpt><trkpt lat="44.4177067" lon="10.9444233"><ele>437.6</ele><time>2026-04-24T17:30:39.028Z</time></trkpt><trkpt lat="44.4176083" lon="10.9444483"><ele>438.20000000000005</ele><time>2026-04-24T17:30:40.029Z</time></trkpt><trkpt lat="44.4175117" lon="10.9444467"><ele>438.8</ele><time>2026-04-24T17:30:41.029Z</time></trkpt><trkpt lat="44.4174117" lon="10.9444233"><ele>439.4</ele><time>2026-04-24T17:30:42.029Z</time></trkpt><trkpt lat="44.4173033" lon="10.9443883"><ele>440.0</ele><time>2026-04-24T17:30:43.029Z</time></trkpt><trkpt lat="44.41719" lon="10.9443483"><ele>441.0</ele><time>2026-04-24T17:30:44.029Z</time></trkpt><trkpt lat="44.417085" lon="10.9442983"><ele>442.0</ele><time>2026-04-24T17:30:45.029Z</time></trkpt><trkpt lat="44.41697" lon="10.944255"><ele>443.0</ele><time>2026-04-24T17:30:46.029Z</time></trkpt><trkpt lat="44.4168583" lon="10.9442167"><ele>444.0</ele><time>2026-04-24T17:30:47.028Z</time></trkpt><trkpt lat="44.4167433" lon="10.9441717"><ele>442.2</ele><time>2026-04-24T17:30:48.029Z</time></trkpt><trkpt lat="44.416625" lon="10.94413"><ele>440.4</ele><time>2026-04-24T17:30:49.029Z</time></trkpt><trkpt lat="44.41651" lon="10.9440833"><ele>438.6</ele><time>2026-04-24T17:30:50.029Z</time></trkpt><trkpt lat="44.416405" lon="10.944055"><ele>436.8</ele><time>2026-04-24T17:30:51.029Z</time></trkpt><trkpt lat="44.4163117" lon="10.9440417"><ele>435.0</ele><time>2026-04-24T17:30:52.028Z</time></trkpt><trkpt lat="44.4162233" lon="10.94405"><ele>435.0</ele><time>2026-04-24T17:30:53.028Z</time></trkpt><trkpt lat="44.4161317" lon="10.9441033"><ele>435.0</ele><time>2026-04-24T17:30:54.029Z</time></trkpt><trkpt lat="44.416045" lon="10.944175"><ele>435.0</ele><time>2026-04-24T17:30:55.029Z</time></trkpt><trkpt lat="44.4159567" lon="10.9442717"><ele>435.0</ele><time>2026-04-24T17:30:56.029Z</time></trkpt><trkpt lat="44.4158717" lon="10.944385"><ele>435.0</ele><time>2026-04-24T17:30:57.029Z</time></trkpt><trkpt lat="44.4157817" lon="10.94452"><ele>435.4</ele><time>2026-04-24T17:30:58.028Z</time></trkpt><trkpt lat="44.41572" lon="10.9446617"><ele>435.8</ele><time>2026-04-24T17:30:59.028Z</time></trkpt><trkpt lat="44.4156733" lon="10.9447933"><ele>436.20000000000005</ele><time>2026-04-24T17:31:00.029Z</time></trkpt><trkpt lat="44.415655" lon="10.944915"><ele>436.6</ele><time>2026-04-24T17:31:01.028Z</time></trkpt><trkpt lat="44.4156667" lon="10.945055"><ele>437.0</ele><time>2026-04-24T17:31:02.029Z</time></trkpt><trkpt lat="44.4157017" lon="10.9452"><ele>437.0</ele><time>2026-04-24T17:31:03.028Z</time></trkpt><trkpt lat="44.4157667" lon="10.945355"><ele>437.0</ele><time>2026-04-24T17:31:04.028Z</time></trkpt><trkpt lat="44.4158367" lon="10.9455217"><ele>437.0</ele><time>2026-04-24T17:31:05.028Z</time></trkpt><trkpt lat="44.4159217" lon="10.9456817"><ele>437.0</ele><time>2026-04-24T17:31:06.029Z</time></trkpt><trkpt lat="44.416" lon="10.9458433"><ele>436.25</ele><time>2026-04-24T17:31:07.029Z</time></trkpt><trkpt lat="44.4160783" lon="10.9460083"><ele>435.5</ele><time>2026-04-24T17:31:08.029Z</time></trkpt><trkpt lat="44.41614" lon="10.94618"><ele>434.75</ele><time>2026-04-24T17:31:09.028Z</time></trkpt><trkpt lat="44.4161883" lon="10.9463483"><ele>434.0</ele><time>2026-04-24T17:31:10.029Z</time></trkpt><trkpt lat="44.416215" lon="10.9465233"><ele>434.0</ele><time>2026-04-24T17:31:11.028Z</time></trkpt><trkpt lat="44.41622" lon="10.946695"><ele>434.0</ele><time>2026-04-24T17:31:12.029Z</time></trkpt><trkpt lat="44.4162033" lon="10.9468667"><ele>434.0</ele><time>2026-04-24T17:31:13.028Z</time></trkpt><trkpt lat="44.4161833" lon="10.9470417"><ele>434.0</ele><time>2026-04-24T17:31:14.029Z</time></trkpt><trkpt lat="44.416175" lon="10.94719"><ele>433.79999999999995</ele><time>2026-04-24T17:31:15.029Z</time></trkpt><trkpt lat="44.41618" lon="10.9473367"><ele>433.59999999999997</ele><time>2026-04-24T17:31:16.028Z</time></trkpt><trkpt lat="44.41621" lon="10.9474733"><ele>433.4</ele><time>2026-04-24T17:31:17.028Z</time></trkpt><trkpt lat="44.41625" lon="10.9476117"><ele>433.2</ele><time>2026-04-24T17:31:18.029Z</time></trkpt><trkpt lat="44.41631" lon="10.9477483"><ele>433.0</ele><time>2026-04-24T17:31:19.028Z</time></trkpt><trkpt lat="44.41639" lon="10.9478733"><ele>437.5</ele><time>2026-04-24T17:31:20.029Z</time></trkpt><trkpt lat="44.4164783" lon="10.9479833"><ele>442.0</ele><time>2026-04-24T17:31:21.028Z</time></trkpt><trkpt lat="44.4165733" lon="10.9480933"><ele>446.5</ele><time>2026-04-24T17:31:22.029Z</time></trkpt><trkpt lat="44.416655" lon="10.9481967"><ele>451.0</ele><time>2026-04-24T17:31:23.029Z</time></trkpt><trkpt lat="44.416715" lon="10.9483233"><ele>451.25</ele><time>2026-04-24T17:31:24.029Z</time></trkpt><trkpt lat="44.4167633" lon="10.9484617"><ele>451.5</ele><time>2026-04-24T17:31:25.028Z</time></trkpt><trkpt lat="44.4168067" lon="10.9486083"><ele>451.75</ele><time>2026-04-24T17:31:26.029Z</time></trkpt><trkpt lat="44.4168533" lon="10.9487633"><ele>452.0</ele><time>2026-04-24T17:31:27.029Z</time></trkpt><trkpt lat="44.416895" lon="10.9489183"><ele>452.0</ele><time>2026-04-24T17:31:28.029Z</time></trkpt><trkpt lat="44.41693" lon="10.9490833"><ele>452.0</ele><time>2026-04-24T17:31:29.028Z</time></trkpt><trkpt lat="44.4169583" lon="10.9492567"><ele>452.0</ele><time>2026-04-24T17:31:30.029Z</time></trkpt><trkpt lat="44.4169833" lon="10.9494283"><ele>452.0</ele><time>2026-04-24T17:31:31.029Z</time></trkpt><trkpt lat="44.4170033" lon="10.949605"><ele>454.0</ele><time>2026-04-24T17:31:32.029Z</time></trkpt><trkpt lat="44.417015" lon="10.949785"><ele>456.0</ele><time>2026-04-24T17:31:33.029Z</time></trkpt><trkpt lat="44.417015" lon="10.9499633"><ele>458.0</ele><time>2026-04-24T17:31:34.029Z</time></trkpt><trkpt lat="44.4169883" lon="10.9501367"><ele>460.0</ele><time>2026-04-24T17:31:35.028Z</time></trkpt><trkpt lat="44.416955" lon="10.95031"><ele>462.0</ele><time>2026-04-24T17:31:36.029Z</time></trkpt><trkpt lat="44.4169117" lon="10.950475"><ele>464.0</ele><time>2026-04-24T17:31:37.029Z</time></trkpt><trkpt lat="44.4168667" lon="10.9506183"><ele>466.0</ele><time>2026-04-24T17:31:38.029Z</time></trkpt><trkpt lat="44.4167983" lon="10.9507517"><ele>468.0</ele><time>2026-04-24T17:31:39.029Z</time></trkpt><trkpt lat="44.41672" lon="10.9508683"><ele>471.0</ele><time>2026-04-24T17:31:40.028Z</time></trkpt><trkpt lat="44.4166233" lon="10.9509467"><ele>474.0</ele><time>2026-04-24T17:31:41.029Z</time></trkpt><trkpt lat="44.4165183" lon="10.9510217"><ele>477.0</ele><time>2026-04-24T17:31:42.029Z</time></trkpt><trkpt lat="44.4164367" lon="10.951115"><ele>480.0</ele><time>2026-04-24T17:31:43.029Z</time></trkpt><trkpt lat="44.4163567" lon="10.95125"><ele>480.0</ele><time>2026-04-24T17:31:44.029Z</time></trkpt><trkpt lat="44.4162817" lon="10.9514"><ele>480.0</ele><time>2026-04-24T17:31:45.028Z</time></trkpt><trkpt lat="44.416195" lon="10.9515683"><ele>480.0</ele><time>2026-04-24T17:31:46.029Z</time></trkpt><trkpt lat="44.4161" lon="10.95174"><ele>480.0</ele><time>2026-04-24T17:31:47.029Z</time></trkpt><trkpt lat="44.416015" lon="10.9518933"><ele>480.75</ele><time>2026-04-24T17:31:48.029Z</time></trkpt><trkpt lat="44.4159283" lon="10.952025"><ele>481.5</ele><time>2026-04-24T17:31:49.029Z</time></trkpt><trkpt lat="44.41584" lon="10.95214"><ele>482.25</ele><time>2026-04-24T17:31:50.029Z</time></trkpt><trkpt lat="44.4157567" lon="10.95224"><ele>483.0</ele><time>2026-04-24T17:31:51.028Z</time></trkpt><trkpt lat="44.4156733" lon="10.9523183"><ele>483.0</ele><time>2026-04-24T17:31:52.029Z</time></trkpt><trkpt lat="44.415585" lon="10.95238"><ele>482.99999999999994</ele><time>2026-04-24T17:31:53.028Z</time></trkpt><trkpt lat="44.4154967" lon="10.9524467"><ele>482.99999999999994</ele><time>2026-04-24T17:31:54.028Z</time></trkpt><trkpt lat="44.4154017" lon="10.952515"><ele>483.0</ele><time>2026-04-24T17:31:55.028Z</time></trkpt><trkpt lat="44.41531" lon="10.9525833"><ele>483.0</ele><time>2026-04-24T17:31:56.029Z</time></trkpt><trkpt lat="44.41523" lon="10.9526517"><ele>482.6666666666667</ele><time>2026-04-24T17:31:57.029Z</time></trkpt><trkpt lat="44.4151617" lon="10.9527283"><ele>482.33333333333337</ele><time>2026-04-24T17:31:58.029Z</time></trkpt><trkpt lat="44.4151017" lon="10.9528117"><ele>482.0</ele><time>2026-04-24T17:31:59.028Z</time></trkpt><trkpt lat="44.415065" lon="10.9528983"><ele>481.6666666666667</ele><time>2026-04-24T17:32:00.028Z</time></trkpt><trkpt lat="44.4150633" lon="10.9530183"><ele>481.33333333333337</ele><time>2026-04-24T17:32:01.029Z</time></trkpt><trkpt lat="44.415085" lon="10.9531383"><ele>481.0</ele><time>2026-04-24T17:32:02.029Z</time></trkpt><trkpt lat="44.41512" lon="10.95326"><ele>481.0</ele><time>2026-04-24T17:32:03.029Z</time></trkpt><trkpt lat="44.415165" lon="10.953395"><ele>481.0</ele><time>2026-04-24T17:32:04.028Z</time></trkpt><trkpt lat="44.415205" lon="10.9535483"><ele>481.0</ele><time>2026-04-24T17:32:05.029Z</time></trkpt><trkpt lat="44.41524" lon="10.9537117"><ele>481.0</ele><time>2026-04-24T17:32:06.029Z</time></trkpt><trkpt lat="44.41527" lon="10.9538933"><ele>481.0</ele><time>2026-04-24T17:32:07.029Z</time></trkpt><trkpt lat="44.4153017" lon="10.95408"><ele>481.0</ele><time>2026-04-24T17:32:08.029Z</time></trkpt><trkpt lat="44.4153333" lon="10.954275"><ele>481.0</ele><time>2026-04-24T17:32:09.029Z</time></trkpt><trkpt lat="44.4153617" lon="10.9544833"><ele>481.0</ele><time>2026-04-24T17:32:10.029Z</time></trkpt><trkpt lat="44.415385" lon="10.9546983"><ele>482.75</ele><time>2026-04-24T17:32:11.028Z</time></trkpt><trkpt lat="44.41541" lon="10.954915"><ele>484.5</ele><time>2026-04-24T17:32:12.029Z</time></trkpt><trkpt lat="44.4154233" lon="10.95512"><ele>486.25</ele><time>2026-04-24T17:32:13.028Z</time></trkpt><trkpt lat="44.415435" lon="10.9553017"><ele>488.0</ele><time>2026-04-24T17:32:14.029Z</time></trkpt><trkpt lat="44.4154467" lon="10.9554667"><ele>488.66666666666663</ele><time>2026-04-24T17:32:15.028Z</time></trkpt><trkpt lat="44.4154517" lon="10.9556117"><ele>489.3333333333333</ele><time>2026-04-24T17:32:16.029Z</time></trkpt><trkpt lat="44.4154583" lon="10.9557467"><ele>490.0</ele><time>2026-04-24T17:32:17.029Z</time></trkpt><trkpt lat="44.4154683" lon="10.9558667"><ele>490.66666666666663</ele><time>2026-04-24T17:32:18.028Z</time></trkpt><trkpt lat="44.4154733" lon="10.9559717"><ele>491.3333333333333</ele><time>2026-04-24T17:32:19.029Z</time></trkpt><trkpt lat="44.41548" lon="10.956065"><ele>492.0</ele><time>2026-04-24T17:32:20.029Z</time></trkpt><trkpt lat="44.4154967" lon="10.95624"><ele>492.8</ele><time>2026-04-24T17:32:22.029Z</time></trkpt><trkpt lat="44.4154983" lon="10.95634"><ele>493.6</ele><time>2026-04-24T17:32:23.029Z</time></trkpt><trkpt lat="44.4154967" lon="10.95649"><ele>494.40000000000003</ele><time>2026-04-24T17:32:25.029Z</time></trkpt><trkpt lat="44.4155367" lon="10.9565683"><ele>495.20000000000005</ele><time>2026-04-24T17:32:32.028Z</time></trkpt><trkpt lat="44.4156483" lon="10.9565967"><ele>496.0</ele><time>2026-04-24T17:32:34.029Z</time></trkpt><trkpt lat="44.41574" lon="10.9566033"><ele>496.0</ele><time>2026-04-24T17:32:35.029Z</time></trkpt><trkpt lat="44.4158483" lon="10.9566017"><ele>496.0</ele><time>2026-04-24T17:32:36.029Z</time></trkpt><trkpt lat="44.4159683" lon="10.956605"><ele>496.0</ele><time>2026-04-24T17:32:37.029Z</time></trkpt><trkpt lat="44.4161" lon="10.9566083"><ele>496.0</ele><time>2026-04-24T17:32:38.029Z</time></trkpt><trkpt lat="44.4162383" lon="10.9566333"><ele>498.0</ele><time>2026-04-24T17:32:39.029Z</time></trkpt><trkpt lat="44.41637" lon="10.956655"><ele>500.0</ele><time>2026-04-24T17:32:40.028Z</time></trkpt><trkpt lat="44.4165017" lon="10.9567167"><ele>502.0</ele><time>2026-04-24T17:32:41.029Z</time></trkpt><trkpt lat="44.416625" lon="10.956815"><ele>504.0</ele><time>2026-04-24T17:32:42.029Z</time></trkpt><trkpt lat="44.4167467" lon="10.9569283"><ele>505.66666666666663</ele><time>2026-04-24T17:32:43.029Z</time></trkpt><trkpt lat="44.41687" lon="10.9570333"><ele>507.3333333333333</ele><time>2026-04-24T17:32:44.029Z</time></trkpt><trkpt lat="44.4170067" lon="10.95712"><ele>509.0</ele><time>2026-04-24T17:32:45.029Z</time></trkpt><trkpt lat="44.4171533" lon="10.957205"><ele>505.0</ele><time>2026-04-24T17:32:46.029Z</time></trkpt><trkpt lat="44.4173283" lon="10.957285"><ele>501.0</ele><time>2026-04-24T17:32:47.028Z</time></trkpt><trkpt lat="44.4174967" lon="10.9573683"><ele>497.0</ele><time>2026-04-24T17:32:48.029Z</time></trkpt><trkpt lat="44.4176417" lon="10.9574583"><ele>494.5</ele><time>2026-04-24T17:32:49.029Z</time></trkpt><trkpt lat="44.41778" lon="10.9575433"><ele>492.0</ele><time>2026-04-24T17:32:50.028Z</time></trkpt><trkpt lat="44.4179" lon="10.9576283"><ele>489.5</ele><time>2026-04-24T17:32:51.029Z</time></trkpt><trkpt lat="44.4180167" lon="10.9577133"><ele>487.0</ele><time>2026-04-24T17:32:52.029Z</time></trkpt><trkpt lat="44.4181267" lon="10.9577783"><ele>487.0</ele><time>2026-04-24T17:32:53.028Z</time></trkpt><trkpt lat="44.4182433" lon="10.9578183"><ele>487.0</ele><time>2026-04-24T17:32:54.029Z</time></trkpt><trkpt lat="44.418385" lon="10.957815"><ele>487.0</ele><time>2026-04-24T17:32:55.029Z</time></trkpt><trkpt lat="44.4185283" lon="10.9577833"><ele>487.0</ele><time>2026-04-24T17:32:56.029Z</time></trkpt><trkpt lat="44.4186533" lon="10.9577633"><ele>487.0</ele><time>2026-04-24T17:32:57.028Z</time></trkpt><trkpt lat="44.4187617" lon="10.95776"><ele>487.00000000000006</ele><time>2026-04-24T17:32:58.029Z</time></trkpt><trkpt lat="44.4188583" lon="10.9578117"><ele>487.00000000000006</ele><time>2026-04-24T17:32:59.028Z</time></trkpt><trkpt lat="44.4189333" lon="10.957895"><ele>487.0</ele><time>2026-04-24T17:33:00.029Z</time></trkpt><trkpt lat="44.41898" lon="10.9580133"><ele>487.0</ele><time>2026-04-24T17:33:01.029Z</time></trkpt><trkpt lat="44.4189867" lon="10.9581467"><ele>484.75</ele><time>2026-04-24T17:33:02.029Z</time></trkpt><trkpt lat="44.418945" lon="10.958265"><ele>482.5</ele><time>2026-04-24T17:33:03.029Z</time></trkpt><trkpt lat="44.4188783" lon="10.958385"><ele>480.25</ele><time>2026-04-24T17:33:04.029Z</time></trkpt><trkpt lat="44.4187917" lon="10.9585233"><ele>478.0</ele><time>2026-04-24T17:33:05.029Z</time></trkpt><trkpt lat="44.4187167" lon="10.958665"><ele>478.0</ele><time>2026-04-24T17:33:06.028Z</time></trkpt><trkpt lat="44.4186683" lon="10.9588183"><ele>478.0</ele><time>2026-04-24T17:33:07.029Z</time></trkpt><trkpt lat="44.4186467" lon="10.95898"><ele>478.0</ele><time>2026-04-24T17:33:08.028Z</time></trkpt><trkpt lat="44.41867" lon="10.9591433"><ele>478.0</ele><time>2026-04-24T17:33:09.029Z</time></trkpt><trkpt lat="44.418735" lon="10.9593"><ele>479.25</ele><time>2026-04-24T17:33:10.029Z</time></trkpt><trkpt lat="44.4188233" lon="10.9594383"><ele>480.5</ele><time>2026-04-24T17:33:11.029Z</time></trkpt><trkpt lat="44.418935" lon="10.9595667"><ele>481.75</ele><time>2026-04-24T17:33:12.028Z</time></trkpt><trkpt lat="44.4190667" lon="10.95969"><ele>483.0</ele><time>2026-04-24T17:33:13.029Z</time></trkpt><trkpt lat="44.419225" lon="10.9598033"><ele>483.0</ele><time>2026-04-24T17:33:14.029Z</time></trkpt><trkpt lat="44.419385" lon="10.959925"><ele>483.0</ele><time>2026-04-24T17:33:15.028Z</time></trkpt><trkpt lat="44.419555" lon="10.960045"><ele>483.0</ele><time>2026-04-24T17:33:16.029Z</time></trkpt><trkpt lat="44.4197283" lon="10.9601717"><ele>478.0</ele><time>2026-04-24T17:33:17.028Z</time></trkpt><trkpt lat="44.4198917" lon="10.9603067"><ele>473.0</ele><time>2026-04-24T17:33:18.029Z</time></trkpt><trkpt lat="44.4200433" lon="10.9604583"><ele>468.0</ele><time>2026-04-24T17:33:19.029Z</time></trkpt><trkpt lat="44.4202067" lon="10.9606083"><ele>468.0</ele><time>2026-04-24T17:33:20.029Z</time></trkpt><trkpt lat="44.4203633" lon="10.9607683"><ele>468.0</ele><time>2026-04-24T17:33:21.029Z</time></trkpt><trkpt lat="44.4205083" lon="10.960935"><ele>468.0</ele><time>2026-04-24T17:33:22.029Z</time></trkpt><trkpt lat="44.4206367" lon="10.961095"><ele>467.25</ele><time>2026-04-24T17:33:23.029Z</time></trkpt><trkpt lat="44.4207633" lon="10.9612367"><ele>466.5</ele><time>2026-04-24T17:33:24.029Z</time></trkpt><trkpt lat="44.42088" lon="10.961375"><ele>465.75</ele><time>2026-04-24T17:33:25.029Z</time></trkpt><trkpt lat="44.42098" lon="10.9614967"><ele>465.0</ele><time>2026-04-24T17:33:26.029Z</time></trkpt><trkpt lat="44.4210767" lon="10.9615917"><ele>465.0</ele><time>2026-04-24T17:33:27.029Z</time></trkpt><trkpt lat="44.4211967" lon="10.9616583"><ele>465.0</ele><time>2026-04-24T17:33:28.029Z</time></trkpt><trkpt lat="44.421315" lon="10.961705"><ele>465.0</ele><time>2026-04-24T17:33:29.028Z</time></trkpt><trkpt lat="44.4214517" lon="10.961705"><ele>465.0</ele><time>2026-04-24T17:33:30.029Z</time></trkpt><trkpt lat="44.4215967" lon="10.9617083"><ele>467.33333333333337</ele><time>2026-04-24T17:33:31.029Z</time></trkpt><trkpt lat="44.42175" lon="10.9616767"><ele>469.6666666666667</ele><time>2026-04-24T17:33:32.029Z</time></trkpt><trkpt lat="44.4219083" lon="10.961635"><ele>472.0</ele><time>2026-04-24T17:33:33.029Z</time></trkpt><trkpt lat="44.4220783" lon="10.9615983"><ele>467.6666666666667</ele><time>2026-04-24T17:33:34.029Z</time></trkpt><trkpt lat="44.422245" lon="10.96155"><ele>463.33333333333337</ele><time>2026-04-24T17:33:35.029Z</time></trkpt><trkpt lat="44.4224017" lon="10.9614917"><ele>459.0</ele><time>2026-04-24T17:33:36.028Z</time></trkpt><trkpt lat="44.4225433" lon="10.9614083"><ele>459.0</ele><time>2026-04-24T17:33:37.029Z</time></trkpt><trkpt lat="44.42267" lon="10.9613217"><ele>459.0</ele><time>2026-04-24T17:33:38.029Z</time></trkpt><trkpt lat="44.4227783" lon="10.961245"><ele>459.0</ele><time>2026-04-24T17:33:39.029Z</time></trkpt><trkpt lat="44.422875" lon="10.9611967"><ele>459.0</ele><time>2026-04-24T17:33:40.029Z</time></trkpt><trkpt lat="44.4229767" lon="10.961185"><ele>459.4</ele><time>2026-04-24T17:33:41.029Z</time></trkpt><trkpt lat="44.4230683" lon="10.9612567"><ele>459.79999999999995</ele><time>2026-04-24T17:33:42.029Z</time></trkpt><trkpt lat="44.4231483" lon="10.9613633"><ele>460.20000000000005</ele><time>2026-04-24T17:33:43.029Z</time></trkpt><trkpt lat="44.4232183" lon="10.96149"><ele>460.6</ele><time>2026-04-24T17:33:44.029Z</time></trkpt><trkpt lat="44.4232817" lon="10.961625"><ele>461.0</ele><time>2026-04-24T17:33:45.029Z</time></trkpt><trkpt lat="44.4233583" lon="10.961755"><ele>457.75</ele><time>2026-04-24T17:33:46.029Z</time></trkpt><trkpt lat="44.42345" lon="10.96185"><ele>454.5</ele><time>2026-04-24T17:33:47.029Z</time></trkpt><trkpt lat="44.4235683" lon="10.9618933"><ele>451.25</ele><time>2026-04-24T17:33:48.029Z</time></trkpt><trkpt lat="44.42369" lon="10.9618983"><ele>448.0</ele><time>2026-04-24T17:33:49.029Z</time></trkpt><trkpt lat="44.4238383" lon="10.961885"><ele>448.0</ele><time>2026-04-24T17:33:50.029Z</time></trkpt><trkpt lat="44.4239983" lon="10.9618717"><ele>448.0</ele><time>2026-04-24T17:33:51.029Z</time></trkpt><trkpt lat="44.424165" lon="10.9618633"><ele>448.0</ele><time>2026-04-24T17:33:52.029Z</time></trkpt><trkpt lat="44.4243233" lon="10.9618567"><ele>448.0</ele><time>2026-04-24T17:33:53.029Z</time></trkpt><trkpt lat="44.42447" lon="10.961855"><ele>448.0</ele><time>2026-04-24T17:33:54.029Z</time></trkpt><trkpt lat="44.4246067" lon="10.96185"><ele>448.0</ele><time>2026-04-24T17:33:55.029Z</time></trkpt><trkpt lat="44.4247317" lon="10.9618533"><ele>448.0</ele><time>2026-04-24T17:33:56.029Z</time></trkpt><trkpt lat="44.424835" lon="10.9618867"><ele>447.79999999999995</ele><time>2026-04-24T17:33:57.029Z</time></trkpt><trkpt lat="44.4249167" lon="10.961935"><ele>447.59999999999997</ele><time>2026-04-24T17:33:58.029Z</time></trkpt><trkpt lat="44.4249733" lon="10.9620317"><ele>447.40000000000003</ele><time>2026-04-24T17:33:59.029Z</time></trkpt><trkpt lat="44.42499" lon="10.9621483"><ele>447.20000000000005</ele><time>2026-04-24T17:34:00.028Z</time></trkpt><trkpt lat="44.42497" lon="10.96229"><ele>447.0</ele><time>2026-04-24T17:34:01.029Z</time></trkpt><trkpt lat="44.42492" lon="10.9624183"><ele>445.5</ele><time>2026-04-24T17:34:02.029Z</time></trkpt><trkpt lat="44.42486" lon="10.9625483"><ele>444.0</ele><time>2026-04-24T17:34:03.029Z</time></trkpt><trkpt lat="44.4247933" lon="10.96267"><ele>442.5</ele><time>2026-04-24T17:34:04.029Z</time></trkpt><trkpt lat="44.4247233" lon="10.9628083"><ele>441.0</ele><time>2026-04-24T17:34:05.029Z</time></trkpt><trkpt lat="44.42465" lon="10.9629517"><ele>441.4</ele><time>2026-04-24T17:34:06.029Z</time></trkpt><trkpt lat="44.424585" lon="10.9630833"><ele>441.8</ele><time>2026-04-24T17:34:07.029Z</time></trkpt><trkpt lat="44.42453" lon="10.9631983"><ele>442.19999999999993</ele><time>2026-04-24T17:34:08.029Z</time></trkpt><trkpt lat="44.4244833" lon="10.963285"><ele>442.59999999999997</ele><time>2026-04-24T17:34:09.028Z</time></trkpt><trkpt lat="44.424435" lon="10.96338"><ele>443.0</ele><time>2026-04-24T17:34:11.029Z</time></trkpt><trkpt lat="44.4245117" lon="10.9635067"><ele>443.2</ele><time>2026-04-24T17:34:17.028Z</time></trkpt><trkpt lat="44.424585" lon="10.96355"><ele>443.4</ele><time>2026-04-24T17:34:18.029Z</time></trkpt><trkpt lat="44.4246833" lon="10.96358"><ele>443.59999999999997</ele><time>2026-04-24T17:34:19.029Z</time></trkpt><trkpt lat="44.4247867" lon="10.9636233"><ele>443.79999999999995</ele><time>2026-04-24T17:34:20.029Z</time></trkpt><trkpt lat="44.4249083" lon="10.9636383"><ele>444.0</ele><time>2026-04-24T17:34:21.029Z</time></trkpt><trkpt lat="44.4250283" lon="10.963635"><ele>441.5</ele><time>2026-04-24T17:34:22.029Z</time></trkpt><trkpt lat="44.4251533" lon="10.9636083"><ele>439.0</ele><time>2026-04-24T17:34:23.028Z</time></trkpt><trkpt lat="44.42527" lon="10.9635883"><ele>436.5</ele><time>2026-04-24T17:34:24.029Z</time></trkpt><trkpt lat="44.425395" lon="10.963555"><ele>434.0</ele><time>2026-04-24T17:34:25.029Z</time></trkpt><trkpt lat="44.425535" lon="10.9635167"><ele>429.66666666666663</ele><time>2026-04-24T17:34:26.029Z</time></trkpt><trkpt lat="44.4256833" lon="10.9634733"><ele>425.33333333333337</ele><time>2026-04-24T17:34:27.029Z</time></trkpt><trkpt lat="44.4258333" lon="10.9634417"><ele>421.0</ele><time>2026-04-24T17:34:28.029Z</time></trkpt><trkpt lat="44.4259883" lon="10.9634183"><ele>421.0</ele><time>2026-04-24T17:34:29.029Z</time></trkpt><trkpt lat="44.4261417" lon="10.963415"><ele>421.0</ele><time>2026-04-24T17:34:30.028Z</time></trkpt><trkpt lat="44.4262967" lon="10.9634133"><ele>421.0</ele><time>2026-04-24T17:34:31.029Z</time></trkpt><trkpt lat="44.426455" lon="10.96343"><ele>419.33333333333337</ele><time>2026-04-24T17:34:32.028Z</time></trkpt><trkpt lat="44.4266167" lon="10.9634633"><ele>417.66666666666663</ele><time>2026-04-24T17:34:33.029Z</time></trkpt><trkpt lat="44.4267783" lon="10.9635"><ele>416.0</ele><time>2026-04-24T17:34:34.029Z</time></trkpt><trkpt lat="44.4269417" lon="10.963535"><ele>416.0</ele><time>2026-04-24T17:34:35.029Z</time></trkpt><trkpt lat="44.427105" lon="10.963575"><ele>416.0</ele><time>2026-04-24T17:34:36.029Z</time></trkpt><trkpt lat="44.42727" lon="10.9636"><ele>416.0</ele><time>2026-04-24T17:34:37.029Z</time></trkpt><trkpt lat="44.427435" lon="10.9636017"><ele>414.5</ele><time>2026-04-24T17:34:38.029Z</time></trkpt><trkpt lat="44.4275933" lon="10.963605"><ele>413.0</ele><time>2026-04-24T17:34:39.028Z</time></trkpt><trkpt lat="44.42774" lon="10.9635967"><ele>411.5</ele><time>2026-04-24T17:34:40.029Z</time></trkpt><trkpt lat="44.4278767" lon="10.96361"><ele>410.0</ele><time>2026-04-24T17:34:41.029Z</time></trkpt><trkpt lat="44.4280083" lon="10.9636433"><ele>407.75</ele><time>2026-04-24T17:34:42.029Z</time></trkpt><trkpt lat="44.428135" lon="10.9636933"><ele>405.5</ele><time>2026-04-24T17:34:43.029Z</time></trkpt><trkpt lat="44.4282733" lon="10.9637717"><ele>403.25</ele><time>2026-04-24T17:34:44.029Z</time></trkpt><trkpt lat="44.4284267" lon="10.9638567"><ele>401.0</ele><time>2026-04-24T17:34:45.029Z</time></trkpt><trkpt lat="44.4285983" lon="10.96394"><ele>401.0</ele><time>2026-04-24T17:34:46.028Z</time></trkpt><trkpt lat="44.4287817" lon="10.9640367"><ele>401.0</ele><time>2026-04-24T17:34:47.028Z</time></trkpt><trkpt lat="44.4289717" lon="10.9641217"><ele>401.0</ele><time>2026-04-24T17:34:48.029Z</time></trkpt><trkpt lat="44.4291633" lon="10.9642083"><ele>396.0</ele><time>2026-04-24T17:34:49.029Z</time></trkpt><trkpt lat="44.4293583" lon="10.9642967"><ele>391.0</ele><time>2026-04-24T17:34:50.028Z</time></trkpt><trkpt lat="44.4295533" lon="10.9643783"><ele>386.0</ele><time>2026-04-24T17:34:51.029Z</time></trkpt><trkpt lat="44.4297517" lon="10.96446"><ele>384.3333333333333</ele><time>2026-04-24T17:34:52.029Z</time></trkpt><trkpt lat="44.429945" lon="10.964545"><ele>382.66666666666663</ele><time>2026-04-24T17:34:53.029Z</time></trkpt><trkpt lat="44.430135" lon="10.9646317"><ele>381.0</ele><time>2026-04-24T17:34:54.029Z</time></trkpt><trkpt lat="44.4303167" lon="10.96473"><ele>379.3333333333333</ele><time>2026-04-24T17:34:55.029Z</time></trkpt><trkpt lat="44.4304817" lon="10.9648167"><ele>377.66666666666663</ele><time>2026-04-24T17:34:56.028Z</time></trkpt><trkpt lat="44.43063" lon="10.9649033"><ele>376.0</ele><time>2026-04-24T17:34:57.029Z</time></trkpt><trkpt lat="44.4307833" lon="10.9649583"><ele>376.0</ele><time>2026-04-24T17:34:58.029Z</time></trkpt><trkpt lat="44.43094" lon="10.9649833"><ele>376.0</ele><time>2026-04-24T17:34:59.029Z</time></trkpt><trkpt lat="44.4311067" lon="10.965"><ele>376.0</ele><time>2026-04-24T17:35:00.029Z</time></trkpt><trkpt lat="44.43128" lon="10.9650133"><ele>378.3333333333333</ele><time>2026-04-24T17:35:01.029Z</time></trkpt><trkpt lat="44.4314717" lon="10.9650367"><ele>380.6666666666667</ele><time>2026-04-24T17:35:02.028Z</time></trkpt><trkpt lat="44.431665" lon="10.96506"><ele>383.0</ele><time>2026-04-24T17:35:03.029Z</time></trkpt><trkpt lat="44.4318533" lon="10.9650817"><ele>383.0</ele><time>2026-04-24T17:35:04.028Z</time></trkpt><trkpt lat="44.4320417" lon="10.9651117"><ele>383.0</ele><time>2026-04-24T17:35:05.029Z</time></trkpt><trkpt lat="44.4322217" lon="10.9651467"><ele>383.0</ele><time>2026-04-24T17:35:06.028Z</time></trkpt><trkpt lat="44.4323933" lon="10.9651783"><ele>380.0</ele><time>2026-04-24T17:35:07.029Z</time></trkpt><trkpt lat="44.43258" lon="10.9651833"><ele>377.0</ele><time>2026-04-24T17:35:08.029Z</time></trkpt><trkpt lat="44.4327733" lon="10.965175"><ele>374.0</ele><time>2026-04-24T17:35:09.028Z</time></trkpt><trkpt lat="44.4329683" lon="10.96516"><ele>372.6666666666667</ele><time>2026-04-24T17:35:10.029Z</time></trkpt><trkpt lat="44.4331617" lon="10.9651517"><ele>371.3333333333333</ele><time>2026-04-24T17:35:11.029Z</time></trkpt><trkpt lat="44.433345" lon="10.9651533"><ele>370.0</ele><time>2026-04-24T17:35:12.029Z</time></trkpt><trkpt lat="44.4335183" lon="10.96517"><ele>370.0</ele><time>2026-04-24T17:35:13.029Z</time></trkpt><trkpt lat="44.4336883" lon="10.9652033"><ele>370.0</ele><time>2026-04-24T17:35:14.029Z</time></trkpt><trkpt lat="44.43385" lon="10.965245"><ele>370.0</ele><time>2026-04-24T17:35:15.028Z</time></trkpt><trkpt lat="44.4340083" lon="10.965285"><ele>366.3333333333333</ele><time>2026-04-24T17:35:16.028Z</time></trkpt><trkpt lat="44.4341733" lon="10.965295"><ele>362.6666666666667</ele><time>2026-04-24T17:35:17.029Z</time></trkpt><trkpt lat="44.43433" lon="10.9652867"><ele>359.0</ele><time>2026-04-24T17:35:18.029Z</time></trkpt><trkpt lat="44.43449" lon="10.965265"><ele>355.33333333333337</ele><time>2026-04-24T17:35:19.029Z</time></trkpt><trkpt lat="44.4346467" lon="10.9652267"><ele>351.6666666666667</ele><time>2026-04-24T17:35:20.029Z</time></trkpt><trkpt lat="44.4348083" lon="10.9651733"><ele>348.0</ele><time>2026-04-24T17:35:21.029Z</time></trkpt><trkpt lat="44.4349817" lon="10.9651067"><ele>348.0</ele><time>2026-04-24T17:35:22.029Z</time></trkpt><trkpt lat="44.4351467" lon="10.9650483"><ele>348.0</ele><time>2026-04-24T17:35:23.029Z</time></trkpt><trkpt lat="44.4353067" lon="10.9649933"><ele>348.0</ele><time>2026-04-24T17:35:24.029Z</time></trkpt><trkpt lat="44.4354583" lon="10.9649333"><ele>349.25</ele><time>2026-04-24T17:35:25.029Z</time></trkpt><trkpt lat="44.4356017" lon="10.96486"><ele>350.5</ele><time>2026-04-24T17:35:26.029Z</time></trkpt><trkpt lat="44.4357367" lon="10.9648067"><ele>351.75</ele><time>2026-04-24T17:35:27.028Z</time></trkpt><trkpt lat="44.4358633" lon="10.9647433"><ele>353.0</ele><time>2026-04-24T17:35:28.029Z</time></trkpt><trkpt lat="44.4359717" lon="10.9646733"><ele>353.0</ele><time>2026-04-24T17:35:29.029Z</time></trkpt><trkpt lat="44.43607" lon="10.9645867"><ele>353.0</ele><time>2026-04-24T17:35:30.029Z</time></trkpt><trkpt lat="44.4361667" lon="10.9644833"><ele>353.0</ele><time>2026-04-24T17:35:31.029Z</time></trkpt><trkpt lat="44.436255" lon="10.9643733"><ele>353.0</ele><time>2026-04-24T17:35:32.029Z</time></trkpt><trkpt lat="44.436345" lon="10.9642467"><ele>351.5</ele><time>2026-04-24T17:35:33.029Z</time></trkpt><trkpt lat="44.43644" lon="10.9641133"><ele>350.0</ele><time>2026-04-24T17:35:34.029Z</time></trkpt><trkpt lat="44.4365383" lon="10.9639683"><ele>348.5</ele><time>2026-04-24T17:35:35.029Z</time></trkpt><trkpt lat="44.4366367" lon="10.963815"><ele>347.0</ele><time>2026-04-24T17:35:36.029Z</time></trkpt><trkpt lat="44.4367333" lon="10.9636667"><ele>347.0</ele><time>2026-04-24T17:35:37.029Z</time></trkpt><trkpt lat="44.43682" lon="10.9635283"><ele>347.0</ele><time>2026-04-24T17:35:38.028Z</time></trkpt><trkpt lat="44.4369083" lon="10.9634067"><ele>347.0</ele><time>2026-04-24T17:35:39.028Z</time></trkpt><trkpt lat="44.4370117" lon="10.9633017"><ele>347.0</ele><time>2026-04-24T17:35:40.028Z</time></trkpt><trkpt lat="44.437125" lon="10.963225"><ele>343.0</ele><time>2026-04-24T17:35:41.029Z</time></trkpt><trkpt lat="44.4372517" lon="10.9631767"><ele>339.0</ele><time>2026-04-24T17:35:42.029Z</time></trkpt><trkpt lat="44.437385" lon="10.9631567"><ele>335.0</ele><time>2026-04-24T17:35:43.029Z</time></trkpt><trkpt lat="44.4375183" lon="10.9631567"><ele>331.0</ele><time>2026-04-24T17:35:44.029Z</time></trkpt><trkpt lat="44.4376517" lon="10.9631683"><ele>331.0</ele><time>2026-04-24T17:35:45.028Z</time></trkpt><trkpt lat="44.43778" lon="10.9631833"><ele>331.0</ele><time>2026-04-24T17:35:46.029Z</time></trkpt><trkpt lat="44.4379017" lon="10.9632117"><ele>331.0</ele><time>2026-04-24T17:35:47.029Z</time></trkpt><trkpt lat="44.4380317" lon="10.9632433"><ele>331.0</ele><time>2026-04-24T17:35:48.029Z</time></trkpt><trkpt lat="44.438175" lon="10.9632767"><ele>327.0</ele><time>2026-04-24T17:35:49.029Z</time></trkpt><trkpt lat="44.4383317" lon="10.9633017"><ele>323.0</ele><time>2026-04-24T17:35:50.028Z</time></trkpt><trkpt lat="44.4384883" lon="10.9633317"><ele>319.0</ele><time>2026-04-24T17:35:51.028Z</time></trkpt><trkpt lat="44.4386433" lon="10.9633617"><ele>318.66666666666663</ele><time>2026-04-24T17:35:52.029Z</time></trkpt><trkpt lat="44.4387983" lon="10.9634"><ele>318.3333333333333</ele><time>2026-04-24T17:35:53.029Z</time></trkpt><trkpt lat="44.4389483" lon="10.9634417"><ele>318.0</ele><time>2026-04-24T17:35:54.029Z</time></trkpt><trkpt lat="44.4390967" lon="10.9634917"><ele>314.5</ele><time>2026-04-24T17:35:55.029Z</time></trkpt><trkpt lat="44.4392433" lon="10.963535"><ele>311.0</ele><time>2026-04-24T17:35:56.029Z</time></trkpt><trkpt lat="44.439385" lon="10.9635817"><ele>307.5</ele><time>2026-04-24T17:35:57.029Z</time></trkpt><trkpt lat="44.4395317" lon="10.9636217"><ele>304.0</ele><time>2026-04-24T17:35:58.029Z</time></trkpt><trkpt lat="44.4396733" lon="10.96367"><ele>302.25</ele><time>2026-04-24T17:35:59.029Z</time></trkpt><trkpt lat="44.4398083" lon="10.96373"><ele>300.5</ele><time>2026-04-24T17:36:00.029Z</time></trkpt><trkpt lat="44.4399433" lon="10.96381"><ele>298.75</ele><time>2026-04-24T17:36:01.028Z</time></trkpt><trkpt lat="44.4400733" lon="10.963905"><ele>297.0</ele><time>2026-04-24T17:36:02.029Z</time></trkpt><trkpt lat="44.4401817" lon="10.9640183"><ele>297.0</ele><time>2026-04-24T17:36:03.029Z</time></trkpt><trkpt lat="44.4402983" lon="10.9641033"><ele>297.0</ele><time>2026-04-24T17:36:04.029Z</time></trkpt><trkpt lat="44.4404183" lon="10.964165"><ele>297.0</ele><time>2026-04-24T17:36:05.029Z</time></trkpt><trkpt lat="44.4405467" lon="10.96421"><ele>297.0</ele><time>2026-04-24T17:36:06.029Z</time></trkpt><trkpt lat="44.440685" lon="10.96424"><ele>291.75</ele><time>2026-04-24T17:36:07.029Z</time></trkpt><trkpt lat="44.44083" lon="10.9642567"><ele>286.5</ele><time>2026-04-24T17:36:08.029Z</time></trkpt><trkpt lat="44.4409667" lon="10.9642683"><ele>281.25</ele><time>2026-04-24T17:36:09.028Z</time></trkpt><trkpt lat="44.4411033" lon="10.9642783"><ele>276.0</ele><time>2026-04-24T17:36:10.028Z</time></trkpt><trkpt lat="44.4412317" lon="10.9642983"><ele>275.0</ele><time>2026-04-24T17:36:11.029Z</time></trkpt><trkpt lat="44.44136" lon="10.9643283"><ele>274.0</ele><time>2026-04-24T17:36:12.029Z</time></trkpt><trkpt lat="44.4414967" lon="10.9643483"><ele>273.0</ele><time>2026-04-24T17:36:13.029Z</time></trkpt><trkpt lat="44.441625" lon="10.96436"><ele>272.0</ele><time>2026-04-24T17:36:14.029Z</time></trkpt><trkpt lat="44.441745" lon="10.9643767"><ele>272.0</ele><time>2026-04-24T17:36:15.028Z</time></trkpt><trkpt lat="44.4418733" lon="10.9643833"><ele>272.0</ele><time>2026-04-24T17:36:16.028Z</time></trkpt><trkpt lat="44.441995" lon="10.9644067"><ele>272.0</ele><time>2026-04-24T17:36:17.028Z</time></trkpt><trkpt lat="44.44211" lon="10.964435"><ele>272.0</ele><time>2026-04-24T17:36:18.029Z</time></trkpt><trkpt lat="44.4422283" lon="10.9644633"><ele>270.5</ele><time>2026-04-24T17:36:19.029Z</time></trkpt><trkpt lat="44.4423517" lon="10.964495"><ele>269.0</ele><time>2026-04-24T17:36:20.029Z</time></trkpt><trkpt lat="44.44248" lon="10.964535"><ele>267.5</ele><time>2026-04-24T17:36:21.029Z</time></trkpt><trkpt lat="44.442605" lon="10.9645717"><ele>266.0</ele><time>2026-04-24T17:36:22.028Z</time></trkpt><trkpt lat="44.4427333" lon="10.964615"><ele>266.0</ele><time>2026-04-24T17:36:23.029Z</time></trkpt><trkpt lat="44.4428517" lon="10.9646633"><ele>266.0</ele><time>2026-04-24T17:36:24.029Z</time></trkpt><trkpt lat="44.4429717" lon="10.9647267"><ele>266.0</ele><time>2026-04-24T17:36:25.029Z</time></trkpt><trkpt lat="44.4430833" lon="10.9648183"><ele>266.0</ele><time>2026-04-24T17:36:26.028Z</time></trkpt><trkpt lat="44.443185" lon="10.964905"><ele>265.6</ele><time>2026-04-24T17:36:27.029Z</time></trkpt><trkpt lat="44.4432783" lon="10.964995"><ele>265.20000000000005</ele><time>2026-04-24T17:36:28.029Z</time></trkpt><trkpt lat="44.4433617" lon="10.9650783"><ele>264.79999999999995</ele><time>2026-04-24T17:36:29.029Z</time></trkpt><trkpt lat="44.443425" lon="10.9651733"><ele>264.4</ele><time>2026-04-24T17:36:30.028Z</time></trkpt><trkpt lat="44.443475" lon="10.9652883"><ele>264.0</ele><time>2026-04-24T17:36:31.029Z</time></trkpt><trkpt lat="44.4435" lon="10.96542"><ele>262.0</ele><time>2026-04-24T17:36:32.029Z</time></trkpt><trkpt lat="44.443525" lon="10.965565"><ele>260.0</ele><time>2026-04-24T17:36:33.029Z</time></trkpt><trkpt lat="44.4435583" lon="10.9657083"><ele>258.0</ele><time>2026-04-24T17:36:34.029Z</time></trkpt><trkpt lat="44.443615" lon="10.9658467"><ele>256.0</ele><time>2026-04-24T17:36:35.029Z</time></trkpt><trkpt lat="44.4436967" lon="10.9659817"><ele>252.25</ele><time>2026-04-24T17:36:36.029Z</time></trkpt><trkpt lat="44.44379" lon="10.9661083"><ele>248.5</ele><time>2026-04-24T17:36:37.029Z</time></trkpt><trkpt lat="44.443895" lon="10.9662183"><ele>244.75</ele><time>2026-04-24T17:36:38.029Z</time></trkpt><trkpt lat="44.44401" lon="10.9663067"><ele>241.0</ele><time>2026-04-24T17:36:39.028Z</time></trkpt><trkpt lat="44.4441383" lon="10.9663817"><ele>241.0</ele><time>2026-04-24T17:36:40.029Z</time></trkpt><trkpt lat="44.4442767" lon="10.9664467"><ele>241.0</ele><time>2026-04-24T17:36:41.028Z</time></trkpt><trkpt lat="44.4444183" lon="10.9664983"><ele>241.0</ele><time>2026-04-24T17:36:42.029Z</time></trkpt><trkpt lat="44.4445583" lon="10.966545"><ele>241.0</ele><time>2026-04-24T17:36:43.029Z</time></trkpt><trkpt lat="44.444685" lon="10.96661"><ele>239.25</ele><time>2026-04-24T17:36:44.029Z</time></trkpt><trkpt lat="44.444805" lon="10.9666967"><ele>237.5</ele><time>2026-04-24T17:36:45.029Z</time></trkpt><trkpt lat="44.4448983" lon="10.966805"><ele>235.75</ele><time>2026-04-24T17:36:46.029Z</time></trkpt><trkpt lat="44.4449767" lon="10.9669233"><ele>234.0</ele><time>2026-04-24T17:36:47.029Z</time></trkpt><trkpt lat="44.44506" lon="10.9670433"><ele>234.0</ele><time>2026-04-24T17:36:48.029Z</time></trkpt><trkpt lat="44.4451467" lon="10.9671667"><ele>234.0</ele><time>2026-04-24T17:36:49.029Z</time></trkpt><trkpt lat="44.44524" lon="10.9673"><ele>234.0</ele><time>2026-04-24T17:36:50.029Z</time></trkpt><trkpt lat="44.4453467" lon="10.9674417"><ele>234.0</ele><time>2026-04-24T17:36:51.029Z</time></trkpt><trkpt lat="44.4454633" lon="10.9675917"><ele>231.25</ele><time>2026-04-24T17:36:52.029Z</time></trkpt><trkpt lat="44.4455683" lon="10.9677417"><ele>228.5</ele><time>2026-04-24T17:36:53.029Z</time></trkpt><trkpt lat="44.4456683" lon="10.9678867"><ele>225.75</ele><time>2026-04-24T17:36:54.029Z</time></trkpt><trkpt lat="44.44577" lon="10.9680217"><ele>223.0</ele><time>2026-04-24T17:36:55.028Z</time></trkpt><trkpt lat="44.44588" lon="10.9681433"><ele>223.0</ele><time>2026-04-24T17:36:56.029Z</time></trkpt><trkpt lat="44.4460033" lon="10.9682467"><ele>223.0</ele><time>2026-04-24T17:36:57.029Z</time></trkpt><trkpt lat="44.4461417" lon="10.9683333"><ele>223.0</ele><time>2026-04-24T17:36:58.029Z</time></trkpt><trkpt lat="44.4462883" lon="10.9683933"><ele>223.0</ele><time>2026-04-24T17:36:59.029Z</time></trkpt><trkpt lat="44.4464367" lon="10.9684367"><ele>218.0</ele><time>2026-04-24T17:37:00.029Z</time></trkpt><trkpt lat="44.4465883" lon="10.968475"><ele>213.0</ele><time>2026-04-24T17:37:01.029Z</time></trkpt><trkpt lat="44.4467433" lon="10.9685083"><ele>208.0</ele><time>2026-04-24T17:37:02.029Z</time></trkpt><trkpt lat="44.4469033" lon="10.96854"><ele>208.0</ele><time>2026-04-24T17:37:03.028Z</time></trkpt><trkpt lat="44.447065" lon="10.96857"><ele>208.0</ele><time>2026-04-24T17:37:04.029Z</time></trkpt><trkpt lat="44.4472233" lon="10.9685917"><ele>208.0</ele><time>2026-04-24T17:37:05.029Z</time></trkpt><trkpt lat="44.4473717" lon="10.9686167"><ele>204.0</ele><time>2026-04-24T17:37:06.029Z</time></trkpt><trkpt lat="44.44752" lon="10.9686433"><ele>200.0</ele><time>2026-04-24T17:37:07.029Z</time></trkpt><trkpt lat="44.447675" lon="10.9686683"><ele>196.0</ele><time>2026-04-24T17:37:08.029Z</time></trkpt><trkpt lat="44.4478217" lon="10.9686933"><ele>196.0</ele><time>2026-04-24T17:37:09.029Z</time></trkpt><trkpt lat="44.44795" lon="10.96872"><ele>196.0</ele><time>2026-04-24T17:37:10.029Z</time></trkpt><trkpt lat="44.4480833" lon="10.9687417"><ele>196.0</ele><time>2026-04-24T17:37:11.029Z</time></trkpt><trkpt lat="44.44822" lon="10.9687583"><ele>196.0</ele><time>2026-04-24T17:37:12.029Z</time></trkpt><trkpt lat="44.4483467" lon="10.9687767"><ele>192.25</ele><time>2026-04-24T17:37:13.029Z</time></trkpt><trkpt lat="44.4484667" lon="10.9687917"><ele>188.5</ele><time>2026-04-24T17:37:14.029Z</time></trkpt><trkpt lat="44.448575" lon="10.96881"><ele>184.75</ele><time>2026-04-24T17:37:15.029Z</time></trkpt><trkpt lat="44.4486867" lon="10.968835"><ele>181.0</ele><time>2026-04-24T17:37:16.029Z</time></trkpt><trkpt lat="44.4488017" lon="10.968875"><ele>178.0</ele><time>2026-04-24T17:37:17.029Z</time></trkpt><trkpt lat="44.4489133" lon="10.96893"><ele>175.0</ele><time>2026-04-24T17:37:18.028Z</time></trkpt><trkpt lat="44.44901" lon="10.968995"><ele>172.0</ele><time>2026-04-24T17:37:19.029Z</time></trkpt><trkpt lat="44.4491" lon="10.9690633"><ele>169.0</ele><time>2026-04-24T17:37:20.029Z</time></trkpt><trkpt lat="44.4491783" lon="10.969135"><ele>166.0</ele><time>2026-04-24T17:37:21.029Z</time></trkpt><trkpt lat="44.449255" lon="10.9692083"><ele>166.0</ele><time>2026-04-24T17:37:22.029Z</time></trkpt><trkpt lat="44.4493267" lon="10.9692983"><ele>166.0</ele><time>2026-04-24T17:37:23.029Z</time></trkpt><trkpt lat="44.449385" lon="10.96938"><ele>166.0</ele><time>2026-04-24T17:37:24.029Z</time></trkpt><trkpt lat="44.4494583" lon="10.9694883"><ele>166.0</ele><time>2026-04-24T17:37:26.028Z</time></trkpt><trkpt lat="44.4495217" lon="10.9696017"><ele>166.0</ele><time>2026-04-24T17:37:28.029Z</time></trkpt><trkpt lat="44.4495917" lon="10.9696967"><ele>166.0</ele><time>2026-04-24T17:37:30.029Z</time></trkpt><trkpt lat="44.4496767" lon="10.9697067"><ele>166.0</ele><time>2026-04-24T17:37:32.029Z</time></trkpt><trkpt lat="44.44972" lon="10.9696117"><ele>166.0</ele><time>2026-04-24T17:37:34.029Z</time></trkpt><trkpt lat="44.449705" lon="10.969485"><ele>166.0</ele><time>2026-04-24T17:37:36.029Z</time></trkpt><trkpt lat="44.4496533" lon="10.96936"><ele>166.0</ele><time>2026-04-24T17:37:38.029Z</time></trkpt><trkpt lat="44.4495983" lon="10.969225"><ele>165.5</ele><time>2026-04-24T17:37:40.029Z</time></trkpt><trkpt lat="44.449545" lon="10.9690967"><ele>165.0</ele><time>2026-04-24T17:37:42.029Z</time></trkpt><trkpt lat="44.4495033" lon="10.9689833"><ele>164.5</ele><time>2026-04-24T17:37:44.029Z</time></trkpt><trkpt lat="44.4495083" lon="10.96887"><ele>164.0</ele><time>2026-04-24T17:37:46.028Z</time></trkpt><trkpt lat="44.44958" lon="10.9688267"><ele>163.5</ele><time>2026-04-24T17:37:48.029Z</time></trkpt><trkpt lat="44.4496417" lon="10.968895"><ele>163.0</ele><time>2026-04-24T17:37:50.029Z</time></trkpt><trkpt lat="44.44967" lon="10.969045"><ele>161.0</ele><time>2026-04-24T17:37:52.029Z</time></trkpt><trkpt lat="44.4496967" lon="10.9691283"><ele>159.0</ele><time>2026-04-24T17:37:53.029Z</time></trkpt><trkpt lat="44.449745" lon="10.9692217"><ele>157.0</ele><time>2026-04-24T17:37:54.029Z</time></trkpt><trkpt lat="44.4498033" lon="10.9693217"><ele>155.0</ele><time>2026-04-24T17:37:55.029Z</time></trkpt><trkpt lat="44.4498667" lon="10.969435"><ele>153.0</ele><time>2026-04-24T17:37:56.029Z</time></trkpt><trkpt lat="44.4499317" lon="10.9695383"><ele>151.0</ele><time>2026-04-24T17:37:57.029Z</time></trkpt><trkpt lat="44.450005" lon="10.9696283"><ele>151.0</ele><time>2026-04-24T17:37:58.029Z</time></trkpt><trkpt lat="44.4500733" lon="10.969715"><ele>151.0</ele><time>2026-04-24T17:37:59.029Z</time></trkpt><trkpt lat="44.4501433" lon="10.9697933"><ele>151.0</ele><time>2026-04-24T17:38:00.029Z</time></trkpt><trkpt lat="44.4502133" lon="10.9698783"><ele>151.0</ele><time>2026-04-24T17:38:01.028Z</time></trkpt><trkpt lat="44.4502733" lon="10.969965"><ele>151.0</ele><time>2026-04-24T17:38:02.029Z</time></trkpt><trkpt lat="44.4503333" lon="10.970055"><ele>151.0</ele><time>2026-04-24T17:38:03.028Z</time></trkpt><trkpt lat="44.450385" lon="10.9701517"><ele>151.5</ele><time>2026-04-24T17:38:04.029Z</time></trkpt><trkpt lat="44.4504183" lon="10.9702517"><ele>152.0</ele><time>2026-04-24T17:38:05.028Z</time></trkpt><trkpt lat="44.4504317" lon="10.9703683"><ele>152.5</ele><time>2026-04-24T17:38:06.029Z</time></trkpt><trkpt lat="44.4504267" lon="10.9704783"><ele>153.0</ele><time>2026-04-24T17:38:07.028Z</time></trkpt><trkpt lat="44.4503933" lon="10.9705767"><ele>153.5</ele><time>2026-04-24T17:38:08.029Z</time></trkpt><trkpt lat="44.450335" lon="10.9706717"><ele>154.0</ele><time>2026-04-24T17:38:09.029Z</time></trkpt><trkpt lat="44.4502567" lon="10.9707717"><ele>152.6</ele><time>2026-04-24T17:38:10.029Z</time></trkpt><trkpt lat="44.4501817" lon="10.9708783"><ele>151.2</ele><time>2026-04-24T17:38:11.028Z</time></trkpt><trkpt lat="44.45011" lon="10.970995"><ele>149.79999999999998</ele><time>2026-04-24T17:38:12.029Z</time></trkpt><trkpt lat="44.450045" lon="10.9711133"><ele>148.4</ele><time>2026-04-24T17:38:13.029Z</time></trkpt><trkpt lat="44.4499967" lon="10.9712283"><ele>147.0</ele><time>2026-04-24T17:38:14.029Z</time></trkpt><trkpt lat="44.449945" lon="10.9713283"><ele>147.0</ele><time>2026-04-24T17:38:15.029Z</time></trkpt><trkpt lat="44.4498867" lon="10.971425"><ele>147.0</ele><time>2026-04-24T17:38:16.029Z</time></trkpt><trkpt lat="44.4498317" lon="10.971505"><ele>147.0</ele><time>2026-04-24T17:38:17.029Z</time></trkpt><trkpt lat="44.4497833" lon="10.9715733"><ele>147.0</ele><time>2026-04-24T17:38:18.029Z</time></trkpt><trkpt lat="44.44969" lon="10.97171"><ele>147.0</ele><time>2026-04-24T17:38:20.028Z</time></trkpt><trkpt lat="44.4496383" lon="10.9718067"><ele>147.79999999999998</ele><time>2026-04-24T17:38:21.029Z</time></trkpt><trkpt lat="44.4496017" lon="10.971925"><ele>148.6</ele><time>2026-04-24T17:38:22.029Z</time></trkpt><trkpt lat="44.4495683" lon="10.972055"><ele>149.39999999999998</ele><time>2026-04-24T17:38:23.028Z</time></trkpt><trkpt lat="44.4495283" lon="10.9722017"><ele>150.2</ele><time>2026-04-24T17:38:24.029Z</time></trkpt><trkpt lat="44.449495" lon="10.972335"><ele>151.0</ele><time>2026-04-24T17:38:25.028Z</time></trkpt><trkpt lat="44.4494667" lon="10.9724567"><ele>152.16666666666669</ele><time>2026-04-24T17:38:26.029Z</time></trkpt><trkpt lat="44.4494483" lon="10.9725483"><ele>153.33333333333334</ele><time>2026-04-24T17:38:27.028Z</time></trkpt><trkpt lat="44.4494383" lon="10.9726383"><ele>154.5</ele><time>2026-04-24T17:38:29.028Z</time></trkpt><trkpt lat="44.4494917" lon="10.9727017"><ele>155.66666666666666</ele><time>2026-04-24T17:38:33.029Z</time></trkpt><trkpt lat="44.4495617" lon="10.9727233"><ele>156.83333333333331</ele><time>2026-04-24T17:38:34.029Z</time></trkpt><trkpt lat="44.449655" lon="10.97274"><ele>158.0</ele><time>2026-04-24T17:38:35.029Z</time></trkpt><trkpt lat="44.44976" lon="10.97275"><ele>158.0</ele><time>2026-04-24T17:38:36.029Z</time></trkpt><trkpt lat="44.4498783" lon="10.9727367"><ele>158.0</ele><time>2026-04-24T17:38:37.029Z</time></trkpt><trkpt lat="44.449995" lon="10.9727017"><ele>158.0</ele><time>2026-04-24T17:38:38.028Z</time></trkpt><trkpt lat="44.450105" lon="10.9726217"><ele>158.0</ele><time>2026-04-24T17:38:39.029Z</time></trkpt><trkpt lat="44.4501967" lon="10.9725067"><ele>156.25</ele><time>2026-04-24T17:38:40.028Z</time></trkpt><trkpt lat="44.4502833" lon="10.9723467"><ele>154.5</ele><time>2026-04-24T17:38:41.029Z</time></trkpt><trkpt lat="44.45036" lon="10.9721733"><ele>152.75</ele><time>2026-04-24T17:38:42.029Z</time></trkpt><trkpt lat="44.45043" lon="10.9719967"><ele>151.0</ele><time>2026-04-24T17:38:43.029Z</time></trkpt><trkpt lat="44.4504917" lon="10.97182"><ele>150.6</ele><time>2026-04-24T17:38:44.029Z</time></trkpt><trkpt lat="44.4505467" lon="10.9716567"><ele>150.2</ele><time>2026-04-24T17:38:45.029Z</time></trkpt><trkpt lat="44.4505967" lon="10.9715117"><ele>149.8</ele><time>2026-04-24T17:38:46.029Z</time></trkpt><trkpt lat="44.45063" lon="10.9714183"><ele>149.4</ele><time>2026-04-24T17:38:47.028Z</time></trkpt><trkpt lat="44.4506733" lon="10.97131"><ele>149.0</ele><time>2026-04-24T17:38:49.029Z</time></trkpt><trkpt lat="44.450715" lon="10.9711917"><ele>149.0</ele><time>2026-04-24T17:39:43.028Z</time></trkpt><trkpt lat="44.4507633" lon="10.9711083"><ele>149.0</ele><time>2026-04-24T17:39:44.029Z</time></trkpt><trkpt lat="44.4508367" lon="10.971"><ele>149.0</ele><time>2026-04-24T17:39:45.029Z</time></trkpt><trkpt lat="44.450925" lon="10.97089"><ele>149.0</ele><time>2026-04-24T17:39:46.029Z</time></trkpt><trkpt lat="44.4510233" lon="10.9707933"><ele>149.0</ele><time>2026-04-24T17:39:47.029Z</time></trkpt><trkpt lat="44.4511367" lon="10.970725"><ele>147.75</ele><time>2026-04-24T17:39:48.029Z</time></trkpt><trkpt lat="44.4512533" lon="10.97068"><ele>146.5</ele><time>2026-04-24T17:39:49.028Z</time></trkpt><trkpt lat="44.4513717" lon="10.9706467"><ele>145.25</ele><time>2026-04-24T17:39:50.029Z</time></trkpt><trkpt lat="44.4514883" lon="10.970635"><ele>144.0</ele><time>2026-04-24T17:39:51.029Z</time></trkpt><trkpt lat="44.4516133" lon="10.9706383"><ele>144.0</ele><time>2026-04-24T17:39:52.029Z</time></trkpt><trkpt lat="44.45174" lon="10.970655"><ele>144.0</ele><time>2026-04-24T17:39:53.028Z</time></trkpt><trkpt lat="44.4518633" lon="10.9706883"><ele>144.0</ele><time>2026-04-24T17:39:54.029Z</time></trkpt><trkpt lat="44.4519817" lon="10.9707283"><ele>144.0</ele><time>2026-04-24T17:39:55.029Z</time></trkpt><trkpt lat="44.45209" lon="10.970795"><ele>143.75</ele><time>2026-04-24T17:39:56.028Z</time></trkpt><trkpt lat="44.4521867" lon="10.97088"><ele>143.5</ele><time>2026-04-24T17:39:57.029Z</time></trkpt><trkpt lat="44.4522767" lon="10.9709983"><ele>143.25</ele><time>2026-04-24T17:39:58.029Z</time></trkpt><trkpt lat="44.4523783" lon="10.9711467"><ele>143.0</ele><time>2026-04-24T17:39:59.029Z</time></trkpt><trkpt lat="44.4524833" lon="10.97131"><ele>143.0</ele><time>2026-04-24T17:40:00.029Z</time></trkpt><trkpt lat="44.45259" lon="10.9714767"><ele>143.0</ele><time>2026-04-24T17:40:01.029Z</time></trkpt><trkpt lat="44.45268" lon="10.9716483"><ele>143.0</ele><time>2026-04-24T17:40:02.029Z</time></trkpt><trkpt lat="44.4527467" lon="10.9718133"><ele>143.0</ele><time>2026-04-24T17:40:03.028Z</time></trkpt><trkpt lat="44.452815" lon="10.97196"><ele>143.5</ele><time>2026-04-24T17:40:04.029Z</time></trkpt><trkpt lat="44.4528767" lon="10.9720867"><ele>144.0</ele><time>2026-04-24T17:40:05.029Z</time></trkpt><trkpt lat="44.452955" lon="10.9721833"><ele>144.5</ele><time>2026-04-24T17:40:06.028Z</time></trkpt><trkpt lat="44.4530583" lon="10.9722367"><ele>145.0</ele><time>2026-04-24T17:40:07.029Z</time></trkpt><trkpt lat="44.453185" lon="10.9722583"><ele>142.0</ele><time>2026-04-24T17:40:08.029Z</time></trkpt><trkpt lat="44.45332" lon="10.9722767"><ele>139.0</ele><time>2026-04-24T17:40:09.028Z</time></trkpt><trkpt lat="44.453465" lon="10.97229"><ele>136.0</ele><time>2026-04-24T17:40:10.029Z</time></trkpt><trkpt lat="44.45361" lon="10.9722883"><ele>133.0</ele><time>2026-04-24T17:40:11.028Z</time></trkpt><trkpt lat="44.4537533" lon="10.9722633"><ele>133.0</ele><time>2026-04-24T17:40:12.029Z</time></trkpt><trkpt lat="44.4538933" lon="10.97222"><ele>133.0</ele><time>2026-04-24T17:40:13.028Z</time></trkpt><trkpt lat="44.45402" lon="10.9721617"><ele>133.0</ele><time>2026-04-24T17:40:14.028Z</time></trkpt><trkpt lat="44.4541283" lon="10.9721067"><ele>133.0</ele><time>2026-04-24T17:40:15.029Z</time></trkpt><trkpt lat="44.4542167" lon="10.972045"><ele>133.0</ele><time>2026-04-24T17:40:16.029Z</time></trkpt><trkpt lat="44.454285" lon="10.9719683"><ele>133.0</ele><time>2026-04-24T17:40:17.029Z</time></trkpt><trkpt lat="44.45434" lon="10.9718533"><ele>133.0</ele><time>2026-04-24T17:40:18.029Z</time></trkpt><trkpt lat="44.4543733" lon="10.9717067"><ele>133.0</ele><time>2026-04-24T17:40:19.028Z</time></trkpt><trkpt lat="44.454395" lon="10.97153"><ele>133.0</ele><time>2026-04-24T17:40:20.028Z</time></trkpt><trkpt lat="44.4543983" lon="10.9713"><ele>133.33333333333334</ele><time>2026-04-24T17:40:21.028Z</time></trkpt><trkpt lat="44.4543933" lon="10.97103"><ele>133.66666666666666</ele><time>2026-04-24T17:40:22.029Z</time></trkpt><trkpt lat="44.4543833" lon="10.9707183"><ele>134.0</ele><time>2026-04-24T17:40:23.029Z</time></trkpt><trkpt lat="44.454365" lon="10.9703783"><ele>135.5</ele><time>2026-04-24T17:40:24.029Z</time></trkpt><trkpt lat="44.454345" lon="10.9700267"><ele>137.0</ele><time>2026-04-24T17:40:25.029Z</time></trkpt><trkpt lat="44.4543267" lon="10.969645"><ele>137.0</ele><time>2026-04-24T17:40:26.028Z</time></trkpt><trkpt lat="44.4542967" lon="10.9692483"><ele>137.0</ele><time>2026-04-24T17:40:27.028Z</time></trkpt><trkpt lat="44.4542633" lon="10.9688483"><ele>137.5</ele><time>2026-04-24T17:40:28.029Z</time></trkpt><trkpt lat="44.4542233" lon="10.96847"><ele>138.0</ele><time>2026-04-24T17:40:29.029Z</time></trkpt><trkpt lat="44.4541867" lon="10.9681133"><ele>138.0</ele><time>2026-04-24T17:40:30.029Z</time></trkpt><trkpt lat="44.4541467" lon="10.9677817"><ele>138.0</ele><time>2026-04-24T17:40:31.029Z</time></trkpt><trkpt lat="44.454095" lon="10.96745"><ele>138.0</ele><time>2026-04-24T17:40:32.029Z</time></trkpt><trkpt lat="44.454025" lon="10.9671383"><ele>138.0</ele><time>2026-04-24T17:40:33.029Z</time></trkpt><trkpt lat="44.4539583" lon="10.9668283"><ele>138.66666666666666</ele><time>2026-04-24T17:40:34.028Z</time></trkpt><trkpt lat="44.453895" lon="10.9665467"><ele>139.33333333333331</ele><time>2026-04-24T17:40:35.029Z</time></trkpt><trkpt lat="44.453835" lon="10.96628"><ele>140.0</ele><time>2026-04-24T17:40:36.028Z</time></trkpt><trkpt lat="44.4537883" lon="10.96603"><ele>138.66666666666666</ele><time>2026-04-24T17:40:37.029Z</time></trkpt><trkpt lat="44.4537633" lon="10.965785"><ele>137.33333333333334</ele><time>2026-04-24T17:40:38.029Z</time></trkpt><trkpt lat="44.4537567" lon="10.9655533"><ele>136.0</ele><time>2026-04-24T17:40:39.029Z</time></trkpt><trkpt lat="44.4537617" lon="10.9653533"><ele>136.0</ele><time>2026-04-24T17:40:40.029Z</time></trkpt><trkpt lat="44.4537783" lon="10.9651667"><ele>136.0</ele><time>2026-04-24T17:40:41.029Z</time></trkpt><trkpt lat="44.453795" lon="10.9649967"><ele>136.0</ele><time>2026-04-24T17:40:42.029Z</time></trkpt><trkpt lat="44.4538167" lon="10.96485"><ele>136.0</ele><time>2026-04-24T17:40:43.029Z</time></trkpt><trkpt lat="44.4538433" lon="10.9647333"><ele>137.4</ele><time>2026-04-24T17:40:44.028Z</time></trkpt><trkpt lat="44.4539067" lon="10.96461"><ele>138.8</ele><time>2026-04-24T17:40:46.029Z</time></trkpt><trkpt lat="44.4539883" lon="10.9646317"><ele>140.20000000000002</ele><time>2026-04-24T17:40:48.029Z</time></trkpt><trkpt lat="44.4540583" lon="10.964795"><ele>141.6</ele><time>2026-04-24T17:40:50.028Z</time></trkpt><trkpt lat="44.45408" lon="10.9648833"><ele>143.0</ele><time>2026-04-24T17:40:51.028Z</time></trkpt><trkpt lat="44.4541733" lon="10.9649633"><ele>143.0</ele><time>2026-04-24T17:40:53.029Z</time></trkpt><trkpt lat="44.4542417" lon="10.9649567"><ele>143.0</ele><time>2026-04-24T17:40:54.029Z</time></trkpt><trkpt lat="44.454335" lon="10.9649283"><ele>143.0</ele><time>2026-04-24T17:40:55.029Z</time></trkpt><trkpt lat="44.4544417" lon="10.9649"><ele>143.0</ele><time>2026-04-24T17:40:56.029Z</time></trkpt><trkpt lat="44.4545467" lon="10.9648933"><ele>143.0</ele><time>2026-04-24T17:40:57.029Z</time></trkpt><trkpt lat="44.4546733" lon="10.9649033"><ele>144.75</ele><time>2026-04-24T17:40:58.029Z</time></trkpt><trkpt lat="44.45481" lon="10.9649233"><ele>146.5</ele><time>2026-04-24T17:40:59.029Z</time></trkpt><trkpt lat="44.45493" lon="10.9649433"><ele>148.25</ele><time>2026-04-24T17:41:00.029Z</time></trkpt><trkpt lat="44.4550417" lon="10.964955"><ele>150.0</ele><time>2026-04-24T17:41:01.029Z</time></trkpt><trkpt lat="44.455125" lon="10.96497"><ele>150.0</ele><time>2026-04-24T17:41:02.029Z</time></trkpt><trkpt lat="44.45519" lon="10.9649817"><ele>150.0</ele><time>2026-04-24T17:41:03.028Z</time></trkpt><trkpt lat="44.4552783" lon="10.9650083"><ele>150.0</ele><time>2026-04-24T17:41:05.028Z</time></trkpt><trkpt lat="44.455365" lon="10.9651517"><ele>150.0</ele><time>2026-04-24T17:41:07.029Z</time></trkpt><trkpt lat="44.45542" lon="10.9652583"><ele>150.0</ele><time>2026-04-24T17:41:08.029Z</time></trkpt><trkpt lat="44.4554817" lon="10.9653717"><ele>149.0</ele><time>2026-04-24T17:41:09.029Z</time></trkpt><trkpt lat="44.4555583" lon="10.9654817"><ele>148.0</ele><time>2026-04-24T17:41:10.029Z</time></trkpt><trkpt lat="44.4556183" lon="10.9656067"><ele>147.0</ele><time>2026-04-24T17:41:11.029Z</time></trkpt><trkpt lat="44.4556683" lon="10.9657117"><ele>146.0</ele><time>2026-04-24T17:41:12.029Z</time></trkpt><trkpt lat="44.45571" lon="10.96581"><ele>145.0</ele><time>2026-04-24T17:41:13.028Z</time></trkpt><trkpt lat="44.4557433" lon="10.965895"><ele>144.4</ele><time>2026-04-24T17:41:14.029Z</time></trkpt><trkpt lat="44.455815" lon="10.9660017"><ele>143.8</ele><time>2026-04-24T17:41:16.029Z</time></trkpt><trkpt lat="44.455895" lon="10.9660483"><ele>143.2</ele><time>2026-04-24T17:41:18.028Z</time></trkpt><trkpt lat="44.4559717" lon="10.9660467"><ele>142.6</ele><time>2026-04-24T17:41:20.029Z</time></trkpt><trkpt lat="44.45606" lon="10.9659867"><ele>142.0</ele><time>2026-04-24T17:41:22.029Z</time></trkpt><trkpt lat="44.4561933" lon="10.965975"><ele>142.0</ele><time>2026-04-24T17:41:24.028Z</time></trkpt><trkpt lat="44.4562767" lon="10.965975"><ele>142.0</ele><time>2026-04-24T17:41:25.029Z</time></trkpt><trkpt lat="44.456375" lon="10.9659817"><ele>142.0</ele><time>2026-04-24T17:41:26.029Z</time></trkpt><trkpt lat="44.4564783" lon="10.966005"><ele>142.0</ele><time>2026-04-24T17:41:27.029Z</time></trkpt><trkpt lat="44.4565933" lon="10.9660067"><ele>142.0</ele><time>2026-04-24T17:41:28.029Z</time></trkpt><trkpt lat="44.4567067" lon="10.9659933"><ele>141.5</ele><time>2026-04-24T17:41:29.029Z</time></trkpt><trkpt lat="44.4568167" lon="10.9659867"><ele>141.0</ele><time>2026-04-24T17:41:30.029Z</time></trkpt><trkpt lat="44.4569433" lon="10.96596"><ele>140.5</ele><time>2026-04-24T17:41:31.028Z</time></trkpt><trkpt lat="44.45707" lon="10.9659167"><ele>140.0</ele><time>2026-04-24T17:41:32.029Z</time></trkpt><trkpt lat="44.4571767" lon="10.96589"><ele>139.8</ele><time>2026-04-24T17:41:33.028Z</time></trkpt><trkpt lat="44.4572733" lon="10.9658667"><ele>139.6</ele><time>2026-04-24T17:41:34.029Z</time></trkpt><trkpt lat="44.4573583" lon="10.9658583"><ele>139.4</ele><time>2026-04-24T17:41:35.029Z</time></trkpt><trkpt lat="44.4574433" lon="10.9658433"><ele>139.2</ele><time>2026-04-24T17:41:36.029Z</time></trkpt><trkpt lat="44.457535" lon="10.965865"><ele>139.0</ele><time>2026-04-24T17:41:37.029Z</time></trkpt><trkpt lat="44.4576317" lon="10.9658683"><ele>138.8</ele><time>2026-04-24T17:41:38.028Z</time></trkpt><trkpt lat="44.4577333" lon="10.9658767"><ele>138.60000000000002</ele><time>2026-04-24T17:41:39.028Z</time></trkpt><trkpt lat="44.4578367" lon="10.9658917"><ele>138.4</ele><time>2026-04-24T17:41:40.028Z</time></trkpt><trkpt lat="44.45795" lon="10.965895"><ele>138.20000000000002</ele><time>2026-04-24T17:41:41.029Z</time></trkpt><trkpt lat="44.45806" lon="10.9659067"><ele>138.0</ele><time>2026-04-24T17:41:42.029Z</time></trkpt><trkpt lat="44.4581717" lon="10.9659183"><ele>138.0</ele><time>2026-04-24T17:41:43.029Z</time></trkpt><trkpt lat="44.4582833" lon="10.9659217"><ele>138.0</ele><time>2026-04-24T17:41:44.029Z</time></trkpt><trkpt lat="44.45838" lon="10.9659267"><ele>138.0</ele><time>2026-04-24T17:41:45.028Z</time></trkpt><trkpt lat="44.4584617" lon="10.9659267"><ele>138.0</ele><time>2026-04-24T17:41:46.029Z</time></trkpt><trkpt lat="44.4585683" lon="10.96598"><ele>138.0</ele><time>2026-04-24T17:41:48.029Z</time></trkpt><trkpt lat="44.4585967" lon="10.9661083"><ele>138.0</ele><time>2026-04-24T17:41:50.028Z</time></trkpt><trkpt lat="44.4585867" lon="10.9662017"><ele>138.0</ele><time>2026-04-24T17:41:51.028Z</time></trkpt><trkpt lat="44.4585633" lon="10.9663117"><ele>138.0</ele><time>2026-04-24T17:41:52.029Z</time></trkpt><trkpt lat="44.4585317" lon="10.9664433"><ele>138.0</ele><time>2026-04-24T17:41:53.028Z</time></trkpt><trkpt lat="44.4584933" lon="10.96658"><ele>138.0</ele><time>2026-04-24T17:41:54.029Z</time></trkpt><trkpt lat="44.4584517" lon="10.9667267"><ele>138.0</ele><time>2026-04-24T17:41:55.029Z</time></trkpt><trkpt lat="44.4584083" lon="10.9668883"><ele>138.0</ele><time>2026-04-24T17:41:56.029Z</time></trkpt><trkpt lat="44.4583717" lon="10.9670367"><ele>138.0</ele><time>2026-04-24T17:41:57.029Z</time></trkpt><trkpt lat="44.4583283" lon="10.96719"><ele>138.0</ele><time>2026-04-24T17:41:58.029Z</time></trkpt><trkpt lat="44.4582967" lon="10.967325"><ele>138.0</ele><time>2026-04-24T17:41:59.029Z</time></trkpt><trkpt lat="44.45827" lon="10.9674517"><ele>138.0</ele><time>2026-04-24T17:42:00.029Z</time></trkpt><trkpt lat="44.45824" lon="10.9675667"><ele>138.0</ele><time>2026-04-24T17:42:01.029Z</time></trkpt><trkpt lat="44.458205" lon="10.9676883"><ele>138.0</ele><time>2026-04-24T17:42:02.029Z</time></trkpt><trkpt lat="44.45817" lon="10.9678417"><ele>138.0</ele><time>2026-04-24T17:42:03.028Z</time></trkpt><trkpt lat="44.458155" lon="10.9679767"><ele>137.83333333333334</ele><time>2026-04-24T17:42:04.028Z</time></trkpt><trkpt lat="44.4581333" lon="10.968075"><ele>137.66666666666666</ele><time>2026-04-24T17:42:05.029Z</time></trkpt><trkpt lat="44.458085" lon="10.968195"><ele>137.5</ele><time>2026-04-24T17:42:07.029Z</time></trkpt><trkpt lat="44.4581" lon="10.9683"><ele>137.33333333333331</ele><time>2026-04-24T17:42:10.029Z</time></trkpt><trkpt lat="44.458175" lon="10.9683817"><ele>137.16666666666666</ele><time>2026-04-24T17:42:13.029Z</time></trkpt><trkpt lat="44.4582567" lon="10.9684467"><ele>137.0</ele><time>2026-04-24T17:42:15.029Z</time></trkpt><trkpt lat="44.4583567" lon="10.9685517"><ele>137.0</ele><time>2026-04-24T17:42:17.029Z</time></trkpt><trkpt lat="44.4584067" lon="10.96862"><ele>137.0</ele><time>2026-04-24T17:42:18.028Z</time></trkpt><trkpt lat="44.45846" lon="10.9686917"><ele>137.0</ele><time>2026-04-24T17:42:19.028Z</time></trkpt><trkpt lat="44.4585167" lon="10.968745"><ele>137.0</ele><time>2026-04-24T17:42:20.028Z</time></trkpt><trkpt lat="44.4586283" lon="10.968755"><ele>137.0</ele><time>2026-04-24T17:42:22.028Z</time></trkpt><trkpt lat="44.4586883" lon="10.9687"><ele>137.0</ele><time>2026-04-24T17:42:23.029Z</time></trkpt><trkpt lat="44.4587533" lon="10.9686183"><ele>136.79999999999998</ele><time>2026-04-24T17:42:24.028Z</time></trkpt><trkpt lat="44.4588183" lon="10.9685233"><ele>136.6</ele><time>2026-04-24T17:42:25.029Z</time></trkpt><trkpt lat="44.4588867" lon="10.9684317"><ele>136.39999999999998</ele><time>2026-04-24T17:42:26.029Z</time></trkpt><trkpt lat="44.4589533" lon="10.9683467"><ele>136.2</ele><time>2026-04-24T17:42:27.029Z</time></trkpt><trkpt lat="44.4590117" lon="10.9682833"><ele>136.0</ele><time>2026-04-24T17:42:28.029Z</time></trkpt><trkpt lat="44.4591267" lon="10.9682767"><ele>136.0</ele><time>2026-04-24T17:42:30.028Z</time></trkpt><trkpt lat="44.45919" lon="10.9683283"><ele>136.0</ele><time>2026-04-24T17:42:31.029Z</time></trkpt><trkpt lat="44.4592583" lon="10.968385"><ele>136.0</ele><time>2026-04-24T17:42:32.029Z</time></trkpt><trkpt lat="44.4593383" lon="10.9684417"><ele>136.0</ele><time>2026-04-24T17:42:33.029Z</time></trkpt><trkpt lat="44.45943" lon="10.9685017"><ele>136.0</ele><time>2026-04-24T17:42:34.029Z</time></trkpt><trkpt lat="44.45952" lon="10.968565"><ele>136.0</ele><time>2026-04-24T17:42:35.029Z</time></trkpt><trkpt lat="44.4596117" lon="10.9686283"><ele>135.8</ele><time>2026-04-24T17:42:36.028Z</time></trkpt><trkpt lat="44.4597017" lon="10.9686883"><ele>135.6</ele><time>2026-04-24T17:42:37.029Z</time></trkpt><trkpt lat="44.4597883" lon="10.9687467"><ele>135.4</ele><time>2026-04-24T17:42:38.029Z</time></trkpt><trkpt lat="44.45988" lon="10.9688083"><ele>135.2</ele><time>2026-04-24T17:42:39.029Z</time></trkpt><trkpt lat="44.4599667" lon="10.968865"><ele>135.0</ele><time>2026-04-24T17:42:40.029Z</time></trkpt><trkpt lat="44.4600367" lon="10.9689133"><ele>135.0</ele><time>2026-04-24T17:42:41.029Z</time></trkpt><trkpt lat="44.4601233" lon="10.9689783"><ele>135.0</ele><time>2026-04-24T17:42:43.029Z</time></trkpt><trkpt lat="44.460105" lon="10.9690967"><ele>135.0</ele><time>2026-04-24T17:42:45.028Z</time></trkpt><trkpt lat="44.4600483" lon="10.9692567"><ele>135.0</ele><time>2026-04-24T17:42:47.029Z</time></trkpt><trkpt lat="44.460015" lon="10.96935"><ele>135.0</ele><time>2026-04-24T17:42:48.029Z</time></trkpt><trkpt lat="44.4599817" lon="10.9694517"><ele>134.83333333333334</ele><time>2026-04-24T17:42:49.028Z</time></trkpt><trkpt lat="44.459945" lon="10.9695533"><ele>134.66666666666666</ele><time>2026-04-24T17:42:50.028Z</time></trkpt><trkpt lat="44.4599067" lon="10.96967"><ele>134.5</ele><time>2026-04-24T17:42:51.029Z</time></trkpt><trkpt lat="44.4598667" lon="10.9697817"><ele>134.33333333333331</ele><time>2026-04-24T17:42:52.029Z</time></trkpt><trkpt lat="44.4598283" lon="10.969885"><ele>134.16666666666666</ele><time>2026-04-24T17:42:53.028Z</time></trkpt><trkpt lat="44.4597967" lon="10.9699717"><ele>134.0</ele><time>2026-04-24T17:42:54.028Z</time></trkpt><trkpt lat="44.459765" lon="10.9701217"><ele>134.0</ele><time>2026-04-24T17:42:56.028Z</time></trkpt><trkpt lat="44.4597917" lon="10.97025"><ele>134.0</ele><time>2026-04-24T17:42:58.029Z</time></trkpt><trkpt lat="44.4598883" lon="10.9703317"><ele>134.0</ele><time>2026-04-24T17:43:00.029Z</time></trkpt><trkpt lat="44.4599517" lon="10.9703533"><ele>134.0</ele><time>2026-04-24T17:43:01.029Z</time></trkpt><trkpt lat="44.4600167" lon="10.97039"><ele>134.0</ele><time>2026-04-24T17:43:02.028Z</time></trkpt><trkpt lat="44.4600717" lon="10.970435"><ele>134.0</ele><time>2026-04-24T17:43:03.028Z</time></trkpt><trkpt lat="44.4601433" lon="10.9705267"><ele>134.0</ele><time>2026-04-24T17:43:05.029Z</time></trkpt><trkpt lat="44.4601683" lon="10.9706567"><ele>134.0</ele><time>2026-04-24T17:43:07.029Z</time></trkpt><trkpt lat="44.4601433" lon="10.9707983"><ele>134.0</ele><time>2026-04-24T17:43:09.029Z</time></trkpt><trkpt lat="44.4601433" lon="10.9709467"><ele>134.0</ele><time>2026-04-24T17:43:11.028Z</time></trkpt><trkpt lat="44.460185" lon="10.97106"><ele>134.0</ele><time>2026-04-24T17:43:13.028Z</time></trkpt><trkpt lat="44.4602033" lon="10.9711967"><ele>134.0</ele><time>2026-04-24T17:43:15.028Z</time></trkpt><trkpt lat="44.460155" lon="10.971325"><ele>134.0</ele><time>2026-04-24T17:43:17.029Z</time></trkpt><trkpt lat="44.4601083" lon="10.9714"><ele>134.0</ele><time>2026-04-24T17:43:25.029Z</time></trkpt><trkpt lat="44.4600483" lon="10.9714983"><ele>134.0</ele><time>2026-04-24T17:43:27.029Z</time></trkpt><trkpt lat="44.4600267" lon="10.9715867"><ele>134.0</ele><time>2026-04-24T17:43:28.029Z</time></trkpt><trkpt lat="44.46003" lon="10.9716883"><ele>134.0</ele><time>2026-04-24T17:43:29.029Z</time></trkpt><trkpt lat="44.46005" lon="10.9717967"><ele>133.83333333333331</ele><time>2026-04-24T17:43:30.028Z</time></trkpt><trkpt lat="44.4600567" lon="10.9719183"><ele>133.66666666666666</ele><time>2026-04-24T17:43:31.029Z</time></trkpt><trkpt lat="44.4600317" lon="10.972035"><ele>133.5</ele><time>2026-04-24T17:43:32.029Z</time></trkpt><trkpt lat="44.46" lon="10.972145"><ele>133.33333333333334</ele><time>2026-04-24T17:43:33.029Z</time></trkpt><trkpt lat="44.459965" lon="10.9722483"><ele>133.16666666666669</ele><time>2026-04-24T17:43:34.029Z</time></trkpt><trkpt lat="44.45992" lon="10.9723167"><ele>133.0</ele><time>2026-04-24T17:43:35.029Z</time></trkpt><trkpt lat="44.4598017" lon="10.9723833"><ele>133.0</ele><time>2026-04-24T17:43:37.029Z</time></trkpt><trkpt lat="44.4597217" lon="10.972375"><ele>133.0</ele><time>2026-04-24T17:43:38.029Z</time></trkpt><trkpt lat="44.4596333" lon="10.9723417"><ele>133.0</ele><time>2026-04-24T17:43:39.029Z</time></trkpt><trkpt lat="44.4595517" lon="10.9723133"><ele>133.0</ele><time>2026-04-24T17:43:40.029Z</time></trkpt><trkpt lat="44.459485" lon="10.9722967"><ele>133.0</ele><time>2026-04-24T17:43:41.029Z</time></trkpt><trkpt lat="44.45937" lon="10.9722817"><ele>133.0</ele><time>2026-04-24T17:43:43.029Z</time></trkpt><trkpt lat="44.4592517" lon="10.9722483"><ele>133.0</ele><time>2026-04-24T17:43:45.029Z</time></trkpt><trkpt lat="44.459125" lon="10.97221"><ele>133.0</ele><time>2026-04-24T17:43:47.028Z</time></trkpt><trkpt lat="44.459055" lon="10.9721883"><ele>133.0</ele><time>2026-04-24T17:43:48.029Z</time></trkpt><trkpt lat="44.4589783" lon="10.9721633"><ele>133.0</ele><time>2026-04-24T17:43:49.028Z</time></trkpt><trkpt lat="44.45891" lon="10.972145"><ele>133.0</ele><time>2026-04-24T17:43:50.029Z</time></trkpt><trkpt lat="44.4588433" lon="10.9721333"><ele>133.0</ele><time>2026-04-24T17:43:51.029Z</time></trkpt><trkpt lat="44.458765" lon="10.9721267"><ele>133.0</ele><time>2026-04-24T17:43:52.029Z</time></trkpt><trkpt lat="44.4586833" lon="10.972105"><ele>133.0</ele><time>2026-04-24T17:43:53.029Z</time></trkpt><trkpt lat="44.4586" lon="10.9720733"><ele>133.0</ele><time>2026-04-24T17:43:54.029Z</time></trkpt><trkpt lat="44.4585083" lon="10.9720517"><ele>133.0</ele><time>2026-04-24T17:43:55.029Z</time></trkpt><trkpt lat="44.4584167" lon="10.9720417"><ele>133.0</ele><time>2026-04-24T17:43:56.029Z</time></trkpt><trkpt lat="44.4583283" lon="10.97203"><ele>133.0</ele><time>2026-04-24T17:43:57.029Z</time></trkpt><trkpt lat="44.4582417" lon="10.9720283"><ele>133.0</ele><time>2026-04-24T17:43:58.029Z</time></trkpt><trkpt lat="44.45815" lon="10.972035"><ele>133.0</ele><time>2026-04-24T17:43:59.029Z</time></trkpt><trkpt lat="44.4580733" lon="10.9720333"><ele>133.0</ele><time>2026-04-24T17:44:00.028Z</time></trkpt><trkpt lat="44.4580083" lon="10.9720317"><ele>133.0</ele><time>2026-04-24T17:44:01.029Z</time></trkpt><trkpt lat="44.4579033" lon="10.9720267"><ele>133.0</ele><time>2026-04-24T17:44:03.029Z</time></trkpt><trkpt lat="44.457825" lon="10.97204"><ele>133.0</ele><time>2026-04-24T17:44:05.028Z</time></trkpt><trkpt lat="44.4577883" lon="10.9721267"><ele>133.20000000000002</ele><time>2026-04-24T17:44:07.028Z</time></trkpt><trkpt lat="44.45781" lon="10.9722933"><ele>133.4</ele><time>2026-04-24T17:44:09.029Z</time></trkpt><trkpt lat="44.457815" lon="10.9724067"><ele>133.60000000000002</ele><time>2026-04-24T17:44:10.029Z</time></trkpt><trkpt lat="44.4578117" lon="10.9725333"><ele>133.8</ele><time>2026-04-24T17:44:11.029Z</time></trkpt><trkpt lat="44.4578183" lon="10.97266"><ele>134.0</ele><time>2026-04-24T17:44:12.029Z</time></trkpt><trkpt lat="44.4578117" lon="10.9727883"><ele>133.6</ele><time>2026-04-24T17:44:13.028Z</time></trkpt><trkpt lat="44.45782" lon="10.9729267"><ele>133.2</ele><time>2026-04-24T17:44:14.029Z</time></trkpt><trkpt lat="44.457815" lon="10.9730767"><ele>132.79999999999998</ele><time>2026-04-24T17:44:15.029Z</time></trkpt><trkpt lat="44.4578117" lon="10.9732283"><ele>132.4</ele><time>2026-04-24T17:44:16.028Z</time></trkpt><trkpt lat="44.4578167" lon="10.9733833"><ele>132.0</ele><time>2026-04-24T17:44:17.029Z</time></trkpt><trkpt lat="44.457825" lon="10.9735367"><ele>131.79999999999998</ele><time>2026-04-24T17:44:18.028Z</time></trkpt><trkpt lat="44.4578217" lon="10.9736833"><ele>131.6</ele><time>2026-04-24T17:44:19.028Z</time></trkpt><trkpt lat="44.45782" lon="10.9738217"><ele>131.39999999999998</ele><time>2026-04-24T17:44:20.029Z</time></trkpt><trkpt lat="44.4578183" lon="10.9739517"><ele>131.2</ele><time>2026-04-24T17:44:21.029Z</time></trkpt><trkpt lat="44.4578183" lon="10.9740767"><ele>131.0</ele><time>2026-04-24T17:44:22.029Z</time></trkpt><trkpt lat="44.4578217" lon="10.9742033"><ele>131.0</ele><time>2026-04-24T17:44:23.029Z</time></trkpt><trkpt lat="44.457825" lon="10.9743283"><ele>131.0</ele><time>2026-04-24T17:44:24.028Z</time></trkpt><trkpt lat="44.457825" lon="10.97445"><ele>131.0</ele><time>2026-04-24T17:44:25.029Z</time></trkpt><trkpt lat="44.4578233" lon="10.9745583"><ele>131.0</ele><time>2026-04-24T17:44:26.029Z</time></trkpt><trkpt lat="44.457825" lon="10.9746617"><ele>131.0</ele><time>2026-04-24T17:44:27.028Z</time></trkpt><trkpt lat="44.4578283" lon="10.9747617"><ele>131.0</ele><time>2026-04-24T17:44:28.029Z</time></trkpt><trkpt lat="44.4578267" lon="10.974855"><ele>131.0</ele><time>2026-04-24T17:44:29.029Z</time></trkpt><trkpt lat="44.4578317" lon="10.9749483"><ele>131.0</ele><time>2026-04-24T17:44:30.029Z</time></trkpt><trkpt lat="44.4578333" lon="10.9750433"><ele>131.0</ele><time>2026-04-24T17:44:31.029Z</time></trkpt><trkpt lat="44.45784" lon="10.97514"><ele>131.0</ele><time>2026-04-24T17:44:32.028Z</time></trkpt><trkpt lat="44.457845" lon="10.975245"><ele>131.0</ele><time>2026-04-24T17:44:33.029Z</time></trkpt><trkpt lat="44.45785" lon="10.975345"><ele>131.0</ele><time>2026-04-24T17:44:34.029Z</time></trkpt><trkpt lat="44.45785" lon="10.9754433"><ele>131.0</ele><time>2026-04-24T17:44:35.029Z</time></trkpt><trkpt lat="44.4578533" lon="10.9755467"><ele>131.0</ele><time>2026-04-24T17:44:36.029Z</time></trkpt><trkpt lat="44.45786" lon="10.9756567"><ele>131.0</ele><time>2026-04-24T17:44:37.028Z</time></trkpt><trkpt lat="44.45786" lon="10.9757783"><ele>131.0</ele><time>2026-04-24T17:44:38.029Z</time></trkpt><trkpt lat="44.45786" lon="10.9759067"><ele>131.0</ele><time>2026-04-24T17:44:39.029Z</time></trkpt><trkpt lat="44.45786" lon="10.976045"><ele>131.0</ele><time>2026-04-24T17:44:40.029Z</time></trkpt><trkpt lat="44.45786" lon="10.9761817"><ele>131.0</ele><time>2026-04-24T17:44:41.029Z</time></trkpt><trkpt lat="44.4578633" lon="10.9763267"><ele>131.0</ele><time>2026-04-24T17:44:42.029Z</time></trkpt><trkpt lat="44.4578617" lon="10.9764667"><ele>131.0</ele><time>2026-04-24T17:44:43.029Z</time></trkpt><trkpt lat="44.4578667" lon="10.9765933"><ele>131.0</ele><time>2026-04-24T17:44:44.029Z</time></trkpt><trkpt lat="44.4578683" lon="10.976705"><ele>131.0</ele><time>2026-04-24T17:44:45.029Z</time></trkpt><trkpt lat="44.4578717" lon="10.9768"><ele>131.0</ele><time>2026-04-24T17:44:46.029Z</time></trkpt><trkpt lat="44.4578733" lon="10.9769467"><ele>131.16666666666666</ele><time>2026-04-24T17:44:48.029Z</time></trkpt><trkpt lat="44.4578733" lon="10.9770733"><ele>131.33333333333331</ele><time>2026-04-24T17:44:50.028Z</time></trkpt><trkpt lat="44.4578733" lon="10.9772083"><ele>131.5</ele><time>2026-04-24T17:44:52.028Z</time></trkpt><trkpt lat="44.45786" lon="10.977315"><ele>131.66666666666666</ele><time>2026-04-24T17:44:54.029Z</time></trkpt><trkpt lat="44.4578567" lon="10.977405"><ele>131.83333333333334</ele><time>2026-04-24T17:44:57.028Z</time></trkpt><trkpt lat="44.4578383" lon="10.9775617"><ele>132.0</ele><time>2026-04-24T17:45:00.028Z</time></trkpt><trkpt lat="44.4578167" lon="10.9776617"><ele>132.0</ele><time>2026-04-24T17:45:01.028Z</time></trkpt><trkpt lat="44.4577933" lon="10.9777717"><ele>132.0</ele><time>2026-04-24T17:45:02.029Z</time></trkpt><trkpt lat="44.4577667" lon="10.97788"><ele>132.0</ele><time>2026-04-24T17:45:03.029Z</time></trkpt><trkpt lat="44.4577383" lon="10.977995"><ele>132.0</ele><time>2026-04-24T17:45:04.028Z</time></trkpt><trkpt lat="44.4577083" lon="10.9780983"><ele>132.0</ele><time>2026-04-24T17:45:05.029Z</time></trkpt><trkpt lat="44.4576833" lon="10.9782083"><ele>132.0</ele><time>2026-04-24T17:45:06.029Z</time></trkpt><trkpt lat="44.457655" lon="10.9783217"><ele>132.0</ele><time>2026-04-24T17:45:07.029Z</time></trkpt><trkpt lat="44.4576267" lon="10.9784367"><ele>132.0</ele><time>2026-04-24T17:45:08.029Z</time></trkpt><trkpt lat="44.4576033" lon="10.9785517"><ele>132.0</ele><time>2026-04-24T17:45:09.029Z</time></trkpt><trkpt lat="44.4575783" lon="10.9786667"><ele>132.0</ele><time>2026-04-24T17:45:10.029Z</time></trkpt><trkpt lat="44.457555" lon="10.978785"><ele>132.0</ele><time>2026-04-24T17:45:11.029Z</time></trkpt><trkpt lat="44.457525" lon="10.978905"><ele>132.0</ele><time>2026-04-24T17:45:12.028Z</time></trkpt><trkpt lat="44.4574933" lon="10.979025"><ele>132.0</ele><time>2026-04-24T17:45:13.028Z</time></trkpt><trkpt lat="44.4574683" lon="10.97915"><ele>132.0</ele><time>2026-04-24T17:45:14.028Z</time></trkpt><trkpt lat="44.4574433" lon="10.97927"><ele>132.0</ele><time>2026-04-24T17:45:15.029Z</time></trkpt><trkpt lat="44.4574133" lon="10.9793967"><ele>132.0</ele><time>2026-04-24T17:45:16.029Z</time></trkpt><trkpt lat="44.4573817" lon="10.9795183"><ele>132.0</ele><time>2026-04-24T17:45:17.029Z</time></trkpt><trkpt lat="44.45735" lon="10.9796517"><ele>131.6</ele><time>2026-04-24T17:45:18.029Z</time></trkpt><trkpt lat="44.4573167" lon="10.979785"><ele>131.2</ele><time>2026-04-24T17:45:19.029Z</time></trkpt><trkpt lat="44.4572833" lon="10.9799283"><ele>130.8</ele><time>2026-04-24T17:45:20.029Z</time></trkpt><trkpt lat="44.45725" lon="10.9800683"><ele>130.4</ele><time>2026-04-24T17:45:21.029Z</time></trkpt><trkpt lat="44.4572167" lon="10.9802117"><ele>130.0</ele><time>2026-04-24T17:45:22.029Z</time></trkpt><trkpt lat="44.457185" lon="10.9803483"><ele>130.0</ele><time>2026-04-24T17:45:23.029Z</time></trkpt><trkpt lat="44.4571467" lon="10.9805"><ele>130.0</ele><time>2026-04-24T17:45:24.029Z</time></trkpt><trkpt lat="44.4571217" lon="10.980645"><ele>130.0</ele><time>2026-04-24T17:45:25.029Z</time></trkpt><trkpt lat="44.4570867" lon="10.9807967"><ele>130.0</ele><time>2026-04-24T17:45:26.029Z</time></trkpt><trkpt lat="44.4570517" lon="10.9809417"><ele>130.0</ele><time>2026-04-24T17:45:27.029Z</time></trkpt><trkpt lat="44.457015" lon="10.9810867"><ele>130.0</ele><time>2026-04-24T17:45:28.028Z</time></trkpt><trkpt lat="44.45698" lon="10.9812367"><ele>130.0</ele><time>2026-04-24T17:45:29.029Z</time></trkpt><trkpt lat="44.4569467" lon="10.98138"><ele>130.0</ele><time>2026-04-24T17:45:30.029Z</time></trkpt><trkpt lat="44.4569117" lon="10.9815233"><ele>130.0</ele><time>2026-04-24T17:45:31.029Z</time></trkpt><trkpt lat="44.45688" lon="10.98166"><ele>130.0</ele><time>2026-04-24T17:45:32.029Z</time></trkpt><trkpt lat="44.45685" lon="10.9817933"><ele>130.0</ele><time>2026-04-24T17:45:33.029Z</time></trkpt><trkpt lat="44.4568283" lon="10.9819283"><ele>130.0</ele><time>2026-04-24T17:45:34.028Z</time></trkpt><trkpt lat="44.4567967" lon="10.98204"><ele>130.0</ele><time>2026-04-24T17:45:35.029Z</time></trkpt><trkpt lat="44.4567717" lon="10.982145"><ele>130.0</ele><time>2026-04-24T17:45:36.028Z</time></trkpt><trkpt lat="44.4567483" lon="10.9822433"><ele>130.0</ele><time>2026-04-24T17:45:37.029Z</time></trkpt><trkpt lat="44.4567167" lon="10.98238"><ele>130.0</ele><time>2026-04-24T17:45:39.028Z</time></trkpt><trkpt lat="44.4566783" lon="10.982475"><ele>130.0</ele><time>2026-04-24T17:45:41.029Z</time></trkpt><trkpt lat="44.45661" lon="10.9824867"><ele>130.0</ele><time>2026-04-24T17:45:43.029Z</time></trkpt><trkpt lat="44.45656" lon="10.9824017"><ele>130.0</ele><time>2026-04-24T17:45:45.029Z</time></trkpt><trkpt lat="44.456515" lon="10.9822383"><ele>130.0</ele><time>2026-04-24T17:45:47.029Z</time></trkpt><trkpt lat="44.4564867" lon="10.9821517"><ele>130.0</ele><time>2026-04-24T17:45:48.029Z</time></trkpt><trkpt lat="44.4564567" lon="10.9820667"><ele>130.0</ele><time>2026-04-24T17:45:49.029Z</time></trkpt><trkpt lat="44.4564283" lon="10.9819833"><ele>130.0</ele><time>2026-04-24T17:45:50.029Z</time></trkpt><trkpt lat="44.4564017" lon="10.9819017"><ele>130.0</ele><time>2026-04-24T17:45:51.029Z</time></trkpt><trkpt lat="44.4563483" lon="10.9817383"><ele>130.0</ele><time>2026-04-24T17:45:53.029Z</time></trkpt><trkpt lat="44.4563317" lon="10.9816483"><ele>130.0</ele><time>2026-04-24T17:45:54.029Z</time></trkpt><trkpt lat="44.4563217" lon="10.9815533"><ele>130.0</ele><time>2026-04-24T17:45:55.029Z</time></trkpt><trkpt lat="44.456315" lon="10.9814417"><ele>130.0</ele><time>2026-04-24T17:45:56.029Z</time></trkpt><trkpt lat="44.4563083" lon="10.9813167"><ele>130.0</ele><time>2026-04-24T17:45:57.029Z</time></trkpt><trkpt lat="44.456305" lon="10.9811867"><ele>130.0</ele><time>2026-04-24T17:45:58.029Z</time></trkpt><trkpt lat="44.456305" lon="10.98105"><ele>130.0</ele><time>2026-04-24T17:45:59.028Z</time></trkpt><trkpt lat="44.4563" lon="10.9809"><ele>130.0</ele><time>2026-04-24T17:46:00.029Z</time></trkpt><trkpt lat="44.456295" lon="10.9807417"><ele>130.0</ele><time>2026-04-24T17:46:01.029Z</time></trkpt><trkpt lat="44.4562917" lon="10.98057"><ele>130.0</ele><time>2026-04-24T17:46:02.029Z</time></trkpt><trkpt lat="44.45629" lon="10.9803883"><ele>130.0</ele><time>2026-04-24T17:46:03.029Z</time></trkpt><trkpt lat="44.456285" lon="10.9802117"><ele>130.0</ele><time>2026-04-24T17:46:04.029Z</time></trkpt><trkpt lat="44.4562783" lon="10.980035"><ele>130.0</ele><time>2026-04-24T17:46:05.029Z</time></trkpt><trkpt lat="44.4562733" lon="10.97986"><ele>130.25</ele><time>2026-04-24T17:46:06.029Z</time></trkpt><trkpt lat="44.45627" lon="10.97969"><ele>130.5</ele><time>2026-04-24T17:46:07.029Z</time></trkpt><trkpt lat="44.45626" lon="10.9795317"><ele>130.75</ele><time>2026-04-24T17:46:08.029Z</time></trkpt><trkpt lat="44.4562533" lon="10.97937"><ele>131.0</ele><time>2026-04-24T17:46:09.028Z</time></trkpt><trkpt lat="44.4562533" lon="10.9791967"><ele>131.0</ele><time>2026-04-24T17:46:10.029Z</time></trkpt><trkpt lat="44.4562517" lon="10.9790367"><ele>131.0</ele><time>2026-04-24T17:46:11.029Z</time></trkpt><trkpt lat="44.456245" lon="10.9788883"><ele>131.0</ele><time>2026-04-24T17:46:12.028Z</time></trkpt><trkpt lat="44.4562383" lon="10.978735"><ele>131.0</ele><time>2026-04-24T17:46:13.029Z</time></trkpt><trkpt lat="44.4562317" lon="10.9785833"><ele>131.0</ele><time>2026-04-24T17:46:14.029Z</time></trkpt><trkpt lat="44.4562283" lon="10.978435"><ele>131.0</ele><time>2026-04-24T17:46:15.029Z</time></trkpt><trkpt lat="44.4562217" lon="10.9782767"><ele>131.0</ele><time>2026-04-24T17:46:16.028Z</time></trkpt><trkpt lat="44.45622" lon="10.9781183"><ele>131.0</ele><time>2026-04-24T17:46:17.028Z</time></trkpt><trkpt lat="44.456215" lon="10.97795"><ele>131.0</ele><time>2026-04-24T17:46:18.028Z</time></trkpt><trkpt lat="44.4562083" lon="10.97778"><ele>131.0</ele><time>2026-04-24T17:46:19.029Z</time></trkpt><trkpt lat="44.4562" lon="10.9776083"><ele>131.0</ele><time>2026-04-24T17:46:20.028Z</time></trkpt><trkpt lat="44.4562017" lon="10.9774433"><ele>131.0</ele><time>2026-04-24T17:46:21.028Z</time></trkpt><trkpt lat="44.4562017" lon="10.97728"><ele>131.0</ele><time>2026-04-24T17:46:22.029Z</time></trkpt><trkpt lat="44.4561967" lon="10.977125"><ele>131.4</ele><time>2026-04-24T17:46:23.029Z</time></trkpt><trkpt lat="44.4561933" lon="10.9769783"><ele>131.8</ele><time>2026-04-24T17:46:24.029Z</time></trkpt><trkpt lat="44.4561883" lon="10.9768283"><ele>132.20000000000002</ele><time>2026-04-24T17:46:25.028Z</time></trkpt><trkpt lat="44.456185" lon="10.9766767"><ele>132.6</ele><time>2026-04-24T17:46:26.029Z</time></trkpt><trkpt lat="44.4561817" lon="10.9765217"><ele>133.0</ele><time>2026-04-24T17:46:27.029Z</time></trkpt><trkpt lat="44.4561767" lon="10.97637"><ele>133.0</ele><time>2026-04-24T17:46:28.028Z</time></trkpt><trkpt lat="44.4561717" lon="10.9762133"><ele>133.0</ele><time>2026-04-24T17:46:29.029Z</time></trkpt><trkpt lat="44.4561683" lon="10.976055"><ele>133.0</ele><time>2026-04-24T17:46:30.029Z</time></trkpt><trkpt lat="44.4561667" lon="10.9759117"><ele>133.0</ele><time>2026-04-24T17:46:31.029Z</time></trkpt><trkpt lat="44.4561667" lon="10.9757717"><ele>133.0</ele><time>2026-04-24T17:46:32.029Z</time></trkpt><trkpt lat="44.4561683" lon="10.9756433"><ele>133.0</ele><time>2026-04-24T17:46:33.029Z</time></trkpt><trkpt lat="44.45617" lon="10.9755117"><ele>133.0</ele><time>2026-04-24T17:46:34.029Z</time></trkpt><trkpt lat="44.45617" lon="10.9753817"><ele>133.0</ele><time>2026-04-24T17:46:35.028Z</time></trkpt><trkpt lat="44.4561667" lon="10.9752533"><ele>133.0</ele><time>2026-04-24T17:46:36.029Z</time></trkpt><trkpt lat="44.45616" lon="10.9751283"><ele>133.0</ele><time>2026-04-24T17:46:37.029Z</time></trkpt><trkpt lat="44.4561467" lon="10.9750033"><ele>133.0</ele><time>2026-04-24T17:46:38.029Z</time></trkpt><trkpt lat="44.456135" lon="10.9748767"><ele>133.0</ele><time>2026-04-24T17:46:39.029Z</time></trkpt><trkpt lat="44.456125" lon="10.9747483"><ele>133.0</ele><time>2026-04-24T17:46:40.029Z</time></trkpt><trkpt lat="44.456115" lon="10.9746083"><ele>133.0</ele><time>2026-04-24T17:46:41.028Z</time></trkpt><trkpt lat="44.45611" lon="10.97447"><ele>133.0</ele><time>2026-04-24T17:46:42.029Z</time></trkpt><trkpt lat="44.456105" lon="10.974325"><ele>133.4</ele><time>2026-04-24T17:46:43.028Z</time></trkpt><trkpt lat="44.4561" lon="10.9741783"><ele>133.8</ele><time>2026-04-24T17:46:44.029Z</time></trkpt><trkpt lat="44.4560933" lon="10.9740267"><ele>134.2</ele><time>2026-04-24T17:46:45.028Z</time></trkpt><trkpt lat="44.4560917" lon="10.9738717"><ele>134.6</ele><time>2026-04-24T17:46:46.029Z</time></trkpt><trkpt lat="44.4560883" lon="10.9737083"><ele>135.0</ele><time>2026-04-24T17:46:47.029Z</time></trkpt><trkpt lat="44.456085" lon="10.973555"><ele>135.0</ele><time>2026-04-24T17:46:48.028Z</time></trkpt><trkpt lat="44.4560783" lon="10.97341"><ele>135.0</ele><time>2026-04-24T17:46:49.029Z</time></trkpt><trkpt lat="44.4560683" lon="10.9732717"><ele>135.0</ele><time>2026-04-24T17:46:50.028Z</time></trkpt><trkpt lat="44.4560617" lon="10.9731333"><ele>135.0</ele><time>2026-04-24T17:46:51.029Z</time></trkpt><trkpt lat="44.4560533" lon="10.97299"><ele>135.0</ele><time>2026-04-24T17:46:52.029Z</time></trkpt><trkpt lat="44.456045" lon="10.972845"><ele>135.0</ele><time>2026-04-24T17:46:53.028Z</time></trkpt><trkpt lat="44.4560383" lon="10.9726983"><ele>135.0</ele><time>2026-04-24T17:46:54.029Z</time></trkpt><trkpt lat="44.456035" lon="10.97256"><ele>135.0</ele><time>2026-04-24T17:46:55.029Z</time></trkpt><trkpt lat="44.4560333" lon="10.972415"><ele>135.0</ele><time>2026-04-24T17:46:56.029Z</time></trkpt><trkpt lat="44.4560267" lon="10.9722683"><ele>135.0</ele><time>2026-04-24T17:46:57.029Z</time></trkpt><trkpt lat="44.4560217" lon="10.97212"><ele>135.0</ele><time>2026-04-24T17:46:58.029Z</time></trkpt><trkpt lat="44.4560083" lon="10.9719717"><ele>135.0</ele><time>2026-04-24T17:46:59.028Z</time></trkpt><trkpt lat="44.4559933" lon="10.9718233"><ele>135.0</ele><time>2026-04-24T17:47:00.029Z</time></trkpt><trkpt lat="44.4559833" lon="10.9716733"><ele>135.0</ele><time>2026-04-24T17:47:01.028Z</time></trkpt><trkpt lat="44.4559717" lon="10.9715217"><ele>135.0</ele><time>2026-04-24T17:47:02.029Z</time></trkpt><trkpt lat="44.4559667" lon="10.9713683"><ele>135.25</ele><time>2026-04-24T17:47:03.029Z</time></trkpt><trkpt lat="44.45596" lon="10.9712117"><ele>135.5</ele><time>2026-04-24T17:47:04.029Z</time></trkpt><trkpt lat="44.4559583" lon="10.971055"><ele>135.75</ele><time>2026-04-24T17:47:05.029Z</time></trkpt><trkpt lat="44.4559567" lon="10.9708933"><ele>136.0</ele><time>2026-04-24T17:47:06.029Z</time></trkpt><trkpt lat="44.4559467" lon="10.9707317"><ele>136.25</ele><time>2026-04-24T17:47:07.029Z</time></trkpt><trkpt lat="44.4559433" lon="10.97057"><ele>136.5</ele><time>2026-04-24T17:47:08.029Z</time></trkpt><trkpt lat="44.4559433" lon="10.9704033"><ele>136.75</ele><time>2026-04-24T17:47:09.029Z</time></trkpt><trkpt lat="44.4559367" lon="10.97022"><ele>137.0</ele><time>2026-04-24T17:47:10.029Z</time></trkpt><trkpt lat="44.4559267" lon="10.9700283"><ele>137.0</ele><time>2026-04-24T17:47:11.029Z</time></trkpt><trkpt lat="44.4559133" lon="10.9698417"><ele>137.0</ele><time>2026-04-24T17:47:12.028Z</time></trkpt><trkpt lat="44.4558967" lon="10.9696767"><ele>137.0</ele><time>2026-04-24T17:47:13.029Z</time></trkpt><trkpt lat="44.45589" lon="10.969525"><ele>137.0</ele><time>2026-04-24T17:47:14.029Z</time></trkpt><trkpt lat="44.4558867" lon="10.969375"><ele>137.0</ele><time>2026-04-24T17:47:15.029Z</time></trkpt><trkpt lat="44.4558783" lon="10.9692467"><ele>137.0</ele><time>2026-04-24T17:47:16.028Z</time></trkpt><trkpt lat="44.455875" lon="10.9691417"><ele>137.0</ele><time>2026-04-24T17:47:17.029Z</time></trkpt><trkpt lat="44.4558867" lon="10.9690483"><ele>137.0</ele><time>2026-04-24T17:47:18.029Z</time></trkpt><trkpt lat="44.4559367" lon="10.9689383"><ele>137.0</ele><time>2026-04-24T17:47:20.029Z</time></trkpt><trkpt lat="44.4560383" lon="10.9690167"><ele>137.0</ele><time>2026-04-24T17:47:22.028Z</time></trkpt><trkpt lat="44.45611" lon="10.9691067"><ele>137.0</ele><time>2026-04-24T17:47:23.029Z</time></trkpt><trkpt lat="44.4561967" lon="10.9692083"><ele>137.0</ele><time>2026-04-24T17:47:24.029Z</time></trkpt><trkpt lat="44.456305" lon="10.96931"><ele>137.0</ele><time>2026-04-24T17:47:25.029Z</time></trkpt><trkpt lat="44.4564267" lon="10.9694233"><ele>137.0</ele><time>2026-04-24T17:47:26.029Z</time></trkpt><trkpt lat="44.4565567" lon="10.96953"><ele>137.0</ele><time>2026-04-24T17:47:27.029Z</time></trkpt><trkpt lat="44.4567033" lon="10.9696517"><ele>137.0</ele><time>2026-04-24T17:47:28.029Z</time></trkpt><trkpt lat="44.4568567" lon="10.9697883"><ele>137.0</ele><time>2026-04-24T17:47:29.029Z</time></trkpt><trkpt lat="44.45701" lon="10.96992"><ele>136.66666666666666</ele><time>2026-04-24T17:47:30.028Z</time></trkpt><trkpt lat="44.4571717" lon="10.9700617"><ele>136.33333333333334</ele><time>2026-04-24T17:47:31.029Z</time></trkpt><trkpt lat="44.45733" lon="10.9702"><ele>136.0</ele><time>2026-04-24T17:47:32.029Z</time></trkpt><trkpt lat="44.4574883" lon="10.97034"><ele>136.0</ele><time>2026-04-24T17:47:33.029Z</time></trkpt><trkpt lat="44.45764" lon="10.97047"><ele>136.0</ele><time>2026-04-24T17:47:34.028Z</time></trkpt><trkpt lat="44.4577933" lon="10.97059"><ele>136.0</ele><time>2026-04-24T17:47:35.029Z</time></trkpt><trkpt lat="44.4579583" lon="10.9707033"><ele>136.0</ele><time>2026-04-24T17:47:36.029Z</time></trkpt><trkpt lat="44.4581283" lon="10.970795"><ele>136.0</ele><time>2026-04-24T17:47:37.029Z</time></trkpt><trkpt lat="44.4583167" lon="10.970875"><ele>136.0</ele><time>2026-04-24T17:47:38.028Z</time></trkpt><trkpt lat="44.45852" lon="10.97096"><ele>135.66666666666669</ele><time>2026-04-24T17:47:39.029Z</time></trkpt><trkpt lat="44.4587333" lon="10.9710533"><ele>135.33333333333334</ele><time>2026-04-24T17:47:40.029Z</time></trkpt><trkpt lat="44.4589483" lon="10.9711483"><ele>135.0</ele><time>2026-04-24T17:47:41.028Z</time></trkpt><trkpt lat="44.4591567" lon="10.9712367"><ele>134.66666666666666</ele><time>2026-04-24T17:47:42.029Z</time></trkpt><trkpt lat="44.4593483" lon="10.9713117"><ele>134.33333333333331</ele><time>2026-04-24T17:47:43.029Z</time></trkpt><trkpt lat="44.459505" lon="10.9713767"><ele>134.0</ele><time>2026-04-24T17:47:44.029Z</time></trkpt><trkpt lat="44.4596467" lon="10.971435"><ele>134.0</ele><time>2026-04-24T17:47:45.029Z</time></trkpt><trkpt lat="44.459765" lon="10.9714817"><ele>134.0</ele><time>2026-04-24T17:47:46.029Z</time></trkpt><trkpt lat="44.4598583" lon="10.9715283"><ele>134.0</ele><time>2026-04-24T17:47:47.029Z</time></trkpt><trkpt lat="44.4599333" lon="10.9715783"><ele>134.0</ele><time>2026-04-24T17:47:48.029Z</time></trkpt><trkpt lat="44.4600017" lon="10.9716367"><ele>134.0</ele><time>2026-04-24T17:47:49.029Z</time></trkpt><trkpt lat="44.4600733" lon="10.9716917"><ele>134.0</ele><time>2026-04-24T17:47:50.029Z</time></trkpt><trkpt lat="44.4601617" lon="10.9717183"><ele>134.0</ele><time>2026-04-24T17:47:51.029Z</time></trkpt><trkpt lat="44.4602633" lon="10.971735"><ele>134.0</ele><time>2026-04-24T17:47:52.029Z</time></trkpt><trkpt lat="44.4603917" lon="10.9717583"><ele>134.0</ele><time>2026-04-24T17:47:53.029Z</time></trkpt><trkpt lat="44.46054" lon="10.9718067"><ele>134.0</ele><time>2026-04-24T17:47:54.029Z</time></trkpt><trkpt lat="44.4607083" lon="10.9718517"><ele>134.0</ele><time>2026-04-24T17:47:55.029Z</time></trkpt><trkpt lat="44.4608717" lon="10.9719033"><ele>134.0</ele><time>2026-04-24T17:47:56.029Z</time></trkpt><trkpt lat="44.4610367" lon="10.971965"><ele>134.0</ele><time>2026-04-24T17:47:57.028Z</time></trkpt><trkpt lat="44.4611933" lon="10.97201"><ele>134.0</ele><time>2026-04-24T17:47:58.029Z</time></trkpt><trkpt lat="44.4613483" lon="10.9720567"><ele>134.0</ele><time>2026-04-24T17:47:59.029Z</time></trkpt><trkpt lat="44.4615" lon="10.97211"><ele>133.66666666666666</ele><time>2026-04-24T17:48:00.029Z</time></trkpt><trkpt lat="44.4616533" lon="10.9721717"><ele>133.33333333333334</ele><time>2026-04-24T17:48:01.029Z</time></trkpt><trkpt lat="44.4618117" lon="10.9722533"><ele>133.0</ele><time>2026-04-24T17:48:02.029Z</time></trkpt><trkpt lat="44.4619717" lon="10.9723567"><ele>133.33333333333334</ele><time>2026-04-24T17:48:03.029Z</time></trkpt><trkpt lat="44.462125" lon="10.97248"><ele>133.66666666666666</ele><time>2026-04-24T17:48:04.028Z</time></trkpt><trkpt lat="44.462275" lon="10.9726"><ele>134.0</ele><time>2026-04-24T17:48:05.029Z</time></trkpt><trkpt lat="44.46242" lon="10.9727083"><ele>132.66666666666666</ele><time>2026-04-24T17:48:06.028Z</time></trkpt><trkpt lat="44.4625617" lon="10.9728133"><ele>131.33333333333334</ele><time>2026-04-24T17:48:07.028Z</time></trkpt><trkpt lat="44.4627" lon="10.9729217"><ele>130.0</ele><time>2026-04-24T17:48:08.029Z</time></trkpt><trkpt lat="44.4628417" lon="10.9730283"><ele>130.33333333333334</ele><time>2026-04-24T17:48:09.029Z</time></trkpt><trkpt lat="44.4629917" lon="10.9731383"><ele>130.66666666666666</ele><time>2026-04-24T17:48:10.029Z</time></trkpt><trkpt lat="44.4631517" lon="10.9732583"><ele>131.0</ele><time>2026-04-24T17:48:11.029Z</time></trkpt><trkpt lat="44.4633283" lon="10.9733933"><ele>131.0</ele><time>2026-04-24T17:48:12.028Z</time></trkpt><trkpt lat="44.46351" lon="10.9735317"><ele>131.0</ele><time>2026-04-24T17:48:13.029Z</time></trkpt><trkpt lat="44.4636917" lon="10.9736633"><ele>131.0</ele><time>2026-04-24T17:48:14.029Z</time></trkpt><trkpt lat="44.463875" lon="10.9737917"><ele>130.33333333333331</ele><time>2026-04-24T17:48:15.029Z</time></trkpt><trkpt lat="44.4640667" lon="10.9739133"><ele>129.66666666666666</ele><time>2026-04-24T17:48:16.029Z</time></trkpt><trkpt lat="44.4642583" lon="10.974025"><ele>129.0</ele><time>2026-04-24T17:48:17.029Z</time></trkpt><trkpt lat="44.46446" lon="10.9741367"><ele>128.66666666666666</ele><time>2026-04-24T17:48:18.029Z</time></trkpt><trkpt lat="44.4646583" lon="10.97426"><ele>128.33333333333331</ele><time>2026-04-24T17:48:19.028Z</time></trkpt><trkpt lat="44.464875" lon="10.9743733"><ele>128.0</ele><time>2026-04-24T17:48:20.028Z</time></trkpt><trkpt lat="44.4651017" lon="10.974495"><ele>128.0</ele><time>2026-04-24T17:48:21.029Z</time></trkpt><trkpt lat="44.4653383" lon="10.974625"><ele>128.0</ele><time>2026-04-24T17:48:22.029Z</time></trkpt><trkpt lat="44.465585" lon="10.9747617"><ele>128.5</ele><time>2026-04-24T17:48:23.029Z</time></trkpt><trkpt lat="44.465835" lon="10.9748983"><ele>129.0</ele><time>2026-04-24T17:48:24.029Z</time></trkpt><trkpt lat="44.4660733" lon="10.975025"><ele>128.5</ele><time>2026-04-24T17:48:25.029Z</time></trkpt><trkpt lat="44.466295" lon="10.97515"><ele>128.0</ele><time>2026-04-24T17:48:26.029Z</time></trkpt><trkpt lat="44.466505" lon="10.97527"><ele>128.0</ele><time>2026-04-24T17:48:27.029Z</time></trkpt><trkpt lat="44.4667033" lon="10.975385"><ele>128.0</ele><time>2026-04-24T17:48:28.029Z</time></trkpt><trkpt lat="44.4668933" lon="10.9754933"><ele>128.0</ele><time>2026-04-24T17:48:29.029Z</time></trkpt><trkpt lat="44.467075" lon="10.97559"><ele>127.66666666666666</ele><time>2026-04-24T17:48:30.029Z</time></trkpt><trkpt lat="44.4672383" lon="10.97568"><ele>127.33333333333334</ele><time>2026-04-24T17:48:31.028Z</time></trkpt><trkpt lat="44.46739" lon="10.9757717"><ele>127.0</ele><time>2026-04-24T17:48:32.029Z</time></trkpt><trkpt lat="44.46754" lon="10.9758583"><ele>127.0</ele><time>2026-04-24T17:48:33.029Z</time></trkpt><trkpt lat="44.4676783" lon="10.97594"><ele>127.0</ele><time>2026-04-24T17:48:34.028Z</time></trkpt><trkpt lat="44.4678133" lon="10.9760217"><ele>127.0</ele><time>2026-04-24T17:48:35.029Z</time></trkpt><trkpt lat="44.4679533" lon="10.9761017"><ele>127.0</ele><time>2026-04-24T17:48:36.029Z</time></trkpt><trkpt lat="44.4680867" lon="10.976195"><ele>127.66666666666667</ele><time>2026-04-24T17:48:37.029Z</time></trkpt><trkpt lat="44.4682283" lon="10.9762983"><ele>128.33333333333334</ele><time>2026-04-24T17:48:38.028Z</time></trkpt><trkpt lat="44.46837" lon="10.976415"><ele>129.0</ele><time>2026-04-24T17:48:39.029Z</time></trkpt><trkpt lat="44.4685117" lon="10.9765433"><ele>129.0</ele><time>2026-04-24T17:48:40.029Z</time></trkpt><trkpt lat="44.46864" lon="10.9766767"><ele>129.0</ele><time>2026-04-24T17:48:41.028Z</time></trkpt><trkpt lat="44.4687633" lon="10.9768217"><ele>129.0</ele><time>2026-04-24T17:48:42.028Z</time></trkpt><trkpt lat="44.4688783" lon="10.9769633"><ele>128.66666666666666</ele><time>2026-04-24T17:48:43.029Z</time></trkpt><trkpt lat="44.4690033" lon="10.9771067"><ele>128.33333333333331</ele><time>2026-04-24T17:48:44.028Z</time></trkpt><trkpt lat="44.4691283" lon="10.97725"><ele>128.0</ele><time>2026-04-24T17:48:45.029Z</time></trkpt><trkpt lat="44.4692483" lon="10.9773817"><ele>128.0</ele><time>2026-04-24T17:48:46.028Z</time></trkpt><trkpt lat="44.469365" lon="10.9775167"><ele>128.0</ele><time>2026-04-24T17:48:47.029Z</time></trkpt><trkpt lat="44.4694917" lon="10.9776517"><ele>128.0</ele><time>2026-04-24T17:48:48.028Z</time></trkpt><trkpt lat="44.469625" lon="10.9777917"><ele>128.33333333333331</ele><time>2026-04-24T17:48:49.029Z</time></trkpt><trkpt lat="44.469765" lon="10.97794"><ele>128.66666666666666</ele><time>2026-04-24T17:48:50.028Z</time></trkpt><trkpt lat="44.4699117" lon="10.978095"><ele>129.0</ele><time>2026-04-24T17:48:51.029Z</time></trkpt><trkpt lat="44.470075" lon="10.9782633"><ele>129.33333333333334</ele><time>2026-04-24T17:48:52.029Z</time></trkpt><trkpt lat="44.4702383" lon="10.97845"><ele>129.66666666666669</ele><time>2026-04-24T17:48:53.028Z</time></trkpt><trkpt lat="44.4704033" lon="10.9786517"><ele>130.0</ele><time>2026-04-24T17:48:54.029Z</time></trkpt><trkpt lat="44.4705767" lon="10.9788633"><ele>130.0</ele><time>2026-04-24T17:48:55.029Z</time></trkpt><trkpt lat="44.4707483" lon="10.97908"><ele>130.0</ele><time>2026-04-24T17:48:56.029Z</time></trkpt><trkpt lat="44.4709283" lon="10.9792917"><ele>128.66666666666669</ele><time>2026-04-24T17:48:57.029Z</time></trkpt><trkpt lat="44.4711017" lon="10.97949"><ele>127.33333333333334</ele><time>2026-04-24T17:48:58.028Z</time></trkpt><trkpt lat="44.4712733" lon="10.9796867"><ele>126.0</ele><time>2026-04-24T17:48:59.029Z</time></trkpt><trkpt lat="44.47143" lon="10.9798967"><ele>127.0</ele><time>2026-04-24T17:49:00.029Z</time></trkpt><trkpt lat="44.47157" lon="10.9801233"><ele>128.0</ele><time>2026-04-24T17:49:01.028Z</time></trkpt><trkpt lat="44.4716883" lon="10.980355"><ele>129.0</ele><time>2026-04-24T17:49:02.028Z</time></trkpt><trkpt lat="44.47179" lon="10.98058"><ele>129.0</ele><time>2026-04-24T17:49:03.029Z</time></trkpt><trkpt lat="44.4718817" lon="10.9807967"><ele>129.0</ele><time>2026-04-24T17:49:04.029Z</time></trkpt><trkpt lat="44.4719733" lon="10.98101"><ele>129.0</ele><time>2026-04-24T17:49:05.028Z</time></trkpt><trkpt lat="44.4720667" lon="10.9812267"><ele>130.33333333333334</ele><time>2026-04-24T17:49:06.029Z</time></trkpt><trkpt lat="44.4721483" lon="10.981445"><ele>131.66666666666669</ele><time>2026-04-24T17:49:07.029Z</time></trkpt><trkpt lat="44.4722217" lon="10.9816717"><ele>133.0</ele><time>2026-04-24T17:49:08.029Z</time></trkpt><trkpt lat="44.4722867" lon="10.9819017"><ele>133.0</ele><time>2026-04-24T17:49:09.029Z</time></trkpt><trkpt lat="44.4723483" lon="10.9821383"><ele>133.0</ele><time>2026-04-24T17:49:10.029Z</time></trkpt><trkpt lat="44.4724083" lon="10.982365"><ele>133.0</ele><time>2026-04-24T17:49:11.029Z</time></trkpt><trkpt lat="44.472465" lon="10.9825967"><ele>132.0</ele><time>2026-04-24T17:49:12.029Z</time></trkpt><trkpt lat="44.4725217" lon="10.9828233"><ele>131.0</ele><time>2026-04-24T17:49:13.029Z</time></trkpt><trkpt lat="44.472575" lon="10.98306"><ele>130.0</ele><time>2026-04-24T17:49:14.028Z</time></trkpt><trkpt lat="44.472625" lon="10.983295"><ele>128.66666666666669</ele><time>2026-04-24T17:49:15.028Z</time></trkpt><trkpt lat="44.47268" lon="10.9835317"><ele>127.33333333333334</ele><time>2026-04-24T17:49:16.029Z</time></trkpt><trkpt lat="44.472735" lon="10.9837733"><ele>126.0</ele><time>2026-04-24T17:49:17.028Z</time></trkpt><trkpt lat="44.4727867" lon="10.9840167"><ele>125.66666666666666</ele><time>2026-04-24T17:49:18.028Z</time></trkpt><trkpt lat="44.4728417" lon="10.9842533"><ele>125.33333333333333</ele><time>2026-04-24T17:49:19.029Z</time></trkpt><trkpt lat="44.4728933" lon="10.9844733"><ele>125.0</ele><time>2026-04-24T17:49:20.029Z</time></trkpt><trkpt lat="44.4729417" lon="10.9846783"><ele>127.0</ele><time>2026-04-24T17:49:21.029Z</time></trkpt><trkpt lat="44.4729917" lon="10.98488"><ele>129.0</ele><time>2026-04-24T17:49:22.029Z</time></trkpt><trkpt lat="44.4730417" lon="10.9850783"><ele>131.0</ele><time>2026-04-24T17:49:23.029Z</time></trkpt><trkpt lat="44.473095" lon="10.9852617"><ele>133.0</ele><time>2026-04-24T17:49:24.028Z</time></trkpt><trkpt lat="44.4731483" lon="10.985435"><ele>133.0</ele><time>2026-04-24T17:49:25.029Z</time></trkpt><trkpt lat="44.47321" lon="10.98559"><ele>133.0</ele><time>2026-04-24T17:49:26.029Z</time></trkpt><trkpt lat="44.4732717" lon="10.9857267"><ele>133.0</ele><time>2026-04-24T17:49:27.029Z</time></trkpt><trkpt lat="44.473325" lon="10.9858567"><ele>133.0</ele><time>2026-04-24T17:49:28.028Z</time></trkpt><trkpt lat="44.473365" lon="10.9859867"><ele>132.5</ele><time>2026-04-24T17:49:29.029Z</time></trkpt><trkpt lat="44.4733933" lon="10.986115"><ele>132.0</ele><time>2026-04-24T17:49:30.028Z</time></trkpt><trkpt lat="44.4734167" lon="10.986235"><ele>131.5</ele><time>2026-04-24T17:49:31.029Z</time></trkpt><trkpt lat="44.47344" lon="10.9863433"><ele>131.0</ele><time>2026-04-24T17:49:32.029Z</time></trkpt><trkpt lat="44.4734667" lon="10.9864517"><ele>130.5</ele><time>2026-04-24T17:49:33.028Z</time></trkpt><trkpt lat="44.4735" lon="10.9865717"><ele>130.0</ele><time>2026-04-24T17:49:34.029Z</time></trkpt><trkpt lat="44.47354" lon="10.9867083"><ele>129.25</ele><time>2026-04-24T17:49:35.028Z</time></trkpt><trkpt lat="44.473595" lon="10.98687"><ele>128.5</ele><time>2026-04-24T17:49:36.029Z</time></trkpt><trkpt lat="44.4736617" lon="10.98706"><ele>127.75</ele><time>2026-04-24T17:49:37.029Z</time></trkpt><trkpt lat="44.4737333" lon="10.9872617"><ele>127.0</ele><time>2026-04-24T17:49:38.029Z</time></trkpt><trkpt lat="44.473815" lon="10.98746"><ele>129.33333333333334</ele><time>2026-04-24T17:49:39.029Z</time></trkpt><trkpt lat="44.473895" lon="10.9876717"><ele>131.66666666666666</ele><time>2026-04-24T17:49:40.029Z</time></trkpt><trkpt lat="44.4739583" lon="10.9879167"><ele>134.0</ele><time>2026-04-24T17:49:41.028Z</time></trkpt><trkpt lat="44.4740267" lon="10.988165"><ele>133.66666666666666</ele><time>2026-04-24T17:49:42.029Z</time></trkpt><trkpt lat="44.4740933" lon="10.9884233"><ele>133.33333333333334</ele><time>2026-04-24T17:49:43.029Z</time></trkpt><trkpt lat="44.47415" lon="10.9887067"><ele>133.0</ele><time>2026-04-24T17:49:44.028Z</time></trkpt><trkpt lat="44.47422" lon="10.9889833"><ele>131.33333333333334</ele><time>2026-04-24T17:49:45.029Z</time></trkpt><trkpt lat="44.474285" lon="10.9892517"><ele>129.66666666666666</ele><time>2026-04-24T17:49:46.028Z</time></trkpt><trkpt lat="44.4743483" lon="10.9895067"><ele>128.0</ele><time>2026-04-24T17:49:47.029Z</time></trkpt><trkpt lat="44.4744033" lon="10.9897433"><ele>128.0</ele><time>2026-04-24T17:49:48.029Z</time></trkpt><trkpt lat="44.4744583" lon="10.98998"><ele>128.0</ele><time>2026-04-24T17:49:49.029Z</time></trkpt><trkpt lat="44.4745017" lon="10.990205"><ele>128.0</ele><time>2026-04-24T17:49:50.029Z</time></trkpt><trkpt lat="44.4745283" lon="10.9904383"><ele>126.66666666666666</ele><time>2026-04-24T17:49:51.028Z</time></trkpt><trkpt lat="44.47455" lon="10.9906717"><ele>125.33333333333334</ele><time>2026-04-24T17:49:52.029Z</time></trkpt><trkpt lat="44.474565" lon="10.99091"><ele>124.0</ele><time>2026-04-24T17:49:53.029Z</time></trkpt><trkpt lat="44.47458" lon="10.99113"><ele>123.5</ele><time>2026-04-24T17:49:54.029Z</time></trkpt><trkpt lat="44.4745967" lon="10.991325"><ele>123.0</ele><time>2026-04-24T17:49:55.028Z</time></trkpt><trkpt lat="44.4746117" lon="10.9914883"><ele>122.5</ele><time>2026-04-24T17:49:56.029Z</time></trkpt><trkpt lat="44.4746383" lon="10.991625"><ele>122.0</ele><time>2026-04-24T17:49:57.029Z</time></trkpt><trkpt lat="44.474665" lon="10.9917467"><ele>123.8</ele><time>2026-04-24T17:49:58.029Z</time></trkpt><trkpt lat="44.474705" lon="10.9918633"><ele>125.6</ele><time>2026-04-24T17:49:59.028Z</time></trkpt><trkpt lat="44.4747617" lon="10.9919617"><ele>127.39999999999999</ele><time>2026-04-24T17:50:00.029Z</time></trkpt><trkpt lat="44.47484" lon="10.9920517"><ele>129.2</ele><time>2026-04-24T17:50:01.029Z</time></trkpt><trkpt lat="44.4749267" lon="10.99216"><ele>131.0</ele><time>2026-04-24T17:50:02.029Z</time></trkpt><trkpt lat="44.475005" lon="10.992265"><ele>131.0</ele><time>2026-04-24T17:50:03.029Z</time></trkpt><trkpt lat="44.4750733" lon="10.9923517"><ele>131.0</ele><time>2026-04-24T17:50:04.029Z</time></trkpt><trkpt lat="44.4751283" lon="10.9924183"><ele>131.0</ele><time>2026-04-24T17:50:05.029Z</time></trkpt><trkpt lat="44.4752233" lon="10.9924733"><ele>131.0</ele><time>2026-04-24T17:50:07.029Z</time></trkpt><trkpt lat="44.4752883" lon="10.9924"><ele>131.0</ele><time>2026-04-24T17:50:09.028Z</time></trkpt><trkpt lat="44.4753317" lon="10.9923267"><ele>131.0</ele><time>2026-04-24T17:50:11.028Z</time></trkpt><trkpt lat="44.4753767" lon="10.99221"><ele>131.0</ele><time>2026-04-24T17:50:15.029Z</time></trkpt><trkpt lat="44.4754283" lon="10.9920717"><ele>131.0</ele><time>2026-04-24T17:50:17.028Z</time></trkpt><trkpt lat="44.4754633" lon="10.9919867"><ele>131.0</ele><time>2026-04-24T17:50:18.028Z</time></trkpt><trkpt lat="44.4755" lon="10.9919117"><ele>131.0</ele><time>2026-04-24T17:50:19.029Z</time></trkpt><trkpt lat="44.4755333" lon="10.9918283"><ele>131.0</ele><time>2026-04-24T17:50:20.029Z</time></trkpt><trkpt lat="44.47557" lon="10.9917533"><ele>131.0</ele><time>2026-04-24T17:50:21.029Z</time></trkpt><trkpt lat="44.4756233" lon="10.991615"><ele>134.0</ele><time>2026-04-24T17:50:23.029Z</time></trkpt><trkpt lat="44.4756833" lon="10.9915767"><ele>134.0</ele><time>2026-04-24T17:50:25.029Z</time></trkpt><trkpt lat="44.4757483" lon="10.9916183"><ele>134.0</ele><time>2026-04-24T17:50:27.028Z</time></trkpt><trkpt lat="44.47579" lon="10.9916983"><ele>133.0</ele><time>2026-04-24T17:50:29.029Z</time></trkpt></trkseg></trk></gpx>